<?xml version="1.0" encoding="UTF-8" standalone="no" ?>
<gpx xmlns="http://www.topografix.com/GPX/1/1" xmlns:xsi="http://www.w3.org/2001/XMLSchema-instance" xsi:schemaLocation="http://www.topografix.com/GPX/1/1 http://www.topografix.com/GPX/1/1/gpx.xsd" version="1.1" creator="VisuGPX - https://www.visugpx.com">
  <metadata>
    <name>lundi 2015 08</name>
    <desc><![CDATA[cumul aout 2015]]></desc>
  </metadata>
  <trk>
    <name><![CDATA[lundi 2015 08 03]]></name>
    <extensions>
      <line xmlns="http://www.topografix.com/GPX/gpx_style/0/2">
        <color>000000</color>
      </line>
    </extensions>
    <trkseg>
      <trkpt lat="48.83481" lon="2.33268">
        <ele>63.79999923706</ele>
        <time>2015-08-03T17:56:44Z</time>
      </trkpt>
      <trkpt lat="48.835" lon="2.33282">
        <ele>61.20000076294</ele>
        <time>2015-08-03T17:56:50Z</time>
      </trkpt>
      <trkpt lat="48.83519" lon="2.33299">
        <ele>58.400001525879</ele>
        <time>2015-08-03T17:56:55Z</time>
      </trkpt>
      <trkpt lat="48.83536" lon="2.33312">
        <ele>56.20000076294</ele>
        <time>2015-08-03T17:56:59Z</time>
      </trkpt>
      <trkpt lat="48.83551" lon="2.33328">
        <ele>53.20000076294</ele>
        <time>2015-08-03T17:57:03Z</time>
      </trkpt>
      <trkpt lat="48.83569" lon="2.33342">
        <ele>49.20000076294</ele>
        <time>2015-08-03T17:57:07Z</time>
      </trkpt>
      <trkpt lat="48.83589" lon="2.33354">
        <ele>45.20000076294</ele>
        <time>2015-08-03T17:57:11Z</time>
      </trkpt>
      <trkpt lat="48.83593" lon="2.33359">
        <ele>44.79999923706</ele>
        <time>2015-08-03T17:57:12Z</time>
      </trkpt>
      <trkpt lat="48.83606" lon="2.3338">
        <ele>43.400001525879</ele>
        <time>2015-08-03T17:57:16Z</time>
      </trkpt>
      <trkpt lat="48.83626" lon="2.33398">
        <ele>44</ele>
        <time>2015-08-03T17:57:20Z</time>
      </trkpt>
      <trkpt lat="48.83641" lon="2.33417">
        <ele>44.599998474121</ele>
        <time>2015-08-03T17:57:24Z</time>
      </trkpt>
      <trkpt lat="48.83658" lon="2.33435">
        <ele>46.599998474121</ele>
        <time>2015-08-03T17:57:28Z</time>
      </trkpt>
      <trkpt lat="48.83674" lon="2.33448">
        <ele>45.400001525879</ele>
        <time>2015-08-03T17:57:32Z</time>
      </trkpt>
      <trkpt lat="48.83689" lon="2.33464">
        <ele>47</ele>
        <time>2015-08-03T17:57:36Z</time>
      </trkpt>
      <trkpt lat="48.83706" lon="2.33483">
        <ele>49.79999923706</ele>
        <time>2015-08-03T17:57:40Z</time>
      </trkpt>
      <trkpt lat="48.83723" lon="2.33501">
        <ele>49.599998474121</ele>
        <time>2015-08-03T17:57:44Z</time>
      </trkpt>
      <trkpt lat="48.83728" lon="2.33505">
        <ele>49.599998474121</ele>
        <time>2015-08-03T17:57:45Z</time>
      </trkpt>
      <trkpt lat="48.83746" lon="2.33521">
        <ele>49</ele>
        <time>2015-08-03T17:57:49Z</time>
      </trkpt>
      <trkpt lat="48.83763" lon="2.33543">
        <ele>50.400001525879</ele>
        <time>2015-08-03T17:57:54Z</time>
      </trkpt>
      <trkpt lat="48.83783" lon="2.3356">
        <ele>54</ele>
        <time>2015-08-03T17:57:58Z</time>
      </trkpt>
      <trkpt lat="48.83798" lon="2.33582">
        <ele>54</ele>
        <time>2015-08-03T17:58:02Z</time>
      </trkpt>
      <trkpt lat="48.83814" lon="2.33604">
        <ele>54.599998474121</ele>
        <time>2015-08-03T17:58:06Z</time>
      </trkpt>
      <trkpt lat="48.83831" lon="2.33621">
        <ele>54.599998474121</ele>
        <time>2015-08-03T17:58:10Z</time>
      </trkpt>
      <trkpt lat="48.83848" lon="2.33636">
        <ele>53.79999923706</ele>
        <time>2015-08-03T17:58:14Z</time>
      </trkpt>
      <trkpt lat="48.83866" lon="2.33653">
        <ele>52.20000076294</ele>
        <time>2015-08-03T17:58:19Z</time>
      </trkpt>
      <trkpt lat="48.83873" lon="2.33657">
        <ele>51.400001525879</ele>
        <time>2015-08-03T17:58:21Z</time>
      </trkpt>
      <trkpt lat="48.83895" lon="2.33656">
        <ele>50.400001525879</ele>
        <time>2015-08-03T17:58:26Z</time>
      </trkpt>
      <trkpt lat="48.83907" lon="2.33659">
        <ele>50.599998474121</ele>
        <time>2015-08-03T17:58:29Z</time>
      </trkpt>
      <trkpt lat="48.83921" lon="2.33661">
        <ele>50.79999923706</ele>
        <time>2015-08-03T17:58:33Z</time>
      </trkpt>
      <trkpt lat="48.83941" lon="2.33664">
        <ele>52.20000076294</ele>
        <time>2015-08-03T17:58:38Z</time>
      </trkpt>
      <trkpt lat="48.83945" lon="2.33668">
        <ele>52.20000076294</ele>
        <time>2015-08-03T17:58:40Z</time>
      </trkpt>
      <trkpt lat="48.83947" lon="2.33679">
        <ele>51.599998474121</ele>
        <time>2015-08-03T17:58:45Z</time>
      </trkpt>
      <trkpt lat="48.83949" lon="2.33693">
        <ele>50.400001525879</ele>
        <time>2015-08-03T17:58:51Z</time>
      </trkpt>
      <trkpt lat="48.83959" lon="2.33694">
        <ele>49.79999923706</ele>
        <time>2015-08-03T17:58:56Z</time>
      </trkpt>
      <trkpt lat="48.83978" lon="2.33688">
        <ele>48.599998474121</ele>
        <time>2015-08-03T17:59:02Z</time>
      </trkpt>
      <trkpt lat="48.83997" lon="2.33689">
        <ele>48.20000076294</ele>
        <time>2015-08-03T17:59:06Z</time>
      </trkpt>
      <trkpt lat="48.84002" lon="2.3369">
        <ele>48.400001525879</ele>
        <time>2015-08-03T17:59:07Z</time>
      </trkpt>
      <trkpt lat="48.84024" lon="2.33701">
        <ele>47.79999923706</ele>
        <time>2015-08-03T17:59:11Z</time>
      </trkpt>
      <trkpt lat="48.84041" lon="2.3371">
        <ele>47.20000076294</ele>
        <time>2015-08-03T17:59:14Z</time>
      </trkpt>
      <trkpt lat="48.84059" lon="2.33719">
        <ele>46.79999923706</ele>
        <time>2015-08-03T17:59:17Z</time>
      </trkpt>
      <trkpt lat="48.84078" lon="2.33728">
        <ele>46.20000076294</ele>
        <time>2015-08-03T17:59:20Z</time>
      </trkpt>
      <trkpt lat="48.84097" lon="2.33738">
        <ele>45.599998474121</ele>
        <time>2015-08-03T17:59:23Z</time>
      </trkpt>
      <trkpt lat="48.84117" lon="2.33749">
        <ele>44.599998474121</ele>
        <time>2015-08-03T17:59:26Z</time>
      </trkpt>
      <trkpt lat="48.84137" lon="2.3376">
        <ele>43.79999923706</ele>
        <time>2015-08-03T17:59:29Z</time>
      </trkpt>
      <trkpt lat="48.84157" lon="2.33771">
        <ele>43</ele>
        <time>2015-08-03T17:59:32Z</time>
      </trkpt>
      <trkpt lat="48.84177" lon="2.33782">
        <ele>41.79999923706</ele>
        <time>2015-08-03T17:59:35Z</time>
      </trkpt>
      <trkpt lat="48.84196" lon="2.33794">
        <ele>41</ele>
        <time>2015-08-03T17:59:38Z</time>
      </trkpt>
      <trkpt lat="48.84208" lon="2.33796">
        <ele>41.79999923706</ele>
        <time>2015-08-03T17:59:40Z</time>
      </trkpt>
      <trkpt lat="48.84229" lon="2.33801">
        <ele>42</ele>
        <time>2015-08-03T17:59:44Z</time>
      </trkpt>
      <trkpt lat="48.84242" lon="2.33805">
        <ele>44</ele>
        <time>2015-08-03T17:59:48Z</time>
      </trkpt>
      <trkpt lat="48.84248" lon="2.33811">
        <ele>45.599998474121</ele>
        <time>2015-08-03T17:59:51Z</time>
      </trkpt>
      <trkpt lat="48.84254" lon="2.33816">
        <ele>46.400001525879</ele>
        <time>2015-08-03T17:59:53Z</time>
      </trkpt>
      <trkpt lat="48.84274" lon="2.33824">
        <ele>49.20000076294</ele>
        <time>2015-08-03T17:59:57Z</time>
      </trkpt>
      <trkpt lat="48.84283" lon="2.33828">
        <ele>51.599998474121</ele>
        <time>2015-08-03T17:59:59Z</time>
      </trkpt>
      <trkpt lat="48.84304" lon="2.33836">
        <ele>58.79999923706</ele>
        <time>2015-08-03T18:00:03Z</time>
      </trkpt>
      <trkpt lat="48.84314" lon="2.33838">
        <ele>62.599998474121</ele>
        <time>2015-08-03T18:00:05Z</time>
      </trkpt>
      <trkpt lat="48.84332" lon="2.33847">
        <ele>67.199996948242</ele>
        <time>2015-08-03T18:00:08Z</time>
      </trkpt>
      <trkpt lat="48.84352" lon="2.33856">
        <ele>73</ele>
        <time>2015-08-03T18:00:12Z</time>
      </trkpt>
      <trkpt lat="48.84355" lon="2.33856">
        <ele>74.800003051758</ele>
        <time>2015-08-03T18:00:13Z</time>
      </trkpt>
      <trkpt lat="48.84368" lon="2.33864">
        <ele>80.599998474121</ele>
        <time>2015-08-03T18:00:17Z</time>
      </trkpt>
      <trkpt lat="48.84373" lon="2.33863">
        <ele>83.800003051758</ele>
        <time>2015-08-03T18:00:19Z</time>
      </trkpt>
      <trkpt lat="48.84379" lon="2.33862">
        <ele>81.199996948242</ele>
        <time>2015-08-03T18:00:21Z</time>
      </trkpt>
      <trkpt lat="48.84388" lon="2.3386">
        <ele>79</ele>
        <time>2015-08-03T18:00:24Z</time>
      </trkpt>
      <trkpt lat="48.84404" lon="2.3387">
        <ele>76.800003051758</ele>
        <time>2015-08-03T18:00:29Z</time>
      </trkpt>
      <trkpt lat="48.84414" lon="2.33878">
        <ele>74.800003051758</ele>
        <time>2015-08-03T18:00:31Z</time>
      </trkpt>
      <trkpt lat="48.84432" lon="2.33892">
        <ele>74</ele>
        <time>2015-08-03T18:00:34Z</time>
      </trkpt>
      <trkpt lat="48.8445" lon="2.33905">
        <ele>74</ele>
        <time>2015-08-03T18:00:37Z</time>
      </trkpt>
      <trkpt lat="48.84469" lon="2.33918">
        <ele>73.800003051758</ele>
        <time>2015-08-03T18:00:40Z</time>
      </trkpt>
      <trkpt lat="48.84475" lon="2.33922">
        <ele>73.800003051758</ele>
        <time>2015-08-03T18:00:41Z</time>
      </trkpt>
      <trkpt lat="48.84494" lon="2.33932">
        <ele>73</ele>
        <time>2015-08-03T18:00:44Z</time>
      </trkpt>
      <trkpt lat="48.84514" lon="2.33944">
        <ele>71.800003051758</ele>
        <time>2015-08-03T18:00:47Z</time>
      </trkpt>
      <trkpt lat="48.84528" lon="2.33953">
        <ele>71.800003051758</ele>
        <time>2015-08-03T18:00:49Z</time>
      </trkpt>
      <trkpt lat="48.84549" lon="2.33964">
        <ele>71.800003051758</ele>
        <time>2015-08-03T18:00:52Z</time>
      </trkpt>
      <trkpt lat="48.84564" lon="2.33972">
        <ele>71.800003051758</ele>
        <time>2015-08-03T18:00:54Z</time>
      </trkpt>
      <trkpt lat="48.84585" lon="2.33984">
        <ele>72.199996948242</ele>
        <time>2015-08-03T18:00:57Z</time>
      </trkpt>
      <trkpt lat="48.84606" lon="2.33997">
        <ele>71.599998474121</ele>
        <time>2015-08-03T18:01:00Z</time>
      </trkpt>
      <trkpt lat="48.84627" lon="2.3401">
        <ele>68.800003051758</ele>
        <time>2015-08-03T18:01:03Z</time>
      </trkpt>
      <trkpt lat="48.84645" lon="2.3402">
        <ele>69.199996948242</ele>
        <time>2015-08-03T18:01:06Z</time>
      </trkpt>
      <trkpt lat="48.84663" lon="2.3403">
        <ele>67.400001525879</ele>
        <time>2015-08-03T18:01:09Z</time>
      </trkpt>
      <trkpt lat="48.84675" lon="2.34036">
        <ele>66</ele>
        <time>2015-08-03T18:01:11Z</time>
      </trkpt>
      <trkpt lat="48.84692" lon="2.3405">
        <ele>61.79999923706</ele>
        <time>2015-08-03T18:01:14Z</time>
      </trkpt>
      <trkpt lat="48.84709" lon="2.34059">
        <ele>58.599998474121</ele>
        <time>2015-08-03T18:01:17Z</time>
      </trkpt>
      <trkpt lat="48.84732" lon="2.3407">
        <ele>57.400001525879</ele>
        <time>2015-08-03T18:01:21Z</time>
      </trkpt>
      <trkpt lat="48.84748" lon="2.34078">
        <ele>56.599998474121</ele>
        <time>2015-08-03T18:01:24Z</time>
      </trkpt>
      <trkpt lat="48.84769" lon="2.34092">
        <ele>57.79999923706</ele>
        <time>2015-08-03T18:01:28Z</time>
      </trkpt>
      <trkpt lat="48.84787" lon="2.34102">
        <ele>59.599998474121</ele>
        <time>2015-08-03T18:01:31Z</time>
      </trkpt>
      <trkpt lat="48.84806" lon="2.34114">
        <ele>60.599998474121</ele>
        <time>2015-08-03T18:01:34Z</time>
      </trkpt>
      <trkpt lat="48.84825" lon="2.34126">
        <ele>62.599998474121</ele>
        <time>2015-08-03T18:01:37Z</time>
      </trkpt>
      <trkpt lat="48.84837" lon="2.34135">
        <ele>63.599998474121</ele>
        <time>2015-08-03T18:01:39Z</time>
      </trkpt>
      <trkpt lat="48.84857" lon="2.34147">
        <ele>64.199996948242</ele>
        <time>2015-08-03T18:01:42Z</time>
      </trkpt>
      <trkpt lat="48.84877" lon="2.34158">
        <ele>64.400001525879</ele>
        <time>2015-08-03T18:01:45Z</time>
      </trkpt>
      <trkpt lat="48.84897" lon="2.3417">
        <ele>65.800003051758</ele>
        <time>2015-08-03T18:01:48Z</time>
      </trkpt>
      <trkpt lat="48.84918" lon="2.34184">
        <ele>66.599998474121</ele>
        <time>2015-08-03T18:01:51Z</time>
      </trkpt>
      <trkpt lat="48.8494" lon="2.34198">
        <ele>67.800003051758</ele>
        <time>2015-08-03T18:01:54Z</time>
      </trkpt>
      <trkpt lat="48.84962" lon="2.34213">
        <ele>67.800003051758</ele>
        <time>2015-08-03T18:01:57Z</time>
      </trkpt>
      <trkpt lat="48.84982" lon="2.34227">
        <ele>67.400001525879</ele>
        <time>2015-08-03T18:02:00Z</time>
      </trkpt>
      <trkpt lat="48.85002" lon="2.34239">
        <ele>66</ele>
        <time>2015-08-03T18:02:04Z</time>
      </trkpt>
      <trkpt lat="48.85007" lon="2.34241">
        <ele>66</ele>
        <time>2015-08-03T18:02:06Z</time>
      </trkpt>
      <trkpt lat="48.85016" lon="2.34251">
        <ele>62.400001525879</ele>
        <time>2015-08-03T18:02:10Z</time>
      </trkpt>
      <trkpt lat="48.85019" lon="2.34253">
        <ele>62.20000076294</ele>
        <time>2015-08-03T18:02:11Z</time>
      </trkpt>
      <trkpt lat="48.85026" lon="2.34258">
        <ele>59.79999923706</ele>
        <time>2015-08-03T18:02:13Z</time>
      </trkpt>
      <trkpt lat="48.85045" lon="2.34265">
        <ele>56.599998474121</ele>
        <time>2015-08-03T18:02:17Z</time>
      </trkpt>
      <trkpt lat="48.85061" lon="2.34277">
        <ele>49.599998474121</ele>
        <time>2015-08-03T18:02:20Z</time>
      </trkpt>
      <trkpt lat="48.85078" lon="2.34288">
        <ele>47.400001525879</ele>
        <time>2015-08-03T18:02:23Z</time>
      </trkpt>
      <trkpt lat="48.851" lon="2.34303">
        <ele>45.400001525879</ele>
        <time>2015-08-03T18:02:27Z</time>
      </trkpt>
      <trkpt lat="48.85119" lon="2.34311">
        <ele>44</ele>
        <time>2015-08-03T18:02:31Z</time>
      </trkpt>
      <trkpt lat="48.8513" lon="2.34316">
        <ele>40.599998474121</ele>
        <time>2015-08-03T18:02:36Z</time>
      </trkpt>
      <trkpt lat="48.85131" lon="2.34318">
        <ele>39</ele>
        <time>2015-08-03T18:02:38Z</time>
      </trkpt>
      <trkpt lat="48.85151" lon="2.34322">
        <ele>38.20000076294</ele>
        <time>2015-08-03T18:03:02Z</time>
      </trkpt>
      <trkpt lat="48.85173" lon="2.34335">
        <ele>38.79999923706</ele>
        <time>2015-08-03T18:03:06Z</time>
      </trkpt>
      <trkpt lat="48.85195" lon="2.34346">
        <ele>38.599998474121</ele>
        <time>2015-08-03T18:03:10Z</time>
      </trkpt>
      <trkpt lat="48.85213" lon="2.34353">
        <ele>39</ele>
        <time>2015-08-03T18:03:13Z</time>
      </trkpt>
      <trkpt lat="48.85233" lon="2.34361">
        <ele>39.599998474121</ele>
        <time>2015-08-03T18:03:16Z</time>
      </trkpt>
      <trkpt lat="48.85254" lon="2.34369">
        <ele>41.599998474121</ele>
        <time>2015-08-03T18:03:19Z</time>
      </trkpt>
      <trkpt lat="48.85276" lon="2.34377">
        <ele>42.20000076294</ele>
        <time>2015-08-03T18:03:22Z</time>
      </trkpt>
      <trkpt lat="48.85296" lon="2.34387">
        <ele>44</ele>
        <time>2015-08-03T18:03:25Z</time>
      </trkpt>
      <trkpt lat="48.85316" lon="2.34392">
        <ele>44.599998474121</ele>
        <time>2015-08-03T18:03:28Z</time>
      </trkpt>
      <trkpt lat="48.85338" lon="2.34406">
        <ele>42.400001525879</ele>
        <time>2015-08-03T18:03:32Z</time>
      </trkpt>
      <trkpt lat="48.85344" lon="2.34412">
        <ele>40.400001525879</ele>
        <time>2015-08-03T18:03:33Z</time>
      </trkpt>
      <trkpt lat="48.8536" lon="2.34431">
        <ele>36</ele>
        <time>2015-08-03T18:03:36Z</time>
      </trkpt>
      <trkpt lat="48.8538" lon="2.34446">
        <ele>34</ele>
        <time>2015-08-03T18:03:40Z</time>
      </trkpt>
      <trkpt lat="48.8539" lon="2.34451">
        <ele>33.79999923706</ele>
        <time>2015-08-03T18:03:42Z</time>
      </trkpt>
      <trkpt lat="48.85398" lon="2.3446">
        <ele>33.20000076294</ele>
        <time>2015-08-03T18:03:44Z</time>
      </trkpt>
      <trkpt lat="48.85414" lon="2.34476">
        <ele>32.400001525879</ele>
        <time>2015-08-03T18:03:48Z</time>
      </trkpt>
      <trkpt lat="48.85425" lon="2.34486">
        <ele>32</ele>
        <time>2015-08-03T18:03:51Z</time>
      </trkpt>
      <trkpt lat="48.85441" lon="2.34504">
        <ele>31.200000762939</ele>
        <time>2015-08-03T18:03:56Z</time>
      </trkpt>
      <trkpt lat="48.85458" lon="2.34522">
        <ele>31.200000762939</ele>
        <time>2015-08-03T18:04:01Z</time>
      </trkpt>
      <trkpt lat="48.85461" lon="2.34523">
        <ele>31.200000762939</ele>
        <time>2015-08-03T18:04:02Z</time>
      </trkpt>
      <trkpt lat="48.85473" lon="2.34521">
        <ele>31.39999961853</ele>
        <time>2015-08-03T18:04:05Z</time>
      </trkpt>
      <trkpt lat="48.85485" lon="2.3453">
        <ele>30.200000762939</ele>
        <time>2015-08-03T18:04:09Z</time>
      </trkpt>
      <trkpt lat="48.85495" lon="2.3454">
        <ele>28.200000762939</ele>
        <time>2015-08-03T18:04:12Z</time>
      </trkpt>
      <trkpt lat="48.85508" lon="2.34554">
        <ele>25.200000762939</ele>
        <time>2015-08-03T18:04:17Z</time>
      </trkpt>
      <trkpt lat="48.85525" lon="2.34571">
        <ele>22.200000762939</ele>
        <time>2015-08-03T18:04:23Z</time>
      </trkpt>
      <trkpt lat="48.8553" lon="2.34573">
        <ele>21.799999237061</ele>
        <time>2015-08-03T18:04:24Z</time>
      </trkpt>
      <trkpt lat="48.85547" lon="2.34587">
        <ele>22.39999961853</ele>
        <time>2015-08-03T18:04:29Z</time>
      </trkpt>
      <trkpt lat="48.85566" lon="2.34598">
        <ele>23.60000038147</ele>
        <time>2015-08-03T18:04:34Z</time>
      </trkpt>
      <trkpt lat="48.85585" lon="2.34607">
        <ele>22.200000762939</ele>
        <time>2015-08-03T18:04:41Z</time>
      </trkpt>
      <trkpt lat="48.85603" lon="2.34616">
        <ele>21</ele>
        <time>2015-08-03T18:04:46Z</time>
      </trkpt>
      <trkpt lat="48.85614" lon="2.34623">
        <ele>19.39999961853</ele>
        <time>2015-08-03T18:04:50Z</time>
      </trkpt>
      <trkpt lat="48.85628" lon="2.34639">
        <ele>21.200000762939</ele>
        <time>2015-08-03T18:04:56Z</time>
      </trkpt>
      <trkpt lat="48.85648" lon="2.34652">
        <ele>21.39999961853</ele>
        <time>2015-08-03T18:05:02Z</time>
      </trkpt>
      <trkpt lat="48.85665" lon="2.34663">
        <ele>25</ele>
        <time>2015-08-03T18:05:06Z</time>
      </trkpt>
      <trkpt lat="48.85685" lon="2.34669">
        <ele>28.39999961853</ele>
        <time>2015-08-03T18:05:11Z</time>
      </trkpt>
      <trkpt lat="48.85703" lon="2.3468">
        <ele>28.39999961853</ele>
        <time>2015-08-03T18:05:16Z</time>
      </trkpt>
      <trkpt lat="48.85722" lon="2.34687">
        <ele>29.200000762939</ele>
        <time>2015-08-03T18:05:22Z</time>
      </trkpt>
      <trkpt lat="48.85725" lon="2.34685">
        <ele>29.39999961853</ele>
        <time>2015-08-03T18:05:23Z</time>
      </trkpt>
      <trkpt lat="48.85729" lon="2.3468">
        <ele>30</ele>
        <time>2015-08-03T18:05:28Z</time>
      </trkpt>
      <trkpt lat="48.85747" lon="2.34681">
        <ele>30.200000762939</ele>
        <time>2015-08-03T18:05:45Z</time>
      </trkpt>
      <trkpt lat="48.85759" lon="2.34701">
        <ele>31.799999237061</ele>
        <time>2015-08-03T18:05:58Z</time>
      </trkpt>
      <trkpt lat="48.85759" lon="2.34704">
        <ele>31.799999237061</ele>
        <time>2015-08-03T18:06:00Z</time>
      </trkpt>
      <trkpt lat="48.85748" lon="2.34724">
        <ele>33.20000076294</ele>
        <time>2015-08-03T18:06:17Z</time>
      </trkpt>
      <trkpt lat="48.85748" lon="2.34725">
        <ele>33.20000076294</ele>
        <time>2015-08-03T18:06:18Z</time>
      </trkpt>
      <trkpt lat="48.85743" lon="2.34737">
        <ele>34.20000076294</ele>
        <time>2015-08-03T18:08:17Z</time>
      </trkpt>
      <trkpt lat="48.85745" lon="2.34741">
        <ele>37</ele>
        <time>2015-08-03T18:10:03Z</time>
      </trkpt>
      <trkpt lat="48.8574" lon="2.34737">
        <ele>35.20000076294</ele>
        <time>2015-08-03T18:12:25Z</time>
      </trkpt>
      <trkpt lat="48.85746" lon="2.34739">
        <ele>37</ele>
        <time>2015-08-03T18:13:38Z</time>
      </trkpt>
      <trkpt lat="48.85746" lon="2.34732">
        <ele>35.400001525879</ele>
        <time>2015-08-03T18:16:10Z</time>
      </trkpt>
      <trkpt lat="48.85736" lon="2.34745">
        <ele>36.79999923706</ele>
        <time>2015-08-03T18:18:23Z</time>
      </trkpt>
      <trkpt lat="48.85745" lon="2.34734">
        <ele>36.20000076294</ele>
        <time>2015-08-03T18:20:30Z</time>
      </trkpt>
      <trkpt lat="48.85742" lon="2.3471">
        <ele>35.79999923706</ele>
        <time>2015-08-03T18:20:56Z</time>
      </trkpt>
      <trkpt lat="48.85739" lon="2.34705">
        <ele>35.79999923706</ele>
        <time>2015-08-03T18:20:58Z</time>
      </trkpt>
      <trkpt lat="48.85728" lon="2.34705">
        <ele>35.599998474121</ele>
        <time>2015-08-03T18:21:03Z</time>
      </trkpt>
      <trkpt lat="48.85718" lon="2.34728">
        <ele>34.599998474121</ele>
        <time>2015-08-03T18:21:21Z</time>
      </trkpt>
      <trkpt lat="48.85709" lon="2.34754">
        <ele>34.20000076294</ele>
        <time>2015-08-03T18:21:27Z</time>
      </trkpt>
      <trkpt lat="48.857" lon="2.34779">
        <ele>33.400001525879</ele>
        <time>2015-08-03T18:21:32Z</time>
      </trkpt>
      <trkpt lat="48.85694" lon="2.34807">
        <ele>31.39999961853</ele>
        <time>2015-08-03T18:21:36Z</time>
      </trkpt>
      <trkpt lat="48.85684" lon="2.34836">
        <ele>30.60000038147</ele>
        <time>2015-08-03T18:21:41Z</time>
      </trkpt>
      <trkpt lat="48.85675" lon="2.34862">
        <ele>33</ele>
        <time>2015-08-03T18:21:46Z</time>
      </trkpt>
      <trkpt lat="48.85667" lon="2.34889">
        <ele>33.400001525879</ele>
        <time>2015-08-03T18:21:51Z</time>
      </trkpt>
      <trkpt lat="48.85657" lon="2.34918">
        <ele>33.400001525879</ele>
        <time>2015-08-03T18:21:56Z</time>
      </trkpt>
      <trkpt lat="48.85647" lon="2.34947">
        <ele>33.400001525879</ele>
        <time>2015-08-03T18:22:01Z</time>
      </trkpt>
      <trkpt lat="48.85638" lon="2.34973">
        <ele>33.599998474121</ele>
        <time>2015-08-03T18:22:05Z</time>
      </trkpt>
      <trkpt lat="48.85631" lon="2.34993">
        <ele>33.599998474121</ele>
        <time>2015-08-03T18:22:08Z</time>
      </trkpt>
      <trkpt lat="48.8562" lon="2.3502">
        <ele>33.400001525879</ele>
        <time>2015-08-03T18:22:12Z</time>
      </trkpt>
      <trkpt lat="48.85613" lon="2.35051">
        <ele>30.39999961853</ele>
        <time>2015-08-03T18:22:16Z</time>
      </trkpt>
      <trkpt lat="48.8561" lon="2.35057">
        <ele>29.60000038147</ele>
        <time>2015-08-03T18:22:17Z</time>
      </trkpt>
      <trkpt lat="48.85603" lon="2.35076">
        <ele>28.60000038147</ele>
        <time>2015-08-03T18:22:20Z</time>
      </trkpt>
      <trkpt lat="48.85599" lon="2.35089">
        <ele>28.200000762939</ele>
        <time>2015-08-03T18:22:22Z</time>
      </trkpt>
      <trkpt lat="48.85589" lon="2.35116">
        <ele>28.39999961853</ele>
        <time>2015-08-03T18:22:26Z</time>
      </trkpt>
      <trkpt lat="48.85577" lon="2.3514">
        <ele>28.39999961853</ele>
        <time>2015-08-03T18:22:30Z</time>
      </trkpt>
      <trkpt lat="48.85566" lon="2.35166">
        <ele>28</ele>
        <time>2015-08-03T18:22:34Z</time>
      </trkpt>
      <trkpt lat="48.85555" lon="2.35193">
        <ele>27.799999237061</ele>
        <time>2015-08-03T18:22:38Z</time>
      </trkpt>
      <trkpt lat="48.85545" lon="2.3522">
        <ele>26.799999237061</ele>
        <time>2015-08-03T18:22:42Z</time>
      </trkpt>
      <trkpt lat="48.85539" lon="2.35232">
        <ele>26</ele>
        <time>2015-08-03T18:22:44Z</time>
      </trkpt>
      <trkpt lat="48.8553" lon="2.35254">
        <ele>25.60000038147</ele>
        <time>2015-08-03T18:22:48Z</time>
      </trkpt>
      <trkpt lat="48.8552" lon="2.3528">
        <ele>26.200000762939</ele>
        <time>2015-08-03T18:22:53Z</time>
      </trkpt>
      <trkpt lat="48.85517" lon="2.35289">
        <ele>27</ele>
        <time>2015-08-03T18:22:56Z</time>
      </trkpt>
      <trkpt lat="48.85499" lon="2.3529">
        <ele>28.39999961853</ele>
        <time>2015-08-03T18:23:08Z</time>
      </trkpt>
      <trkpt lat="48.85491" lon="2.35303">
        <ele>27.200000762939</ele>
        <time>2015-08-03T18:23:13Z</time>
      </trkpt>
      <trkpt lat="48.85481" lon="2.35327">
        <ele>27.200000762939</ele>
        <time>2015-08-03T18:23:21Z</time>
      </trkpt>
      <trkpt lat="48.85466" lon="2.35349">
        <ele>27</ele>
        <time>2015-08-03T18:23:27Z</time>
      </trkpt>
      <trkpt lat="48.85463" lon="2.35376">
        <ele>26.60000038147</ele>
        <time>2015-08-03T18:23:38Z</time>
      </trkpt>
      <trkpt lat="48.85452" lon="2.354">
        <ele>27.200000762939</ele>
        <time>2015-08-03T18:23:43Z</time>
      </trkpt>
      <trkpt lat="48.85441" lon="2.35425">
        <ele>27.799999237061</ele>
        <time>2015-08-03T18:23:47Z</time>
      </trkpt>
      <trkpt lat="48.85429" lon="2.35449">
        <ele>27</ele>
        <time>2015-08-03T18:23:51Z</time>
      </trkpt>
      <trkpt lat="48.85418" lon="2.35474">
        <ele>26.200000762939</ele>
        <time>2015-08-03T18:23:55Z</time>
      </trkpt>
      <trkpt lat="48.85405" lon="2.35499">
        <ele>24.60000038147</ele>
        <time>2015-08-03T18:24:00Z</time>
      </trkpt>
      <trkpt lat="48.85395" lon="2.35526">
        <ele>24.60000038147</ele>
        <time>2015-08-03T18:24:05Z</time>
      </trkpt>
      <trkpt lat="48.85387" lon="2.35554">
        <ele>24.799999237061</ele>
        <time>2015-08-03T18:24:11Z</time>
      </trkpt>
      <trkpt lat="48.85378" lon="2.35582">
        <ele>25.200000762939</ele>
        <time>2015-08-03T18:24:19Z</time>
      </trkpt>
      <trkpt lat="48.85371" lon="2.35608">
        <ele>24.39999961853</ele>
        <time>2015-08-03T18:24:24Z</time>
      </trkpt>
      <trkpt lat="48.85362" lon="2.35637">
        <ele>25</ele>
        <time>2015-08-03T18:24:30Z</time>
      </trkpt>
      <trkpt lat="48.85351" lon="2.35665">
        <ele>25.200000762939</ele>
        <time>2015-08-03T18:24:36Z</time>
      </trkpt>
      <trkpt lat="48.85343" lon="2.3569">
        <ele>24.60000038147</ele>
        <time>2015-08-03T18:24:41Z</time>
      </trkpt>
      <trkpt lat="48.85333" lon="2.35716">
        <ele>23.60000038147</ele>
        <time>2015-08-03T18:24:46Z</time>
      </trkpt>
      <trkpt lat="48.85324" lon="2.35741">
        <ele>23.799999237061</ele>
        <time>2015-08-03T18:24:50Z</time>
      </trkpt>
      <trkpt lat="48.85316" lon="2.35766">
        <ele>22.799999237061</ele>
        <time>2015-08-03T18:24:54Z</time>
      </trkpt>
      <trkpt lat="48.85306" lon="2.35796">
        <ele>21.39999961853</ele>
        <time>2015-08-03T18:24:58Z</time>
      </trkpt>
      <trkpt lat="48.85297" lon="2.35819">
        <ele>21.60000038147</ele>
        <time>2015-08-03T18:25:01Z</time>
      </trkpt>
      <trkpt lat="48.85286" lon="2.3585">
        <ele>21.799999237061</ele>
        <time>2015-08-03T18:25:05Z</time>
      </trkpt>
      <trkpt lat="48.85277" lon="2.35874">
        <ele>22.200000762939</ele>
        <time>2015-08-03T18:25:08Z</time>
      </trkpt>
      <trkpt lat="48.85271" lon="2.35889">
        <ele>23</ele>
        <time>2015-08-03T18:25:10Z</time>
      </trkpt>
      <trkpt lat="48.85259" lon="2.35921">
        <ele>23.60000038147</ele>
        <time>2015-08-03T18:25:14Z</time>
      </trkpt>
      <trkpt lat="48.85249" lon="2.3595">
        <ele>24</ele>
        <time>2015-08-03T18:25:18Z</time>
      </trkpt>
      <trkpt lat="48.85242" lon="2.35971">
        <ele>25.39999961853</ele>
        <time>2015-08-03T18:25:21Z</time>
      </trkpt>
      <trkpt lat="48.85232" lon="2.35996">
        <ele>27.39999961853</ele>
        <time>2015-08-03T18:25:25Z</time>
      </trkpt>
      <trkpt lat="48.85222" lon="2.36023">
        <ele>28.39999961853</ele>
        <time>2015-08-03T18:25:29Z</time>
      </trkpt>
      <trkpt lat="48.8521" lon="2.3605">
        <ele>29.39999961853</ele>
        <time>2015-08-03T18:25:33Z</time>
      </trkpt>
      <trkpt lat="48.85204" lon="2.36063">
        <ele>30</ele>
        <time>2015-08-03T18:25:35Z</time>
      </trkpt>
      <trkpt lat="48.85188" lon="2.36087">
        <ele>30.39999961853</ele>
        <time>2015-08-03T18:25:39Z</time>
      </trkpt>
      <trkpt lat="48.85183" lon="2.36092">
        <ele>30.39999961853</ele>
        <time>2015-08-03T18:25:40Z</time>
      </trkpt>
      <trkpt lat="48.85163" lon="2.36107">
        <ele>30.799999237061</ele>
        <time>2015-08-03T18:25:44Z</time>
      </trkpt>
      <trkpt lat="48.85157" lon="2.36109">
        <ele>31.39999961853</ele>
        <time>2015-08-03T18:25:45Z</time>
      </trkpt>
      <trkpt lat="48.85138" lon="2.36115">
        <ele>31.60000038147</ele>
        <time>2015-08-03T18:25:48Z</time>
      </trkpt>
      <trkpt lat="48.85118" lon="2.36119">
        <ele>30.200000762939</ele>
        <time>2015-08-03T18:25:52Z</time>
      </trkpt>
      <trkpt lat="48.851" lon="2.36119">
        <ele>28.200000762939</ele>
        <time>2015-08-03T18:25:56Z</time>
      </trkpt>
      <trkpt lat="48.8508" lon="2.36117">
        <ele>27.60000038147</ele>
        <time>2015-08-03T18:26:00Z</time>
      </trkpt>
      <trkpt lat="48.85057" lon="2.36119">
        <ele>27.39999961853</ele>
        <time>2015-08-03T18:26:04Z</time>
      </trkpt>
      <trkpt lat="48.85036" lon="2.36118">
        <ele>27.799999237061</ele>
        <time>2015-08-03T18:26:08Z</time>
      </trkpt>
      <trkpt lat="48.85016" lon="2.3612">
        <ele>27.60000038147</ele>
        <time>2015-08-03T18:26:12Z</time>
      </trkpt>
      <trkpt lat="48.85005" lon="2.36124">
        <ele>27.200000762939</ele>
        <time>2015-08-03T18:26:14Z</time>
      </trkpt>
      <trkpt lat="48.84985" lon="2.3613">
        <ele>27.39999961853</ele>
        <time>2015-08-03T18:26:18Z</time>
      </trkpt>
      <trkpt lat="48.84965" lon="2.36139">
        <ele>26.799999237061</ele>
        <time>2015-08-03T18:26:22Z</time>
      </trkpt>
      <trkpt lat="48.84949" lon="2.36151">
        <ele>26.39999961853</ele>
        <time>2015-08-03T18:26:25Z</time>
      </trkpt>
      <trkpt lat="48.84932" lon="2.36169">
        <ele>26.200000762939</ele>
        <time>2015-08-03T18:26:28Z</time>
      </trkpt>
      <trkpt lat="48.84913" lon="2.36185">
        <ele>25.799999237061</ele>
        <time>2015-08-03T18:26:31Z</time>
      </trkpt>
      <trkpt lat="48.84895" lon="2.36207">
        <ele>25.39999961853</ele>
        <time>2015-08-03T18:26:34Z</time>
      </trkpt>
      <trkpt lat="48.84875" lon="2.36239">
        <ele>25.39999961853</ele>
        <time>2015-08-03T18:26:37Z</time>
      </trkpt>
      <trkpt lat="48.84756" lon="2.36446">
        <ele>56</ele>
        <time>2015-08-03T18:27:02Z</time>
      </trkpt>
      <trkpt lat="48.84737" lon="2.36464">
        <ele>60.20000076294</ele>
        <time>2015-08-03T18:27:06Z</time>
      </trkpt>
      <trkpt lat="48.84736" lon="2.36468">
        <ele>60.400001525879</ele>
        <time>2015-08-03T18:27:07Z</time>
      </trkpt>
      <trkpt lat="48.84726" lon="2.36491">
        <ele>59.599998474121</ele>
        <time>2015-08-03T18:27:15Z</time>
      </trkpt>
      <trkpt lat="48.84727" lon="2.36499">
        <ele>55.400001525879</ele>
        <time>2015-08-03T18:27:20Z</time>
      </trkpt>
      <trkpt lat="48.84711" lon="2.36495">
        <ele>39.400001525879</ele>
        <time>2015-08-03T18:28:08Z</time>
      </trkpt>
      <trkpt lat="48.84693" lon="2.36507">
        <ele>38.79999923706</ele>
        <time>2015-08-03T18:28:16Z</time>
      </trkpt>
      <trkpt lat="48.84676" lon="2.36524">
        <ele>37.400001525879</ele>
        <time>2015-08-03T18:28:22Z</time>
      </trkpt>
      <trkpt lat="48.84656" lon="2.36542">
        <ele>36.599998474121</ele>
        <time>2015-08-03T18:28:27Z</time>
      </trkpt>
      <trkpt lat="48.84639" lon="2.36557">
        <ele>36.400001525879</ele>
        <time>2015-08-03T18:28:31Z</time>
      </trkpt>
      <trkpt lat="48.84622" lon="2.36573">
        <ele>34.20000076294</ele>
        <time>2015-08-03T18:28:35Z</time>
      </trkpt>
      <trkpt lat="48.84604" lon="2.36594">
        <ele>32.79999923706</ele>
        <time>2015-08-03T18:28:39Z</time>
      </trkpt>
      <trkpt lat="48.84589" lon="2.36611">
        <ele>31.799999237061</ele>
        <time>2015-08-03T18:28:42Z</time>
      </trkpt>
      <trkpt lat="48.84573" lon="2.36629">
        <ele>31.200000762939</ele>
        <time>2015-08-03T18:28:45Z</time>
      </trkpt>
      <trkpt lat="48.84556" lon="2.36649">
        <ele>30.39999961853</ele>
        <time>2015-08-03T18:28:48Z</time>
      </trkpt>
      <trkpt lat="48.84539" lon="2.36671">
        <ele>29.39999961853</ele>
        <time>2015-08-03T18:28:51Z</time>
      </trkpt>
      <trkpt lat="48.84523" lon="2.36694">
        <ele>28.39999961853</ele>
        <time>2015-08-03T18:28:54Z</time>
      </trkpt>
      <trkpt lat="48.84506" lon="2.36718">
        <ele>27.60000038147</ele>
        <time>2015-08-03T18:28:57Z</time>
      </trkpt>
      <trkpt lat="48.84492" lon="2.36739">
        <ele>27.200000762939</ele>
        <time>2015-08-03T18:29:00Z</time>
      </trkpt>
      <trkpt lat="48.84478" lon="2.36757">
        <ele>27.200000762939</ele>
        <time>2015-08-03T18:29:03Z</time>
      </trkpt>
      <trkpt lat="48.84462" lon="2.3678">
        <ele>27.60000038147</ele>
        <time>2015-08-03T18:29:07Z</time>
      </trkpt>
      <trkpt lat="48.84447" lon="2.36801">
        <ele>28.39999961853</ele>
        <time>2015-08-03T18:29:11Z</time>
      </trkpt>
      <trkpt lat="48.84434" lon="2.36822">
        <ele>28</ele>
        <time>2015-08-03T18:29:15Z</time>
      </trkpt>
      <trkpt lat="48.84421" lon="2.36843">
        <ele>28.60000038147</ele>
        <time>2015-08-03T18:29:19Z</time>
      </trkpt>
      <trkpt lat="48.8441" lon="2.36866">
        <ele>28.200000762939</ele>
        <time>2015-08-03T18:29:25Z</time>
      </trkpt>
      <trkpt lat="48.84403" lon="2.36892">
        <ele>28.799999237061</ele>
        <time>2015-08-03T18:29:32Z</time>
      </trkpt>
      <trkpt lat="48.84402" lon="2.36895">
        <ele>29.799999237061</ele>
        <time>2015-08-03T18:29:33Z</time>
      </trkpt>
      <trkpt lat="48.84398" lon="2.36905">
        <ele>31.200000762939</ele>
        <time>2015-08-03T18:29:36Z</time>
      </trkpt>
      <trkpt lat="48.84384" lon="2.36928">
        <ele>30.799999237061</ele>
        <time>2015-08-03T18:29:44Z</time>
      </trkpt>
      <trkpt lat="48.84382" lon="2.36931">
        <ele>30.799999237061</ele>
        <time>2015-08-03T18:29:45Z</time>
      </trkpt>
      <trkpt lat="48.84368" lon="2.3695">
        <ele>30.200000762939</ele>
        <time>2015-08-03T18:29:50Z</time>
      </trkpt>
      <trkpt lat="48.8435" lon="2.36967">
        <ele>29.799999237061</ele>
        <time>2015-08-03T18:29:54Z</time>
      </trkpt>
      <trkpt lat="48.84331" lon="2.3698">
        <ele>29.39999961853</ele>
        <time>2015-08-03T18:29:58Z</time>
      </trkpt>
      <trkpt lat="48.84318" lon="2.37001">
        <ele>29.39999961853</ele>
        <time>2015-08-03T18:30:02Z</time>
      </trkpt>
      <trkpt lat="48.84303" lon="2.37018">
        <ele>29</ele>
        <time>2015-08-03T18:30:06Z</time>
      </trkpt>
      <trkpt lat="48.84291" lon="2.37032">
        <ele>29.799999237061</ele>
        <time>2015-08-03T18:30:10Z</time>
      </trkpt>
      <trkpt lat="48.84279" lon="2.37053">
        <ele>30.60000038147</ele>
        <time>2015-08-03T18:30:15Z</time>
      </trkpt>
      <trkpt lat="48.84277" lon="2.37058">
        <ele>30.39999961853</ele>
        <time>2015-08-03T18:30:16Z</time>
      </trkpt>
      <trkpt lat="48.8426" lon="2.3708">
        <ele>30</ele>
        <time>2015-08-03T18:30:21Z</time>
      </trkpt>
      <trkpt lat="48.84253" lon="2.37091">
        <ele>30.60000038147</ele>
        <time>2015-08-03T18:30:23Z</time>
      </trkpt>
      <trkpt lat="48.84238" lon="2.3711">
        <ele>31</ele>
        <time>2015-08-03T18:30:27Z</time>
      </trkpt>
      <trkpt lat="48.84224" lon="2.37132">
        <ele>28.200000762939</ele>
        <time>2015-08-03T18:30:32Z</time>
      </trkpt>
      <trkpt lat="48.84216" lon="2.37143">
        <ele>27.799999237061</ele>
        <time>2015-08-03T18:30:35Z</time>
      </trkpt>
      <trkpt lat="48.84207" lon="2.3716">
        <ele>27.60000038147</ele>
        <time>2015-08-03T18:30:39Z</time>
      </trkpt>
      <trkpt lat="48.84203" lon="2.37168">
        <ele>28</ele>
        <time>2015-08-03T18:30:41Z</time>
      </trkpt>
      <trkpt lat="48.84189" lon="2.37185">
        <ele>27.200000762939</ele>
        <time>2015-08-03T18:30:46Z</time>
      </trkpt>
      <trkpt lat="48.84173" lon="2.37205">
        <ele>28.799999237061</ele>
        <time>2015-08-03T18:30:51Z</time>
      </trkpt>
      <trkpt lat="48.8417" lon="2.37208">
        <ele>29.39999961853</ele>
        <time>2015-08-03T18:30:52Z</time>
      </trkpt>
      <trkpt lat="48.84161" lon="2.37219">
        <ele>30.39999961853</ele>
        <time>2015-08-03T18:30:55Z</time>
      </trkpt>
      <trkpt lat="48.84149" lon="2.37238">
        <ele>30.60000038147</ele>
        <time>2015-08-03T18:31:00Z</time>
      </trkpt>
      <trkpt lat="48.84134" lon="2.37255">
        <ele>30.799999237061</ele>
        <time>2015-08-03T18:31:04Z</time>
      </trkpt>
      <trkpt lat="48.84119" lon="2.37272">
        <ele>29.799999237061</ele>
        <time>2015-08-03T18:31:08Z</time>
      </trkpt>
      <trkpt lat="48.84104" lon="2.37292">
        <ele>29.200000762939</ele>
        <time>2015-08-03T18:31:12Z</time>
      </trkpt>
      <trkpt lat="48.84088" lon="2.37312">
        <ele>29</ele>
        <time>2015-08-03T18:31:16Z</time>
      </trkpt>
      <trkpt lat="48.84071" lon="2.37331">
        <ele>29.200000762939</ele>
        <time>2015-08-03T18:31:20Z</time>
      </trkpt>
      <trkpt lat="48.8406" lon="2.37342">
        <ele>29</ele>
        <time>2015-08-03T18:31:23Z</time>
      </trkpt>
      <trkpt lat="48.84048" lon="2.37353">
        <ele>29.200000762939</ele>
        <time>2015-08-03T18:31:26Z</time>
      </trkpt>
      <trkpt lat="48.84032" lon="2.3737">
        <ele>30</ele>
        <time>2015-08-03T18:31:30Z</time>
      </trkpt>
      <trkpt lat="48.84014" lon="2.37387">
        <ele>31.60000038147</ele>
        <time>2015-08-03T18:31:34Z</time>
      </trkpt>
      <trkpt lat="48.83997" lon="2.37405">
        <ele>32.20000076294</ele>
        <time>2015-08-03T18:31:38Z</time>
      </trkpt>
      <trkpt lat="48.83983" lon="2.37427">
        <ele>30.799999237061</ele>
        <time>2015-08-03T18:31:42Z</time>
      </trkpt>
      <trkpt lat="48.83969" lon="2.37449">
        <ele>29.799999237061</ele>
        <time>2015-08-03T18:31:46Z</time>
      </trkpt>
      <trkpt lat="48.83953" lon="2.37469">
        <ele>28.39999961853</ele>
        <time>2015-08-03T18:31:51Z</time>
      </trkpt>
      <trkpt lat="48.8395" lon="2.37472">
        <ele>27.799999237061</ele>
        <time>2015-08-03T18:31:52Z</time>
      </trkpt>
      <trkpt lat="48.83935" lon="2.37487">
        <ele>27</ele>
        <time>2015-08-03T18:31:58Z</time>
      </trkpt>
      <trkpt lat="48.83922" lon="2.37509">
        <ele>29.39999961853</ele>
        <time>2015-08-03T18:32:07Z</time>
      </trkpt>
      <trkpt lat="48.83908" lon="2.3753">
        <ele>27.799999237061</ele>
        <time>2015-08-03T18:32:14Z</time>
      </trkpt>
      <trkpt lat="48.83892" lon="2.37546">
        <ele>29.799999237061</ele>
        <time>2015-08-03T18:32:19Z</time>
      </trkpt>
      <trkpt lat="48.83876" lon="2.37565">
        <ele>32.599998474121</ele>
        <time>2015-08-03T18:32:25Z</time>
      </trkpt>
      <trkpt lat="48.83873" lon="2.37567">
        <ele>33.400001525879</ele>
        <time>2015-08-03T18:32:27Z</time>
      </trkpt>
      <trkpt lat="48.83859" lon="2.37586">
        <ele>34.20000076294</ele>
        <time>2015-08-03T18:32:44Z</time>
      </trkpt>
      <trkpt lat="48.83858" lon="2.37586">
        <ele>34.599998474121</ele>
        <time>2015-08-03T18:32:45Z</time>
      </trkpt>
      <trkpt lat="48.83856" lon="2.37589">
        <ele>34.79999923706</ele>
        <time>2015-08-03T18:32:47Z</time>
      </trkpt>
      <trkpt lat="48.83862" lon="2.37616">
        <ele>34.20000076294</ele>
        <time>2015-08-03T18:32:55Z</time>
      </trkpt>
      <trkpt lat="48.83875" lon="2.37643">
        <ele>32.79999923706</ele>
        <time>2015-08-03T18:33:03Z</time>
      </trkpt>
      <trkpt lat="48.83884" lon="2.37659">
        <ele>33.599998474121</ele>
        <time>2015-08-03T18:33:06Z</time>
      </trkpt>
      <trkpt lat="48.83896" lon="2.3768">
        <ele>33.79999923706</ele>
        <time>2015-08-03T18:33:09Z</time>
      </trkpt>
      <trkpt lat="48.83909" lon="2.37706">
        <ele>33.400001525879</ele>
        <time>2015-08-03T18:33:12Z</time>
      </trkpt>
      <trkpt lat="48.83918" lon="2.37723">
        <ele>32.79999923706</ele>
        <time>2015-08-03T18:33:14Z</time>
      </trkpt>
      <trkpt lat="48.83932" lon="2.37749">
        <ele>31</ele>
        <time>2015-08-03T18:33:17Z</time>
      </trkpt>
      <trkpt lat="48.83945" lon="2.37776">
        <ele>29.60000038147</ele>
        <time>2015-08-03T18:33:20Z</time>
      </trkpt>
      <trkpt lat="48.83958" lon="2.37802">
        <ele>29.200000762939</ele>
        <time>2015-08-03T18:33:23Z</time>
      </trkpt>
      <trkpt lat="48.83973" lon="2.37826">
        <ele>30</ele>
        <time>2015-08-03T18:33:26Z</time>
      </trkpt>
      <trkpt lat="48.83988" lon="2.37851">
        <ele>30.39999961853</ele>
        <time>2015-08-03T18:33:29Z</time>
      </trkpt>
      <trkpt lat="48.84001" lon="2.37875">
        <ele>29.39999961853</ele>
        <time>2015-08-03T18:33:32Z</time>
      </trkpt>
      <trkpt lat="48.84012" lon="2.37897">
        <ele>29.200000762939</ele>
        <time>2015-08-03T18:33:35Z</time>
      </trkpt>
      <trkpt lat="48.84017" lon="2.37909">
        <ele>29.200000762939</ele>
        <time>2015-08-03T18:33:37Z</time>
      </trkpt>
      <trkpt lat="48.84024" lon="2.37929">
        <ele>29.799999237061</ele>
        <time>2015-08-03T18:33:43Z</time>
      </trkpt>
      <trkpt lat="48.84028" lon="2.37935">
        <ele>28.799999237061</ele>
        <time>2015-08-03T18:33:45Z</time>
      </trkpt>
      <trkpt lat="48.84035" lon="2.37951">
        <ele>27.39999961853</ele>
        <time>2015-08-03T18:33:49Z</time>
      </trkpt>
      <trkpt lat="48.84034" lon="2.37982">
        <ele>27.39999961853</ele>
        <time>2015-08-03T18:33:54Z</time>
      </trkpt>
      <trkpt lat="48.84029" lon="2.38008">
        <ele>27.799999237061</ele>
        <time>2015-08-03T18:33:58Z</time>
      </trkpt>
      <trkpt lat="48.84026" lon="2.38038">
        <ele>28.39999961853</ele>
        <time>2015-08-03T18:34:02Z</time>
      </trkpt>
      <trkpt lat="48.84025" lon="2.38045">
        <ele>28.799999237061</ele>
        <time>2015-08-03T18:34:03Z</time>
      </trkpt>
      <trkpt lat="48.8402" lon="2.38073">
        <ele>29.799999237061</ele>
        <time>2015-08-03T18:34:07Z</time>
      </trkpt>
      <trkpt lat="48.84015" lon="2.38106">
        <ele>30.799999237061</ele>
        <time>2015-08-03T18:34:11Z</time>
      </trkpt>
      <trkpt lat="48.8401" lon="2.38141">
        <ele>32.20000076294</ele>
        <time>2015-08-03T18:34:15Z</time>
      </trkpt>
      <trkpt lat="48.84006" lon="2.38168">
        <ele>34.20000076294</ele>
        <time>2015-08-03T18:34:18Z</time>
      </trkpt>
      <trkpt lat="48.84002" lon="2.38196">
        <ele>34.400001525879</ele>
        <time>2015-08-03T18:34:21Z</time>
      </trkpt>
      <trkpt lat="48.83997" lon="2.38223">
        <ele>35</ele>
        <time>2015-08-03T18:34:24Z</time>
      </trkpt>
      <trkpt lat="48.83996" lon="2.38232">
        <ele>34.79999923706</ele>
        <time>2015-08-03T18:34:25Z</time>
      </trkpt>
      <trkpt lat="48.83993" lon="2.38251">
        <ele>34.400001525879</ele>
        <time>2015-08-03T18:34:27Z</time>
      </trkpt>
      <trkpt lat="48.83989" lon="2.38279">
        <ele>33.79999923706</ele>
        <time>2015-08-03T18:34:30Z</time>
      </trkpt>
      <trkpt lat="48.83982" lon="2.38309">
        <ele>33.400001525879</ele>
        <time>2015-08-03T18:34:33Z</time>
      </trkpt>
      <trkpt lat="48.83976" lon="2.38339">
        <ele>33.599998474121</ele>
        <time>2015-08-03T18:34:36Z</time>
      </trkpt>
      <trkpt lat="48.83972" lon="2.38371">
        <ele>34</ele>
        <time>2015-08-03T18:34:39Z</time>
      </trkpt>
      <trkpt lat="48.83966" lon="2.38403">
        <ele>34.20000076294</ele>
        <time>2015-08-03T18:34:42Z</time>
      </trkpt>
      <trkpt lat="48.83957" lon="2.38432">
        <ele>34</ele>
        <time>2015-08-03T18:34:44Z</time>
      </trkpt>
      <trkpt lat="48.83951" lon="2.38457">
        <ele>34</ele>
        <time>2015-08-03T18:34:46Z</time>
      </trkpt>
      <trkpt lat="48.83944" lon="2.38495">
        <ele>33.79999923706</ele>
        <time>2015-08-03T18:34:49Z</time>
      </trkpt>
      <trkpt lat="48.83939" lon="2.38529">
        <ele>34</ele>
        <time>2015-08-03T18:34:52Z</time>
      </trkpt>
      <trkpt lat="48.83934" lon="2.38567">
        <ele>34.20000076294</ele>
        <time>2015-08-03T18:34:55Z</time>
      </trkpt>
      <trkpt lat="48.83928" lon="2.38602">
        <ele>34.20000076294</ele>
        <time>2015-08-03T18:34:58Z</time>
      </trkpt>
      <trkpt lat="48.83919" lon="2.38632">
        <ele>34.599998474121</ele>
        <time>2015-08-03T18:35:01Z</time>
      </trkpt>
      <trkpt lat="48.83912" lon="2.3866">
        <ele>34.79999923706</ele>
        <time>2015-08-03T18:35:04Z</time>
      </trkpt>
      <trkpt lat="48.83903" lon="2.38692">
        <ele>34.79999923706</ele>
        <time>2015-08-03T18:35:07Z</time>
      </trkpt>
      <trkpt lat="48.83901" lon="2.38731">
        <ele>35</ele>
        <time>2015-08-03T18:35:10Z</time>
      </trkpt>
      <trkpt lat="48.83896" lon="2.38767">
        <ele>35.400001525879</ele>
        <time>2015-08-03T18:35:13Z</time>
      </trkpt>
      <trkpt lat="48.83892" lon="2.38797">
        <ele>36.20000076294</ele>
        <time>2015-08-03T18:35:17Z</time>
      </trkpt>
      <trkpt lat="48.83889" lon="2.38826">
        <ele>38.79999923706</ele>
        <time>2015-08-03T18:35:25Z</time>
      </trkpt>
      <trkpt lat="48.83889" lon="2.38832">
        <ele>41</ele>
        <time>2015-08-03T18:35:29Z</time>
      </trkpt>
      <trkpt lat="48.83893" lon="2.38846">
        <ele>42</ele>
        <time>2015-08-03T18:35:58Z</time>
      </trkpt>
      <trkpt lat="48.83888" lon="2.38842">
        <ele>43.599998474121</ele>
        <time>2015-08-03T18:36:03Z</time>
      </trkpt>
      <trkpt lat="48.83889" lon="2.38869">
        <ele>44.400001525879</ele>
        <time>2015-08-03T18:36:10Z</time>
      </trkpt>
      <trkpt lat="48.83892" lon="2.38897">
        <ele>43.20000076294</ele>
        <time>2015-08-03T18:36:15Z</time>
      </trkpt>
      <trkpt lat="48.83896" lon="2.38923">
        <ele>43.599998474121</ele>
        <time>2015-08-03T18:36:22Z</time>
      </trkpt>
      <trkpt lat="48.83895" lon="2.38935">
        <ele>43.79999923706</ele>
        <time>2015-08-03T18:36:26Z</time>
      </trkpt>
      <trkpt lat="48.83897" lon="2.38962">
        <ele>43.20000076294</ele>
        <time>2015-08-03T18:36:32Z</time>
      </trkpt>
      <trkpt lat="48.83898" lon="2.38989">
        <ele>44</ele>
        <time>2015-08-03T18:36:37Z</time>
      </trkpt>
      <trkpt lat="48.83901" lon="2.39018">
        <ele>43.79999923706</ele>
        <time>2015-08-03T18:36:42Z</time>
      </trkpt>
      <trkpt lat="48.83903" lon="2.39049">
        <ele>44.599998474121</ele>
        <time>2015-08-03T18:36:47Z</time>
      </trkpt>
      <trkpt lat="48.83908" lon="2.39081">
        <ele>43.79999923706</ele>
        <time>2015-08-03T18:36:52Z</time>
      </trkpt>
      <trkpt lat="48.83911" lon="2.3911">
        <ele>44.20000076294</ele>
        <time>2015-08-03T18:36:56Z</time>
      </trkpt>
      <trkpt lat="48.83914" lon="2.39147">
        <ele>44.400001525879</ele>
        <time>2015-08-03T18:37:00Z</time>
      </trkpt>
      <trkpt lat="48.83916" lon="2.39176">
        <ele>44</ele>
        <time>2015-08-03T18:37:03Z</time>
      </trkpt>
      <trkpt lat="48.8392" lon="2.39204">
        <ele>44</ele>
        <time>2015-08-03T18:37:06Z</time>
      </trkpt>
      <trkpt lat="48.83925" lon="2.39236">
        <ele>45.599998474121</ele>
        <time>2015-08-03T18:37:10Z</time>
      </trkpt>
      <trkpt lat="48.83926" lon="2.39244">
        <ele>46</ele>
        <time>2015-08-03T18:37:11Z</time>
      </trkpt>
      <trkpt lat="48.83928" lon="2.39271">
        <ele>45.599998474121</ele>
        <time>2015-08-03T18:37:15Z</time>
      </trkpt>
      <trkpt lat="48.83932" lon="2.39301">
        <ele>46</ele>
        <time>2015-08-03T18:37:19Z</time>
      </trkpt>
      <trkpt lat="48.83936" lon="2.39332">
        <ele>47.400001525879</ele>
        <time>2015-08-03T18:37:23Z</time>
      </trkpt>
      <trkpt lat="48.8394" lon="2.39361">
        <ele>47.20000076294</ele>
        <time>2015-08-03T18:37:27Z</time>
      </trkpt>
      <trkpt lat="48.83943" lon="2.39388">
        <ele>49.400001525879</ele>
        <time>2015-08-03T18:37:31Z</time>
      </trkpt>
      <trkpt lat="48.83943" lon="2.3941">
        <ele>49.79999923706</ele>
        <time>2015-08-03T18:37:35Z</time>
      </trkpt>
      <trkpt lat="48.83944" lon="2.39431">
        <ele>49.79999923706</ele>
        <time>2015-08-03T18:37:40Z</time>
      </trkpt>
      <trkpt lat="48.83944" lon="2.39435">
        <ele>49.79999923706</ele>
        <time>2015-08-03T18:37:41Z</time>
      </trkpt>
      <trkpt lat="48.8395" lon="2.39462">
        <ele>49.599998474121</ele>
        <time>2015-08-03T18:37:48Z</time>
      </trkpt>
      <trkpt lat="48.8395" lon="2.3947">
        <ele>49.20000076294</ele>
        <time>2015-08-03T18:37:50Z</time>
      </trkpt>
      <trkpt lat="48.83948" lon="2.39498">
        <ele>47.599998474121</ele>
        <time>2015-08-03T18:37:57Z</time>
      </trkpt>
      <trkpt lat="48.83947" lon="2.39528">
        <ele>45</ele>
        <time>2015-08-03T18:38:05Z</time>
      </trkpt>
      <trkpt lat="48.83941" lon="2.39554">
        <ele>43.599998474121</ele>
        <time>2015-08-03T18:38:14Z</time>
      </trkpt>
      <trkpt lat="48.83936" lon="2.39571">
        <ele>45.400001525879</ele>
        <time>2015-08-03T18:38:23Z</time>
      </trkpt>
      <trkpt lat="48.8392" lon="2.39587">
        <ele>47.79999923706</ele>
        <time>2015-08-03T18:38:39Z</time>
      </trkpt>
      <trkpt lat="48.83903" lon="2.39602">
        <ele>48.599998474121</ele>
        <time>2015-08-03T18:38:44Z</time>
      </trkpt>
      <trkpt lat="48.83887" lon="2.39614">
        <ele>50.599998474121</ele>
        <time>2015-08-03T18:38:49Z</time>
      </trkpt>
      <trkpt lat="48.8387" lon="2.39625">
        <ele>53.400001525879</ele>
        <time>2015-08-03T18:38:55Z</time>
      </trkpt>
      <trkpt lat="48.83854" lon="2.39648">
        <ele>56.400001525879</ele>
        <time>2015-08-03T18:39:01Z</time>
      </trkpt>
      <trkpt lat="48.83837" lon="2.39665">
        <ele>58.599998474121</ele>
        <time>2015-08-03T18:39:06Z</time>
      </trkpt>
      <trkpt lat="48.8382" lon="2.39679">
        <ele>60</ele>
        <time>2015-08-03T18:39:11Z</time>
      </trkpt>
      <trkpt lat="48.83803" lon="2.39695">
        <ele>59.599998474121</ele>
        <time>2015-08-03T18:39:16Z</time>
      </trkpt>
      <trkpt lat="48.83788" lon="2.39713">
        <ele>58.20000076294</ele>
        <time>2015-08-03T18:39:21Z</time>
      </trkpt>
      <trkpt lat="48.8377" lon="2.39733">
        <ele>58</ele>
        <time>2015-08-03T18:39:26Z</time>
      </trkpt>
      <trkpt lat="48.83756" lon="2.3975">
        <ele>55.79999923706</ele>
        <time>2015-08-03T18:39:30Z</time>
      </trkpt>
      <trkpt lat="48.8374" lon="2.39767">
        <ele>54.79999923706</ele>
        <time>2015-08-03T18:39:34Z</time>
      </trkpt>
      <trkpt lat="48.83725" lon="2.39784">
        <ele>53.20000076294</ele>
        <time>2015-08-03T18:39:38Z</time>
      </trkpt>
      <trkpt lat="48.83708" lon="2.39803">
        <ele>51.400001525879</ele>
        <time>2015-08-03T18:39:42Z</time>
      </trkpt>
      <trkpt lat="48.83692" lon="2.39826">
        <ele>49.79999923706</ele>
        <time>2015-08-03T18:39:46Z</time>
      </trkpt>
      <trkpt lat="48.83676" lon="2.39848">
        <ele>48.400001525879</ele>
        <time>2015-08-03T18:39:50Z</time>
      </trkpt>
      <trkpt lat="48.8366" lon="2.39869">
        <ele>48</ele>
        <time>2015-08-03T18:39:54Z</time>
      </trkpt>
      <trkpt lat="48.83643" lon="2.39893">
        <ele>46.79999923706</ele>
        <time>2015-08-03T18:39:58Z</time>
      </trkpt>
      <trkpt lat="48.83627" lon="2.39914">
        <ele>47</ele>
        <time>2015-08-03T18:40:02Z</time>
      </trkpt>
      <trkpt lat="48.83612" lon="2.39938">
        <ele>46</ele>
        <time>2015-08-03T18:40:06Z</time>
      </trkpt>
      <trkpt lat="48.83594" lon="2.39958">
        <ele>46.20000076294</ele>
        <time>2015-08-03T18:40:10Z</time>
      </trkpt>
      <trkpt lat="48.83586" lon="2.39963">
        <ele>47.79999923706</ele>
        <time>2015-08-03T18:40:12Z</time>
      </trkpt>
      <trkpt lat="48.83568" lon="2.3998">
        <ele>45.599998474121</ele>
        <time>2015-08-03T18:40:17Z</time>
      </trkpt>
      <trkpt lat="48.83552" lon="2.39995">
        <ele>46.599998474121</ele>
        <time>2015-08-03T18:40:21Z</time>
      </trkpt>
      <trkpt lat="48.83535" lon="2.40015">
        <ele>45.79999923706</ele>
        <time>2015-08-03T18:40:26Z</time>
      </trkpt>
      <trkpt lat="48.83519" lon="2.40031">
        <ele>45</ele>
        <time>2015-08-03T18:40:30Z</time>
      </trkpt>
      <trkpt lat="48.83514" lon="2.40034">
        <ele>44.79999923706</ele>
        <time>2015-08-03T18:40:31Z</time>
      </trkpt>
      <trkpt lat="48.83498" lon="2.40047">
        <ele>44.20000076294</ele>
        <time>2015-08-03T18:40:35Z</time>
      </trkpt>
      <trkpt lat="48.83491" lon="2.40054">
        <ele>44.20000076294</ele>
        <time>2015-08-03T18:40:37Z</time>
      </trkpt>
      <trkpt lat="48.83476" lon="2.40071">
        <ele>44.400001525879</ele>
        <time>2015-08-03T18:40:43Z</time>
      </trkpt>
      <trkpt lat="48.8347" lon="2.40077">
        <ele>43.400001525879</ele>
        <time>2015-08-03T18:40:47Z</time>
      </trkpt>
      <trkpt lat="48.83466" lon="2.40077">
        <ele>42.400001525879</ele>
        <time>2015-08-03T18:40:51Z</time>
      </trkpt>
      <trkpt lat="48.83465" lon="2.40076">
        <ele>42</ele>
        <time>2015-08-03T18:40:52Z</time>
      </trkpt>
      <trkpt lat="48.8346" lon="2.40086">
        <ele>40.599998474121</ele>
        <time>2015-08-03T18:41:17Z</time>
      </trkpt>
      <trkpt lat="48.8344" lon="2.40103">
        <ele>39.599998474121</ele>
        <time>2015-08-03T18:41:22Z</time>
      </trkpt>
      <trkpt lat="48.83424" lon="2.40118">
        <ele>39.79999923706</ele>
        <time>2015-08-03T18:41:26Z</time>
      </trkpt>
      <trkpt lat="48.83406" lon="2.40135">
        <ele>39.599998474121</ele>
        <time>2015-08-03T18:41:31Z</time>
      </trkpt>
      <trkpt lat="48.8339" lon="2.40152">
        <ele>40.20000076294</ele>
        <time>2015-08-03T18:41:36Z</time>
      </trkpt>
      <trkpt lat="48.83373" lon="2.40171">
        <ele>40</ele>
        <time>2015-08-03T18:41:42Z</time>
      </trkpt>
      <trkpt lat="48.83359" lon="2.40194">
        <ele>40</ele>
        <time>2015-08-03T18:41:48Z</time>
      </trkpt>
      <trkpt lat="48.83345" lon="2.40213">
        <ele>40.20000076294</ele>
        <time>2015-08-03T18:41:56Z</time>
      </trkpt>
      <trkpt lat="48.83332" lon="2.40233">
        <ele>39.79999923706</ele>
        <time>2015-08-03T18:42:04Z</time>
      </trkpt>
      <trkpt lat="48.83317" lon="2.40254">
        <ele>38</ele>
        <time>2015-08-03T18:42:12Z</time>
      </trkpt>
      <trkpt lat="48.83303" lon="2.40274">
        <ele>37.79999923706</ele>
        <time>2015-08-03T18:42:18Z</time>
      </trkpt>
      <trkpt lat="48.83288" lon="2.40298">
        <ele>37.79999923706</ele>
        <time>2015-08-03T18:42:23Z</time>
      </trkpt>
      <trkpt lat="48.83274" lon="2.40322">
        <ele>37.400001525879</ele>
        <time>2015-08-03T18:42:28Z</time>
      </trkpt>
      <trkpt lat="48.83258" lon="2.40343">
        <ele>37.20000076294</ele>
        <time>2015-08-03T18:42:33Z</time>
      </trkpt>
      <trkpt lat="48.83244" lon="2.40362">
        <ele>38.400001525879</ele>
        <time>2015-08-03T18:42:38Z</time>
      </trkpt>
      <trkpt lat="48.83231" lon="2.40382">
        <ele>39.400001525879</ele>
        <time>2015-08-03T18:42:45Z</time>
      </trkpt>
      <trkpt lat="48.83225" lon="2.40387">
        <ele>40.599998474121</ele>
        <time>2015-08-03T18:42:49Z</time>
      </trkpt>
      <trkpt lat="48.83225" lon="2.40394">
        <ele>42.400001525879</ele>
        <time>2015-08-03T18:43:05Z</time>
      </trkpt>
      <trkpt lat="48.83226" lon="2.40394">
        <ele>42.20000076294</ele>
        <time>2015-08-03T18:43:07Z</time>
      </trkpt>
      <trkpt lat="48.83233" lon="2.40421">
        <ele>41.79999923706</ele>
        <time>2015-08-03T18:43:24Z</time>
      </trkpt>
      <trkpt lat="48.83232" lon="2.40447">
        <ele>42.20000076294</ele>
        <time>2015-08-03T18:43:34Z</time>
      </trkpt>
      <trkpt lat="48.83231" lon="2.40452">
        <ele>42.599998474121</ele>
        <time>2015-08-03T18:43:38Z</time>
      </trkpt>
      <trkpt lat="48.83215" lon="2.40464">
        <ele>43</ele>
        <time>2015-08-03T18:43:53Z</time>
      </trkpt>
      <trkpt lat="48.83199" lon="2.40481">
        <ele>43.20000076294</ele>
        <time>2015-08-03T18:44:00Z</time>
      </trkpt>
      <trkpt lat="48.83183" lon="2.40499">
        <ele>43</ele>
        <time>2015-08-03T18:44:06Z</time>
      </trkpt>
      <trkpt lat="48.83169" lon="2.40516">
        <ele>42.400001525879</ele>
        <time>2015-08-03T18:44:11Z</time>
      </trkpt>
      <trkpt lat="48.83155" lon="2.40532">
        <ele>42.20000076294</ele>
        <time>2015-08-03T18:44:16Z</time>
      </trkpt>
      <trkpt lat="48.8314" lon="2.40549">
        <ele>42.20000076294</ele>
        <time>2015-08-03T18:44:21Z</time>
      </trkpt>
      <trkpt lat="48.83125" lon="2.40566">
        <ele>41.400001525879</ele>
        <time>2015-08-03T18:44:26Z</time>
      </trkpt>
      <trkpt lat="48.83109" lon="2.40585">
        <ele>42</ele>
        <time>2015-08-03T18:44:31Z</time>
      </trkpt>
      <trkpt lat="48.83095" lon="2.40602">
        <ele>43.20000076294</ele>
        <time>2015-08-03T18:44:36Z</time>
      </trkpt>
      <trkpt lat="48.83079" lon="2.40622">
        <ele>44.20000076294</ele>
        <time>2015-08-03T18:44:42Z</time>
      </trkpt>
      <trkpt lat="48.83064" lon="2.40639">
        <ele>46</ele>
        <time>2015-08-03T18:44:48Z</time>
      </trkpt>
      <trkpt lat="48.83056" lon="2.40638">
        <ele>45.400001525879</ele>
        <time>2015-08-03T18:44:51Z</time>
      </trkpt>
      <trkpt lat="48.83048" lon="2.40621">
        <ele>47</ele>
        <time>2015-08-03T18:45:06Z</time>
      </trkpt>
      <trkpt lat="48.83038" lon="2.40632">
        <ele>46.79999923706</ele>
        <time>2015-08-03T18:45:11Z</time>
      </trkpt>
      <trkpt lat="48.83024" lon="2.40651">
        <ele>46.20000076294</ele>
        <time>2015-08-03T18:45:17Z</time>
      </trkpt>
      <trkpt lat="48.83007" lon="2.4067">
        <ele>44.599998474121</ele>
        <time>2015-08-03T18:45:23Z</time>
      </trkpt>
      <trkpt lat="48.8299" lon="2.4069">
        <ele>43.400001525879</ele>
        <time>2015-08-03T18:45:29Z</time>
      </trkpt>
      <trkpt lat="48.82976" lon="2.40708">
        <ele>43</ele>
        <time>2015-08-03T18:45:34Z</time>
      </trkpt>
      <trkpt lat="48.82959" lon="2.40729">
        <ele>42.79999923706</ele>
        <time>2015-08-03T18:45:40Z</time>
      </trkpt>
      <trkpt lat="48.82945" lon="2.40746">
        <ele>43</ele>
        <time>2015-08-03T18:45:45Z</time>
      </trkpt>
      <trkpt lat="48.8293" lon="2.40764">
        <ele>43.400001525879</ele>
        <time>2015-08-03T18:45:50Z</time>
      </trkpt>
      <trkpt lat="48.82915" lon="2.40787">
        <ele>43</ele>
        <time>2015-08-03T18:45:56Z</time>
      </trkpt>
      <trkpt lat="48.82899" lon="2.40802">
        <ele>40.79999923706</ele>
        <time>2015-08-03T18:46:01Z</time>
      </trkpt>
      <trkpt lat="48.82883" lon="2.40818">
        <ele>40.400001525879</ele>
        <time>2015-08-03T18:46:06Z</time>
      </trkpt>
      <trkpt lat="48.82867" lon="2.40833">
        <ele>40.79999923706</ele>
        <time>2015-08-03T18:46:11Z</time>
      </trkpt>
      <trkpt lat="48.82851" lon="2.40848">
        <ele>41.599998474121</ele>
        <time>2015-08-03T18:46:16Z</time>
      </trkpt>
      <trkpt lat="48.82837" lon="2.40865">
        <ele>42.20000076294</ele>
        <time>2015-08-03T18:46:21Z</time>
      </trkpt>
      <trkpt lat="48.82822" lon="2.40885">
        <ele>42.400001525879</ele>
        <time>2015-08-03T18:46:27Z</time>
      </trkpt>
      <trkpt lat="48.82807" lon="2.40903">
        <ele>41.79999923706</ele>
        <time>2015-08-03T18:46:33Z</time>
      </trkpt>
      <trkpt lat="48.82791" lon="2.40922">
        <ele>41.599998474121</ele>
        <time>2015-08-03T18:46:39Z</time>
      </trkpt>
      <trkpt lat="48.82774" lon="2.40932">
        <ele>41.400001525879</ele>
        <time>2015-08-03T18:46:45Z</time>
      </trkpt>
      <trkpt lat="48.8276" lon="2.40945">
        <ele>40.20000076294</ele>
        <time>2015-08-03T18:46:52Z</time>
      </trkpt>
      <trkpt lat="48.82758" lon="2.40969">
        <ele>37.599998474121</ele>
        <time>2015-08-03T18:47:03Z</time>
      </trkpt>
      <trkpt lat="48.82772" lon="2.40969">
        <ele>34.599998474121</ele>
        <time>2015-08-03T18:47:36Z</time>
      </trkpt>
      <trkpt lat="48.8279" lon="2.4097">
        <ele>34.599998474121</ele>
        <time>2015-08-03T18:47:41Z</time>
      </trkpt>
      <trkpt lat="48.82809" lon="2.40973">
        <ele>34.400001525879</ele>
        <time>2015-08-03T18:47:46Z</time>
      </trkpt>
      <trkpt lat="48.8283" lon="2.40974">
        <ele>34.599998474121</ele>
        <time>2015-08-03T18:47:51Z</time>
      </trkpt>
      <trkpt lat="48.8285" lon="2.40974">
        <ele>36.20000076294</ele>
        <time>2015-08-03T18:47:56Z</time>
      </trkpt>
      <trkpt lat="48.82871" lon="2.40974">
        <ele>36.599998474121</ele>
        <time>2015-08-03T18:48:01Z</time>
      </trkpt>
      <trkpt lat="48.8289" lon="2.40973">
        <ele>36.599998474121</ele>
        <time>2015-08-03T18:48:06Z</time>
      </trkpt>
      <trkpt lat="48.82909" lon="2.40972">
        <ele>36.400001525879</ele>
        <time>2015-08-03T18:48:11Z</time>
      </trkpt>
      <trkpt lat="48.8293" lon="2.4097">
        <ele>33.400001525879</ele>
        <time>2015-08-03T18:48:17Z</time>
      </trkpt>
      <trkpt lat="48.82946" lon="2.40969">
        <ele>36.20000076294</ele>
        <time>2015-08-03T18:48:22Z</time>
      </trkpt>
      <trkpt lat="48.82939" lon="2.40985">
        <ele>40.20000076294</ele>
        <time>2015-08-03T18:48:31Z</time>
      </trkpt>
      <trkpt lat="48.82936" lon="2.40987">
        <ele>40.599998474121</ele>
        <time>2015-08-03T18:48:32Z</time>
      </trkpt>
      <trkpt lat="48.8292" lon="2.41001">
        <ele>39.599998474121</ele>
        <time>2015-08-03T18:48:37Z</time>
      </trkpt>
      <trkpt lat="48.82902" lon="2.41017">
        <ele>38.79999923706</ele>
        <time>2015-08-03T18:48:42Z</time>
      </trkpt>
      <trkpt lat="48.82886" lon="2.41037">
        <ele>38</ele>
        <time>2015-08-03T18:48:47Z</time>
      </trkpt>
      <trkpt lat="48.82871" lon="2.41054">
        <ele>38.20000076294</ele>
        <time>2015-08-03T18:48:51Z</time>
      </trkpt>
      <trkpt lat="48.82855" lon="2.41071">
        <ele>38.79999923706</ele>
        <time>2015-08-03T18:48:55Z</time>
      </trkpt>
      <trkpt lat="48.82839" lon="2.41089">
        <ele>38.599998474121</ele>
        <time>2015-08-03T18:48:59Z</time>
      </trkpt>
      <trkpt lat="48.82824" lon="2.4111">
        <ele>38</ele>
        <time>2015-08-03T18:49:03Z</time>
      </trkpt>
      <trkpt lat="48.82813" lon="2.41126">
        <ele>38.20000076294</ele>
        <time>2015-08-03T18:49:06Z</time>
      </trkpt>
      <trkpt lat="48.828" lon="2.41148">
        <ele>39</ele>
        <time>2015-08-03T18:49:10Z</time>
      </trkpt>
      <trkpt lat="48.82786" lon="2.41168">
        <ele>39.79999923706</ele>
        <time>2015-08-03T18:49:14Z</time>
      </trkpt>
      <trkpt lat="48.82783" lon="2.41174">
        <ele>40.400001525879</ele>
        <time>2015-08-03T18:49:15Z</time>
      </trkpt>
      <trkpt lat="48.82778" lon="2.41185">
        <ele>41.400001525879</ele>
        <time>2015-08-03T18:49:17Z</time>
      </trkpt>
      <trkpt lat="48.82773" lon="2.41196">
        <ele>41.400001525879</ele>
        <time>2015-08-03T18:49:19Z</time>
      </trkpt>
      <trkpt lat="48.8276" lon="2.41224">
        <ele>41</ele>
        <time>2015-08-03T18:49:24Z</time>
      </trkpt>
      <trkpt lat="48.82748" lon="2.41246">
        <ele>40.599998474121</ele>
        <time>2015-08-03T18:49:29Z</time>
      </trkpt>
      <trkpt lat="48.82736" lon="2.41269">
        <ele>39.400001525879</ele>
        <time>2015-08-03T18:49:34Z</time>
      </trkpt>
      <trkpt lat="48.82725" lon="2.41295">
        <ele>39.20000076294</ele>
        <time>2015-08-03T18:49:39Z</time>
      </trkpt>
      <trkpt lat="48.82715" lon="2.41323">
        <ele>41</ele>
        <time>2015-08-03T18:49:44Z</time>
      </trkpt>
      <trkpt lat="48.82708" lon="2.41351">
        <ele>42.20000076294</ele>
        <time>2015-08-03T18:49:49Z</time>
      </trkpt>
      <trkpt lat="48.82701" lon="2.41378">
        <ele>42.79999923706</ele>
        <time>2015-08-03T18:49:54Z</time>
      </trkpt>
      <trkpt lat="48.82698" lon="2.41395">
        <ele>43.599998474121</ele>
        <time>2015-08-03T18:49:57Z</time>
      </trkpt>
      <trkpt lat="48.82694" lon="2.41427">
        <ele>44.79999923706</ele>
        <time>2015-08-03T18:50:02Z</time>
      </trkpt>
      <trkpt lat="48.82691" lon="2.41459">
        <ele>46.20000076294</ele>
        <time>2015-08-03T18:50:07Z</time>
      </trkpt>
      <trkpt lat="48.82687" lon="2.41483">
        <ele>46.400001525879</ele>
        <time>2015-08-03T18:50:11Z</time>
      </trkpt>
      <trkpt lat="48.82683" lon="2.41514">
        <ele>46.400001525879</ele>
        <time>2015-08-03T18:50:16Z</time>
      </trkpt>
      <trkpt lat="48.82681" lon="2.41543">
        <ele>46.20000076294</ele>
        <time>2015-08-03T18:50:20Z</time>
      </trkpt>
      <trkpt lat="48.82681" lon="2.41575">
        <ele>44.79999923706</ele>
        <time>2015-08-03T18:50:24Z</time>
      </trkpt>
      <trkpt lat="48.82682" lon="2.41608">
        <ele>44</ele>
        <time>2015-08-03T18:50:28Z</time>
      </trkpt>
      <trkpt lat="48.82682" lon="2.41624">
        <ele>43.599998474121</ele>
        <time>2015-08-03T18:50:30Z</time>
      </trkpt>
      <trkpt lat="48.82685" lon="2.41657">
        <ele>43.400001525879</ele>
        <time>2015-08-03T18:50:34Z</time>
      </trkpt>
      <trkpt lat="48.82688" lon="2.41691">
        <ele>42.599998474121</ele>
        <time>2015-08-03T18:50:38Z</time>
      </trkpt>
      <trkpt lat="48.82692" lon="2.41723">
        <ele>42.599998474121</ele>
        <time>2015-08-03T18:50:42Z</time>
      </trkpt>
      <trkpt lat="48.82699" lon="2.41755">
        <ele>43.20000076294</ele>
        <time>2015-08-03T18:50:46Z</time>
      </trkpt>
      <trkpt lat="48.827" lon="2.41763">
        <ele>43.599998474121</ele>
        <time>2015-08-03T18:50:47Z</time>
      </trkpt>
      <trkpt lat="48.82707" lon="2.41793">
        <ele>43.599998474121</ele>
        <time>2015-08-03T18:50:51Z</time>
      </trkpt>
      <trkpt lat="48.82713" lon="2.41821">
        <ele>43.599998474121</ele>
        <time>2015-08-03T18:50:55Z</time>
      </trkpt>
      <trkpt lat="48.82715" lon="2.41828">
        <ele>43.599998474121</ele>
        <time>2015-08-03T18:50:56Z</time>
      </trkpt>
      <trkpt lat="48.82724" lon="2.41855">
        <ele>42.79999923706</ele>
        <time>2015-08-03T18:51:00Z</time>
      </trkpt>
      <trkpt lat="48.82733" lon="2.41878">
        <ele>42.599998474121</ele>
        <time>2015-08-03T18:51:04Z</time>
      </trkpt>
      <trkpt lat="48.82743" lon="2.41902">
        <ele>43</ele>
        <time>2015-08-03T18:51:10Z</time>
      </trkpt>
      <trkpt lat="48.82749" lon="2.41914">
        <ele>42.79999923706</ele>
        <time>2015-08-03T18:51:14Z</time>
      </trkpt>
      <trkpt lat="48.82753" lon="2.41922">
        <ele>42.599998474121</ele>
        <time>2015-08-03T18:51:18Z</time>
      </trkpt>
      <trkpt lat="48.82754" lon="2.41928">
        <ele>40.599998474121</ele>
        <time>2015-08-03T18:51:24Z</time>
      </trkpt>
      <trkpt lat="48.82753" lon="2.41915">
        <ele>40</ele>
        <time>2015-08-03T18:51:37Z</time>
      </trkpt>
      <trkpt lat="48.82767" lon="2.41897">
        <ele>39.599998474121</ele>
        <time>2015-08-03T18:51:44Z</time>
      </trkpt>
      <trkpt lat="48.82779" lon="2.41876">
        <ele>39.20000076294</ele>
        <time>2015-08-03T18:51:51Z</time>
      </trkpt>
      <trkpt lat="48.82784" lon="2.41869">
        <ele>38.79999923706</ele>
        <time>2015-08-03T18:51:55Z</time>
      </trkpt>
      <trkpt lat="48.82779" lon="2.41842">
        <ele>37.599998474121</ele>
        <time>2015-08-03T18:52:01Z</time>
      </trkpt>
      <trkpt lat="48.82775" lon="2.41812">
        <ele>37.20000076294</ele>
        <time>2015-08-03T18:52:06Z</time>
      </trkpt>
      <trkpt lat="48.82774" lon="2.41778">
        <ele>37.20000076294</ele>
        <time>2015-08-03T18:52:11Z</time>
      </trkpt>
      <trkpt lat="48.82773" lon="2.41771">
        <ele>36.599998474121</ele>
        <time>2015-08-03T18:52:12Z</time>
      </trkpt>
      <trkpt lat="48.82776" lon="2.41738">
        <ele>36.79999923706</ele>
        <time>2015-08-03T18:52:16Z</time>
      </trkpt>
      <trkpt lat="48.82777" lon="2.4173">
        <ele>36.20000076294</ele>
        <time>2015-08-03T18:52:17Z</time>
      </trkpt>
      <trkpt lat="48.82782" lon="2.41697">
        <ele>35.79999923706</ele>
        <time>2015-08-03T18:52:21Z</time>
      </trkpt>
      <trkpt lat="48.82789" lon="2.41669">
        <ele>35.79999923706</ele>
        <time>2015-08-03T18:52:26Z</time>
      </trkpt>
      <trkpt lat="48.82798" lon="2.41653">
        <ele>36.599998474121</ele>
        <time>2015-08-03T18:52:30Z</time>
      </trkpt>
      <trkpt lat="48.82813" lon="2.41629">
        <ele>37.20000076294</ele>
        <time>2015-08-03T18:52:35Z</time>
      </trkpt>
      <trkpt lat="48.82825" lon="2.41608">
        <ele>37.79999923706</ele>
        <time>2015-08-03T18:52:39Z</time>
      </trkpt>
      <trkpt lat="48.82839" lon="2.4159">
        <ele>38.20000076294</ele>
        <time>2015-08-03T18:52:43Z</time>
      </trkpt>
      <trkpt lat="48.82858" lon="2.41571">
        <ele>38.79999923706</ele>
        <time>2015-08-03T18:52:48Z</time>
      </trkpt>
      <trkpt lat="48.82877" lon="2.41555">
        <ele>39.599998474121</ele>
        <time>2015-08-03T18:52:53Z</time>
      </trkpt>
      <trkpt lat="48.82896" lon="2.41542">
        <ele>40.79999923706</ele>
        <time>2015-08-03T18:52:59Z</time>
      </trkpt>
      <trkpt lat="48.82912" lon="2.41532">
        <ele>42</ele>
        <time>2015-08-03T18:53:04Z</time>
      </trkpt>
      <trkpt lat="48.82926" lon="2.41522">
        <ele>42</ele>
        <time>2015-08-03T18:53:09Z</time>
      </trkpt>
      <trkpt lat="48.82945" lon="2.41516">
        <ele>41.400001525879</ele>
        <time>2015-08-03T18:53:16Z</time>
      </trkpt>
      <trkpt lat="48.82965" lon="2.41521">
        <ele>38.599998474121</ele>
        <time>2015-08-03T18:53:25Z</time>
      </trkpt>
      <trkpt lat="48.82983" lon="2.41523">
        <ele>38.400001525879</ele>
        <time>2015-08-03T18:53:36Z</time>
      </trkpt>
      <trkpt lat="48.82995" lon="2.41524">
        <ele>40.20000076294</ele>
        <time>2015-08-03T18:53:45Z</time>
      </trkpt>
      <trkpt lat="48.8301" lon="2.41519">
        <ele>42.20000076294</ele>
        <time>2015-08-03T18:54:30Z</time>
      </trkpt>
      <trkpt lat="48.83019" lon="2.41509">
        <ele>44</ele>
        <time>2015-08-03T18:55:42Z</time>
      </trkpt>
      <trkpt lat="48.83023" lon="2.41482">
        <ele>43.20000076294</ele>
        <time>2015-08-03T18:55:49Z</time>
      </trkpt>
      <trkpt lat="48.83021" lon="2.41449">
        <ele>41.79999923706</ele>
        <time>2015-08-03T18:55:55Z</time>
      </trkpt>
      <trkpt lat="48.8302" lon="2.41418">
        <ele>38.79999923706</ele>
        <time>2015-08-03T18:56:00Z</time>
      </trkpt>
      <trkpt lat="48.83022" lon="2.41386">
        <ele>37.20000076294</ele>
        <time>2015-08-03T18:56:05Z</time>
      </trkpt>
      <trkpt lat="48.83029" lon="2.41358">
        <ele>36.20000076294</ele>
        <time>2015-08-03T18:56:10Z</time>
      </trkpt>
      <trkpt lat="48.83043" lon="2.41333">
        <ele>33.79999923706</ele>
        <time>2015-08-03T18:56:16Z</time>
      </trkpt>
      <trkpt lat="48.83058" lon="2.41314">
        <ele>32.400001525879</ele>
        <time>2015-08-03T18:56:23Z</time>
      </trkpt>
      <trkpt lat="48.83077" lon="2.41299">
        <ele>35.599998474121</ele>
        <time>2015-08-03T18:56:30Z</time>
      </trkpt>
      <trkpt lat="48.83094" lon="2.41289">
        <ele>37.400001525879</ele>
        <time>2015-08-03T18:56:38Z</time>
      </trkpt>
      <trkpt lat="48.83111" lon="2.41278">
        <ele>37.599998474121</ele>
        <time>2015-08-03T18:57:00Z</time>
      </trkpt>
      <trkpt lat="48.8313" lon="2.41266">
        <ele>37.20000076294</ele>
        <time>2015-08-03T18:57:11Z</time>
      </trkpt>
      <trkpt lat="48.8315" lon="2.41268">
        <ele>36</ele>
        <time>2015-08-03T18:57:17Z</time>
      </trkpt>
      <trkpt lat="48.83168" lon="2.41282">
        <ele>34.400001525879</ele>
        <time>2015-08-03T18:57:23Z</time>
      </trkpt>
      <trkpt lat="48.83171" lon="2.41308">
        <ele>34</ele>
        <time>2015-08-03T18:57:31Z</time>
      </trkpt>
      <trkpt lat="48.83159" lon="2.41333">
        <ele>34.79999923706</ele>
        <time>2015-08-03T18:57:39Z</time>
      </trkpt>
      <trkpt lat="48.83146" lon="2.41352">
        <ele>35.400001525879</ele>
        <time>2015-08-03T18:57:45Z</time>
      </trkpt>
      <trkpt lat="48.83132" lon="2.4137">
        <ele>34.79999923706</ele>
        <time>2015-08-03T18:57:51Z</time>
      </trkpt>
      <trkpt lat="48.83117" lon="2.41385">
        <ele>32.400001525879</ele>
        <time>2015-08-03T18:58:01Z</time>
      </trkpt>
      <trkpt lat="48.83101" lon="2.41401">
        <ele>30.200000762939</ele>
        <time>2015-08-03T18:58:09Z</time>
      </trkpt>
      <trkpt lat="48.83089" lon="2.41422">
        <ele>30.799999237061</ele>
        <time>2015-08-03T18:58:15Z</time>
      </trkpt>
      <trkpt lat="48.83075" lon="2.41442">
        <ele>29</ele>
        <time>2015-08-03T18:58:22Z</time>
      </trkpt>
      <trkpt lat="48.83062" lon="2.41461">
        <ele>26.39999961853</ele>
        <time>2015-08-03T18:58:29Z</time>
      </trkpt>
      <trkpt lat="48.83048" lon="2.41485">
        <ele>24.799999237061</ele>
        <time>2015-08-03T18:58:37Z</time>
      </trkpt>
      <trkpt lat="48.83038" lon="2.41509">
        <ele>26.60000038147</ele>
        <time>2015-08-03T18:58:46Z</time>
      </trkpt>
      <trkpt lat="48.83029" lon="2.41535">
        <ele>29.39999961853</ele>
        <time>2015-08-03T18:58:57Z</time>
      </trkpt>
      <trkpt lat="48.83018" lon="2.41558">
        <ele>33</ele>
        <time>2015-08-03T18:59:09Z</time>
      </trkpt>
      <trkpt lat="48.83011" lon="2.41562">
        <ele>34</ele>
        <time>2015-08-03T18:59:17Z</time>
      </trkpt>
      <trkpt lat="48.82999" lon="2.41568">
        <ele>37.20000076294</ele>
        <time>2015-08-03T19:00:22Z</time>
      </trkpt>
      <trkpt lat="48.83003" lon="2.41555">
        <ele>46</ele>
        <time>2015-08-03T19:01:19Z</time>
      </trkpt>
      <trkpt lat="48.83001" lon="2.4153">
        <ele>46.400001525879</ele>
        <time>2015-08-03T19:01:57Z</time>
      </trkpt>
      <trkpt lat="48.82987" lon="2.41523">
        <ele>45.79999923706</ele>
        <time>2015-08-03T19:02:30Z</time>
      </trkpt>
      <trkpt lat="48.8298" lon="2.41521">
        <ele>45.20000076294</ele>
        <time>2015-08-03T19:03:23Z</time>
      </trkpt>
      <trkpt lat="48.82961" lon="2.41518">
        <ele>45</ele>
        <time>2015-08-03T19:03:36Z</time>
      </trkpt>
      <trkpt lat="48.82948" lon="2.41513">
        <ele>44.599998474121</ele>
        <time>2015-08-03T19:03:44Z</time>
      </trkpt>
      <trkpt lat="48.82942" lon="2.41515">
        <ele>45.79999923706</ele>
        <time>2015-08-03T19:05:36Z</time>
      </trkpt>
      <trkpt lat="48.82923" lon="2.41525">
        <ele>45.400001525879</ele>
        <time>2015-08-03T19:05:56Z</time>
      </trkpt>
      <trkpt lat="48.82906" lon="2.41536">
        <ele>45.400001525879</ele>
        <time>2015-08-03T19:06:04Z</time>
      </trkpt>
      <trkpt lat="48.8289" lon="2.41547">
        <ele>46</ele>
        <time>2015-08-03T19:06:10Z</time>
      </trkpt>
      <trkpt lat="48.82875" lon="2.41563">
        <ele>45.599998474121</ele>
        <time>2015-08-03T19:06:15Z</time>
      </trkpt>
      <trkpt lat="48.82856" lon="2.41578">
        <ele>43.20000076294</ele>
        <time>2015-08-03T19:06:21Z</time>
      </trkpt>
      <trkpt lat="48.82837" lon="2.41595">
        <ele>42.79999923706</ele>
        <time>2015-08-03T19:06:26Z</time>
      </trkpt>
      <trkpt lat="48.82819" lon="2.41614">
        <ele>42.400001525879</ele>
        <time>2015-08-03T19:06:31Z</time>
      </trkpt>
      <trkpt lat="48.82804" lon="2.41634">
        <ele>42</ele>
        <time>2015-08-03T19:06:36Z</time>
      </trkpt>
      <trkpt lat="48.82789" lon="2.41655">
        <ele>42</ele>
        <time>2015-08-03T19:06:43Z</time>
      </trkpt>
      <trkpt lat="48.82785" lon="2.41685">
        <ele>42.20000076294</ele>
        <time>2015-08-03T19:06:48Z</time>
      </trkpt>
      <trkpt lat="48.82779" lon="2.41711">
        <ele>42</ele>
        <time>2015-08-03T19:06:52Z</time>
      </trkpt>
      <trkpt lat="48.82776" lon="2.4174">
        <ele>42.20000076294</ele>
        <time>2015-08-03T19:06:56Z</time>
      </trkpt>
      <trkpt lat="48.82776" lon="2.41769">
        <ele>43</ele>
        <time>2015-08-03T19:07:00Z</time>
      </trkpt>
      <trkpt lat="48.82776" lon="2.41797">
        <ele>43.599998474121</ele>
        <time>2015-08-03T19:07:04Z</time>
      </trkpt>
      <trkpt lat="48.82776" lon="2.41804">
        <ele>43.599998474121</ele>
        <time>2015-08-03T19:07:05Z</time>
      </trkpt>
      <trkpt lat="48.8278" lon="2.41837">
        <ele>43.20000076294</ele>
        <time>2015-08-03T19:07:10Z</time>
      </trkpt>
      <trkpt lat="48.82786" lon="2.41861">
        <ele>43</ele>
        <time>2015-08-03T19:07:14Z</time>
      </trkpt>
      <trkpt lat="48.82789" lon="2.41871">
        <ele>42.79999923706</ele>
        <time>2015-08-03T19:07:16Z</time>
      </trkpt>
      <trkpt lat="48.82792" lon="2.41881">
        <ele>42</ele>
        <time>2015-08-03T19:07:18Z</time>
      </trkpt>
      <trkpt lat="48.828" lon="2.41897">
        <ele>42</ele>
        <time>2015-08-03T19:07:22Z</time>
      </trkpt>
      <trkpt lat="48.82816" lon="2.41916">
        <ele>40.79999923706</ele>
        <time>2015-08-03T19:07:28Z</time>
      </trkpt>
      <trkpt lat="48.82832" lon="2.41934">
        <ele>42</ele>
        <time>2015-08-03T19:07:34Z</time>
      </trkpt>
      <trkpt lat="48.82849" lon="2.41951">
        <ele>43</ele>
        <time>2015-08-03T19:07:40Z</time>
      </trkpt>
      <trkpt lat="48.82869" lon="2.41962">
        <ele>43.79999923706</ele>
        <time>2015-08-03T19:07:45Z</time>
      </trkpt>
      <trkpt lat="48.82889" lon="2.41974">
        <ele>43.79999923706</ele>
        <time>2015-08-03T19:07:49Z</time>
      </trkpt>
      <trkpt lat="48.82906" lon="2.41985">
        <ele>43.400001525879</ele>
        <time>2015-08-03T19:07:52Z</time>
      </trkpt>
      <trkpt lat="48.82926" lon="2.41996">
        <ele>43.599998474121</ele>
        <time>2015-08-03T19:07:55Z</time>
      </trkpt>
      <trkpt lat="48.82945" lon="2.42008">
        <ele>43</ele>
        <time>2015-08-03T19:07:58Z</time>
      </trkpt>
      <trkpt lat="48.82965" lon="2.42022">
        <ele>43.20000076294</ele>
        <time>2015-08-03T19:08:01Z</time>
      </trkpt>
      <trkpt lat="48.82987" lon="2.42034">
        <ele>43.400001525879</ele>
        <time>2015-08-03T19:08:04Z</time>
      </trkpt>
      <trkpt lat="48.83011" lon="2.42044">
        <ele>43.79999923706</ele>
        <time>2015-08-03T19:08:07Z</time>
      </trkpt>
      <trkpt lat="48.83035" lon="2.42049">
        <ele>44.400001525879</ele>
        <time>2015-08-03T19:08:10Z</time>
      </trkpt>
      <trkpt lat="48.8306" lon="2.42052">
        <ele>45.400001525879</ele>
        <time>2015-08-03T19:08:13Z</time>
      </trkpt>
      <trkpt lat="48.83084" lon="2.42055">
        <ele>45</ele>
        <time>2015-08-03T19:08:16Z</time>
      </trkpt>
      <trkpt lat="48.83106" lon="2.42056">
        <ele>45</ele>
        <time>2015-08-03T19:08:19Z</time>
      </trkpt>
      <trkpt lat="48.8313" lon="2.42055">
        <ele>45</ele>
        <time>2015-08-03T19:08:22Z</time>
      </trkpt>
      <trkpt lat="48.83154" lon="2.42054">
        <ele>45.20000076294</ele>
        <time>2015-08-03T19:08:25Z</time>
      </trkpt>
      <trkpt lat="48.83177" lon="2.42051">
        <ele>44.79999923706</ele>
        <time>2015-08-03T19:08:28Z</time>
      </trkpt>
      <trkpt lat="48.83185" lon="2.42049">
        <ele>46</ele>
        <time>2015-08-03T19:08:29Z</time>
      </trkpt>
      <trkpt lat="48.83209" lon="2.42043">
        <ele>45.79999923706</ele>
        <time>2015-08-03T19:08:32Z</time>
      </trkpt>
      <trkpt lat="48.83232" lon="2.42038">
        <ele>46.400001525879</ele>
        <time>2015-08-03T19:08:35Z</time>
      </trkpt>
      <trkpt lat="48.83255" lon="2.42033">
        <ele>46.599998474121</ele>
        <time>2015-08-03T19:08:38Z</time>
      </trkpt>
      <trkpt lat="48.83279" lon="2.42032">
        <ele>45.20000076294</ele>
        <time>2015-08-03T19:08:41Z</time>
      </trkpt>
      <trkpt lat="48.83304" lon="2.4203">
        <ele>44</ele>
        <time>2015-08-03T19:08:44Z</time>
      </trkpt>
      <trkpt lat="48.8333" lon="2.42031">
        <ele>44</ele>
        <time>2015-08-03T19:08:47Z</time>
      </trkpt>
      <trkpt lat="48.83355" lon="2.42032">
        <ele>44.20000076294</ele>
        <time>2015-08-03T19:08:50Z</time>
      </trkpt>
      <trkpt lat="48.8338" lon="2.42034">
        <ele>44</ele>
        <time>2015-08-03T19:08:53Z</time>
      </trkpt>
      <trkpt lat="48.83401" lon="2.42034">
        <ele>44</ele>
        <time>2015-08-03T19:08:56Z</time>
      </trkpt>
      <trkpt lat="48.83414" lon="2.42033">
        <ele>43.20000076294</ele>
        <time>2015-08-03T19:08:58Z</time>
      </trkpt>
      <trkpt lat="48.83432" lon="2.42025">
        <ele>43.400001525879</ele>
        <time>2015-08-03T19:09:01Z</time>
      </trkpt>
      <trkpt lat="48.83449" lon="2.42016">
        <ele>43.20000076294</ele>
        <time>2015-08-03T19:09:04Z</time>
      </trkpt>
      <trkpt lat="48.8347" lon="2.42003">
        <ele>43.400001525879</ele>
        <time>2015-08-03T19:09:08Z</time>
      </trkpt>
      <trkpt lat="48.83486" lon="2.41992">
        <ele>43</ele>
        <time>2015-08-03T19:09:12Z</time>
      </trkpt>
      <trkpt lat="48.83492" lon="2.41988">
        <ele>43.20000076294</ele>
        <time>2015-08-03T19:09:15Z</time>
      </trkpt>
      <trkpt lat="48.835" lon="2.41998">
        <ele>44.79999923706</ele>
        <time>2015-08-03T19:10:21Z</time>
      </trkpt>
      <trkpt lat="48.8351" lon="2.42022">
        <ele>44</ele>
        <time>2015-08-03T19:10:25Z</time>
      </trkpt>
      <trkpt lat="48.83519" lon="2.42045">
        <ele>43.400001525879</ele>
        <time>2015-08-03T19:10:28Z</time>
      </trkpt>
      <trkpt lat="48.83529" lon="2.42074">
        <ele>42.79999923706</ele>
        <time>2015-08-03T19:10:31Z</time>
      </trkpt>
      <trkpt lat="48.83539" lon="2.42104">
        <ele>42.599998474121</ele>
        <time>2015-08-03T19:10:34Z</time>
      </trkpt>
      <trkpt lat="48.83549" lon="2.42135">
        <ele>41.79999923706</ele>
        <time>2015-08-03T19:10:37Z</time>
      </trkpt>
      <trkpt lat="48.83559" lon="2.42164">
        <ele>41.599998474121</ele>
        <time>2015-08-03T19:10:40Z</time>
      </trkpt>
      <trkpt lat="48.8357" lon="2.42192">
        <ele>41.79999923706</ele>
        <time>2015-08-03T19:10:43Z</time>
      </trkpt>
      <trkpt lat="48.83581" lon="2.4222">
        <ele>42</ele>
        <time>2015-08-03T19:10:46Z</time>
      </trkpt>
      <trkpt lat="48.83585" lon="2.4223">
        <ele>42.20000076294</ele>
        <time>2015-08-03T19:10:47Z</time>
      </trkpt>
      <trkpt lat="48.83597" lon="2.42258">
        <ele>41.20000076294</ele>
        <time>2015-08-03T19:10:50Z</time>
      </trkpt>
      <trkpt lat="48.83609" lon="2.42285">
        <ele>40.79999923706</ele>
        <time>2015-08-03T19:10:53Z</time>
      </trkpt>
      <trkpt lat="48.83621" lon="2.42313">
        <ele>40.400001525879</ele>
        <time>2015-08-03T19:10:56Z</time>
      </trkpt>
      <trkpt lat="48.83634" lon="2.42341">
        <ele>39.79999923706</ele>
        <time>2015-08-03T19:10:59Z</time>
      </trkpt>
      <trkpt lat="48.8365" lon="2.4237">
        <ele>40</ele>
        <time>2015-08-03T19:11:02Z</time>
      </trkpt>
      <trkpt lat="48.83665" lon="2.42397">
        <ele>40.20000076294</ele>
        <time>2015-08-03T19:11:05Z</time>
      </trkpt>
      <trkpt lat="48.83681" lon="2.42426">
        <ele>41.20000076294</ele>
        <time>2015-08-03T19:11:08Z</time>
      </trkpt>
      <trkpt lat="48.83696" lon="2.42453">
        <ele>41.400001525879</ele>
        <time>2015-08-03T19:11:11Z</time>
      </trkpt>
      <trkpt lat="48.83712" lon="2.4248">
        <ele>41.20000076294</ele>
        <time>2015-08-03T19:11:14Z</time>
      </trkpt>
      <trkpt lat="48.8373" lon="2.42506">
        <ele>41</ele>
        <time>2015-08-03T19:11:17Z</time>
      </trkpt>
      <trkpt lat="48.83742" lon="2.42523">
        <ele>39.79999923706</ele>
        <time>2015-08-03T19:11:19Z</time>
      </trkpt>
      <trkpt lat="48.8376" lon="2.42549">
        <ele>39</ele>
        <time>2015-08-03T19:11:22Z</time>
      </trkpt>
      <trkpt lat="48.83776" lon="2.42578">
        <ele>37.79999923706</ele>
        <time>2015-08-03T19:11:25Z</time>
      </trkpt>
      <trkpt lat="48.83792" lon="2.42607">
        <ele>35.79999923706</ele>
        <time>2015-08-03T19:11:28Z</time>
      </trkpt>
      <trkpt lat="48.83807" lon="2.42636">
        <ele>34.79999923706</ele>
        <time>2015-08-03T19:11:31Z</time>
      </trkpt>
      <trkpt lat="48.83822" lon="2.42666">
        <ele>33.599998474121</ele>
        <time>2015-08-03T19:11:34Z</time>
      </trkpt>
      <trkpt lat="48.83833" lon="2.4269">
        <ele>32.79999923706</ele>
        <time>2015-08-03T19:11:36Z</time>
      </trkpt>
      <trkpt lat="48.83846" lon="2.42712">
        <ele>32.400001525879</ele>
        <time>2015-08-03T19:11:38Z</time>
      </trkpt>
      <trkpt lat="48.83857" lon="2.42734">
        <ele>32</ele>
        <time>2015-08-03T19:11:40Z</time>
      </trkpt>
      <trkpt lat="48.83866" lon="2.42758">
        <ele>32</ele>
        <time>2015-08-03T19:11:42Z</time>
      </trkpt>
      <trkpt lat="48.83879" lon="2.42793">
        <ele>31.60000038147</ele>
        <time>2015-08-03T19:11:45Z</time>
      </trkpt>
      <trkpt lat="48.83891" lon="2.42828">
        <ele>31</ele>
        <time>2015-08-03T19:11:48Z</time>
      </trkpt>
      <trkpt lat="48.83902" lon="2.42864">
        <ele>30.799999237061</ele>
        <time>2015-08-03T19:11:51Z</time>
      </trkpt>
      <trkpt lat="48.83912" lon="2.42899">
        <ele>30.60000038147</ele>
        <time>2015-08-03T19:11:54Z</time>
      </trkpt>
      <trkpt lat="48.83921" lon="2.42934">
        <ele>31</ele>
        <time>2015-08-03T19:11:57Z</time>
      </trkpt>
      <trkpt lat="48.83932" lon="2.42969">
        <ele>31.60000038147</ele>
        <time>2015-08-03T19:12:00Z</time>
      </trkpt>
      <trkpt lat="48.8394" lon="2.43005">
        <ele>33.20000076294</ele>
        <time>2015-08-03T19:12:03Z</time>
      </trkpt>
      <trkpt lat="48.83948" lon="2.43041">
        <ele>33.79999923706</ele>
        <time>2015-08-03T19:12:06Z</time>
      </trkpt>
      <trkpt lat="48.83957" lon="2.43077">
        <ele>33.599998474121</ele>
        <time>2015-08-03T19:12:09Z</time>
      </trkpt>
      <trkpt lat="48.83965" lon="2.43112">
        <ele>34.599998474121</ele>
        <time>2015-08-03T19:12:12Z</time>
      </trkpt>
      <trkpt lat="48.83974" lon="2.43146">
        <ele>34.599998474121</ele>
        <time>2015-08-03T19:12:15Z</time>
      </trkpt>
      <trkpt lat="48.83983" lon="2.43179">
        <ele>34.400001525879</ele>
        <time>2015-08-03T19:12:18Z</time>
      </trkpt>
      <trkpt lat="48.83992" lon="2.43211">
        <ele>34.599998474121</ele>
        <time>2015-08-03T19:12:21Z</time>
      </trkpt>
      <trkpt lat="48.84" lon="2.43241">
        <ele>35.79999923706</ele>
        <time>2015-08-03T19:12:24Z</time>
      </trkpt>
      <trkpt lat="48.84009" lon="2.43272">
        <ele>36.20000076294</ele>
        <time>2015-08-03T19:12:27Z</time>
      </trkpt>
      <trkpt lat="48.84017" lon="2.43302">
        <ele>36.599998474121</ele>
        <time>2015-08-03T19:12:30Z</time>
      </trkpt>
      <trkpt lat="48.84024" lon="2.43332">
        <ele>36.599998474121</ele>
        <time>2015-08-03T19:12:33Z</time>
      </trkpt>
      <trkpt lat="48.84033" lon="2.4336">
        <ele>37.400001525879</ele>
        <time>2015-08-03T19:12:36Z</time>
      </trkpt>
      <trkpt lat="48.8404" lon="2.43386">
        <ele>38.599998474121</ele>
        <time>2015-08-03T19:12:39Z</time>
      </trkpt>
      <trkpt lat="48.84046" lon="2.43416">
        <ele>39.599998474121</ele>
        <time>2015-08-03T19:12:43Z</time>
      </trkpt>
      <trkpt lat="48.84048" lon="2.43428">
        <ele>41</ele>
        <time>2015-08-03T19:12:45Z</time>
      </trkpt>
      <trkpt lat="48.84045" lon="2.43455">
        <ele>42.400001525879</ele>
        <time>2015-08-03T19:12:50Z</time>
      </trkpt>
      <trkpt lat="48.84039" lon="2.43484">
        <ele>42.79999923706</ele>
        <time>2015-08-03T19:12:57Z</time>
      </trkpt>
      <trkpt lat="48.84033" lon="2.43511">
        <ele>44</ele>
        <time>2015-08-03T19:13:05Z</time>
      </trkpt>
      <trkpt lat="48.84029" lon="2.43522">
        <ele>44.79999923706</ele>
        <time>2015-08-03T19:13:10Z</time>
      </trkpt>
      <trkpt lat="48.84028" lon="2.43526">
        <ele>45</ele>
        <time>2015-08-03T19:13:13Z</time>
      </trkpt>
      <trkpt lat="48.84026" lon="2.4354">
        <ele>45.20000076294</ele>
        <time>2015-08-03T19:15:28Z</time>
      </trkpt>
      <trkpt lat="48.84026" lon="2.43571">
        <ele>45.599998474121</ele>
        <time>2015-08-03T19:15:35Z</time>
      </trkpt>
      <trkpt lat="48.84027" lon="2.436">
        <ele>45.20000076294</ele>
        <time>2015-08-03T19:15:40Z</time>
      </trkpt>
      <trkpt lat="48.84032" lon="2.43632">
        <ele>44.599998474121</ele>
        <time>2015-08-03T19:15:46Z</time>
      </trkpt>
      <trkpt lat="48.84039" lon="2.43657">
        <ele>45</ele>
        <time>2015-08-03T19:15:51Z</time>
      </trkpt>
      <trkpt lat="48.84048" lon="2.43684">
        <ele>45.20000076294</ele>
        <time>2015-08-03T19:15:56Z</time>
      </trkpt>
      <trkpt lat="48.84049" lon="2.43717">
        <ele>45.79999923706</ele>
        <time>2015-08-03T19:16:01Z</time>
      </trkpt>
      <trkpt lat="48.84047" lon="2.43747">
        <ele>45.599998474121</ele>
        <time>2015-08-03T19:16:05Z</time>
      </trkpt>
      <trkpt lat="48.84043" lon="2.43781">
        <ele>45.20000076294</ele>
        <time>2015-08-03T19:16:09Z</time>
      </trkpt>
      <trkpt lat="48.84039" lon="2.43815">
        <ele>44.599998474121</ele>
        <time>2015-08-03T19:16:13Z</time>
      </trkpt>
      <trkpt lat="48.84037" lon="2.43849">
        <ele>43.20000076294</ele>
        <time>2015-08-03T19:16:17Z</time>
      </trkpt>
      <trkpt lat="48.8404" lon="2.43876">
        <ele>42.20000076294</ele>
        <time>2015-08-03T19:16:21Z</time>
      </trkpt>
      <trkpt lat="48.84035" lon="2.43904">
        <ele>42.599998474121</ele>
        <time>2015-08-03T19:16:26Z</time>
      </trkpt>
      <trkpt lat="48.84033" lon="2.43917">
        <ele>42.400001525879</ele>
        <time>2015-08-03T19:16:28Z</time>
      </trkpt>
      <trkpt lat="48.84031" lon="2.43945">
        <ele>42.599998474121</ele>
        <time>2015-08-03T19:16:32Z</time>
      </trkpt>
      <trkpt lat="48.84029" lon="2.43974">
        <ele>42.400001525879</ele>
        <time>2015-08-03T19:16:36Z</time>
      </trkpt>
      <trkpt lat="48.84027" lon="2.44006">
        <ele>42.599998474121</ele>
        <time>2015-08-03T19:16:40Z</time>
      </trkpt>
      <trkpt lat="48.84025" lon="2.4404">
        <ele>43.20000076294</ele>
        <time>2015-08-03T19:16:44Z</time>
      </trkpt>
      <trkpt lat="48.84022" lon="2.44068">
        <ele>44.20000076294</ele>
        <time>2015-08-03T19:16:47Z</time>
      </trkpt>
      <trkpt lat="48.8402" lon="2.44098">
        <ele>45</ele>
        <time>2015-08-03T19:16:50Z</time>
      </trkpt>
      <trkpt lat="48.8402" lon="2.44129">
        <ele>46</ele>
        <time>2015-08-03T19:16:53Z</time>
      </trkpt>
      <trkpt lat="48.84019" lon="2.44139">
        <ele>45.599998474121</ele>
        <time>2015-08-03T19:16:54Z</time>
      </trkpt>
      <trkpt lat="48.8402" lon="2.4417">
        <ele>46.400001525879</ele>
        <time>2015-08-03T19:16:57Z</time>
      </trkpt>
      <trkpt lat="48.84018" lon="2.44202">
        <ele>45.599998474121</ele>
        <time>2015-08-03T19:17:00Z</time>
      </trkpt>
      <trkpt lat="48.84016" lon="2.44235">
        <ele>45.599998474121</ele>
        <time>2015-08-03T19:17:03Z</time>
      </trkpt>
      <trkpt lat="48.84013" lon="2.44267">
        <ele>45.599998474121</ele>
        <time>2015-08-03T19:17:06Z</time>
      </trkpt>
      <trkpt lat="48.84011" lon="2.44298">
        <ele>46.400001525879</ele>
        <time>2015-08-03T19:17:09Z</time>
      </trkpt>
      <trkpt lat="48.84009" lon="2.44329">
        <ele>47.599998474121</ele>
        <time>2015-08-03T19:17:12Z</time>
      </trkpt>
      <trkpt lat="48.84006" lon="2.4436">
        <ele>48.400001525879</ele>
        <time>2015-08-03T19:17:15Z</time>
      </trkpt>
      <trkpt lat="48.84004" lon="2.4439">
        <ele>49.20000076294</ele>
        <time>2015-08-03T19:17:18Z</time>
      </trkpt>
      <trkpt lat="48.84001" lon="2.44418">
        <ele>49.599998474121</ele>
        <time>2015-08-03T19:17:21Z</time>
      </trkpt>
      <trkpt lat="48.83998" lon="2.44437">
        <ele>49.599998474121</ele>
        <time>2015-08-03T19:17:23Z</time>
      </trkpt>
      <trkpt lat="48.83996" lon="2.44466">
        <ele>49.400001525879</ele>
        <time>2015-08-03T19:17:26Z</time>
      </trkpt>
      <trkpt lat="48.83994" lon="2.44494">
        <ele>50</ele>
        <time>2015-08-03T19:17:29Z</time>
      </trkpt>
      <trkpt lat="48.83992" lon="2.44522">
        <ele>50.79999923706</ele>
        <time>2015-08-03T19:17:32Z</time>
      </trkpt>
      <trkpt lat="48.83989" lon="2.44558">
        <ele>52.20000076294</ele>
        <time>2015-08-03T19:17:36Z</time>
      </trkpt>
      <trkpt lat="48.83989" lon="2.44566">
        <ele>52.20000076294</ele>
        <time>2015-08-03T19:17:37Z</time>
      </trkpt>
      <trkpt lat="48.83986" lon="2.446">
        <ele>52.599998474121</ele>
        <time>2015-08-03T19:17:41Z</time>
      </trkpt>
      <trkpt lat="48.83984" lon="2.44632">
        <ele>55.20000076294</ele>
        <time>2015-08-03T19:17:46Z</time>
      </trkpt>
      <trkpt lat="48.83984" lon="2.44638">
        <ele>55.20000076294</ele>
        <time>2015-08-03T19:17:47Z</time>
      </trkpt>
      <trkpt lat="48.83985" lon="2.44653">
        <ele>54.79999923706</ele>
        <time>2015-08-03T19:17:50Z</time>
      </trkpt>
      <trkpt lat="48.83986" lon="2.44644">
        <ele>51.400001525879</ele>
        <time>2015-08-03T19:18:01Z</time>
      </trkpt>
      <trkpt lat="48.83983" lon="2.4464">
        <ele>51.79999923706</ele>
        <time>2015-08-03T19:18:03Z</time>
      </trkpt>
      <trkpt lat="48.83982" lon="2.44639">
        <ele>51.79999923706</ele>
        <time>2015-08-03T19:18:04Z</time>
      </trkpt>
      <trkpt lat="48.83979" lon="2.44655">
        <ele>50.79999923706</ele>
        <time>2015-08-03T19:18:13Z</time>
      </trkpt>
      <trkpt lat="48.8398" lon="2.44657">
        <ele>50.400001525879</ele>
        <time>2015-08-03T19:18:14Z</time>
      </trkpt>
      <trkpt lat="48.83977" lon="2.44662">
        <ele>48.599998474121</ele>
        <time>2015-08-03T19:18:19Z</time>
      </trkpt>
      <trkpt lat="48.83969" lon="2.44686">
        <ele>47.79999923706</ele>
        <time>2015-08-03T19:18:46Z</time>
      </trkpt>
      <trkpt lat="48.83967" lon="2.44718">
        <ele>47.599998474121</ele>
        <time>2015-08-03T19:18:53Z</time>
      </trkpt>
      <trkpt lat="48.83965" lon="2.44746">
        <ele>46.79999923706</ele>
        <time>2015-08-03T19:19:00Z</time>
      </trkpt>
      <trkpt lat="48.83959" lon="2.44772">
        <ele>43.400001525879</ele>
        <time>2015-08-03T19:19:16Z</time>
      </trkpt>
      <trkpt lat="48.83954" lon="2.448">
        <ele>42.79999923706</ele>
        <time>2015-08-03T19:19:30Z</time>
      </trkpt>
      <trkpt lat="48.83945" lon="2.44827">
        <ele>41.79999923706</ele>
        <time>2015-08-03T19:19:37Z</time>
      </trkpt>
      <trkpt lat="48.83936" lon="2.44853">
        <ele>40.20000076294</ele>
        <time>2015-08-03T19:19:45Z</time>
      </trkpt>
      <trkpt lat="48.83926" lon="2.44876">
        <ele>38.20000076294</ele>
        <time>2015-08-03T19:19:52Z</time>
      </trkpt>
      <trkpt lat="48.83915" lon="2.449">
        <ele>36.20000076294</ele>
        <time>2015-08-03T19:19:58Z</time>
      </trkpt>
      <trkpt lat="48.83904" lon="2.44922">
        <ele>34</ele>
        <time>2015-08-03T19:20:03Z</time>
      </trkpt>
      <trkpt lat="48.8389" lon="2.4495">
        <ele>34</ele>
        <time>2015-08-03T19:20:08Z</time>
      </trkpt>
      <trkpt lat="48.83877" lon="2.44972">
        <ele>36.599998474121</ele>
        <time>2015-08-03T19:20:12Z</time>
      </trkpt>
      <trkpt lat="48.83862" lon="2.44999">
        <ele>40</ele>
        <time>2015-08-03T19:20:17Z</time>
      </trkpt>
      <trkpt lat="48.8385" lon="2.45021">
        <ele>43</ele>
        <time>2015-08-03T19:20:21Z</time>
      </trkpt>
      <trkpt lat="48.83837" lon="2.45048">
        <ele>45.599998474121</ele>
        <time>2015-08-03T19:20:26Z</time>
      </trkpt>
      <trkpt lat="48.83825" lon="2.45069">
        <ele>47.20000076294</ele>
        <time>2015-08-03T19:20:30Z</time>
      </trkpt>
      <trkpt lat="48.83812" lon="2.45094">
        <ele>46.79999923706</ele>
        <time>2015-08-03T19:20:34Z</time>
      </trkpt>
      <trkpt lat="48.83799" lon="2.45118">
        <ele>49.599998474121</ele>
        <time>2015-08-03T19:20:38Z</time>
      </trkpt>
      <trkpt lat="48.83796" lon="2.45124">
        <ele>50</ele>
        <time>2015-08-03T19:20:39Z</time>
      </trkpt>
      <trkpt lat="48.83783" lon="2.45146">
        <ele>52.20000076294</ele>
        <time>2015-08-03T19:20:43Z</time>
      </trkpt>
      <trkpt lat="48.83777" lon="2.4516">
        <ele>53.599998474121</ele>
        <time>2015-08-03T19:20:46Z</time>
      </trkpt>
      <trkpt lat="48.83772" lon="2.45172">
        <ele>53.20000076294</ele>
        <time>2015-08-03T19:20:49Z</time>
      </trkpt>
      <trkpt lat="48.83762" lon="2.45189">
        <ele>52.599998474121</ele>
        <time>2015-08-03T19:20:55Z</time>
      </trkpt>
      <trkpt lat="48.83757" lon="2.45197">
        <ele>52.599998474121</ele>
        <time>2015-08-03T19:20:58Z</time>
      </trkpt>
      <trkpt lat="48.83743" lon="2.45216">
        <ele>48.599998474121</ele>
        <time>2015-08-03T19:21:07Z</time>
      </trkpt>
      <trkpt lat="48.83728" lon="2.45237">
        <ele>46.79999923706</ele>
        <time>2015-08-03T19:21:15Z</time>
      </trkpt>
      <trkpt lat="48.83717" lon="2.45259">
        <ele>46</ele>
        <time>2015-08-03T19:21:22Z</time>
      </trkpt>
      <trkpt lat="48.83703" lon="2.45283">
        <ele>46.79999923706</ele>
        <time>2015-08-03T19:21:28Z</time>
      </trkpt>
      <trkpt lat="48.83692" lon="2.45307">
        <ele>47.20000076294</ele>
        <time>2015-08-03T19:21:33Z</time>
      </trkpt>
      <trkpt lat="48.83682" lon="2.45334">
        <ele>48.79999923706</ele>
        <time>2015-08-03T19:21:38Z</time>
      </trkpt>
      <trkpt lat="48.83675" lon="2.45362">
        <ele>50</ele>
        <time>2015-08-03T19:21:43Z</time>
      </trkpt>
      <trkpt lat="48.8367" lon="2.45392">
        <ele>50.599998474121</ele>
        <time>2015-08-03T19:21:48Z</time>
      </trkpt>
      <trkpt lat="48.83668" lon="2.45419">
        <ele>51</ele>
        <time>2015-08-03T19:21:52Z</time>
      </trkpt>
      <trkpt lat="48.83667" lon="2.45449">
        <ele>49.79999923706</ele>
        <time>2015-08-03T19:21:56Z</time>
      </trkpt>
      <trkpt lat="48.83665" lon="2.45478">
        <ele>49.599998474121</ele>
        <time>2015-08-03T19:22:01Z</time>
      </trkpt>
      <trkpt lat="48.83664" lon="2.45506">
        <ele>48.79999923706</ele>
        <time>2015-08-03T19:22:06Z</time>
      </trkpt>
      <trkpt lat="48.83663" lon="2.45537">
        <ele>49.599998474121</ele>
        <time>2015-08-03T19:22:12Z</time>
      </trkpt>
      <trkpt lat="48.83673" lon="2.45565">
        <ele>47.400001525879</ele>
        <time>2015-08-03T19:22:19Z</time>
      </trkpt>
      <trkpt lat="48.83686" lon="2.45585">
        <ele>46</ele>
        <time>2015-08-03T19:22:27Z</time>
      </trkpt>
      <trkpt lat="48.83693" lon="2.45594">
        <ele>46.20000076294</ele>
        <time>2015-08-03T19:22:34Z</time>
      </trkpt>
      <trkpt lat="48.83673" lon="2.45592">
        <ele>47.400001525879</ele>
        <time>2015-08-03T19:22:44Z</time>
      </trkpt>
      <trkpt lat="48.83653" lon="2.45592">
        <ele>46.79999923706</ele>
        <time>2015-08-03T19:22:51Z</time>
      </trkpt>
      <trkpt lat="48.83631" lon="2.45592">
        <ele>45.79999923706</ele>
        <time>2015-08-03T19:22:57Z</time>
      </trkpt>
      <trkpt lat="48.83613" lon="2.45591">
        <ele>45.20000076294</ele>
        <time>2015-08-03T19:23:02Z</time>
      </trkpt>
      <trkpt lat="48.83592" lon="2.45589">
        <ele>44.20000076294</ele>
        <time>2015-08-03T19:23:08Z</time>
      </trkpt>
      <trkpt lat="48.83574" lon="2.45584">
        <ele>44.20000076294</ele>
        <time>2015-08-03T19:23:13Z</time>
      </trkpt>
      <trkpt lat="48.83555" lon="2.45578">
        <ele>42.599998474121</ele>
        <time>2015-08-03T19:23:19Z</time>
      </trkpt>
      <trkpt lat="48.83536" lon="2.4558">
        <ele>43.20000076294</ele>
        <time>2015-08-03T19:23:26Z</time>
      </trkpt>
      <trkpt lat="48.83519" lon="2.45591">
        <ele>43</ele>
        <time>2015-08-03T19:23:32Z</time>
      </trkpt>
      <trkpt lat="48.835" lon="2.45604">
        <ele>43.400001525879</ele>
        <time>2015-08-03T19:23:38Z</time>
      </trkpt>
      <trkpt lat="48.83483" lon="2.45618">
        <ele>44.79999923706</ele>
        <time>2015-08-03T19:23:43Z</time>
      </trkpt>
      <trkpt lat="48.83465" lon="2.45634">
        <ele>46</ele>
        <time>2015-08-03T19:23:49Z</time>
      </trkpt>
      <trkpt lat="48.83448" lon="2.45653">
        <ele>46.599998474121</ele>
        <time>2015-08-03T19:23:55Z</time>
      </trkpt>
      <trkpt lat="48.83434" lon="2.45672">
        <ele>47.20000076294</ele>
        <time>2015-08-03T19:24:01Z</time>
      </trkpt>
      <trkpt lat="48.83419" lon="2.45691">
        <ele>47</ele>
        <time>2015-08-03T19:24:08Z</time>
      </trkpt>
      <trkpt lat="48.83404" lon="2.45709">
        <ele>47.400001525879</ele>
        <time>2015-08-03T19:24:14Z</time>
      </trkpt>
      <trkpt lat="48.83392" lon="2.4573">
        <ele>46.400001525879</ele>
        <time>2015-08-03T19:24:19Z</time>
      </trkpt>
      <trkpt lat="48.83381" lon="2.45755">
        <ele>48.20000076294</ele>
        <time>2015-08-03T19:24:24Z</time>
      </trkpt>
      <trkpt lat="48.83371" lon="2.45781">
        <ele>49.79999923706</ele>
        <time>2015-08-03T19:24:29Z</time>
      </trkpt>
      <trkpt lat="48.8336" lon="2.45807">
        <ele>50.599998474121</ele>
        <time>2015-08-03T19:24:36Z</time>
      </trkpt>
      <trkpt lat="48.83349" lon="2.45835">
        <ele>52.20000076294</ele>
        <time>2015-08-03T19:24:42Z</time>
      </trkpt>
      <trkpt lat="48.83346" lon="2.45864">
        <ele>54</ele>
        <time>2015-08-03T19:24:47Z</time>
      </trkpt>
      <trkpt lat="48.83345" lon="2.45894">
        <ele>56.20000076294</ele>
        <time>2015-08-03T19:24:52Z</time>
      </trkpt>
      <trkpt lat="48.83346" lon="2.45922">
        <ele>55.79999923706</ele>
        <time>2015-08-03T19:24:57Z</time>
      </trkpt>
      <trkpt lat="48.8335" lon="2.45954">
        <ele>53.599998474121</ele>
        <time>2015-08-03T19:25:03Z</time>
      </trkpt>
      <trkpt lat="48.83354" lon="2.45985">
        <ele>54</ele>
        <time>2015-08-03T19:25:09Z</time>
      </trkpt>
      <trkpt lat="48.83359" lon="2.46012">
        <ele>54.20000076294</ele>
        <time>2015-08-03T19:25:14Z</time>
      </trkpt>
      <trkpt lat="48.83366" lon="2.46042">
        <ele>55.400001525879</ele>
        <time>2015-08-03T19:25:20Z</time>
      </trkpt>
      <trkpt lat="48.83374" lon="2.46068">
        <ele>55.20000076294</ele>
        <time>2015-08-03T19:25:25Z</time>
      </trkpt>
      <trkpt lat="48.83384" lon="2.46093">
        <ele>54</ele>
        <time>2015-08-03T19:25:30Z</time>
      </trkpt>
      <trkpt lat="48.83395" lon="2.46118">
        <ele>54.400001525879</ele>
        <time>2015-08-03T19:25:35Z</time>
      </trkpt>
      <trkpt lat="48.83406" lon="2.4614">
        <ele>52.20000076294</ele>
        <time>2015-08-03T19:25:40Z</time>
      </trkpt>
      <trkpt lat="48.83418" lon="2.46162">
        <ele>51.599998474121</ele>
        <time>2015-08-03T19:25:46Z</time>
      </trkpt>
      <trkpt lat="48.83422" lon="2.46167">
        <ele>51.400001525879</ele>
        <time>2015-08-03T19:25:49Z</time>
      </trkpt>
      <trkpt lat="48.8343" lon="2.46151">
        <ele>52</ele>
        <time>2015-08-03T19:25:57Z</time>
      </trkpt>
      <trkpt lat="48.83448" lon="2.46149">
        <ele>51.400001525879</ele>
        <time>2015-08-03T19:26:02Z</time>
      </trkpt>
      <trkpt lat="48.83468" lon="2.46144">
        <ele>51.20000076294</ele>
        <time>2015-08-03T19:26:08Z</time>
      </trkpt>
      <trkpt lat="48.83486" lon="2.46133">
        <ele>50.20000076294</ele>
        <time>2015-08-03T19:26:13Z</time>
      </trkpt>
      <trkpt lat="48.83504" lon="2.46119">
        <ele>49.79999923706</ele>
        <time>2015-08-03T19:26:19Z</time>
      </trkpt>
      <trkpt lat="48.83517" lon="2.46094">
        <ele>51.400001525879</ele>
        <time>2015-08-03T19:26:26Z</time>
      </trkpt>
      <trkpt lat="48.83521" lon="2.46067">
        <ele>52.20000076294</ele>
        <time>2015-08-03T19:26:31Z</time>
      </trkpt>
      <trkpt lat="48.83527" lon="2.46036">
        <ele>52</ele>
        <time>2015-08-03T19:26:36Z</time>
      </trkpt>
      <trkpt lat="48.83538" lon="2.4601">
        <ele>49.599998474121</ele>
        <time>2015-08-03T19:26:42Z</time>
      </trkpt>
      <trkpt lat="48.83553" lon="2.45993">
        <ele>48.20000076294</ele>
        <time>2015-08-03T19:26:49Z</time>
      </trkpt>
      <trkpt lat="48.83572" lon="2.45982">
        <ele>46.20000076294</ele>
        <time>2015-08-03T19:26:56Z</time>
      </trkpt>
      <trkpt lat="48.83589" lon="2.45973">
        <ele>46</ele>
        <time>2015-08-03T19:27:02Z</time>
      </trkpt>
      <trkpt lat="48.83606" lon="2.45959">
        <ele>46.400001525879</ele>
        <time>2015-08-03T19:27:11Z</time>
      </trkpt>
      <trkpt lat="48.83626" lon="2.45953">
        <ele>45.20000076294</ele>
        <time>2015-08-03T19:27:18Z</time>
      </trkpt>
      <trkpt lat="48.83645" lon="2.45952">
        <ele>46</ele>
        <time>2015-08-03T19:27:24Z</time>
      </trkpt>
      <trkpt lat="48.83664" lon="2.45951">
        <ele>44.20000076294</ele>
        <time>2015-08-03T19:27:30Z</time>
      </trkpt>
      <trkpt lat="48.83684" lon="2.45952">
        <ele>44.79999923706</ele>
        <time>2015-08-03T19:27:36Z</time>
      </trkpt>
      <trkpt lat="48.83705" lon="2.4596">
        <ele>44.20000076294</ele>
        <time>2015-08-03T19:27:43Z</time>
      </trkpt>
      <trkpt lat="48.83724" lon="2.45966">
        <ele>43</ele>
        <time>2015-08-03T19:27:50Z</time>
      </trkpt>
      <trkpt lat="48.8374" lon="2.45978">
        <ele>39</ele>
        <time>2015-08-03T19:27:56Z</time>
      </trkpt>
      <trkpt lat="48.83754" lon="2.45996">
        <ele>34.400001525879</ele>
        <time>2015-08-03T19:28:02Z</time>
      </trkpt>
      <trkpt lat="48.83768" lon="2.46017">
        <ele>33.20000076294</ele>
        <time>2015-08-03T19:28:08Z</time>
      </trkpt>
      <trkpt lat="48.83782" lon="2.46037">
        <ele>33.400001525879</ele>
        <time>2015-08-03T19:28:14Z</time>
      </trkpt>
      <trkpt lat="48.83797" lon="2.46053">
        <ele>34.599998474121</ele>
        <time>2015-08-03T19:28:20Z</time>
      </trkpt>
      <trkpt lat="48.83817" lon="2.46058">
        <ele>39.599998474121</ele>
        <time>2015-08-03T19:28:26Z</time>
      </trkpt>
      <trkpt lat="48.83837" lon="2.46062">
        <ele>40.20000076294</ele>
        <time>2015-08-03T19:28:34Z</time>
      </trkpt>
      <trkpt lat="48.83856" lon="2.4606">
        <ele>39.599998474121</ele>
        <time>2015-08-03T19:28:44Z</time>
      </trkpt>
      <trkpt lat="48.83874" lon="2.46065">
        <ele>39.400001525879</ele>
        <time>2015-08-03T19:28:56Z</time>
      </trkpt>
      <trkpt lat="48.83876" lon="2.46066">
        <ele>39.400001525879</ele>
        <time>2015-08-03T19:29:00Z</time>
      </trkpt>
      <trkpt lat="48.83893" lon="2.46062">
        <ele>47.20000076294</ele>
        <time>2015-08-03T19:29:54Z</time>
      </trkpt>
      <trkpt lat="48.83894" lon="2.46061">
        <ele>47.400001525879</ele>
        <time>2015-08-03T19:29:55Z</time>
      </trkpt>
      <trkpt lat="48.83899" lon="2.4605">
        <ele>47.20000076294</ele>
        <time>2015-08-03T19:29:59Z</time>
      </trkpt>
      <trkpt lat="48.83902" lon="2.46048">
        <ele>47</ele>
        <time>2015-08-03T19:30:00Z</time>
      </trkpt>
      <trkpt lat="48.83916" lon="2.46053">
        <ele>46.20000076294</ele>
        <time>2015-08-03T19:30:05Z</time>
      </trkpt>
      <trkpt lat="48.8393" lon="2.46069">
        <ele>46</ele>
        <time>2015-08-03T19:30:10Z</time>
      </trkpt>
      <trkpt lat="48.83946" lon="2.46085">
        <ele>45.599998474121</ele>
        <time>2015-08-03T19:30:15Z</time>
      </trkpt>
      <trkpt lat="48.83962" lon="2.46095">
        <ele>44.79999923706</ele>
        <time>2015-08-03T19:30:19Z</time>
      </trkpt>
      <trkpt lat="48.83979" lon="2.46108">
        <ele>44.400001525879</ele>
        <time>2015-08-03T19:30:23Z</time>
      </trkpt>
      <trkpt lat="48.83999" lon="2.4612">
        <ele>44.599998474121</ele>
        <time>2015-08-03T19:30:28Z</time>
      </trkpt>
      <trkpt lat="48.84016" lon="2.46131">
        <ele>43.599998474121</ele>
        <time>2015-08-03T19:30:32Z</time>
      </trkpt>
      <trkpt lat="48.84034" lon="2.46142">
        <ele>42.79999923706</ele>
        <time>2015-08-03T19:30:36Z</time>
      </trkpt>
      <trkpt lat="48.84054" lon="2.4615">
        <ele>42</ele>
        <time>2015-08-03T19:30:40Z</time>
      </trkpt>
      <trkpt lat="48.84058" lon="2.46152">
        <ele>42.20000076294</ele>
        <time>2015-08-03T19:30:41Z</time>
      </trkpt>
      <trkpt lat="48.84079" lon="2.46159">
        <ele>46.599998474121</ele>
        <time>2015-08-03T19:30:46Z</time>
      </trkpt>
      <trkpt lat="48.84089" lon="2.46165">
        <ele>46.599998474121</ele>
        <time>2015-08-03T19:30:48Z</time>
      </trkpt>
      <trkpt lat="48.84108" lon="2.46176">
        <ele>48.79999923706</ele>
        <time>2015-08-03T19:30:52Z</time>
      </trkpt>
      <trkpt lat="48.84118" lon="2.46182">
        <ele>49</ele>
        <time>2015-08-03T19:30:54Z</time>
      </trkpt>
      <trkpt lat="48.84134" lon="2.46197">
        <ele>49.599998474121</ele>
        <time>2015-08-03T19:30:57Z</time>
      </trkpt>
      <trkpt lat="48.84149" lon="2.46213">
        <ele>50.400001525879</ele>
        <time>2015-08-03T19:31:00Z</time>
      </trkpt>
      <trkpt lat="48.84154" lon="2.46219">
        <ele>49.79999923706</ele>
        <time>2015-08-03T19:31:01Z</time>
      </trkpt>
      <trkpt lat="48.84164" lon="2.46227">
        <ele>50</ele>
        <time>2015-08-03T19:31:03Z</time>
      </trkpt>
      <trkpt lat="48.84179" lon="2.46244">
        <ele>49.79999923706</ele>
        <time>2015-08-03T19:31:07Z</time>
      </trkpt>
      <trkpt lat="48.84195" lon="2.46266">
        <ele>51.79999923706</ele>
        <time>2015-08-03T19:31:12Z</time>
      </trkpt>
      <trkpt lat="48.84202" lon="2.46278">
        <ele>53.400001525879</ele>
        <time>2015-08-03T19:31:15Z</time>
      </trkpt>
      <trkpt lat="48.84219" lon="2.46278">
        <ele>57.599998474121</ele>
        <time>2015-08-03T19:31:21Z</time>
      </trkpt>
      <trkpt lat="48.84221" lon="2.46273">
        <ele>58.400001525879</ele>
        <time>2015-08-03T19:31:22Z</time>
      </trkpt>
      <trkpt lat="48.84228" lon="2.46258">
        <ele>59.79999923706</ele>
        <time>2015-08-03T19:31:25Z</time>
      </trkpt>
      <trkpt lat="48.84236" lon="2.46234">
        <ele>60.400001525879</ele>
        <time>2015-08-03T19:31:29Z</time>
      </trkpt>
      <trkpt lat="48.84244" lon="2.46207">
        <ele>60.400001525879</ele>
        <time>2015-08-03T19:31:33Z</time>
      </trkpt>
      <trkpt lat="48.84248" lon="2.46201">
        <ele>60.400001525879</ele>
        <time>2015-08-03T19:31:34Z</time>
      </trkpt>
      <trkpt lat="48.84258" lon="2.46173">
        <ele>60.79999923706</ele>
        <time>2015-08-03T19:31:38Z</time>
      </trkpt>
      <trkpt lat="48.84264" lon="2.46157">
        <ele>60.599998474121</ele>
        <time>2015-08-03T19:31:40Z</time>
      </trkpt>
      <trkpt lat="48.8427" lon="2.4614">
        <ele>59.79999923706</ele>
        <time>2015-08-03T19:31:42Z</time>
      </trkpt>
      <trkpt lat="48.84279" lon="2.46114">
        <ele>58.400001525879</ele>
        <time>2015-08-03T19:31:45Z</time>
      </trkpt>
      <trkpt lat="48.84285" lon="2.46087">
        <ele>57.20000076294</ele>
        <time>2015-08-03T19:31:48Z</time>
      </trkpt>
      <trkpt lat="48.84293" lon="2.46058">
        <ele>56.599998474121</ele>
        <time>2015-08-03T19:31:52Z</time>
      </trkpt>
      <trkpt lat="48.84299" lon="2.4603">
        <ele>57.20000076294</ele>
        <time>2015-08-03T19:31:56Z</time>
      </trkpt>
      <trkpt lat="48.84303" lon="2.46015">
        <ele>56.599998474121</ele>
        <time>2015-08-03T19:31:58Z</time>
      </trkpt>
      <trkpt lat="48.8431" lon="2.45983">
        <ele>55.20000076294</ele>
        <time>2015-08-03T19:32:02Z</time>
      </trkpt>
      <trkpt lat="48.84316" lon="2.45948">
        <ele>53.79999923706</ele>
        <time>2015-08-03T19:32:06Z</time>
      </trkpt>
      <trkpt lat="48.84322" lon="2.45919">
        <ele>52.400001525879</ele>
        <time>2015-08-03T19:32:09Z</time>
      </trkpt>
      <trkpt lat="48.84327" lon="2.45891">
        <ele>51.20000076294</ele>
        <time>2015-08-03T19:32:12Z</time>
      </trkpt>
      <trkpt lat="48.84329" lon="2.45882">
        <ele>51</ele>
        <time>2015-08-03T19:32:13Z</time>
      </trkpt>
      <trkpt lat="48.84334" lon="2.45854">
        <ele>50.79999923706</ele>
        <time>2015-08-03T19:32:16Z</time>
      </trkpt>
      <trkpt lat="48.84339" lon="2.45825">
        <ele>50.79999923706</ele>
        <time>2015-08-03T19:32:19Z</time>
      </trkpt>
      <trkpt lat="48.84344" lon="2.45792">
        <ele>51</ele>
        <time>2015-08-03T19:32:22Z</time>
      </trkpt>
      <trkpt lat="48.84349" lon="2.4576">
        <ele>51</ele>
        <time>2015-08-03T19:32:25Z</time>
      </trkpt>
      <trkpt lat="48.84356" lon="2.45728">
        <ele>50.20000076294</ele>
        <time>2015-08-03T19:32:28Z</time>
      </trkpt>
      <trkpt lat="48.84362" lon="2.45704">
        <ele>48.599998474121</ele>
        <time>2015-08-03T19:32:30Z</time>
      </trkpt>
      <trkpt lat="48.84367" lon="2.45671">
        <ele>47.20000076294</ele>
        <time>2015-08-03T19:32:33Z</time>
      </trkpt>
      <trkpt lat="48.8437" lon="2.45637">
        <ele>44.599998474121</ele>
        <time>2015-08-03T19:32:36Z</time>
      </trkpt>
      <trkpt lat="48.84375" lon="2.45601">
        <ele>43.79999923706</ele>
        <time>2015-08-03T19:32:39Z</time>
      </trkpt>
      <trkpt lat="48.84378" lon="2.45578">
        <ele>43</ele>
        <time>2015-08-03T19:32:41Z</time>
      </trkpt>
      <trkpt lat="48.84384" lon="2.4554">
        <ele>41.400001525879</ele>
        <time>2015-08-03T19:32:44Z</time>
      </trkpt>
      <trkpt lat="48.84389" lon="2.45502">
        <ele>39.79999923706</ele>
        <time>2015-08-03T19:32:47Z</time>
      </trkpt>
      <trkpt lat="48.84394" lon="2.45465">
        <ele>38.400001525879</ele>
        <time>2015-08-03T19:32:50Z</time>
      </trkpt>
      <trkpt lat="48.84399" lon="2.45427">
        <ele>37.400001525879</ele>
        <time>2015-08-03T19:32:53Z</time>
      </trkpt>
      <trkpt lat="48.84401" lon="2.45415">
        <ele>37.20000076294</ele>
        <time>2015-08-03T19:32:54Z</time>
      </trkpt>
      <trkpt lat="48.84405" lon="2.45391">
        <ele>36.599998474121</ele>
        <time>2015-08-03T19:32:56Z</time>
      </trkpt>
      <trkpt lat="48.84408" lon="2.45356">
        <ele>36.400001525879</ele>
        <time>2015-08-03T19:32:59Z</time>
      </trkpt>
      <trkpt lat="48.84409" lon="2.45344">
        <ele>36.400001525879</ele>
        <time>2015-08-03T19:33:00Z</time>
      </trkpt>
      <trkpt lat="48.84413" lon="2.45312">
        <ele>36.400001525879</ele>
        <time>2015-08-03T19:33:03Z</time>
      </trkpt>
      <trkpt lat="48.84417" lon="2.45282">
        <ele>37.599998474121</ele>
        <time>2015-08-03T19:33:06Z</time>
      </trkpt>
      <trkpt lat="48.84421" lon="2.45251">
        <ele>38</ele>
        <time>2015-08-03T19:33:09Z</time>
      </trkpt>
      <trkpt lat="48.84427" lon="2.45218">
        <ele>39</ele>
        <time>2015-08-03T19:33:12Z</time>
      </trkpt>
      <trkpt lat="48.84433" lon="2.45182">
        <ele>38.79999923706</ele>
        <time>2015-08-03T19:33:15Z</time>
      </trkpt>
      <trkpt lat="48.84437" lon="2.45147">
        <ele>39.400001525879</ele>
        <time>2015-08-03T19:33:18Z</time>
      </trkpt>
      <trkpt lat="48.84443" lon="2.45116">
        <ele>40.400001525879</ele>
        <time>2015-08-03T19:33:21Z</time>
      </trkpt>
      <trkpt lat="48.8445" lon="2.45084">
        <ele>42</ele>
        <time>2015-08-03T19:33:25Z</time>
      </trkpt>
      <trkpt lat="48.84452" lon="2.45071">
        <ele>42.599998474121</ele>
        <time>2015-08-03T19:33:27Z</time>
      </trkpt>
      <trkpt lat="48.84456" lon="2.4504">
        <ele>44</ele>
        <time>2015-08-03T19:33:32Z</time>
      </trkpt>
      <trkpt lat="48.84459" lon="2.45023">
        <ele>43.79999923706</ele>
        <time>2015-08-03T19:33:35Z</time>
      </trkpt>
      <trkpt lat="48.84463" lon="2.45001">
        <ele>42.79999923706</ele>
        <time>2015-08-03T19:33:39Z</time>
      </trkpt>
      <trkpt lat="48.84468" lon="2.44969">
        <ele>43</ele>
        <time>2015-08-03T19:33:44Z</time>
      </trkpt>
      <trkpt lat="48.84473" lon="2.44937">
        <ele>43.79999923706</ele>
        <time>2015-08-03T19:33:49Z</time>
      </trkpt>
      <trkpt lat="48.84475" lon="2.44917">
        <ele>44.79999923706</ele>
        <time>2015-08-03T19:33:52Z</time>
      </trkpt>
      <trkpt lat="48.84477" lon="2.44889">
        <ele>46</ele>
        <time>2015-08-03T19:33:56Z</time>
      </trkpt>
      <trkpt lat="48.84477" lon="2.44883">
        <ele>46.400001525879</ele>
        <time>2015-08-03T19:33:57Z</time>
      </trkpt>
      <trkpt lat="48.84481" lon="2.44849">
        <ele>47</ele>
        <time>2015-08-03T19:34:02Z</time>
      </trkpt>
      <trkpt lat="48.84482" lon="2.44835">
        <ele>47</ele>
        <time>2015-08-03T19:34:04Z</time>
      </trkpt>
      <trkpt lat="48.84485" lon="2.44805">
        <ele>46.599998474121</ele>
        <time>2015-08-03T19:34:08Z</time>
      </trkpt>
      <trkpt lat="48.84488" lon="2.44773">
        <ele>45.79999923706</ele>
        <time>2015-08-03T19:34:12Z</time>
      </trkpt>
      <trkpt lat="48.84489" lon="2.44756">
        <ele>45.599998474121</ele>
        <time>2015-08-03T19:34:14Z</time>
      </trkpt>
      <trkpt lat="48.8449" lon="2.44722">
        <ele>46</ele>
        <time>2015-08-03T19:34:18Z</time>
      </trkpt>
      <trkpt lat="48.84493" lon="2.44689">
        <ele>45.20000076294</ele>
        <time>2015-08-03T19:34:22Z</time>
      </trkpt>
      <trkpt lat="48.84494" lon="2.44668">
        <ele>45</ele>
        <time>2015-08-03T19:34:25Z</time>
      </trkpt>
      <trkpt lat="48.84509" lon="2.44654">
        <ele>45.20000076294</ele>
        <time>2015-08-03T19:34:30Z</time>
      </trkpt>
      <trkpt lat="48.84518" lon="2.44656">
        <ele>45.400001525879</ele>
        <time>2015-08-03T19:34:32Z</time>
      </trkpt>
      <trkpt lat="48.84526" lon="2.44659">
        <ele>45.599998474121</ele>
        <time>2015-08-03T19:34:34Z</time>
      </trkpt>
      <trkpt lat="48.84538" lon="2.44661">
        <ele>46.400001525879</ele>
        <time>2015-08-03T19:34:37Z</time>
      </trkpt>
      <trkpt lat="48.84549" lon="2.44663">
        <ele>47.400001525879</ele>
        <time>2015-08-03T19:34:40Z</time>
      </trkpt>
      <trkpt lat="48.84567" lon="2.44665">
        <ele>47</ele>
        <time>2015-08-03T19:34:46Z</time>
      </trkpt>
      <trkpt lat="48.84574" lon="2.44664">
        <ele>48.599998474121</ele>
        <time>2015-08-03T19:34:50Z</time>
      </trkpt>
      <trkpt lat="48.84574" lon="2.44642">
        <ele>52.400001525879</ele>
        <time>2015-08-03T19:35:10Z</time>
      </trkpt>
      <trkpt lat="48.84575" lon="2.44614">
        <ele>51.400001525879</ele>
        <time>2015-08-03T19:35:15Z</time>
      </trkpt>
      <trkpt lat="48.84579" lon="2.44583">
        <ele>50</ele>
        <time>2015-08-03T19:35:19Z</time>
      </trkpt>
      <trkpt lat="48.84582" lon="2.44549">
        <ele>48.20000076294</ele>
        <time>2015-08-03T19:35:23Z</time>
      </trkpt>
      <trkpt lat="48.84584" lon="2.44514">
        <ele>48</ele>
        <time>2015-08-03T19:35:27Z</time>
      </trkpt>
      <trkpt lat="48.84585" lon="2.44482">
        <ele>47.79999923706</ele>
        <time>2015-08-03T19:35:31Z</time>
      </trkpt>
      <trkpt lat="48.84586" lon="2.44451">
        <ele>47.20000076294</ele>
        <time>2015-08-03T19:35:35Z</time>
      </trkpt>
      <trkpt lat="48.84588" lon="2.44423">
        <ele>47.400001525879</ele>
        <time>2015-08-03T19:35:39Z</time>
      </trkpt>
      <trkpt lat="48.84588" lon="2.44408">
        <ele>47.20000076294</ele>
        <time>2015-08-03T19:35:41Z</time>
      </trkpt>
      <trkpt lat="48.84588" lon="2.44387">
        <ele>44.400001525879</ele>
        <time>2015-08-03T19:35:44Z</time>
      </trkpt>
      <trkpt lat="48.84589" lon="2.44373">
        <ele>43</ele>
        <time>2015-08-03T19:35:46Z</time>
      </trkpt>
      <trkpt lat="48.8459" lon="2.44344">
        <ele>41.20000076294</ele>
        <time>2015-08-03T19:35:50Z</time>
      </trkpt>
      <trkpt lat="48.8459" lon="2.4432">
        <ele>41.400001525879</ele>
        <time>2015-08-03T19:35:53Z</time>
      </trkpt>
      <trkpt lat="48.8459" lon="2.4429">
        <ele>41.599998474121</ele>
        <time>2015-08-03T19:35:57Z</time>
      </trkpt>
      <trkpt lat="48.84592" lon="2.44259">
        <ele>42.599998474121</ele>
        <time>2015-08-03T19:36:01Z</time>
      </trkpt>
      <trkpt lat="48.84592" lon="2.44228">
        <ele>43.400001525879</ele>
        <time>2015-08-03T19:36:06Z</time>
      </trkpt>
      <trkpt lat="48.8459" lon="2.44212">
        <ele>45.599998474121</ele>
        <time>2015-08-03T19:36:09Z</time>
      </trkpt>
      <trkpt lat="48.84589" lon="2.44185">
        <ele>47.400001525879</ele>
        <time>2015-08-03T19:36:13Z</time>
      </trkpt>
      <trkpt lat="48.8459" lon="2.44154">
        <ele>46</ele>
        <time>2015-08-03T19:36:17Z</time>
      </trkpt>
      <trkpt lat="48.84592" lon="2.44125">
        <ele>45.79999923706</ele>
        <time>2015-08-03T19:36:21Z</time>
      </trkpt>
      <trkpt lat="48.84592" lon="2.44111">
        <ele>46</ele>
        <time>2015-08-03T19:36:23Z</time>
      </trkpt>
      <trkpt lat="48.84594" lon="2.44093">
        <ele>45</ele>
        <time>2015-08-03T19:36:26Z</time>
      </trkpt>
      <trkpt lat="48.84597" lon="2.4406">
        <ele>43.20000076294</ele>
        <time>2015-08-03T19:36:31Z</time>
      </trkpt>
      <trkpt lat="48.84599" lon="2.44047">
        <ele>42.79999923706</ele>
        <time>2015-08-03T19:36:33Z</time>
      </trkpt>
      <trkpt lat="48.846" lon="2.44028">
        <ele>41.79999923706</ele>
        <time>2015-08-03T19:36:36Z</time>
      </trkpt>
      <trkpt lat="48.84603" lon="2.44001">
        <ele>40.599998474121</ele>
        <time>2015-08-03T19:36:41Z</time>
      </trkpt>
      <trkpt lat="48.84604" lon="2.43996">
        <ele>40.20000076294</ele>
        <time>2015-08-03T19:36:42Z</time>
      </trkpt>
      <trkpt lat="48.84604" lon="2.43985">
        <ele>39.79999923706</ele>
        <time>2015-08-03T19:36:46Z</time>
      </trkpt>
      <trkpt lat="48.84603" lon="2.43975">
        <ele>43</ele>
        <time>2015-08-03T19:37:05Z</time>
      </trkpt>
      <trkpt lat="48.84616" lon="2.43968">
        <ele>43.400001525879</ele>
        <time>2015-08-03T19:37:16Z</time>
      </trkpt>
      <trkpt lat="48.84634" lon="2.43962">
        <ele>42.599998474121</ele>
        <time>2015-08-03T19:37:30Z</time>
      </trkpt>
      <trkpt lat="48.84637" lon="2.43948">
        <ele>42</ele>
        <time>2015-08-03T19:37:36Z</time>
      </trkpt>
      <trkpt lat="48.84639" lon="2.43923">
        <ele>41.20000076294</ele>
        <time>2015-08-03T19:37:46Z</time>
      </trkpt>
      <trkpt lat="48.84644" lon="2.43916">
        <ele>41.400001525879</ele>
        <time>2015-08-03T19:37:52Z</time>
      </trkpt>
      <trkpt lat="48.84649" lon="2.43918">
        <ele>41.79999923706</ele>
        <time>2015-08-03T19:37:56Z</time>
      </trkpt>
      <trkpt lat="48.84668" lon="2.4392">
        <ele>41</ele>
        <time>2015-08-03T19:38:04Z</time>
      </trkpt>
      <trkpt lat="48.84675" lon="2.43917">
        <ele>40.400001525879</ele>
        <time>2015-08-03T19:38:08Z</time>
      </trkpt>
      <trkpt lat="48.84695" lon="2.43915">
        <ele>40.599998474121</ele>
        <time>2015-08-03T19:38:20Z</time>
      </trkpt>
      <trkpt lat="48.84701" lon="2.43909">
        <ele>38.79999923706</ele>
        <time>2015-08-03T19:38:25Z</time>
      </trkpt>
      <trkpt lat="48.84703" lon="2.43882">
        <ele>36.20000076294</ele>
        <time>2015-08-03T19:38:34Z</time>
      </trkpt>
      <trkpt lat="48.84704" lon="2.43854">
        <ele>36.20000076294</ele>
        <time>2015-08-03T19:38:40Z</time>
      </trkpt>
      <trkpt lat="48.84708" lon="2.43827">
        <ele>38.400001525879</ele>
        <time>2015-08-03T19:38:47Z</time>
      </trkpt>
      <trkpt lat="48.84707" lon="2.43798">
        <ele>40.400001525879</ele>
        <time>2015-08-03T19:38:54Z</time>
      </trkpt>
      <trkpt lat="48.84709" lon="2.4377">
        <ele>42.400001525879</ele>
        <time>2015-08-03T19:39:00Z</time>
      </trkpt>
      <trkpt lat="48.8471" lon="2.43739">
        <ele>42.20000076294</ele>
        <time>2015-08-03T19:39:08Z</time>
      </trkpt>
      <trkpt lat="48.84712" lon="2.43711">
        <ele>41.79999923706</ele>
        <time>2015-08-03T19:39:15Z</time>
      </trkpt>
      <trkpt lat="48.84714" lon="2.43682">
        <ele>44.20000076294</ele>
        <time>2015-08-03T19:39:23Z</time>
      </trkpt>
      <trkpt lat="48.84714" lon="2.4365">
        <ele>45.599998474121</ele>
        <time>2015-08-03T19:39:30Z</time>
      </trkpt>
      <trkpt lat="48.84717" lon="2.43618">
        <ele>46.599998474121</ele>
        <time>2015-08-03T19:39:36Z</time>
      </trkpt>
      <trkpt lat="48.84719" lon="2.43588">
        <ele>47</ele>
        <time>2015-08-03T19:39:42Z</time>
      </trkpt>
      <trkpt lat="48.8472" lon="2.43559">
        <ele>56</ele>
        <time>2015-08-03T19:39:47Z</time>
      </trkpt>
      <trkpt lat="48.84723" lon="2.43529">
        <ele>58.400001525879</ele>
        <time>2015-08-03T19:39:53Z</time>
      </trkpt>
      <trkpt lat="48.84724" lon="2.43501">
        <ele>59.400001525879</ele>
        <time>2015-08-03T19:39:59Z</time>
      </trkpt>
      <trkpt lat="48.84722" lon="2.43473">
        <ele>57.20000076294</ele>
        <time>2015-08-03T19:40:04Z</time>
      </trkpt>
      <trkpt lat="48.84726" lon="2.43446">
        <ele>55.599998474121</ele>
        <time>2015-08-03T19:40:11Z</time>
      </trkpt>
      <trkpt lat="48.84732" lon="2.4342">
        <ele>54.79999923706</ele>
        <time>2015-08-03T19:40:21Z</time>
      </trkpt>
      <trkpt lat="48.84736" lon="2.43393">
        <ele>56</ele>
        <time>2015-08-03T19:40:29Z</time>
      </trkpt>
      <trkpt lat="48.84738" lon="2.43366">
        <ele>55.400001525879</ele>
        <time>2015-08-03T19:40:36Z</time>
      </trkpt>
      <trkpt lat="48.8474" lon="2.43338">
        <ele>55.400001525879</ele>
        <time>2015-08-03T19:40:43Z</time>
      </trkpt>
      <trkpt lat="48.84742" lon="2.4331">
        <ele>57</ele>
        <time>2015-08-03T19:40:49Z</time>
      </trkpt>
      <trkpt lat="48.84744" lon="2.43283">
        <ele>55.79999923706</ele>
        <time>2015-08-03T19:40:55Z</time>
      </trkpt>
      <trkpt lat="48.84746" lon="2.43254">
        <ele>54.400001525879</ele>
        <time>2015-08-03T19:41:01Z</time>
      </trkpt>
      <trkpt lat="48.84749" lon="2.43227">
        <ele>52.400001525879</ele>
        <time>2015-08-03T19:41:07Z</time>
      </trkpt>
      <trkpt lat="48.84749" lon="2.43198">
        <ele>53.400001525879</ele>
        <time>2015-08-03T19:41:12Z</time>
      </trkpt>
      <trkpt lat="48.84748" lon="2.43171">
        <ele>54</ele>
        <time>2015-08-03T19:41:16Z</time>
      </trkpt>
      <trkpt lat="48.84747" lon="2.4314">
        <ele>54.79999923706</ele>
        <time>2015-08-03T19:41:21Z</time>
      </trkpt>
      <trkpt lat="48.84748" lon="2.43109">
        <ele>54.599998474121</ele>
        <time>2015-08-03T19:41:26Z</time>
      </trkpt>
      <trkpt lat="48.84747" lon="2.43078">
        <ele>57.20000076294</ele>
        <time>2015-08-03T19:41:31Z</time>
      </trkpt>
      <trkpt lat="48.84748" lon="2.43047">
        <ele>56.599998474121</ele>
        <time>2015-08-03T19:41:36Z</time>
      </trkpt>
      <trkpt lat="48.84749" lon="2.43019">
        <ele>55</ele>
        <time>2015-08-03T19:41:40Z</time>
      </trkpt>
      <trkpt lat="48.8475" lon="2.42989">
        <ele>53</ele>
        <time>2015-08-03T19:41:44Z</time>
      </trkpt>
      <trkpt lat="48.84749" lon="2.42958">
        <ele>51.400001525879</ele>
        <time>2015-08-03T19:41:48Z</time>
      </trkpt>
      <trkpt lat="48.84747" lon="2.42926">
        <ele>49.20000076294</ele>
        <time>2015-08-03T19:41:52Z</time>
      </trkpt>
      <trkpt lat="48.84744" lon="2.42896">
        <ele>49</ele>
        <time>2015-08-03T19:41:56Z</time>
      </trkpt>
      <trkpt lat="48.8474" lon="2.42867">
        <ele>49.20000076294</ele>
        <time>2015-08-03T19:42:00Z</time>
      </trkpt>
      <trkpt lat="48.84737" lon="2.42839">
        <ele>49.599998474121</ele>
        <time>2015-08-03T19:42:04Z</time>
      </trkpt>
      <trkpt lat="48.84733" lon="2.42806">
        <ele>50</ele>
        <time>2015-08-03T19:42:09Z</time>
      </trkpt>
      <trkpt lat="48.84729" lon="2.42775">
        <ele>51</ele>
        <time>2015-08-03T19:42:14Z</time>
      </trkpt>
      <trkpt lat="48.84725" lon="2.42744">
        <ele>51</ele>
        <time>2015-08-03T19:42:20Z</time>
      </trkpt>
      <trkpt lat="48.84721" lon="2.42723">
        <ele>52</ele>
        <time>2015-08-03T19:42:24Z</time>
      </trkpt>
      <trkpt lat="48.84715" lon="2.42697">
        <ele>53.79999923706</ele>
        <time>2015-08-03T19:42:29Z</time>
      </trkpt>
      <trkpt lat="48.84714" lon="2.42686">
        <ele>54.20000076294</ele>
        <time>2015-08-03T19:42:31Z</time>
      </trkpt>
      <trkpt lat="48.84709" lon="2.42663">
        <ele>54.79999923706</ele>
        <time>2015-08-03T19:42:36Z</time>
      </trkpt>
      <trkpt lat="48.84708" lon="2.42658">
        <ele>55</ele>
        <time>2015-08-03T19:42:37Z</time>
      </trkpt>
      <trkpt lat="48.847" lon="2.42627">
        <ele>55.20000076294</ele>
        <time>2015-08-03T19:42:43Z</time>
      </trkpt>
      <trkpt lat="48.84693" lon="2.42601">
        <ele>55.20000076294</ele>
        <time>2015-08-03T19:42:48Z</time>
      </trkpt>
      <trkpt lat="48.84685" lon="2.42572">
        <ele>58.20000076294</ele>
        <time>2015-08-03T19:42:53Z</time>
      </trkpt>
      <trkpt lat="48.84676" lon="2.42545">
        <ele>60.79999923706</ele>
        <time>2015-08-03T19:42:58Z</time>
      </trkpt>
      <trkpt lat="48.84666" lon="2.42517">
        <ele>63.79999923706</ele>
        <time>2015-08-03T19:43:03Z</time>
      </trkpt>
      <trkpt lat="48.84655" lon="2.4249">
        <ele>66.800003051758</ele>
        <time>2015-08-03T19:43:08Z</time>
      </trkpt>
      <trkpt lat="48.84645" lon="2.42463">
        <ele>69.599998474121</ele>
        <time>2015-08-03T19:43:13Z</time>
      </trkpt>
      <trkpt lat="48.84637" lon="2.42435">
        <ele>68.199996948242</ele>
        <time>2015-08-03T19:43:18Z</time>
      </trkpt>
      <trkpt lat="48.84627" lon="2.42411">
        <ele>67</ele>
        <time>2015-08-03T19:43:22Z</time>
      </trkpt>
      <trkpt lat="48.84615" lon="2.4239">
        <ele>66</ele>
        <time>2015-08-03T19:43:26Z</time>
      </trkpt>
      <trkpt lat="48.84602" lon="2.42369">
        <ele>60.79999923706</ele>
        <time>2015-08-03T19:43:31Z</time>
      </trkpt>
      <trkpt lat="48.846" lon="2.42363">
        <ele>57.79999923706</ele>
        <time>2015-08-03T19:43:34Z</time>
      </trkpt>
      <trkpt lat="48.84599" lon="2.42333">
        <ele>51</ele>
        <time>2015-08-03T19:43:49Z</time>
      </trkpt>
      <trkpt lat="48.84602" lon="2.42302">
        <ele>50.20000076294</ele>
        <time>2015-08-03T19:43:56Z</time>
      </trkpt>
      <trkpt lat="48.84603" lon="2.42271">
        <ele>49.79999923706</ele>
        <time>2015-08-03T19:44:02Z</time>
      </trkpt>
      <trkpt lat="48.84607" lon="2.42241">
        <ele>49.79999923706</ele>
        <time>2015-08-03T19:44:08Z</time>
      </trkpt>
      <trkpt lat="48.84608" lon="2.4221">
        <ele>49.400001525879</ele>
        <time>2015-08-03T19:44:14Z</time>
      </trkpt>
      <trkpt lat="48.84609" lon="2.42179">
        <ele>52.20000076294</ele>
        <time>2015-08-03T19:44:20Z</time>
      </trkpt>
      <trkpt lat="48.84613" lon="2.4215">
        <ele>52.20000076294</ele>
        <time>2015-08-03T19:44:25Z</time>
      </trkpt>
      <trkpt lat="48.84615" lon="2.42119">
        <ele>54</ele>
        <time>2015-08-03T19:44:30Z</time>
      </trkpt>
      <trkpt lat="48.84618" lon="2.42088">
        <ele>55.79999923706</ele>
        <time>2015-08-03T19:44:35Z</time>
      </trkpt>
      <trkpt lat="48.8462" lon="2.4206">
        <ele>57.599998474121</ele>
        <time>2015-08-03T19:44:40Z</time>
      </trkpt>
      <trkpt lat="48.84623" lon="2.42031">
        <ele>56.79999923706</ele>
        <time>2015-08-03T19:44:45Z</time>
      </trkpt>
      <trkpt lat="48.84626" lon="2.42002">
        <ele>54.79999923706</ele>
        <time>2015-08-03T19:44:49Z</time>
      </trkpt>
      <trkpt lat="48.84629" lon="2.41972">
        <ele>52.599998474121</ele>
        <time>2015-08-03T19:44:53Z</time>
      </trkpt>
      <trkpt lat="48.84632" lon="2.41943">
        <ele>51.79999923706</ele>
        <time>2015-08-03T19:44:57Z</time>
      </trkpt>
      <trkpt lat="48.84635" lon="2.41914">
        <ele>52</ele>
        <time>2015-08-03T19:45:01Z</time>
      </trkpt>
      <trkpt lat="48.84636" lon="2.41883">
        <ele>50</ele>
        <time>2015-08-03T19:45:05Z</time>
      </trkpt>
      <trkpt lat="48.84638" lon="2.41854">
        <ele>50.400001525879</ele>
        <time>2015-08-03T19:45:09Z</time>
      </trkpt>
      <trkpt lat="48.84641" lon="2.41826">
        <ele>50.79999923706</ele>
        <time>2015-08-03T19:45:13Z</time>
      </trkpt>
      <trkpt lat="48.84642" lon="2.41812">
        <ele>51</ele>
        <time>2015-08-03T19:45:15Z</time>
      </trkpt>
      <trkpt lat="48.84647" lon="2.4178">
        <ele>51.400001525879</ele>
        <time>2015-08-03T19:45:20Z</time>
      </trkpt>
      <trkpt lat="48.84652" lon="2.41749">
        <ele>50.20000076294</ele>
        <time>2015-08-03T19:45:25Z</time>
      </trkpt>
      <trkpt lat="48.84653" lon="2.41731">
        <ele>49.599998474121</ele>
        <time>2015-08-03T19:45:28Z</time>
      </trkpt>
      <trkpt lat="48.84656" lon="2.41699">
        <ele>50.400001525879</ele>
        <time>2015-08-03T19:45:33Z</time>
      </trkpt>
      <trkpt lat="48.84659" lon="2.41672">
        <ele>50.599998474121</ele>
        <time>2015-08-03T19:45:37Z</time>
      </trkpt>
      <trkpt lat="48.84663" lon="2.41639">
        <ele>49</ele>
        <time>2015-08-03T19:45:42Z</time>
      </trkpt>
      <trkpt lat="48.84666" lon="2.41608">
        <ele>47.599998474121</ele>
        <time>2015-08-03T19:45:47Z</time>
      </trkpt>
      <trkpt lat="48.84669" lon="2.4158">
        <ele>46.400001525879</ele>
        <time>2015-08-03T19:45:52Z</time>
      </trkpt>
      <trkpt lat="48.84671" lon="2.41553">
        <ele>47.400001525879</ele>
        <time>2015-08-03T19:45:58Z</time>
      </trkpt>
      <trkpt lat="48.84675" lon="2.41535">
        <ele>47.599998474121</ele>
        <time>2015-08-03T19:46:02Z</time>
      </trkpt>
      <trkpt lat="48.84679" lon="2.41523">
        <ele>48.400001525879</ele>
        <time>2015-08-03T19:46:05Z</time>
      </trkpt>
      <trkpt lat="48.84693" lon="2.41501">
        <ele>48.20000076294</ele>
        <time>2015-08-03T19:46:12Z</time>
      </trkpt>
      <trkpt lat="48.84703" lon="2.41478">
        <ele>48.400001525879</ele>
        <time>2015-08-03T19:46:18Z</time>
      </trkpt>
      <trkpt lat="48.84709" lon="2.41451">
        <ele>48.400001525879</ele>
        <time>2015-08-03T19:46:25Z</time>
      </trkpt>
      <trkpt lat="48.84708" lon="2.41421">
        <ele>47.599998474121</ele>
        <time>2015-08-03T19:46:32Z</time>
      </trkpt>
      <trkpt lat="48.84701" lon="2.41394">
        <ele>48.79999923706</ele>
        <time>2015-08-03T19:46:40Z</time>
      </trkpt>
      <trkpt lat="48.84687" lon="2.41377">
        <ele>48</ele>
        <time>2015-08-03T19:46:53Z</time>
      </trkpt>
      <trkpt lat="48.84685" lon="2.41377">
        <ele>47.79999923706</ele>
        <time>2015-08-03T19:46:54Z</time>
      </trkpt>
      <trkpt lat="48.84679" lon="2.41376">
        <ele>48</ele>
        <time>2015-08-03T19:46:58Z</time>
      </trkpt>
      <trkpt lat="48.84661" lon="2.41381">
        <ele>48.599998474121</ele>
        <time>2015-08-03T19:47:09Z</time>
      </trkpt>
      <trkpt lat="48.84643" lon="2.41391">
        <ele>48</ele>
        <time>2015-08-03T19:47:19Z</time>
      </trkpt>
      <trkpt lat="48.84633" lon="2.41395">
        <ele>48.20000076294</ele>
        <time>2015-08-03T19:47:25Z</time>
      </trkpt>
      <trkpt lat="48.84622" lon="2.41389">
        <ele>48.599998474121</ele>
        <time>2015-08-03T19:47:46Z</time>
      </trkpt>
      <trkpt lat="48.84603" lon="2.41388">
        <ele>48.20000076294</ele>
        <time>2015-08-03T19:47:55Z</time>
      </trkpt>
      <trkpt lat="48.84582" lon="2.41387">
        <ele>47</ele>
        <time>2015-08-03T19:48:01Z</time>
      </trkpt>
      <trkpt lat="48.84563" lon="2.41386">
        <ele>45.79999923706</ele>
        <time>2015-08-03T19:48:05Z</time>
      </trkpt>
      <trkpt lat="48.84544" lon="2.41385">
        <ele>44.79999923706</ele>
        <time>2015-08-03T19:48:08Z</time>
      </trkpt>
      <trkpt lat="48.84522" lon="2.41384">
        <ele>43.79999923706</ele>
        <time>2015-08-03T19:48:11Z</time>
      </trkpt>
      <trkpt lat="48.84498" lon="2.41383">
        <ele>42.79999923706</ele>
        <time>2015-08-03T19:48:14Z</time>
      </trkpt>
      <trkpt lat="48.84474" lon="2.4138">
        <ele>42.20000076294</ele>
        <time>2015-08-03T19:48:17Z</time>
      </trkpt>
      <trkpt lat="48.84452" lon="2.4138">
        <ele>41.79999923706</ele>
        <time>2015-08-03T19:48:20Z</time>
      </trkpt>
      <trkpt lat="48.84431" lon="2.4138">
        <ele>41.400001525879</ele>
        <time>2015-08-03T19:48:23Z</time>
      </trkpt>
      <trkpt lat="48.84411" lon="2.41379">
        <ele>41.20000076294</ele>
        <time>2015-08-03T19:48:26Z</time>
      </trkpt>
      <trkpt lat="48.84392" lon="2.41379">
        <ele>40.79999923706</ele>
        <time>2015-08-03T19:48:29Z</time>
      </trkpt>
      <trkpt lat="48.84373" lon="2.41379">
        <ele>40.400001525879</ele>
        <time>2015-08-03T19:48:32Z</time>
      </trkpt>
      <trkpt lat="48.84352" lon="2.41379">
        <ele>39.599998474121</ele>
        <time>2015-08-03T19:48:36Z</time>
      </trkpt>
      <trkpt lat="48.84341" lon="2.41376">
        <ele>39.20000076294</ele>
        <time>2015-08-03T19:48:38Z</time>
      </trkpt>
      <trkpt lat="48.84323" lon="2.41371">
        <ele>38.20000076294</ele>
        <time>2015-08-03T19:48:41Z</time>
      </trkpt>
      <trkpt lat="48.84317" lon="2.41369">
        <ele>38.20000076294</ele>
        <time>2015-08-03T19:48:42Z</time>
      </trkpt>
      <trkpt lat="48.84297" lon="2.41364">
        <ele>38</ele>
        <time>2015-08-03T19:48:45Z</time>
      </trkpt>
      <trkpt lat="48.84291" lon="2.41363">
        <ele>37.79999923706</ele>
        <time>2015-08-03T19:48:46Z</time>
      </trkpt>
      <trkpt lat="48.84271" lon="2.41361">
        <ele>37.79999923706</ele>
        <time>2015-08-03T19:48:49Z</time>
      </trkpt>
      <trkpt lat="48.84252" lon="2.4136">
        <ele>38</ele>
        <time>2015-08-03T19:48:52Z</time>
      </trkpt>
      <trkpt lat="48.84229" lon="2.41357">
        <ele>38</ele>
        <time>2015-08-03T19:48:56Z</time>
      </trkpt>
      <trkpt lat="48.84206" lon="2.41355">
        <ele>38.79999923706</ele>
        <time>2015-08-03T19:49:00Z</time>
      </trkpt>
      <trkpt lat="48.84185" lon="2.41351">
        <ele>40.79999923706</ele>
        <time>2015-08-03T19:49:04Z</time>
      </trkpt>
      <trkpt lat="48.84164" lon="2.41348">
        <ele>39.599998474121</ele>
        <time>2015-08-03T19:49:08Z</time>
      </trkpt>
      <trkpt lat="48.84144" lon="2.41347">
        <ele>39.400001525879</ele>
        <time>2015-08-03T19:49:12Z</time>
      </trkpt>
      <trkpt lat="48.84123" lon="2.41344">
        <ele>39.20000076294</ele>
        <time>2015-08-03T19:49:16Z</time>
      </trkpt>
      <trkpt lat="48.84102" lon="2.41342">
        <ele>39.599998474121</ele>
        <time>2015-08-03T19:49:20Z</time>
      </trkpt>
      <trkpt lat="48.84081" lon="2.4134">
        <ele>39.79999923706</ele>
        <time>2015-08-03T19:49:24Z</time>
      </trkpt>
      <trkpt lat="48.84059" lon="2.41337">
        <ele>40</ele>
        <time>2015-08-03T19:49:28Z</time>
      </trkpt>
      <trkpt lat="48.84037" lon="2.41334">
        <ele>40</ele>
        <time>2015-08-03T19:49:32Z</time>
      </trkpt>
      <trkpt lat="48.84015" lon="2.4133">
        <ele>40.79999923706</ele>
        <time>2015-08-03T19:49:36Z</time>
      </trkpt>
      <trkpt lat="48.83993" lon="2.41323">
        <ele>41.20000076294</ele>
        <time>2015-08-03T19:49:40Z</time>
      </trkpt>
      <trkpt lat="48.83969" lon="2.41318">
        <ele>40.400001525879</ele>
        <time>2015-08-03T19:49:44Z</time>
      </trkpt>
      <trkpt lat="48.83964" lon="2.41316">
        <ele>40.400001525879</ele>
        <time>2015-08-03T19:49:45Z</time>
      </trkpt>
      <trkpt lat="48.83941" lon="2.41309">
        <ele>40.79999923706</ele>
        <time>2015-08-03T19:49:49Z</time>
      </trkpt>
      <trkpt lat="48.83923" lon="2.41304">
        <ele>40.79999923706</ele>
        <time>2015-08-03T19:49:52Z</time>
      </trkpt>
      <trkpt lat="48.83899" lon="2.41297">
        <ele>41</ele>
        <time>2015-08-03T19:49:56Z</time>
      </trkpt>
      <trkpt lat="48.83876" lon="2.41291">
        <ele>40.79999923706</ele>
        <time>2015-08-03T19:50:00Z</time>
      </trkpt>
      <trkpt lat="48.83858" lon="2.41287">
        <ele>40</ele>
        <time>2015-08-03T19:50:03Z</time>
      </trkpt>
      <trkpt lat="48.83852" lon="2.41285">
        <ele>39.400001525879</ele>
        <time>2015-08-03T19:50:04Z</time>
      </trkpt>
      <trkpt lat="48.8384" lon="2.4128">
        <ele>39.20000076294</ele>
        <time>2015-08-03T19:50:06Z</time>
      </trkpt>
      <trkpt lat="48.83821" lon="2.41276">
        <ele>38.20000076294</ele>
        <time>2015-08-03T19:50:09Z</time>
      </trkpt>
      <trkpt lat="48.83809" lon="2.41271">
        <ele>38</ele>
        <time>2015-08-03T19:50:11Z</time>
      </trkpt>
      <trkpt lat="48.83791" lon="2.41265">
        <ele>38.400001525879</ele>
        <time>2015-08-03T19:50:14Z</time>
      </trkpt>
      <trkpt lat="48.83773" lon="2.41261">
        <ele>38.599998474121</ele>
        <time>2015-08-03T19:50:17Z</time>
      </trkpt>
      <trkpt lat="48.83754" lon="2.41254">
        <ele>39.20000076294</ele>
        <time>2015-08-03T19:50:20Z</time>
      </trkpt>
      <trkpt lat="48.83735" lon="2.41247">
        <ele>39.599998474121</ele>
        <time>2015-08-03T19:50:23Z</time>
      </trkpt>
      <trkpt lat="48.83715" lon="2.41239">
        <ele>42</ele>
        <time>2015-08-03T19:50:26Z</time>
      </trkpt>
      <trkpt lat="48.83697" lon="2.41233">
        <ele>42.79999923706</ele>
        <time>2015-08-03T19:50:29Z</time>
      </trkpt>
      <trkpt lat="48.83678" lon="2.41226">
        <ele>44</ele>
        <time>2015-08-03T19:50:32Z</time>
      </trkpt>
      <trkpt lat="48.8366" lon="2.4122">
        <ele>44.400001525879</ele>
        <time>2015-08-03T19:50:35Z</time>
      </trkpt>
      <trkpt lat="48.83638" lon="2.41211">
        <ele>43</ele>
        <time>2015-08-03T19:50:39Z</time>
      </trkpt>
      <trkpt lat="48.83615" lon="2.41202">
        <ele>41.599998474121</ele>
        <time>2015-08-03T19:50:43Z</time>
      </trkpt>
      <trkpt lat="48.83599" lon="2.4119">
        <ele>41</ele>
        <time>2015-08-03T19:50:46Z</time>
      </trkpt>
      <trkpt lat="48.8358" lon="2.41177">
        <ele>40</ele>
        <time>2015-08-03T19:50:49Z</time>
      </trkpt>
      <trkpt lat="48.83562" lon="2.41159">
        <ele>37.400001525879</ele>
        <time>2015-08-03T19:50:52Z</time>
      </trkpt>
      <trkpt lat="48.83544" lon="2.41139">
        <ele>36.20000076294</ele>
        <time>2015-08-03T19:50:55Z</time>
      </trkpt>
      <trkpt lat="48.83537" lon="2.41132">
        <ele>35.79999923706</ele>
        <time>2015-08-03T19:50:56Z</time>
      </trkpt>
      <trkpt lat="48.83519" lon="2.4111">
        <ele>34.599998474121</ele>
        <time>2015-08-03T19:50:59Z</time>
      </trkpt>
      <trkpt lat="48.83499" lon="2.41089">
        <ele>33.400001525879</ele>
        <time>2015-08-03T19:51:02Z</time>
      </trkpt>
      <trkpt lat="48.83483" lon="2.41069">
        <ele>32.20000076294</ele>
        <time>2015-08-03T19:51:05Z</time>
      </trkpt>
      <trkpt lat="48.83468" lon="2.41047">
        <ele>31.60000038147</ele>
        <time>2015-08-03T19:51:10Z</time>
      </trkpt>
      <trkpt lat="48.8346" lon="2.41021">
        <ele>31.200000762939</ele>
        <time>2015-08-03T19:51:16Z</time>
      </trkpt>
      <trkpt lat="48.83452" lon="2.41003">
        <ele>31</ele>
        <time>2015-08-03T19:51:21Z</time>
      </trkpt>
      <trkpt lat="48.83445" lon="2.40988">
        <ele>31.39999961853</ele>
        <time>2015-08-03T19:51:28Z</time>
      </trkpt>
      <trkpt lat="48.83447" lon="2.40967">
        <ele>34.20000076294</ele>
        <time>2015-08-03T19:51:47Z</time>
      </trkpt>
      <trkpt lat="48.83456" lon="2.40939">
        <ele>35.20000076294</ele>
        <time>2015-08-03T19:51:52Z</time>
      </trkpt>
      <trkpt lat="48.83465" lon="2.40908">
        <ele>35.599998474121</ele>
        <time>2015-08-03T19:51:57Z</time>
      </trkpt>
      <trkpt lat="48.83475" lon="2.40884">
        <ele>35.599998474121</ele>
        <time>2015-08-03T19:52:01Z</time>
      </trkpt>
      <trkpt lat="48.83485" lon="2.40859">
        <ele>35.400001525879</ele>
        <time>2015-08-03T19:52:05Z</time>
      </trkpt>
      <trkpt lat="48.83498" lon="2.40837">
        <ele>36</ele>
        <time>2015-08-03T19:52:09Z</time>
      </trkpt>
      <trkpt lat="48.83512" lon="2.40833">
        <ele>36</ele>
        <time>2015-08-03T19:52:12Z</time>
      </trkpt>
      <trkpt lat="48.8353" lon="2.40844">
        <ele>34.599998474121</ele>
        <time>2015-08-03T19:52:17Z</time>
      </trkpt>
      <trkpt lat="48.83537" lon="2.40848">
        <ele>33.400001525879</ele>
        <time>2015-08-03T19:52:19Z</time>
      </trkpt>
      <trkpt lat="48.8355" lon="2.40861">
        <ele>31.60000038147</ele>
        <time>2015-08-03T19:52:23Z</time>
      </trkpt>
      <trkpt lat="48.83566" lon="2.40879">
        <ele>29.39999961853</ele>
        <time>2015-08-03T19:52:28Z</time>
      </trkpt>
      <trkpt lat="48.83587" lon="2.40895">
        <ele>26.60000038147</ele>
        <time>2015-08-03T19:52:33Z</time>
      </trkpt>
      <trkpt lat="48.83596" lon="2.40901">
        <ele>25.799999237061</ele>
        <time>2015-08-03T19:52:35Z</time>
      </trkpt>
      <trkpt lat="48.83615" lon="2.40914">
        <ele>25.39999961853</ele>
        <time>2015-08-03T19:52:39Z</time>
      </trkpt>
      <trkpt lat="48.83628" lon="2.40924">
        <ele>23.799999237061</ele>
        <time>2015-08-03T19:52:42Z</time>
      </trkpt>
      <trkpt lat="48.83645" lon="2.40933">
        <ele>23.60000038147</ele>
        <time>2015-08-03T19:52:46Z</time>
      </trkpt>
      <trkpt lat="48.83649" lon="2.40933">
        <ele>23.60000038147</ele>
        <time>2015-08-03T19:52:47Z</time>
      </trkpt>
      <trkpt lat="48.83669" lon="2.40934">
        <ele>24.799999237061</ele>
        <time>2015-08-03T19:52:52Z</time>
      </trkpt>
      <trkpt lat="48.83684" lon="2.40937">
        <ele>23.799999237061</ele>
        <time>2015-08-03T19:52:56Z</time>
      </trkpt>
      <trkpt lat="48.83695" lon="2.40946">
        <ele>23.39999961853</ele>
        <time>2015-08-03T19:53:00Z</time>
      </trkpt>
      <trkpt lat="48.83714" lon="2.40959">
        <ele>23</ele>
        <time>2015-08-03T19:53:06Z</time>
      </trkpt>
      <trkpt lat="48.83731" lon="2.40967">
        <ele>23.39999961853</ele>
        <time>2015-08-03T19:53:10Z</time>
      </trkpt>
      <trkpt lat="48.83752" lon="2.40977">
        <ele>21.200000762939</ele>
        <time>2015-08-03T19:53:15Z</time>
      </trkpt>
      <trkpt lat="48.83769" lon="2.40986">
        <ele>20</ele>
        <time>2015-08-03T19:53:20Z</time>
      </trkpt>
      <trkpt lat="48.83788" lon="2.4098">
        <ele>23.200000762939</ele>
        <time>2015-08-03T19:53:25Z</time>
      </trkpt>
      <trkpt lat="48.83796" lon="2.40954">
        <ele>23.200000762939</ele>
        <time>2015-08-03T19:53:30Z</time>
      </trkpt>
      <trkpt lat="48.83802" lon="2.40925">
        <ele>23</ele>
        <time>2015-08-03T19:53:35Z</time>
      </trkpt>
      <trkpt lat="48.83807" lon="2.40896">
        <ele>22.799999237061</ele>
        <time>2015-08-03T19:53:40Z</time>
      </trkpt>
      <trkpt lat="48.83814" lon="2.40867">
        <ele>23.200000762939</ele>
        <time>2015-08-03T19:53:46Z</time>
      </trkpt>
      <trkpt lat="48.83819" lon="2.40858">
        <ele>24.200000762939</ele>
        <time>2015-08-03T19:53:50Z</time>
      </trkpt>
      <trkpt lat="48.83838" lon="2.40865">
        <ele>25.200000762939</ele>
        <time>2015-08-03T19:53:58Z</time>
      </trkpt>
      <trkpt lat="48.83857" lon="2.4087">
        <ele>27.799999237061</ele>
        <time>2015-08-03T19:54:03Z</time>
      </trkpt>
      <trkpt lat="48.83877" lon="2.40878">
        <ele>28.39999961853</ele>
        <time>2015-08-03T19:54:08Z</time>
      </trkpt>
      <trkpt lat="48.83896" lon="2.40884">
        <ele>29.60000038147</ele>
        <time>2015-08-03T19:54:13Z</time>
      </trkpt>
      <trkpt lat="48.83916" lon="2.40892">
        <ele>32.79999923706</ele>
        <time>2015-08-03T19:54:18Z</time>
      </trkpt>
      <trkpt lat="48.83935" lon="2.40897">
        <ele>35</ele>
        <time>2015-08-03T19:54:23Z</time>
      </trkpt>
      <trkpt lat="48.83955" lon="2.40901">
        <ele>37.400001525879</ele>
        <time>2015-08-03T19:54:28Z</time>
      </trkpt>
      <trkpt lat="48.83974" lon="2.40904">
        <ele>40.79999923706</ele>
        <time>2015-08-03T19:54:33Z</time>
      </trkpt>
      <trkpt lat="48.83995" lon="2.4091">
        <ele>43.79999923706</ele>
        <time>2015-08-03T19:54:39Z</time>
      </trkpt>
      <trkpt lat="48.84014" lon="2.40918">
        <ele>45.79999923706</ele>
        <time>2015-08-03T19:54:44Z</time>
      </trkpt>
      <trkpt lat="48.84032" lon="2.40925">
        <ele>47.20000076294</ele>
        <time>2015-08-03T19:54:49Z</time>
      </trkpt>
      <trkpt lat="48.84045" lon="2.40927">
        <ele>48.20000076294</ele>
        <time>2015-08-03T19:54:57Z</time>
      </trkpt>
      <trkpt lat="48.84053" lon="2.40931">
        <ele>50.599998474121</ele>
        <time>2015-08-03T19:56:40Z</time>
      </trkpt>
      <trkpt lat="48.84055" lon="2.40928">
        <ele>46.599998474121</ele>
        <time>2015-08-03T19:58:38Z</time>
      </trkpt>
      <trkpt lat="48.84059" lon="2.40925">
        <ele>47</ele>
        <time>2015-08-03T19:58:42Z</time>
      </trkpt>
      <trkpt lat="48.84064" lon="2.40898">
        <ele>46</ele>
        <time>2015-08-03T19:58:52Z</time>
      </trkpt>
      <trkpt lat="48.84065" lon="2.40868">
        <ele>44</ele>
        <time>2015-08-03T19:59:00Z</time>
      </trkpt>
      <trkpt lat="48.84064" lon="2.40835">
        <ele>42.400001525879</ele>
        <time>2015-08-03T19:59:06Z</time>
      </trkpt>
      <trkpt lat="48.84063" lon="2.40806">
        <ele>40.79999923706</ele>
        <time>2015-08-03T19:59:11Z</time>
      </trkpt>
      <trkpt lat="48.84061" lon="2.40779">
        <ele>39.400001525879</ele>
        <time>2015-08-03T19:59:15Z</time>
      </trkpt>
      <trkpt lat="48.84063" lon="2.40749">
        <ele>38.400001525879</ele>
        <time>2015-08-03T19:59:22Z</time>
      </trkpt>
      <trkpt lat="48.84065" lon="2.40731">
        <ele>38.79999923706</ele>
        <time>2015-08-03T19:59:25Z</time>
      </trkpt>
      <trkpt lat="48.84067" lon="2.40697">
        <ele>40</ele>
        <time>2015-08-03T19:59:30Z</time>
      </trkpt>
      <trkpt lat="48.8407" lon="2.40667">
        <ele>40.599998474121</ele>
        <time>2015-08-03T19:59:34Z</time>
      </trkpt>
      <trkpt lat="48.84071" lon="2.40638">
        <ele>41</ele>
        <time>2015-08-03T19:59:38Z</time>
      </trkpt>
      <trkpt lat="48.84072" lon="2.40608">
        <ele>41</ele>
        <time>2015-08-03T19:59:42Z</time>
      </trkpt>
      <trkpt lat="48.84073" lon="2.40592">
        <ele>40.599998474121</ele>
        <time>2015-08-03T19:59:44Z</time>
      </trkpt>
      <trkpt lat="48.84077" lon="2.40561">
        <ele>40</ele>
        <time>2015-08-03T19:59:48Z</time>
      </trkpt>
      <trkpt lat="48.84077" lon="2.40552">
        <ele>40</ele>
        <time>2015-08-03T19:59:49Z</time>
      </trkpt>
      <trkpt lat="48.8408" lon="2.40521">
        <ele>39</ele>
        <time>2015-08-03T19:59:53Z</time>
      </trkpt>
      <trkpt lat="48.84081" lon="2.40501">
        <ele>38.400001525879</ele>
        <time>2015-08-03T19:59:57Z</time>
      </trkpt>
      <trkpt lat="48.84081" lon="2.40489">
        <ele>37</ele>
        <time>2015-08-03T19:59:59Z</time>
      </trkpt>
      <trkpt lat="48.84085" lon="2.40465">
        <ele>33.79999923706</ele>
        <time>2015-08-03T20:00:06Z</time>
      </trkpt>
      <trkpt lat="48.84087" lon="2.40437">
        <ele>30.60000038147</ele>
        <time>2015-08-03T20:00:12Z</time>
      </trkpt>
      <trkpt lat="48.84089" lon="2.40403">
        <ele>28.39999961853</ele>
        <time>2015-08-03T20:00:17Z</time>
      </trkpt>
      <trkpt lat="48.84089" lon="2.40387">
        <ele>27.799999237061</ele>
        <time>2015-08-03T20:00:19Z</time>
      </trkpt>
      <trkpt lat="48.84092" lon="2.40353">
        <ele>26.200000762939</ele>
        <time>2015-08-03T20:00:23Z</time>
      </trkpt>
      <trkpt lat="48.84093" lon="2.40324">
        <ele>25.200000762939</ele>
        <time>2015-08-03T20:00:26Z</time>
      </trkpt>
      <trkpt lat="48.84094" lon="2.40295">
        <ele>24.200000762939</ele>
        <time>2015-08-03T20:00:29Z</time>
      </trkpt>
      <trkpt lat="48.84096" lon="2.40266">
        <ele>22.799999237061</ele>
        <time>2015-08-03T20:00:32Z</time>
      </trkpt>
      <trkpt lat="48.84102" lon="2.40231">
        <ele>22</ele>
        <time>2015-08-03T20:00:36Z</time>
      </trkpt>
      <trkpt lat="48.84104" lon="2.40216">
        <ele>21.60000038147</ele>
        <time>2015-08-03T20:00:38Z</time>
      </trkpt>
      <trkpt lat="48.84104" lon="2.40208">
        <ele>21.60000038147</ele>
        <time>2015-08-03T20:00:39Z</time>
      </trkpt>
      <trkpt lat="48.84106" lon="2.40194">
        <ele>21.60000038147</ele>
        <time>2015-08-03T20:00:41Z</time>
      </trkpt>
      <trkpt lat="48.84108" lon="2.40166">
        <ele>22</ele>
        <time>2015-08-03T20:00:45Z</time>
      </trkpt>
      <trkpt lat="48.84108" lon="2.40155">
        <ele>22</ele>
        <time>2015-08-03T20:00:47Z</time>
      </trkpt>
      <trkpt lat="48.84114" lon="2.40134">
        <ele>23.200000762939</ele>
        <time>2015-08-03T20:00:51Z</time>
      </trkpt>
      <trkpt lat="48.84116" lon="2.4013">
        <ele>23.200000762939</ele>
        <time>2015-08-03T20:00:52Z</time>
      </trkpt>
      <trkpt lat="48.84123" lon="2.40115">
        <ele>26.39999961853</ele>
        <time>2015-08-03T20:00:58Z</time>
      </trkpt>
      <trkpt lat="48.84117" lon="2.40099">
        <ele>36.20000076294</ele>
        <time>2015-08-03T20:01:51Z</time>
      </trkpt>
      <trkpt lat="48.84134" lon="2.40101">
        <ele>37.599998474121</ele>
        <time>2015-08-03T20:02:02Z</time>
      </trkpt>
      <trkpt lat="48.84152" lon="2.40106">
        <ele>38</ele>
        <time>2015-08-03T20:02:06Z</time>
      </trkpt>
      <trkpt lat="48.8417" lon="2.4011">
        <ele>38.79999923706</ele>
        <time>2015-08-03T20:02:10Z</time>
      </trkpt>
      <trkpt lat="48.84192" lon="2.4011">
        <ele>40.599998474121</ele>
        <time>2015-08-03T20:02:15Z</time>
      </trkpt>
      <trkpt lat="48.84213" lon="2.40102">
        <ele>46</ele>
        <time>2015-08-03T20:02:21Z</time>
      </trkpt>
      <trkpt lat="48.84235" lon="2.40096">
        <ele>48.400001525879</ele>
        <time>2015-08-03T20:02:26Z</time>
      </trkpt>
      <trkpt lat="48.84253" lon="2.40093">
        <ele>50</ele>
        <time>2015-08-03T20:02:29Z</time>
      </trkpt>
      <trkpt lat="48.84276" lon="2.40096">
        <ele>52.400001525879</ele>
        <time>2015-08-03T20:02:32Z</time>
      </trkpt>
      <trkpt lat="48.84296" lon="2.40102">
        <ele>55</ele>
        <time>2015-08-03T20:02:35Z</time>
      </trkpt>
      <trkpt lat="48.84317" lon="2.40109">
        <ele>60.400001525879</ele>
        <time>2015-08-03T20:02:38Z</time>
      </trkpt>
      <trkpt lat="48.84324" lon="2.40109">
        <ele>63</ele>
        <time>2015-08-03T20:02:39Z</time>
      </trkpt>
      <trkpt lat="48.84346" lon="2.40119">
        <ele>68.400001525879</ele>
        <time>2015-08-03T20:02:42Z</time>
      </trkpt>
      <trkpt lat="48.84364" lon="2.40129">
        <ele>72.400001525879</ele>
        <time>2015-08-03T20:02:45Z</time>
      </trkpt>
      <trkpt lat="48.84383" lon="2.40137">
        <ele>77</ele>
        <time>2015-08-03T20:02:48Z</time>
      </trkpt>
      <trkpt lat="48.84405" lon="2.40147">
        <ele>83.400001525879</ele>
        <time>2015-08-03T20:02:52Z</time>
      </trkpt>
      <trkpt lat="48.84426" lon="2.40161">
        <ele>84.599998474121</ele>
        <time>2015-08-03T20:02:56Z</time>
      </trkpt>
      <trkpt lat="48.84446" lon="2.40178">
        <ele>83.199996948242</ele>
        <time>2015-08-03T20:03:00Z</time>
      </trkpt>
      <trkpt lat="48.84461" lon="2.402">
        <ele>74</ele>
        <time>2015-08-03T20:03:03Z</time>
      </trkpt>
      <trkpt lat="48.84465" lon="2.40207">
        <ele>71.400001525879</ele>
        <time>2015-08-03T20:03:04Z</time>
      </trkpt>
      <trkpt lat="48.84472" lon="2.40223">
        <ele>67.199996948242</ele>
        <time>2015-08-03T20:03:07Z</time>
      </trkpt>
      <trkpt lat="48.84478" lon="2.40233">
        <ele>60.400001525879</ele>
        <time>2015-08-03T20:03:09Z</time>
      </trkpt>
      <trkpt lat="48.84484" lon="2.40238">
        <ele>58.599998474121</ele>
        <time>2015-08-03T20:03:12Z</time>
      </trkpt>
      <trkpt lat="48.845" lon="2.40241">
        <ele>52</ele>
        <time>2015-08-03T20:03:35Z</time>
      </trkpt>
      <trkpt lat="48.84514" lon="2.40219">
        <ele>50.20000076294</ele>
        <time>2015-08-03T20:03:41Z</time>
      </trkpt>
      <trkpt lat="48.84528" lon="2.402">
        <ele>48.599998474121</ele>
        <time>2015-08-03T20:03:46Z</time>
      </trkpt>
      <trkpt lat="48.84542" lon="2.40181">
        <ele>47.79999923706</ele>
        <time>2015-08-03T20:03:50Z</time>
      </trkpt>
      <trkpt lat="48.84558" lon="2.40162">
        <ele>47</ele>
        <time>2015-08-03T20:03:54Z</time>
      </trkpt>
      <trkpt lat="48.84573" lon="2.40141">
        <ele>45.79999923706</ele>
        <time>2015-08-03T20:03:58Z</time>
      </trkpt>
      <trkpt lat="48.84587" lon="2.40121">
        <ele>45</ele>
        <time>2015-08-03T20:04:02Z</time>
      </trkpt>
      <trkpt lat="48.84601" lon="2.40101">
        <ele>44</ele>
        <time>2015-08-03T20:04:06Z</time>
      </trkpt>
      <trkpt lat="48.84604" lon="2.40096">
        <ele>43.79999923706</ele>
        <time>2015-08-03T20:04:07Z</time>
      </trkpt>
      <trkpt lat="48.84616" lon="2.40081">
        <ele>42.79999923706</ele>
        <time>2015-08-03T20:04:10Z</time>
      </trkpt>
      <trkpt lat="48.84632" lon="2.40059">
        <ele>42.20000076294</ele>
        <time>2015-08-03T20:04:14Z</time>
      </trkpt>
      <trkpt lat="48.8465" lon="2.40034">
        <ele>41.400001525879</ele>
        <time>2015-08-03T20:04:18Z</time>
      </trkpt>
      <trkpt lat="48.84665" lon="2.40015">
        <ele>40.20000076294</ele>
        <time>2015-08-03T20:04:21Z</time>
      </trkpt>
      <trkpt lat="48.84679" lon="2.39994">
        <ele>39</ele>
        <time>2015-08-03T20:04:24Z</time>
      </trkpt>
      <trkpt lat="48.84694" lon="2.39975">
        <ele>38.599998474121</ele>
        <time>2015-08-03T20:04:27Z</time>
      </trkpt>
      <trkpt lat="48.84707" lon="2.39956">
        <ele>38</ele>
        <time>2015-08-03T20:04:30Z</time>
      </trkpt>
      <trkpt lat="48.84723" lon="2.39933">
        <ele>36.20000076294</ele>
        <time>2015-08-03T20:04:34Z</time>
      </trkpt>
      <trkpt lat="48.84729" lon="2.39921">
        <ele>37.400001525879</ele>
        <time>2015-08-03T20:04:36Z</time>
      </trkpt>
      <trkpt lat="48.8474" lon="2.39911">
        <ele>38.400001525879</ele>
        <time>2015-08-03T20:04:39Z</time>
      </trkpt>
      <trkpt lat="48.84747" lon="2.39906">
        <ele>38.79999923706</ele>
        <time>2015-08-03T20:04:41Z</time>
      </trkpt>
      <trkpt lat="48.84759" lon="2.39903">
        <ele>39.79999923706</ele>
        <time>2015-08-03T20:04:45Z</time>
      </trkpt>
      <trkpt lat="48.84771" lon="2.39905">
        <ele>40.400001525879</ele>
        <time>2015-08-03T20:04:49Z</time>
      </trkpt>
      <trkpt lat="48.84776" lon="2.39906">
        <ele>39.599998474121</ele>
        <time>2015-08-03T20:04:51Z</time>
      </trkpt>
      <trkpt lat="48.84786" lon="2.39909">
        <ele>39.400001525879</ele>
        <time>2015-08-03T20:04:56Z</time>
      </trkpt>
      <trkpt lat="48.8478" lon="2.39903">
        <ele>43.599998474121</ele>
        <time>2015-08-03T20:05:08Z</time>
      </trkpt>
      <trkpt lat="48.84785" lon="2.39891">
        <ele>43.599998474121</ele>
        <time>2015-08-03T20:05:13Z</time>
      </trkpt>
      <trkpt lat="48.848" lon="2.3988">
        <ele>42.599998474121</ele>
        <time>2015-08-03T20:05:21Z</time>
      </trkpt>
      <trkpt lat="48.84813" lon="2.39859">
        <ele>41</ele>
        <time>2015-08-03T20:05:28Z</time>
      </trkpt>
      <trkpt lat="48.84823" lon="2.39833">
        <ele>40</ele>
        <time>2015-08-03T20:05:34Z</time>
      </trkpt>
      <trkpt lat="48.84827" lon="2.39806">
        <ele>38</ele>
        <time>2015-08-03T20:05:40Z</time>
      </trkpt>
      <trkpt lat="48.8483" lon="2.39777">
        <ele>37.400001525879</ele>
        <time>2015-08-03T20:05:46Z</time>
      </trkpt>
      <trkpt lat="48.84839" lon="2.39749">
        <ele>36.79999923706</ele>
        <time>2015-08-03T20:05:52Z</time>
      </trkpt>
      <trkpt lat="48.84846" lon="2.39719">
        <ele>34</ele>
        <time>2015-08-03T20:05:58Z</time>
      </trkpt>
      <trkpt lat="48.84851" lon="2.39688">
        <ele>33</ele>
        <time>2015-08-03T20:06:04Z</time>
      </trkpt>
      <trkpt lat="48.84866" lon="2.39667">
        <ele>32.599998474121</ele>
        <time>2015-08-03T20:06:10Z</time>
      </trkpt>
      <trkpt lat="48.8488" lon="2.39648">
        <ele>30.799999237061</ele>
        <time>2015-08-03T20:06:15Z</time>
      </trkpt>
      <trkpt lat="48.84891" lon="2.39621">
        <ele>31</ele>
        <time>2015-08-03T20:06:21Z</time>
      </trkpt>
      <trkpt lat="48.84897" lon="2.39593">
        <ele>32</ele>
        <time>2015-08-03T20:06:27Z</time>
      </trkpt>
      <trkpt lat="48.84897" lon="2.39563">
        <ele>32</ele>
        <time>2015-08-03T20:06:34Z</time>
      </trkpt>
      <trkpt lat="48.84901" lon="2.39552">
        <ele>31.39999961853</ele>
        <time>2015-08-03T20:06:38Z</time>
      </trkpt>
      <trkpt lat="48.84887" lon="2.39529">
        <ele>31.200000762939</ele>
        <time>2015-08-03T20:06:47Z</time>
      </trkpt>
      <trkpt lat="48.84891" lon="2.39504">
        <ele>30.39999961853</ele>
        <time>2015-08-03T20:06:52Z</time>
      </trkpt>
      <trkpt lat="48.84896" lon="2.39496">
        <ele>30</ele>
        <time>2015-08-03T20:06:54Z</time>
      </trkpt>
      <trkpt lat="48.84911" lon="2.39474">
        <ele>29.200000762939</ele>
        <time>2015-08-03T20:06:59Z</time>
      </trkpt>
      <trkpt lat="48.84925" lon="2.39452">
        <ele>28.200000762939</ele>
        <time>2015-08-03T20:07:03Z</time>
      </trkpt>
      <trkpt lat="48.84937" lon="2.39429">
        <ele>27.60000038147</ele>
        <time>2015-08-03T20:07:07Z</time>
      </trkpt>
      <trkpt lat="48.8495" lon="2.39407">
        <ele>27</ele>
        <time>2015-08-03T20:07:11Z</time>
      </trkpt>
      <trkpt lat="48.84964" lon="2.39386">
        <ele>25.799999237061</ele>
        <time>2015-08-03T20:07:15Z</time>
      </trkpt>
      <trkpt lat="48.84975" lon="2.39369">
        <ele>24.799999237061</ele>
        <time>2015-08-03T20:07:18Z</time>
      </trkpt>
      <trkpt lat="48.84989" lon="2.39346">
        <ele>25.200000762939</ele>
        <time>2015-08-03T20:07:22Z</time>
      </trkpt>
      <trkpt lat="48.85001" lon="2.39325">
        <ele>25.39999961853</ele>
        <time>2015-08-03T20:07:26Z</time>
      </trkpt>
      <trkpt lat="48.85016" lon="2.39299">
        <ele>25.60000038147</ele>
        <time>2015-08-03T20:07:31Z</time>
      </trkpt>
      <trkpt lat="48.85028" lon="2.39273">
        <ele>27.60000038147</ele>
        <time>2015-08-03T20:07:36Z</time>
      </trkpt>
      <trkpt lat="48.85031" lon="2.39268">
        <ele>27.39999961853</ele>
        <time>2015-08-03T20:07:37Z</time>
      </trkpt>
      <trkpt lat="48.85044" lon="2.39242">
        <ele>28.39999961853</ele>
        <time>2015-08-03T20:07:42Z</time>
      </trkpt>
      <trkpt lat="48.85058" lon="2.39222">
        <ele>28.39999961853</ele>
        <time>2015-08-03T20:07:46Z</time>
      </trkpt>
      <trkpt lat="48.85073" lon="2.392">
        <ele>27.60000038147</ele>
        <time>2015-08-03T20:07:50Z</time>
      </trkpt>
      <trkpt lat="48.85088" lon="2.39176">
        <ele>26</ele>
        <time>2015-08-03T20:07:54Z</time>
      </trkpt>
      <trkpt lat="48.85102" lon="2.39153">
        <ele>25.39999961853</ele>
        <time>2015-08-03T20:07:58Z</time>
      </trkpt>
      <trkpt lat="48.85116" lon="2.39129">
        <ele>25.200000762939</ele>
        <time>2015-08-03T20:08:02Z</time>
      </trkpt>
      <trkpt lat="48.8513" lon="2.39106">
        <ele>24.799999237061</ele>
        <time>2015-08-03T20:08:06Z</time>
      </trkpt>
      <trkpt lat="48.85137" lon="2.39096">
        <ele>24.39999961853</ele>
        <time>2015-08-03T20:08:08Z</time>
      </trkpt>
      <trkpt lat="48.85152" lon="2.39073">
        <ele>23.60000038147</ele>
        <time>2015-08-03T20:08:12Z</time>
      </trkpt>
      <trkpt lat="48.85165" lon="2.3905">
        <ele>23.200000762939</ele>
        <time>2015-08-03T20:08:16Z</time>
      </trkpt>
      <trkpt lat="48.85179" lon="2.39028">
        <ele>21.39999961853</ele>
        <time>2015-08-03T20:08:20Z</time>
      </trkpt>
      <trkpt lat="48.85194" lon="2.39004">
        <ele>19.39999961853</ele>
        <time>2015-08-03T20:08:24Z</time>
      </trkpt>
      <trkpt lat="48.85206" lon="2.38986">
        <ele>18.60000038147</ele>
        <time>2015-08-03T20:08:27Z</time>
      </trkpt>
      <trkpt lat="48.85221" lon="2.3896">
        <ele>17.39999961853</ele>
        <time>2015-08-03T20:08:31Z</time>
      </trkpt>
      <trkpt lat="48.85236" lon="2.38933">
        <ele>17.39999961853</ele>
        <time>2015-08-03T20:08:35Z</time>
      </trkpt>
      <trkpt lat="48.85252" lon="2.38908">
        <ele>17</ele>
        <time>2015-08-03T20:08:39Z</time>
      </trkpt>
      <trkpt lat="48.85266" lon="2.38886">
        <ele>15.800000190735</ele>
        <time>2015-08-03T20:08:43Z</time>
      </trkpt>
      <trkpt lat="48.85271" lon="2.38881">
        <ele>15.39999961853</ele>
        <time>2015-08-03T20:08:44Z</time>
      </trkpt>
      <trkpt lat="48.85287" lon="2.3886">
        <ele>14.199999809265</ele>
        <time>2015-08-03T20:08:48Z</time>
      </trkpt>
      <trkpt lat="48.85294" lon="2.38847">
        <ele>14</ele>
        <time>2015-08-03T20:08:50Z</time>
      </trkpt>
      <trkpt lat="48.8531" lon="2.38821">
        <ele>13</ele>
        <time>2015-08-03T20:08:54Z</time>
      </trkpt>
      <trkpt lat="48.85325" lon="2.38796">
        <ele>12.60000038147</ele>
        <time>2015-08-03T20:08:58Z</time>
      </trkpt>
      <trkpt lat="48.85333" lon="2.38783">
        <ele>12.39999961853</ele>
        <time>2015-08-03T20:09:00Z</time>
      </trkpt>
      <trkpt lat="48.85343" lon="2.38764">
        <ele>12.60000038147</ele>
        <time>2015-08-03T20:09:03Z</time>
      </trkpt>
      <trkpt lat="48.85357" lon="2.38739">
        <ele>11.800000190735</ele>
        <time>2015-08-03T20:09:07Z</time>
      </trkpt>
      <trkpt lat="48.85372" lon="2.38714">
        <ele>10.800000190735</ele>
        <time>2015-08-03T20:09:11Z</time>
      </trkpt>
      <trkpt lat="48.85389" lon="2.38689">
        <ele>10.60000038147</ele>
        <time>2015-08-03T20:09:15Z</time>
      </trkpt>
      <trkpt lat="48.85401" lon="2.38663">
        <ele>13.39999961853</ele>
        <time>2015-08-03T20:09:19Z</time>
      </trkpt>
      <trkpt lat="48.85414" lon="2.38633">
        <ele>14.800000190735</ele>
        <time>2015-08-03T20:09:23Z</time>
      </trkpt>
      <trkpt lat="48.85426" lon="2.3861">
        <ele>15.60000038147</ele>
        <time>2015-08-03T20:09:26Z</time>
      </trkpt>
      <trkpt lat="48.85438" lon="2.38586">
        <ele>15.800000190735</ele>
        <time>2015-08-03T20:09:29Z</time>
      </trkpt>
      <trkpt lat="48.85452" lon="2.38563">
        <ele>18.39999961853</ele>
        <time>2015-08-03T20:09:32Z</time>
      </trkpt>
      <trkpt lat="48.85463" lon="2.3854">
        <ele>21.60000038147</ele>
        <time>2015-08-03T20:09:35Z</time>
      </trkpt>
      <trkpt lat="48.85481" lon="2.38516">
        <ele>24.39999961853</ele>
        <time>2015-08-03T20:09:39Z</time>
      </trkpt>
      <trkpt lat="48.85492" lon="2.38494">
        <ele>24.60000038147</ele>
        <time>2015-08-03T20:09:42Z</time>
      </trkpt>
      <trkpt lat="48.85505" lon="2.3847">
        <ele>24.60000038147</ele>
        <time>2015-08-03T20:09:45Z</time>
      </trkpt>
      <trkpt lat="48.85518" lon="2.38447">
        <ele>24.799999237061</ele>
        <time>2015-08-03T20:09:48Z</time>
      </trkpt>
      <trkpt lat="48.85527" lon="2.38432">
        <ele>24.39999961853</ele>
        <time>2015-08-03T20:09:50Z</time>
      </trkpt>
      <trkpt lat="48.85541" lon="2.38409">
        <ele>24.39999961853</ele>
        <time>2015-08-03T20:09:53Z</time>
      </trkpt>
      <trkpt lat="48.8555" lon="2.38394">
        <ele>23.799999237061</ele>
        <time>2015-08-03T20:09:55Z</time>
      </trkpt>
      <trkpt lat="48.85563" lon="2.3837">
        <ele>23.200000762939</ele>
        <time>2015-08-03T20:09:58Z</time>
      </trkpt>
      <trkpt lat="48.85576" lon="2.38346">
        <ele>23.200000762939</ele>
        <time>2015-08-03T20:10:01Z</time>
      </trkpt>
      <trkpt lat="48.85583" lon="2.38332">
        <ele>24.200000762939</ele>
        <time>2015-08-03T20:10:03Z</time>
      </trkpt>
      <trkpt lat="48.85596" lon="2.3831">
        <ele>24.200000762939</ele>
        <time>2015-08-03T20:10:06Z</time>
      </trkpt>
      <trkpt lat="48.85608" lon="2.38289">
        <ele>24.60000038147</ele>
        <time>2015-08-03T20:10:09Z</time>
      </trkpt>
      <trkpt lat="48.85616" lon="2.38277">
        <ele>25.39999961853</ele>
        <time>2015-08-03T20:10:11Z</time>
      </trkpt>
      <trkpt lat="48.85628" lon="2.38251">
        <ele>25.39999961853</ele>
        <time>2015-08-03T20:10:15Z</time>
      </trkpt>
      <trkpt lat="48.85631" lon="2.38244">
        <ele>25.200000762939</ele>
        <time>2015-08-03T20:10:16Z</time>
      </trkpt>
      <trkpt lat="48.85635" lon="2.38238">
        <ele>25</ele>
        <time>2015-08-03T20:10:17Z</time>
      </trkpt>
      <trkpt lat="48.8565" lon="2.38212">
        <ele>24.39999961853</ele>
        <time>2015-08-03T20:10:21Z</time>
      </trkpt>
      <trkpt lat="48.85667" lon="2.38186">
        <ele>23.60000038147</ele>
        <time>2015-08-03T20:10:25Z</time>
      </trkpt>
      <trkpt lat="48.85682" lon="2.38161">
        <ele>22.200000762939</ele>
        <time>2015-08-03T20:10:29Z</time>
      </trkpt>
      <trkpt lat="48.85697" lon="2.38133">
        <ele>22</ele>
        <time>2015-08-03T20:10:33Z</time>
      </trkpt>
      <trkpt lat="48.85705" lon="2.3812">
        <ele>22</ele>
        <time>2015-08-03T20:10:35Z</time>
      </trkpt>
      <trkpt lat="48.8572" lon="2.38093">
        <ele>24.200000762939</ele>
        <time>2015-08-03T20:10:39Z</time>
      </trkpt>
      <trkpt lat="48.85727" lon="2.3808">
        <ele>25.39999961853</ele>
        <time>2015-08-03T20:10:41Z</time>
      </trkpt>
      <trkpt lat="48.85743" lon="2.38062">
        <ele>25.39999961853</ele>
        <time>2015-08-03T20:10:45Z</time>
      </trkpt>
      <trkpt lat="48.85752" lon="2.38049">
        <ele>26.799999237061</ele>
        <time>2015-08-03T20:10:48Z</time>
      </trkpt>
      <trkpt lat="48.8576" lon="2.38042">
        <ele>30.799999237061</ele>
        <time>2015-08-03T20:10:52Z</time>
      </trkpt>
      <trkpt lat="48.85763" lon="2.38039">
        <ele>31.799999237061</ele>
        <time>2015-08-03T20:10:54Z</time>
      </trkpt>
      <trkpt lat="48.85781" lon="2.38026">
        <ele>34.599998474121</ele>
        <time>2015-08-03T20:11:02Z</time>
      </trkpt>
      <trkpt lat="48.85783" lon="2.38023">
        <ele>33.79999923706</ele>
        <time>2015-08-03T20:11:03Z</time>
      </trkpt>
      <trkpt lat="48.85789" lon="2.38">
        <ele>30.799999237061</ele>
        <time>2015-08-03T20:11:08Z</time>
      </trkpt>
      <trkpt lat="48.85791" lon="2.37987">
        <ele>31</ele>
        <time>2015-08-03T20:11:10Z</time>
      </trkpt>
      <trkpt lat="48.85804" lon="2.37964">
        <ele>29.799999237061</ele>
        <time>2015-08-03T20:11:15Z</time>
      </trkpt>
      <trkpt lat="48.85807" lon="2.3796">
        <ele>29.799999237061</ele>
        <time>2015-08-03T20:11:16Z</time>
      </trkpt>
      <trkpt lat="48.85814" lon="2.37946">
        <ele>29.60000038147</ele>
        <time>2015-08-03T20:11:19Z</time>
      </trkpt>
      <trkpt lat="48.85824" lon="2.37927">
        <ele>28.60000038147</ele>
        <time>2015-08-03T20:11:23Z</time>
      </trkpt>
      <trkpt lat="48.8583" lon="2.37917">
        <ele>27.799999237061</ele>
        <time>2015-08-03T20:11:25Z</time>
      </trkpt>
      <trkpt lat="48.85839" lon="2.37903">
        <ele>27</ele>
        <time>2015-08-03T20:11:28Z</time>
      </trkpt>
      <trkpt lat="48.85855" lon="2.37879">
        <ele>25.799999237061</ele>
        <time>2015-08-03T20:11:33Z</time>
      </trkpt>
      <trkpt lat="48.85869" lon="2.37861">
        <ele>24.60000038147</ele>
        <time>2015-08-03T20:11:37Z</time>
      </trkpt>
      <trkpt lat="48.85884" lon="2.37839">
        <ele>23.60000038147</ele>
        <time>2015-08-03T20:11:42Z</time>
      </trkpt>
      <trkpt lat="48.85892" lon="2.37822">
        <ele>23.799999237061</ele>
        <time>2015-08-03T20:11:45Z</time>
      </trkpt>
      <trkpt lat="48.85897" lon="2.37809">
        <ele>24.39999961853</ele>
        <time>2015-08-03T20:11:47Z</time>
      </trkpt>
      <trkpt lat="48.85907" lon="2.37786">
        <ele>25.39999961853</ele>
        <time>2015-08-03T20:11:51Z</time>
      </trkpt>
      <trkpt lat="48.85915" lon="2.37768">
        <ele>25.60000038147</ele>
        <time>2015-08-03T20:11:54Z</time>
      </trkpt>
      <trkpt lat="48.8593" lon="2.37746">
        <ele>25.799999237061</ele>
        <time>2015-08-03T20:11:58Z</time>
      </trkpt>
      <trkpt lat="48.85945" lon="2.37724">
        <ele>26</ele>
        <time>2015-08-03T20:12:02Z</time>
      </trkpt>
      <trkpt lat="48.85957" lon="2.37703">
        <ele>28.39999961853</ele>
        <time>2015-08-03T20:12:06Z</time>
      </trkpt>
      <trkpt lat="48.85967" lon="2.37689">
        <ele>28.200000762939</ele>
        <time>2015-08-03T20:12:10Z</time>
      </trkpt>
      <trkpt lat="48.85977" lon="2.37671">
        <ele>30.39999961853</ele>
        <time>2015-08-03T20:12:14Z</time>
      </trkpt>
      <trkpt lat="48.8599" lon="2.37648">
        <ele>30.60000038147</ele>
        <time>2015-08-03T20:12:18Z</time>
      </trkpt>
      <trkpt lat="48.86004" lon="2.37624">
        <ele>31.799999237061</ele>
        <time>2015-08-03T20:12:22Z</time>
      </trkpt>
      <trkpt lat="48.8602" lon="2.37598">
        <ele>31.39999961853</ele>
        <time>2015-08-03T20:12:26Z</time>
      </trkpt>
      <trkpt lat="48.86037" lon="2.37573">
        <ele>30.799999237061</ele>
        <time>2015-08-03T20:12:30Z</time>
      </trkpt>
      <trkpt lat="48.86051" lon="2.37551">
        <ele>30.60000038147</ele>
        <time>2015-08-03T20:12:34Z</time>
      </trkpt>
      <trkpt lat="48.86064" lon="2.37527">
        <ele>31.799999237061</ele>
        <time>2015-08-03T20:12:38Z</time>
      </trkpt>
      <trkpt lat="48.86078" lon="2.37505">
        <ele>33.20000076294</ele>
        <time>2015-08-03T20:12:42Z</time>
      </trkpt>
      <trkpt lat="48.86093" lon="2.37481">
        <ele>32.599998474121</ele>
        <time>2015-08-03T20:12:46Z</time>
      </trkpt>
      <trkpt lat="48.86107" lon="2.37455">
        <ele>30.60000038147</ele>
        <time>2015-08-03T20:12:50Z</time>
      </trkpt>
      <trkpt lat="48.86123" lon="2.37429">
        <ele>30.799999237061</ele>
        <time>2015-08-03T20:12:54Z</time>
      </trkpt>
      <trkpt lat="48.86137" lon="2.37403">
        <ele>29.799999237061</ele>
        <time>2015-08-03T20:12:58Z</time>
      </trkpt>
      <trkpt lat="48.86143" lon="2.37389">
        <ele>29.39999961853</ele>
        <time>2015-08-03T20:13:00Z</time>
      </trkpt>
      <trkpt lat="48.86157" lon="2.37369">
        <ele>27.799999237061</ele>
        <time>2015-08-03T20:13:04Z</time>
      </trkpt>
      <trkpt lat="48.86172" lon="2.37349">
        <ele>27.39999961853</ele>
        <time>2015-08-03T20:13:08Z</time>
      </trkpt>
      <trkpt lat="48.86176" lon="2.37343">
        <ele>27.60000038147</ele>
        <time>2015-08-03T20:13:09Z</time>
      </trkpt>
      <trkpt lat="48.8619" lon="2.37321">
        <ele>29</ele>
        <time>2015-08-03T20:13:13Z</time>
      </trkpt>
      <trkpt lat="48.862" lon="2.37305">
        <ele>29.799999237061</ele>
        <time>2015-08-03T20:13:16Z</time>
      </trkpt>
      <trkpt lat="48.86207" lon="2.3729">
        <ele>29.39999961853</ele>
        <time>2015-08-03T20:13:19Z</time>
      </trkpt>
      <trkpt lat="48.86222" lon="2.37266">
        <ele>25.60000038147</ele>
        <time>2015-08-03T20:13:24Z</time>
      </trkpt>
      <trkpt lat="48.86235" lon="2.37245">
        <ele>24.799999237061</ele>
        <time>2015-08-03T20:13:28Z</time>
      </trkpt>
      <trkpt lat="48.86244" lon="2.37229">
        <ele>24.39999961853</ele>
        <time>2015-08-03T20:13:31Z</time>
      </trkpt>
      <trkpt lat="48.86256" lon="2.37208">
        <ele>25.39999961853</ele>
        <time>2015-08-03T20:13:35Z</time>
      </trkpt>
      <trkpt lat="48.86269" lon="2.37182">
        <ele>30</ele>
        <time>2015-08-03T20:13:40Z</time>
      </trkpt>
      <trkpt lat="48.86283" lon="2.37161">
        <ele>33.400001525879</ele>
        <time>2015-08-03T20:13:45Z</time>
      </trkpt>
      <trkpt lat="48.86287" lon="2.37155">
        <ele>35</ele>
        <time>2015-08-03T20:13:47Z</time>
      </trkpt>
      <trkpt lat="48.86292" lon="2.37145">
        <ele>37.79999923706</ele>
        <time>2015-08-03T20:13:51Z</time>
      </trkpt>
      <trkpt lat="48.86297" lon="2.37137">
        <ele>40</ele>
        <time>2015-08-03T20:13:55Z</time>
      </trkpt>
      <trkpt lat="48.86311" lon="2.37115">
        <ele>40.400001525879</ele>
        <time>2015-08-03T20:14:01Z</time>
      </trkpt>
      <trkpt lat="48.86316" lon="2.37106">
        <ele>39.599998474121</ele>
        <time>2015-08-03T20:14:03Z</time>
      </trkpt>
      <trkpt lat="48.86329" lon="2.37081">
        <ele>37.79999923706</ele>
        <time>2015-08-03T20:14:08Z</time>
      </trkpt>
      <trkpt lat="48.86344" lon="2.37057">
        <ele>34.79999923706</ele>
        <time>2015-08-03T20:14:13Z</time>
      </trkpt>
      <trkpt lat="48.86356" lon="2.37036">
        <ele>33.400001525879</ele>
        <time>2015-08-03T20:14:17Z</time>
      </trkpt>
      <trkpt lat="48.86369" lon="2.37016">
        <ele>34</ele>
        <time>2015-08-03T20:14:21Z</time>
      </trkpt>
      <trkpt lat="48.86382" lon="2.36995">
        <ele>34.599998474121</ele>
        <time>2015-08-03T20:14:25Z</time>
      </trkpt>
      <trkpt lat="48.86391" lon="2.36978">
        <ele>34.20000076294</ele>
        <time>2015-08-03T20:14:28Z</time>
      </trkpt>
      <trkpt lat="48.86404" lon="2.36955">
        <ele>33.79999923706</ele>
        <time>2015-08-03T20:14:32Z</time>
      </trkpt>
      <trkpt lat="48.86407" lon="2.36948">
        <ele>33.599998474121</ele>
        <time>2015-08-03T20:14:33Z</time>
      </trkpt>
      <trkpt lat="48.86421" lon="2.36924">
        <ele>33.599998474121</ele>
        <time>2015-08-03T20:14:37Z</time>
      </trkpt>
      <trkpt lat="48.86436" lon="2.369">
        <ele>34.79999923706</ele>
        <time>2015-08-03T20:14:41Z</time>
      </trkpt>
      <trkpt lat="48.86443" lon="2.36888">
        <ele>34.599998474121</ele>
        <time>2015-08-03T20:14:43Z</time>
      </trkpt>
      <trkpt lat="48.86454" lon="2.36866">
        <ele>33.79999923706</ele>
        <time>2015-08-03T20:14:46Z</time>
      </trkpt>
      <trkpt lat="48.86468" lon="2.36841">
        <ele>33.599998474121</ele>
        <time>2015-08-03T20:14:49Z</time>
      </trkpt>
      <trkpt lat="48.86484" lon="2.36815">
        <ele>33.79999923706</ele>
        <time>2015-08-03T20:14:52Z</time>
      </trkpt>
      <trkpt lat="48.86503" lon="2.36791">
        <ele>32.79999923706</ele>
        <time>2015-08-03T20:14:55Z</time>
      </trkpt>
      <trkpt lat="48.86522" lon="2.36764">
        <ele>32</ele>
        <time>2015-08-03T20:14:58Z</time>
      </trkpt>
      <trkpt lat="48.86539" lon="2.36735">
        <ele>32</ele>
        <time>2015-08-03T20:15:01Z</time>
      </trkpt>
      <trkpt lat="48.86556" lon="2.36707">
        <ele>32.20000076294</ele>
        <time>2015-08-03T20:15:04Z</time>
      </trkpt>
      <trkpt lat="48.86573" lon="2.36681">
        <ele>31.799999237061</ele>
        <time>2015-08-03T20:15:07Z</time>
      </trkpt>
      <trkpt lat="48.86589" lon="2.36655">
        <ele>31.200000762939</ele>
        <time>2015-08-03T20:15:10Z</time>
      </trkpt>
      <trkpt lat="48.86605" lon="2.36631">
        <ele>30.799999237061</ele>
        <time>2015-08-03T20:15:13Z</time>
      </trkpt>
      <trkpt lat="48.86621" lon="2.36607">
        <ele>31.39999961853</ele>
        <time>2015-08-03T20:15:16Z</time>
      </trkpt>
      <trkpt lat="48.86635" lon="2.36581">
        <ele>31</ele>
        <time>2015-08-03T20:15:19Z</time>
      </trkpt>
      <trkpt lat="48.86646" lon="2.36558">
        <ele>31.60000038147</ele>
        <time>2015-08-03T20:15:22Z</time>
      </trkpt>
      <trkpt lat="48.86656" lon="2.3654">
        <ele>32.20000076294</ele>
        <time>2015-08-03T20:15:25Z</time>
      </trkpt>
      <trkpt lat="48.86664" lon="2.36526">
        <ele>31.799999237061</ele>
        <time>2015-08-03T20:15:29Z</time>
      </trkpt>
      <trkpt lat="48.8667" lon="2.36516">
        <ele>34</ele>
        <time>2015-08-03T20:16:17Z</time>
      </trkpt>
      <trkpt lat="48.86675" lon="2.36509">
        <ele>34.400001525879</ele>
        <time>2015-08-03T20:16:23Z</time>
      </trkpt>
      <trkpt lat="48.86691" lon="2.36496">
        <ele>34.79999923706</ele>
        <time>2015-08-03T20:16:33Z</time>
      </trkpt>
      <trkpt lat="48.86706" lon="2.36476">
        <ele>35.20000076294</ele>
        <time>2015-08-03T20:16:40Z</time>
      </trkpt>
      <trkpt lat="48.86724" lon="2.36466">
        <ele>35.20000076294</ele>
        <time>2015-08-03T20:16:51Z</time>
      </trkpt>
      <trkpt lat="48.86724" lon="2.36466">
        <ele>34.79999923706</ele>
        <time>2015-08-03T20:16:53Z</time>
      </trkpt>
      <trkpt lat="48.86727" lon="2.3647">
        <ele>34.79999923706</ele>
        <time>2015-08-03T20:18:52Z</time>
      </trkpt>
      <trkpt lat="48.86726" lon="2.36441">
        <ele>35.79999923706</ele>
        <time>2015-08-03T20:19:03Z</time>
      </trkpt>
      <trkpt lat="48.86721" lon="2.36413">
        <ele>36.599998474121</ele>
        <time>2015-08-03T20:19:10Z</time>
      </trkpt>
      <trkpt lat="48.86724" lon="2.3639">
        <ele>36.400001525879</ele>
        <time>2015-08-03T20:19:17Z</time>
      </trkpt>
      <trkpt lat="48.86719" lon="2.36374">
        <ele>31.200000762939</ele>
        <time>2015-08-03T20:20:05Z</time>
      </trkpt>
      <trkpt lat="48.86718" lon="2.36358">
        <ele>30.39999961853</ele>
        <time>2015-08-03T20:20:10Z</time>
      </trkpt>
      <trkpt lat="48.86721" lon="2.36337">
        <ele>29.799999237061</ele>
        <time>2015-08-03T20:20:15Z</time>
      </trkpt>
      <trkpt lat="48.86722" lon="2.36327">
        <ele>29.799999237061</ele>
        <time>2015-08-03T20:20:17Z</time>
      </trkpt>
      <trkpt lat="48.86716" lon="2.36298">
        <ele>28.200000762939</ele>
        <time>2015-08-03T20:20:23Z</time>
      </trkpt>
      <trkpt lat="48.86708" lon="2.36268">
        <ele>27.799999237061</ele>
        <time>2015-08-03T20:20:29Z</time>
      </trkpt>
      <trkpt lat="48.86699" lon="2.36242">
        <ele>27.39999961853</ele>
        <time>2015-08-03T20:20:34Z</time>
      </trkpt>
      <trkpt lat="48.86687" lon="2.36214">
        <ele>26.60000038147</ele>
        <time>2015-08-03T20:20:39Z</time>
      </trkpt>
      <trkpt lat="48.86679" lon="2.36188">
        <ele>26.39999961853</ele>
        <time>2015-08-03T20:20:43Z</time>
      </trkpt>
      <trkpt lat="48.8667" lon="2.3616">
        <ele>27</ele>
        <time>2015-08-03T20:20:47Z</time>
      </trkpt>
      <trkpt lat="48.86661" lon="2.36131">
        <ele>29.200000762939</ele>
        <time>2015-08-03T20:20:51Z</time>
      </trkpt>
      <trkpt lat="48.86654" lon="2.36107">
        <ele>32.79999923706</ele>
        <time>2015-08-03T20:20:55Z</time>
      </trkpt>
      <trkpt lat="48.86648" lon="2.36089">
        <ele>35</ele>
        <time>2015-08-03T20:20:58Z</time>
      </trkpt>
      <trkpt lat="48.86645" lon="2.36077">
        <ele>36.20000076294</ele>
        <time>2015-08-03T20:21:00Z</time>
      </trkpt>
      <trkpt lat="48.86639" lon="2.36052">
        <ele>37</ele>
        <time>2015-08-03T20:21:04Z</time>
      </trkpt>
      <trkpt lat="48.86636" lon="2.3604">
        <ele>37</ele>
        <time>2015-08-03T20:21:06Z</time>
      </trkpt>
      <trkpt lat="48.86633" lon="2.36027">
        <ele>36.400001525879</ele>
        <time>2015-08-03T20:21:08Z</time>
      </trkpt>
      <trkpt lat="48.86628" lon="2.36">
        <ele>35.400001525879</ele>
        <time>2015-08-03T20:21:12Z</time>
      </trkpt>
      <trkpt lat="48.86622" lon="2.35974">
        <ele>35.20000076294</ele>
        <time>2015-08-03T20:21:16Z</time>
      </trkpt>
      <trkpt lat="48.86614" lon="2.35942">
        <ele>35.79999923706</ele>
        <time>2015-08-03T20:21:21Z</time>
      </trkpt>
      <trkpt lat="48.86606" lon="2.35918">
        <ele>37</ele>
        <time>2015-08-03T20:21:25Z</time>
      </trkpt>
      <trkpt lat="48.86597" lon="2.35887">
        <ele>38.20000076294</ele>
        <time>2015-08-03T20:21:30Z</time>
      </trkpt>
      <trkpt lat="48.86588" lon="2.35856">
        <ele>39.400001525879</ele>
        <time>2015-08-03T20:21:35Z</time>
      </trkpt>
      <trkpt lat="48.86586" lon="2.35831">
        <ele>36.599998474121</ele>
        <time>2015-08-03T20:21:38Z</time>
      </trkpt>
      <trkpt lat="48.86586" lon="2.35813">
        <ele>33</ele>
        <time>2015-08-03T20:21:40Z</time>
      </trkpt>
      <trkpt lat="48.86585" lon="2.358">
        <ele>32.400001525879</ele>
        <time>2015-08-03T20:21:42Z</time>
      </trkpt>
      <trkpt lat="48.8658" lon="2.35773">
        <ele>31</ele>
        <time>2015-08-03T20:21:46Z</time>
      </trkpt>
      <trkpt lat="48.86573" lon="2.35746">
        <ele>30.799999237061</ele>
        <time>2015-08-03T20:21:50Z</time>
      </trkpt>
      <trkpt lat="48.86571" lon="2.35741">
        <ele>31.200000762939</ele>
        <time>2015-08-03T20:21:51Z</time>
      </trkpt>
      <trkpt lat="48.86564" lon="2.3571">
        <ele>33.400001525879</ele>
        <time>2015-08-03T20:21:56Z</time>
      </trkpt>
      <trkpt lat="48.86559" lon="2.3568">
        <ele>35</ele>
        <time>2015-08-03T20:22:01Z</time>
      </trkpt>
      <trkpt lat="48.86556" lon="2.35675">
        <ele>34.20000076294</ele>
        <time>2015-08-03T20:22:02Z</time>
      </trkpt>
      <trkpt lat="48.86549" lon="2.35654">
        <ele>33.20000076294</ele>
        <time>2015-08-03T20:22:06Z</time>
      </trkpt>
      <trkpt lat="48.86545" lon="2.35627">
        <ele>33.79999923706</ele>
        <time>2015-08-03T20:22:11Z</time>
      </trkpt>
      <trkpt lat="48.8654" lon="2.35597">
        <ele>32.599998474121</ele>
        <time>2015-08-03T20:22:17Z</time>
      </trkpt>
      <trkpt lat="48.86538" lon="2.35585">
        <ele>32.20000076294</ele>
        <time>2015-08-03T20:22:20Z</time>
      </trkpt>
      <trkpt lat="48.86538" lon="2.35579">
        <ele>31.799999237061</ele>
        <time>2015-08-03T20:22:22Z</time>
      </trkpt>
      <trkpt lat="48.86536" lon="2.35569">
        <ele>32</ele>
        <time>2015-08-03T20:22:28Z</time>
      </trkpt>
      <trkpt lat="48.86525" lon="2.35566">
        <ele>30.60000038147</ele>
        <time>2015-08-03T20:22:33Z</time>
      </trkpt>
      <trkpt lat="48.86506" lon="2.35561">
        <ele>32.599998474121</ele>
        <time>2015-08-03T20:22:38Z</time>
      </trkpt>
      <trkpt lat="48.86485" lon="2.3555">
        <ele>34.79999923706</ele>
        <time>2015-08-03T20:22:43Z</time>
      </trkpt>
      <trkpt lat="48.86468" lon="2.35544">
        <ele>37.20000076294</ele>
        <time>2015-08-03T20:22:47Z</time>
      </trkpt>
      <trkpt lat="48.86449" lon="2.35534">
        <ele>38.599998474121</ele>
        <time>2015-08-03T20:22:51Z</time>
      </trkpt>
      <trkpt lat="48.86429" lon="2.35524">
        <ele>39.400001525879</ele>
        <time>2015-08-03T20:22:55Z</time>
      </trkpt>
      <trkpt lat="48.8641" lon="2.35513">
        <ele>40</ele>
        <time>2015-08-03T20:22:59Z</time>
      </trkpt>
      <trkpt lat="48.8639" lon="2.35501">
        <ele>41.20000076294</ele>
        <time>2015-08-03T20:23:03Z</time>
      </trkpt>
      <trkpt lat="48.86372" lon="2.35492">
        <ele>41.599998474121</ele>
        <time>2015-08-03T20:23:06Z</time>
      </trkpt>
      <trkpt lat="48.86354" lon="2.35483">
        <ele>41.79999923706</ele>
        <time>2015-08-03T20:23:09Z</time>
      </trkpt>
      <trkpt lat="48.86337" lon="2.35472">
        <ele>42.20000076294</ele>
        <time>2015-08-03T20:23:12Z</time>
      </trkpt>
      <trkpt lat="48.86319" lon="2.35462">
        <ele>41.79999923706</ele>
        <time>2015-08-03T20:23:15Z</time>
      </trkpt>
      <trkpt lat="48.86314" lon="2.35461">
        <ele>41.400001525879</ele>
        <time>2015-08-03T20:23:16Z</time>
      </trkpt>
      <trkpt lat="48.86292" lon="2.3545">
        <ele>41.599998474121</ele>
        <time>2015-08-03T20:23:20Z</time>
      </trkpt>
      <trkpt lat="48.86274" lon="2.35441">
        <ele>41.400001525879</ele>
        <time>2015-08-03T20:23:24Z</time>
      </trkpt>
      <trkpt lat="48.86268" lon="2.35437">
        <ele>41.400001525879</ele>
        <time>2015-08-03T20:23:26Z</time>
      </trkpt>
      <trkpt lat="48.86251" lon="2.35426">
        <ele>40.400001525879</ele>
        <time>2015-08-03T20:23:31Z</time>
      </trkpt>
      <trkpt lat="48.86231" lon="2.35416">
        <ele>40.400001525879</ele>
        <time>2015-08-03T20:23:35Z</time>
      </trkpt>
      <trkpt lat="48.86209" lon="2.35403">
        <ele>39.599998474121</ele>
        <time>2015-08-03T20:23:39Z</time>
      </trkpt>
      <trkpt lat="48.86188" lon="2.35393">
        <ele>38.79999923706</ele>
        <time>2015-08-03T20:23:43Z</time>
      </trkpt>
      <trkpt lat="48.86168" lon="2.35383">
        <ele>38.79999923706</ele>
        <time>2015-08-03T20:23:47Z</time>
      </trkpt>
      <trkpt lat="48.86161" lon="2.35382">
        <ele>38.79999923706</ele>
        <time>2015-08-03T20:23:48Z</time>
      </trkpt>
      <trkpt lat="48.86142" lon="2.35372">
        <ele>39.79999923706</ele>
        <time>2015-08-03T20:23:51Z</time>
      </trkpt>
      <trkpt lat="48.86136" lon="2.35368">
        <ele>40</ele>
        <time>2015-08-03T20:23:52Z</time>
      </trkpt>
      <trkpt lat="48.86129" lon="2.35363">
        <ele>40.599998474121</ele>
        <time>2015-08-03T20:23:53Z</time>
      </trkpt>
      <trkpt lat="48.86114" lon="2.35352">
        <ele>41.400001525879</ele>
        <time>2015-08-03T20:23:56Z</time>
      </trkpt>
      <trkpt lat="48.86099" lon="2.35344">
        <ele>42.599998474121</ele>
        <time>2015-08-03T20:23:59Z</time>
      </trkpt>
      <trkpt lat="48.86081" lon="2.35336">
        <ele>44</ele>
        <time>2015-08-03T20:24:02Z</time>
      </trkpt>
      <trkpt lat="48.86062" lon="2.35328">
        <ele>46.400001525879</ele>
        <time>2015-08-03T20:24:05Z</time>
      </trkpt>
      <trkpt lat="48.86054" lon="2.35323">
        <ele>48.599998474121</ele>
        <time>2015-08-03T20:24:06Z</time>
      </trkpt>
      <trkpt lat="48.86036" lon="2.3531">
        <ele>49.599998474121</ele>
        <time>2015-08-03T20:24:09Z</time>
      </trkpt>
      <trkpt lat="48.86029" lon="2.35306">
        <ele>49.599998474121</ele>
        <time>2015-08-03T20:24:10Z</time>
      </trkpt>
      <trkpt lat="48.86013" lon="2.35294">
        <ele>49.20000076294</ele>
        <time>2015-08-03T20:24:13Z</time>
      </trkpt>
      <trkpt lat="48.86003" lon="2.35288">
        <ele>49</ele>
        <time>2015-08-03T20:24:15Z</time>
      </trkpt>
      <trkpt lat="48.8599" lon="2.3528">
        <ele>47.599998474121</ele>
        <time>2015-08-03T20:24:18Z</time>
      </trkpt>
      <trkpt lat="48.85969" lon="2.35268">
        <ele>47.599998474121</ele>
        <time>2015-08-03T20:24:23Z</time>
      </trkpt>
      <trkpt lat="48.85963" lon="2.35266">
        <ele>47.20000076294</ele>
        <time>2015-08-03T20:24:24Z</time>
      </trkpt>
      <trkpt lat="48.85944" lon="2.35256">
        <ele>47.20000076294</ele>
        <time>2015-08-03T20:24:28Z</time>
      </trkpt>
      <trkpt lat="48.85939" lon="2.35253">
        <ele>47.400001525879</ele>
        <time>2015-08-03T20:24:29Z</time>
      </trkpt>
      <trkpt lat="48.85922" lon="2.35244">
        <ele>48.20000076294</ele>
        <time>2015-08-03T20:24:32Z</time>
      </trkpt>
      <trkpt lat="48.85901" lon="2.35231">
        <ele>44.79999923706</ele>
        <time>2015-08-03T20:24:36Z</time>
      </trkpt>
      <trkpt lat="48.85881" lon="2.35219">
        <ele>42.79999923706</ele>
        <time>2015-08-03T20:24:40Z</time>
      </trkpt>
      <trkpt lat="48.85872" lon="2.35215">
        <ele>43.599998474121</ele>
        <time>2015-08-03T20:24:42Z</time>
      </trkpt>
      <trkpt lat="48.85864" lon="2.35209">
        <ele>44</ele>
        <time>2015-08-03T20:24:44Z</time>
      </trkpt>
      <trkpt lat="48.85844" lon="2.35197">
        <ele>44.79999923706</ele>
        <time>2015-08-03T20:24:49Z</time>
      </trkpt>
      <trkpt lat="48.85836" lon="2.35194">
        <ele>44.599998474121</ele>
        <time>2015-08-03T20:24:51Z</time>
      </trkpt>
      <trkpt lat="48.85828" lon="2.35195">
        <ele>43.79999923706</ele>
        <time>2015-08-03T20:24:55Z</time>
      </trkpt>
      <trkpt lat="48.85828" lon="2.35195">
        <ele>43.599998474121</ele>
        <time>2015-08-03T20:24:56Z</time>
      </trkpt>
      <trkpt lat="48.85811" lon="2.35181">
        <ele>44</ele>
        <time>2015-08-03T20:25:12Z</time>
      </trkpt>
      <trkpt lat="48.8579" lon="2.35174">
        <ele>43.599998474121</ele>
        <time>2015-08-03T20:25:16Z</time>
      </trkpt>
      <trkpt lat="48.85769" lon="2.3516">
        <ele>43.599998474121</ele>
        <time>2015-08-03T20:25:20Z</time>
      </trkpt>
      <trkpt lat="48.85754" lon="2.35145">
        <ele>45.20000076294</ele>
        <time>2015-08-03T20:25:25Z</time>
      </trkpt>
      <trkpt lat="48.85757" lon="2.35124">
        <ele>45.599998474121</ele>
        <time>2015-08-03T20:25:29Z</time>
      </trkpt>
      <trkpt lat="48.85762" lon="2.35105">
        <ele>45.20000076294</ele>
        <time>2015-08-03T20:25:32Z</time>
      </trkpt>
      <trkpt lat="48.8577" lon="2.35077">
        <ele>45.400001525879</ele>
        <time>2015-08-03T20:25:37Z</time>
      </trkpt>
      <trkpt lat="48.85771" lon="2.35071">
        <ele>45.599998474121</ele>
        <time>2015-08-03T20:25:38Z</time>
      </trkpt>
      <trkpt lat="48.85778" lon="2.35044">
        <ele>44.79999923706</ele>
        <time>2015-08-03T20:25:42Z</time>
      </trkpt>
      <trkpt lat="48.85787" lon="2.35017">
        <ele>44.599998474121</ele>
        <time>2015-08-03T20:25:46Z</time>
      </trkpt>
      <trkpt lat="48.85796" lon="2.34988">
        <ele>43.79999923706</ele>
        <time>2015-08-03T20:25:50Z</time>
      </trkpt>
      <trkpt lat="48.85805" lon="2.34959">
        <ele>42.20000076294</ele>
        <time>2015-08-03T20:25:54Z</time>
      </trkpt>
      <trkpt lat="48.85814" lon="2.34931">
        <ele>40.79999923706</ele>
        <time>2015-08-03T20:25:58Z</time>
      </trkpt>
      <trkpt lat="48.85824" lon="2.34899">
        <ele>40</ele>
        <time>2015-08-03T20:26:02Z</time>
      </trkpt>
      <trkpt lat="48.8583" lon="2.34882">
        <ele>38.20000076294</ele>
        <time>2015-08-03T20:26:04Z</time>
      </trkpt>
      <trkpt lat="48.85838" lon="2.34855">
        <ele>40</ele>
        <time>2015-08-03T20:26:07Z</time>
      </trkpt>
      <trkpt lat="48.85849" lon="2.34824">
        <ele>38</ele>
        <time>2015-08-03T20:26:11Z</time>
      </trkpt>
      <trkpt lat="48.85858" lon="2.34793">
        <ele>38</ele>
        <time>2015-08-03T20:26:15Z</time>
      </trkpt>
      <trkpt lat="48.85864" lon="2.34777">
        <ele>37.79999923706</ele>
        <time>2015-08-03T20:26:17Z</time>
      </trkpt>
      <trkpt lat="48.85868" lon="2.34761">
        <ele>38.400001525879</ele>
        <time>2015-08-03T20:26:19Z</time>
      </trkpt>
      <trkpt lat="48.85879" lon="2.34736">
        <ele>39.20000076294</ele>
        <time>2015-08-03T20:26:23Z</time>
      </trkpt>
      <trkpt lat="48.85896" lon="2.34726">
        <ele>40.599998474121</ele>
        <time>2015-08-03T20:26:27Z</time>
      </trkpt>
      <trkpt lat="48.859" lon="2.34723">
        <ele>40.79999923706</ele>
        <time>2015-08-03T20:26:28Z</time>
      </trkpt>
      <trkpt lat="48.85918" lon="2.34706">
        <ele>43.79999923706</ele>
        <time>2015-08-03T20:26:33Z</time>
      </trkpt>
      <trkpt lat="48.85924" lon="2.34699">
        <ele>44.79999923706</ele>
        <time>2015-08-03T20:26:35Z</time>
      </trkpt>
      <trkpt lat="48.8593" lon="2.34694">
        <ele>47.20000076294</ele>
        <time>2015-08-03T20:26:39Z</time>
      </trkpt>
      <trkpt lat="48.85932" lon="2.34695">
        <ele>47.599998474121</ele>
        <time>2015-08-03T20:26:40Z</time>
      </trkpt>
      <trkpt lat="48.85938" lon="2.347">
        <ele>51.79999923706</ele>
        <time>2015-08-03T20:26:45Z</time>
      </trkpt>
      <trkpt lat="48.85939" lon="2.34702">
        <ele>53</ele>
        <time>2015-08-03T20:26:47Z</time>
      </trkpt>
      <trkpt lat="48.85943" lon="2.34706">
        <ele>62</ele>
        <time>2015-08-03T20:27:03Z</time>
      </trkpt>
      <trkpt lat="48.85949" lon="2.34708">
        <ele>62.79999923706</ele>
        <time>2015-08-03T20:27:09Z</time>
      </trkpt>
      <trkpt lat="48.85961" lon="2.34722">
        <ele>65.400001525879</ele>
        <time>2015-08-03T20:27:58Z</time>
      </trkpt>
      <trkpt lat="48.85965" lon="2.34726">
        <ele>66.199996948242</ele>
        <time>2015-08-03T20:28:40Z</time>
      </trkpt>
      <trkpt lat="48.85973" lon="2.34732">
        <ele>63.79999923706</ele>
        <time>2015-08-03T20:29:05Z</time>
      </trkpt>
      <trkpt lat="48.8597" lon="2.34723">
        <ele>64.800003051758</ele>
        <time>2015-08-03T20:29:38Z</time>
      </trkpt>
      <trkpt lat="48.85961" lon="2.34712">
        <ele>65.800003051758</ele>
        <time>2015-08-03T20:29:50Z</time>
      </trkpt>
      <trkpt lat="48.85948" lon="2.34698">
        <ele>65.800003051758</ele>
        <time>2015-08-03T20:29:59Z</time>
      </trkpt>
      <trkpt lat="48.85928" lon="2.34701">
        <ele>65.400001525879</ele>
        <time>2015-08-03T20:30:05Z</time>
      </trkpt>
      <trkpt lat="48.85909" lon="2.34714">
        <ele>66.199996948242</ele>
        <time>2015-08-03T20:30:10Z</time>
      </trkpt>
      <trkpt lat="48.85891" lon="2.34725">
        <ele>65.800003051758</ele>
        <time>2015-08-03T20:30:15Z</time>
      </trkpt>
      <trkpt lat="48.85872" lon="2.34734">
        <ele>61.79999923706</ele>
        <time>2015-08-03T20:30:23Z</time>
      </trkpt>
      <trkpt lat="48.85863" lon="2.34753">
        <ele>62</ele>
        <time>2015-08-03T20:30:36Z</time>
      </trkpt>
      <trkpt lat="48.85856" lon="2.34741">
        <ele>57.20000076294</ele>
        <time>2015-08-03T20:31:08Z</time>
      </trkpt>
      <trkpt lat="48.85836" lon="2.34732">
        <ele>56.599998474121</ele>
        <time>2015-08-03T20:31:16Z</time>
      </trkpt>
      <trkpt lat="48.85816" lon="2.34724">
        <ele>56.79999923706</ele>
        <time>2015-08-03T20:31:22Z</time>
      </trkpt>
      <trkpt lat="48.85797" lon="2.34722">
        <ele>54.79999923706</ele>
        <time>2015-08-03T20:31:28Z</time>
      </trkpt>
      <trkpt lat="48.85792" lon="2.3472">
        <ele>54.20000076294</ele>
        <time>2015-08-03T20:31:30Z</time>
      </trkpt>
      <trkpt lat="48.85775" lon="2.34708">
        <ele>52.20000076294</ele>
        <time>2015-08-03T20:31:36Z</time>
      </trkpt>
      <trkpt lat="48.85755" lon="2.34697">
        <ele>47</ele>
        <time>2015-08-03T20:31:42Z</time>
      </trkpt>
      <trkpt lat="48.85737" lon="2.3469">
        <ele>43.79999923706</ele>
        <time>2015-08-03T20:31:49Z</time>
      </trkpt>
      <trkpt lat="48.85736" lon="2.34688">
        <ele>43.20000076294</ele>
        <time>2015-08-03T20:31:51Z</time>
      </trkpt>
      <trkpt lat="48.85722" lon="2.34688">
        <ele>41.20000076294</ele>
        <time>2015-08-03T20:32:24Z</time>
      </trkpt>
      <trkpt lat="48.85703" lon="2.34685">
        <ele>39.400001525879</ele>
        <time>2015-08-03T20:32:30Z</time>
      </trkpt>
      <trkpt lat="48.85686" lon="2.34673">
        <ele>38.79999923706</ele>
        <time>2015-08-03T20:32:35Z</time>
      </trkpt>
      <trkpt lat="48.85668" lon="2.34662">
        <ele>38.20000076294</ele>
        <time>2015-08-03T20:32:40Z</time>
      </trkpt>
      <trkpt lat="48.85648" lon="2.34653">
        <ele>36.400001525879</ele>
        <time>2015-08-03T20:32:45Z</time>
      </trkpt>
      <trkpt lat="48.8563" lon="2.34641">
        <ele>35.599998474121</ele>
        <time>2015-08-03T20:32:50Z</time>
      </trkpt>
      <trkpt lat="48.85611" lon="2.34632">
        <ele>34.599998474121</ele>
        <time>2015-08-03T20:32:55Z</time>
      </trkpt>
      <trkpt lat="48.85592" lon="2.34617">
        <ele>33.599998474121</ele>
        <time>2015-08-03T20:33:00Z</time>
      </trkpt>
      <trkpt lat="48.85573" lon="2.34603">
        <ele>32.400001525879</ele>
        <time>2015-08-03T20:33:05Z</time>
      </trkpt>
      <trkpt lat="48.85552" lon="2.34597">
        <ele>32.400001525879</ele>
        <time>2015-08-03T20:33:10Z</time>
      </trkpt>
      <trkpt lat="48.85539" lon="2.34586">
        <ele>33.599998474121</ele>
        <time>2015-08-03T20:33:14Z</time>
      </trkpt>
      <trkpt lat="48.85529" lon="2.34573">
        <ele>34.20000076294</ele>
        <time>2015-08-03T20:33:18Z</time>
      </trkpt>
      <trkpt lat="48.85514" lon="2.34556">
        <ele>35.20000076294</ele>
        <time>2015-08-03T20:33:23Z</time>
      </trkpt>
      <trkpt lat="48.85496" lon="2.3454">
        <ele>36</ele>
        <time>2015-08-03T20:33:28Z</time>
      </trkpt>
      <trkpt lat="48.85479" lon="2.34522">
        <ele>37.20000076294</ele>
        <time>2015-08-03T20:33:33Z</time>
      </trkpt>
      <trkpt lat="48.85463" lon="2.34506">
        <ele>37</ele>
        <time>2015-08-03T20:33:38Z</time>
      </trkpt>
      <trkpt lat="48.85446" lon="2.3449">
        <ele>37</ele>
        <time>2015-08-03T20:33:43Z</time>
      </trkpt>
      <trkpt lat="48.85442" lon="2.34484">
        <ele>39.79999923706</ele>
        <time>2015-08-03T20:33:47Z</time>
      </trkpt>
      <trkpt lat="48.85426" lon="2.34466">
        <ele>38.400001525879</ele>
        <time>2015-08-03T20:33:57Z</time>
      </trkpt>
      <trkpt lat="48.8541" lon="2.34448">
        <ele>38</ele>
        <time>2015-08-03T20:34:03Z</time>
      </trkpt>
      <trkpt lat="48.85395" lon="2.34432">
        <ele>35.400001525879</ele>
        <time>2015-08-03T20:34:09Z</time>
      </trkpt>
      <trkpt lat="48.85387" lon="2.34424">
        <ele>34.400001525879</ele>
        <time>2015-08-03T20:34:14Z</time>
      </trkpt>
      <trkpt lat="48.85374" lon="2.34402">
        <ele>34</ele>
        <time>2015-08-03T20:34:20Z</time>
      </trkpt>
      <trkpt lat="48.85355" lon="2.34397">
        <ele>33.599998474121</ele>
        <time>2015-08-03T20:34:25Z</time>
      </trkpt>
      <trkpt lat="48.85336" lon="2.34395">
        <ele>33.20000076294</ele>
        <time>2015-08-03T20:34:30Z</time>
      </trkpt>
      <trkpt lat="48.85318" lon="2.34384">
        <ele>32.400001525879</ele>
        <time>2015-08-03T20:34:35Z</time>
      </trkpt>
      <trkpt lat="48.85299" lon="2.34373">
        <ele>31.799999237061</ele>
        <time>2015-08-03T20:34:40Z</time>
      </trkpt>
      <trkpt lat="48.85279" lon="2.3437">
        <ele>31.39999961853</ele>
        <time>2015-08-03T20:34:45Z</time>
      </trkpt>
      <trkpt lat="48.85263" lon="2.34357">
        <ele>31.60000038147</ele>
        <time>2015-08-03T20:34:52Z</time>
      </trkpt>
      <trkpt lat="48.85245" lon="2.34349">
        <ele>31.799999237061</ele>
        <time>2015-08-03T20:34:58Z</time>
      </trkpt>
      <trkpt lat="48.85225" lon="2.34342">
        <ele>33.400001525879</ele>
        <time>2015-08-03T20:35:03Z</time>
      </trkpt>
      <trkpt lat="48.85207" lon="2.34336">
        <ele>35</ele>
        <time>2015-08-03T20:35:08Z</time>
      </trkpt>
      <trkpt lat="48.85203" lon="2.34336">
        <ele>35.400001525879</ele>
        <time>2015-08-03T20:35:09Z</time>
      </trkpt>
      <trkpt lat="48.85183" lon="2.34336">
        <ele>40.400001525879</ele>
        <time>2015-08-03T20:35:15Z</time>
      </trkpt>
      <trkpt lat="48.85164" lon="2.34329">
        <ele>41.599998474121</ele>
        <time>2015-08-03T20:35:22Z</time>
      </trkpt>
      <trkpt lat="48.85147" lon="2.34322">
        <ele>45</ele>
        <time>2015-08-03T20:35:29Z</time>
      </trkpt>
      <trkpt lat="48.85143" lon="2.34296">
        <ele>45.599998474121</ele>
        <time>2015-08-03T20:36:00Z</time>
      </trkpt>
      <trkpt lat="48.85126" lon="2.3429">
        <ele>45.599998474121</ele>
        <time>2015-08-03T20:36:07Z</time>
      </trkpt>
      <trkpt lat="48.85108" lon="2.34283">
        <ele>43.599998474121</ele>
        <time>2015-08-03T20:36:13Z</time>
      </trkpt>
      <trkpt lat="48.85088" lon="2.34278">
        <ele>42.400001525879</ele>
        <time>2015-08-03T20:36:19Z</time>
      </trkpt>
      <trkpt lat="48.85068" lon="2.34272">
        <ele>42.599998474121</ele>
        <time>2015-08-03T20:36:27Z</time>
      </trkpt>
      <trkpt lat="48.8505" lon="2.34261">
        <ele>41</ele>
        <time>2015-08-03T20:36:34Z</time>
      </trkpt>
      <trkpt lat="48.85032" lon="2.34254">
        <ele>41.20000076294</ele>
        <time>2015-08-03T20:36:41Z</time>
      </trkpt>
      <trkpt lat="48.85016" lon="2.34241">
        <ele>41.79999923706</ele>
        <time>2015-08-03T20:36:47Z</time>
      </trkpt>
      <trkpt lat="48.84999" lon="2.34227">
        <ele>41.79999923706</ele>
        <time>2015-08-03T20:36:53Z</time>
      </trkpt>
      <trkpt lat="48.84979" lon="2.34216">
        <ele>41.20000076294</ele>
        <time>2015-08-03T20:36:59Z</time>
      </trkpt>
      <trkpt lat="48.8496" lon="2.34207">
        <ele>42.20000076294</ele>
        <time>2015-08-03T20:37:05Z</time>
      </trkpt>
      <trkpt lat="48.84942" lon="2.34199">
        <ele>42.20000076294</ele>
        <time>2015-08-03T20:37:10Z</time>
      </trkpt>
      <trkpt lat="48.84925" lon="2.34188">
        <ele>43.79999923706</ele>
        <time>2015-08-03T20:37:15Z</time>
      </trkpt>
      <trkpt lat="48.84908" lon="2.34178">
        <ele>45</ele>
        <time>2015-08-03T20:37:20Z</time>
      </trkpt>
      <trkpt lat="48.84886" lon="2.3417">
        <ele>44.599998474121</ele>
        <time>2015-08-03T20:37:26Z</time>
      </trkpt>
      <trkpt lat="48.84868" lon="2.34157">
        <ele>45.599998474121</ele>
        <time>2015-08-03T20:37:33Z</time>
      </trkpt>
      <trkpt lat="48.84849" lon="2.34144">
        <ele>45.79999923706</ele>
        <time>2015-08-03T20:37:39Z</time>
      </trkpt>
      <trkpt lat="48.84829" lon="2.34135">
        <ele>47</ele>
        <time>2015-08-03T20:37:45Z</time>
      </trkpt>
      <trkpt lat="48.84812" lon="2.34125">
        <ele>47.599998474121</ele>
        <time>2015-08-03T20:37:50Z</time>
      </trkpt>
      <trkpt lat="48.84793" lon="2.34112">
        <ele>48.20000076294</ele>
        <time>2015-08-03T20:37:56Z</time>
      </trkpt>
      <trkpt lat="48.84774" lon="2.34103">
        <ele>48.79999923706</ele>
        <time>2015-08-03T20:38:03Z</time>
      </trkpt>
      <trkpt lat="48.84757" lon="2.34096">
        <ele>49.79999923706</ele>
        <time>2015-08-03T20:38:09Z</time>
      </trkpt>
      <trkpt lat="48.84738" lon="2.34087">
        <ele>53</ele>
        <time>2015-08-03T20:38:15Z</time>
      </trkpt>
      <trkpt lat="48.84721" lon="2.34074">
        <ele>55</ele>
        <time>2015-08-03T20:38:21Z</time>
      </trkpt>
      <trkpt lat="48.84704" lon="2.34064">
        <ele>56</ele>
        <time>2015-08-03T20:38:29Z</time>
      </trkpt>
      <trkpt lat="48.84686" lon="2.34049">
        <ele>58</ele>
        <time>2015-08-03T20:38:39Z</time>
      </trkpt>
      <trkpt lat="48.84667" lon="2.34036">
        <ele>59</ele>
        <time>2015-08-03T20:38:45Z</time>
      </trkpt>
      <trkpt lat="48.8465" lon="2.34022">
        <ele>59.400001525879</ele>
        <time>2015-08-03T20:38:50Z</time>
      </trkpt>
      <trkpt lat="48.8463" lon="2.34011">
        <ele>59</ele>
        <time>2015-08-03T20:38:55Z</time>
      </trkpt>
      <trkpt lat="48.8461" lon="2.33998">
        <ele>58.599998474121</ele>
        <time>2015-08-03T20:39:00Z</time>
      </trkpt>
      <trkpt lat="48.84589" lon="2.33988">
        <ele>57.400001525879</ele>
        <time>2015-08-03T20:39:05Z</time>
      </trkpt>
      <trkpt lat="48.84572" lon="2.33978">
        <ele>57</ele>
        <time>2015-08-03T20:39:09Z</time>
      </trkpt>
      <trkpt lat="48.84551" lon="2.33968">
        <ele>57</ele>
        <time>2015-08-03T20:39:14Z</time>
      </trkpt>
      <trkpt lat="48.84547" lon="2.33967">
        <ele>56.79999923706</ele>
        <time>2015-08-03T20:39:15Z</time>
      </trkpt>
      <trkpt lat="48.84531" lon="2.3396">
        <ele>56</ele>
        <time>2015-08-03T20:39:19Z</time>
      </trkpt>
      <trkpt lat="48.84511" lon="2.33952">
        <ele>56.20000076294</ele>
        <time>2015-08-03T20:39:24Z</time>
      </trkpt>
      <trkpt lat="48.84499" lon="2.33947">
        <ele>57</ele>
        <time>2015-08-03T20:39:27Z</time>
      </trkpt>
      <trkpt lat="48.84478" lon="2.33938">
        <ele>57.79999923706</ele>
        <time>2015-08-03T20:39:32Z</time>
      </trkpt>
      <trkpt lat="48.84474" lon="2.33936">
        <ele>57.79999923706</ele>
        <time>2015-08-03T20:39:33Z</time>
      </trkpt>
      <trkpt lat="48.84454" lon="2.33925">
        <ele>55.79999923706</ele>
        <time>2015-08-03T20:39:38Z</time>
      </trkpt>
      <trkpt lat="48.84447" lon="2.33919">
        <ele>55.599998474121</ele>
        <time>2015-08-03T20:39:40Z</time>
      </trkpt>
      <trkpt lat="48.84428" lon="2.33906">
        <ele>56.20000076294</ele>
        <time>2015-08-03T20:39:45Z</time>
      </trkpt>
      <trkpt lat="48.84425" lon="2.33904">
        <ele>55.79999923706</ele>
        <time>2015-08-03T20:39:46Z</time>
      </trkpt>
      <trkpt lat="48.84411" lon="2.33894">
        <ele>54.599998474121</ele>
        <time>2015-08-03T20:39:50Z</time>
      </trkpt>
      <trkpt lat="48.84406" lon="2.3389">
        <ele>54</ele>
        <time>2015-08-03T20:39:52Z</time>
      </trkpt>
      <trkpt lat="48.84399" lon="2.33885">
        <ele>53.599998474121</ele>
        <time>2015-08-03T20:39:55Z</time>
      </trkpt>
      <trkpt lat="48.8438" lon="2.33873">
        <ele>54.20000076294</ele>
        <time>2015-08-03T20:40:02Z</time>
      </trkpt>
      <trkpt lat="48.8436" lon="2.33863">
        <ele>56.20000076294</ele>
        <time>2015-08-03T20:40:08Z</time>
      </trkpt>
      <trkpt lat="48.84341" lon="2.33853">
        <ele>55.79999923706</ele>
        <time>2015-08-03T20:40:14Z</time>
      </trkpt>
      <trkpt lat="48.84322" lon="2.33843">
        <ele>54.599998474121</ele>
        <time>2015-08-03T20:40:20Z</time>
      </trkpt>
      <trkpt lat="48.84304" lon="2.33833">
        <ele>52</ele>
        <time>2015-08-03T20:40:25Z</time>
      </trkpt>
      <trkpt lat="48.84284" lon="2.33824">
        <ele>51.599998474121</ele>
        <time>2015-08-03T20:40:30Z</time>
      </trkpt>
      <trkpt lat="48.84264" lon="2.33815">
        <ele>51.79999923706</ele>
        <time>2015-08-03T20:40:35Z</time>
      </trkpt>
      <trkpt lat="48.84248" lon="2.33801">
        <ele>52.20000076294</ele>
        <time>2015-08-03T20:40:40Z</time>
      </trkpt>
      <trkpt lat="48.84228" lon="2.33789">
        <ele>52</ele>
        <time>2015-08-03T20:40:46Z</time>
      </trkpt>
      <trkpt lat="48.84211" lon="2.33777">
        <ele>52.20000076294</ele>
        <time>2015-08-03T20:40:51Z</time>
      </trkpt>
      <trkpt lat="48.84192" lon="2.33768">
        <ele>52.79999923706</ele>
        <time>2015-08-03T20:40:56Z</time>
      </trkpt>
      <trkpt lat="48.84173" lon="2.33757">
        <ele>53.599998474121</ele>
        <time>2015-08-03T20:41:02Z</time>
      </trkpt>
      <trkpt lat="48.84155" lon="2.33746">
        <ele>53.400001525879</ele>
        <time>2015-08-03T20:41:08Z</time>
      </trkpt>
      <trkpt lat="48.84136" lon="2.33737">
        <ele>53.20000076294</ele>
        <time>2015-08-03T20:41:14Z</time>
      </trkpt>
      <trkpt lat="48.84116" lon="2.3373">
        <ele>53.599998474121</ele>
        <time>2015-08-03T20:41:19Z</time>
      </trkpt>
      <trkpt lat="48.84097" lon="2.3372">
        <ele>52.79999923706</ele>
        <time>2015-08-03T20:41:24Z</time>
      </trkpt>
      <trkpt lat="48.84077" lon="2.33706">
        <ele>52.599998474121</ele>
        <time>2015-08-03T20:41:29Z</time>
      </trkpt>
      <trkpt lat="48.84058" lon="2.3369">
        <ele>53</ele>
        <time>2015-08-03T20:41:34Z</time>
      </trkpt>
      <trkpt lat="48.84043" lon="2.33671">
        <ele>53.599998474121</ele>
        <time>2015-08-03T20:41:39Z</time>
      </trkpt>
      <trkpt lat="48.84024" lon="2.33658">
        <ele>53.79999923706</ele>
        <time>2015-08-03T20:41:44Z</time>
      </trkpt>
      <trkpt lat="48.84005" lon="2.33654">
        <ele>52.599998474121</ele>
        <time>2015-08-03T20:41:49Z</time>
      </trkpt>
      <trkpt lat="48.83986" lon="2.3365">
        <ele>50.599998474121</ele>
        <time>2015-08-03T20:41:54Z</time>
      </trkpt>
      <trkpt lat="48.83965" lon="2.3365">
        <ele>47.79999923706</ele>
        <time>2015-08-03T20:42:00Z</time>
      </trkpt>
      <trkpt lat="48.83945" lon="2.33648">
        <ele>44.400001525879</ele>
        <time>2015-08-03T20:42:06Z</time>
      </trkpt>
      <trkpt lat="48.83924" lon="2.33648">
        <ele>45.599998474121</ele>
        <time>2015-08-03T20:42:11Z</time>
      </trkpt>
      <trkpt lat="48.83905" lon="2.3365">
        <ele>47.400001525879</ele>
        <time>2015-08-03T20:42:16Z</time>
      </trkpt>
      <trkpt lat="48.83884" lon="2.33655">
        <ele>51</ele>
        <time>2015-08-03T20:42:21Z</time>
      </trkpt>
      <trkpt lat="48.83864" lon="2.3365">
        <ele>52.400001525879</ele>
        <time>2015-08-03T20:42:26Z</time>
      </trkpt>
      <trkpt lat="48.83848" lon="2.33636">
        <ele>53.79999923706</ele>
        <time>2015-08-03T20:42:31Z</time>
      </trkpt>
      <trkpt lat="48.83832" lon="2.33621">
        <ele>54</ele>
        <time>2015-08-03T20:42:36Z</time>
      </trkpt>
      <trkpt lat="48.83815" lon="2.33603">
        <ele>52.79999923706</ele>
        <time>2015-08-03T20:42:41Z</time>
      </trkpt>
      <trkpt lat="48.83797" lon="2.33587">
        <ele>53.400001525879</ele>
        <time>2015-08-03T20:42:46Z</time>
      </trkpt>
      <trkpt lat="48.83778" lon="2.33571">
        <ele>54.79999923706</ele>
        <time>2015-08-03T20:42:51Z</time>
      </trkpt>
      <trkpt lat="48.8376" lon="2.33555">
        <ele>57.400001525879</ele>
        <time>2015-08-03T20:42:56Z</time>
      </trkpt>
      <trkpt lat="48.83743" lon="2.33534">
        <ele>56.20000076294</ele>
        <time>2015-08-03T20:43:01Z</time>
      </trkpt>
      <trkpt lat="48.83726" lon="2.33515">
        <ele>56.400001525879</ele>
        <time>2015-08-03T20:43:06Z</time>
      </trkpt>
      <trkpt lat="48.83723" lon="2.33512">
        <ele>56.599998474121</ele>
        <time>2015-08-03T20:43:07Z</time>
      </trkpt>
      <trkpt lat="48.83706" lon="2.33493">
        <ele>57.400001525879</ele>
        <time>2015-08-03T20:43:12Z</time>
      </trkpt>
      <trkpt lat="48.83696" lon="2.33482">
        <ele>58</ele>
        <time>2015-08-03T20:43:15Z</time>
      </trkpt>
      <trkpt lat="48.83683" lon="2.33468">
        <ele>58.20000076294</ele>
        <time>2015-08-03T20:43:19Z</time>
      </trkpt>
      <trkpt lat="48.83677" lon="2.33462">
        <ele>57.20000076294</ele>
        <time>2015-08-03T20:43:21Z</time>
      </trkpt>
      <trkpt lat="48.83668" lon="2.33452">
        <ele>57.599998474121</ele>
        <time>2015-08-03T20:43:24Z</time>
      </trkpt>
      <trkpt lat="48.83652" lon="2.33435">
        <ele>57</ele>
        <time>2015-08-03T20:43:29Z</time>
      </trkpt>
      <trkpt lat="48.83635" lon="2.33419">
        <ele>57.599998474121</ele>
        <time>2015-08-03T20:43:34Z</time>
      </trkpt>
      <trkpt lat="48.83619" lon="2.33405">
        <ele>60</ele>
        <time>2015-08-03T20:43:39Z</time>
      </trkpt>
      <trkpt lat="48.83609" lon="2.33396">
        <ele>60.599998474121</ele>
        <time>2015-08-03T20:43:42Z</time>
      </trkpt>
      <trkpt lat="48.83593" lon="2.33381">
        <ele>60.20000076294</ele>
        <time>2015-08-03T20:43:47Z</time>
      </trkpt>
      <trkpt lat="48.83574" lon="2.33365">
        <ele>59.79999923706</ele>
        <time>2015-08-03T20:43:52Z</time>
      </trkpt>
      <trkpt lat="48.83557" lon="2.33348">
        <ele>60.400001525879</ele>
        <time>2015-08-03T20:43:57Z</time>
      </trkpt>
      <trkpt lat="48.8354" lon="2.33334">
        <ele>60.400001525879</ele>
        <time>2015-08-03T20:44:02Z</time>
      </trkpt>
      <trkpt lat="48.83522" lon="2.33322">
        <ele>62.79999923706</ele>
        <time>2015-08-03T20:44:07Z</time>
      </trkpt>
      <trkpt lat="48.83505" lon="2.33308">
        <ele>64</ele>
        <time>2015-08-03T20:44:12Z</time>
      </trkpt>
      <trkpt lat="48.83485" lon="2.33295">
        <ele>67</ele>
        <time>2015-08-03T20:44:18Z</time>
      </trkpt>
      <trkpt lat="48.83473" lon="2.33286">
        <ele>67.400001525879</ele>
        <time>2015-08-03T20:44:24Z</time>
      </trkpt>
      <trkpt lat="48.83469" lon="2.33294">
        <ele>69.800003051758</ele>
        <time>2015-08-03T20:44:28Z</time>
      </trkpt>
      <trkpt lat="48.83464" lon="2.33295">
        <ele>69.800003051758</ele>
        <time>2015-08-03T20:44:32Z</time>
      </trkpt>
      <trkpt lat="48.83448" lon="2.33302">
        <ele>69</ele>
        <time>2015-08-03T20:44:48Z</time>
      </trkpt>
      <trkpt lat="48.8344" lon="2.33307">
        <ele>69.800003051758</ele>
        <time>2015-08-03T20:44:58Z</time>
      </trkpt>
      <trkpt lat="48.83427" lon="2.33298">
        <ele>70.400001525879</ele>
        <time>2015-08-03T20:45:05Z</time>
      </trkpt>
      <trkpt lat="48.83418" lon="2.33273">
        <ele>69.599998474121</ele>
        <time>2015-08-03T20:45:13Z</time>
      </trkpt>
      <trkpt lat="48.83406" lon="2.33267">
        <ele>66.199996948242</ele>
        <time>2015-08-03T20:45:20Z</time>
      </trkpt>
      <trkpt lat="48.83386" lon="2.33268">
        <ele>63.400001525879</ele>
        <time>2015-08-03T20:45:27Z</time>
      </trkpt>
      <trkpt lat="48.83365" lon="2.33266">
        <ele>61</ele>
        <time>2015-08-03T20:45:34Z</time>
      </trkpt>
      <trkpt lat="48.83352" lon="2.33268">
        <ele>59.20000076294</ele>
        <time>2015-08-03T20:45:42Z</time>
      </trkpt>
      <trkpt lat="48.83335" lon="2.33252">
        <ele>59</ele>
        <time>2015-08-03T20:46:17Z</time>
      </trkpt>
      <trkpt lat="48.8333" lon="2.33251">
        <ele>58.400001525879</ele>
        <time>2015-08-03T20:46:21Z</time>
      </trkpt>
      <trkpt lat="48.83326" lon="2.33231">
        <ele>56.400001525879</ele>
        <time>2015-08-03T20:47:00Z</time>
      </trkpt>
      <trkpt lat="48.83329" lon="2.33227">
        <ele>87</ele>
        <time>2015-08-03T20:49:10Z</time>
      </trkpt>
      <trkpt lat="48.83326" lon="2.33208">
        <ele>77.400001525879</ele>
        <time>2015-08-03T20:49:48Z</time>
      </trkpt>
      <trkpt lat="48.83323" lon="2.33242">
        <ele>76</ele>
        <time>2015-08-03T20:49:55Z</time>
      </trkpt>
      <trkpt lat="48.83322" lon="2.3326">
        <ele>69</ele>
        <time>2015-08-03T20:50:11Z</time>
      </trkpt>
      <trkpt lat="48.83323" lon="2.3328">
        <ele>73</ele>
        <time>2015-08-03T20:50:30Z</time>
      </trkpt>
      <trkpt lat="48.83322" lon="2.3329">
        <ele>77</ele>
        <time>2015-08-03T20:50:35Z</time>
      </trkpt>
      <trkpt lat="48.83322" lon="2.33292">
        <ele>78.400001525879</ele>
        <time>2015-08-03T20:50:37Z</time>
      </trkpt>
      <trkpt lat="48.83321" lon="2.33296">
        <ele>81.400001525879</ele>
        <time>2015-08-03T20:50:42Z</time>
      </trkpt>
      <trkpt lat="48.83324" lon="2.33277">
        <ele>82.800003051758</ele>
        <time>2015-08-03T20:51:07Z</time>
      </trkpt>
      <trkpt lat="48.83323" lon="2.33295">
        <ele>86</ele>
        <time>2015-08-03T20:51:21Z</time>
      </trkpt>
      <trkpt lat="48.83322" lon="2.33312">
        <ele>90</ele>
        <time>2015-08-03T20:51:49Z</time>
      </trkpt>
      <trkpt lat="48.83319" lon="2.33323">
        <ele>91.400001525879</ele>
        <time>2015-08-03T20:52:09Z</time>
      </trkpt>
      <trkpt lat="48.83319" lon="2.33323">
        <ele>91.800003051758</ele>
        <time>2015-08-03T20:52:12Z</time>
      </trkpt>
    </trkseg>
  </trk>
  <trk>
    <name><![CDATA[lundi 2015 08 10]]></name>
    <extensions>
      <line xmlns="http://www.topografix.com/GPX/gpx_style/0/2">
        <color>000000</color>
      </line>
    </extensions>
    <trkseg>
      <trkpt lat="48.83373" lon="2.33308">
        <ele>44.599998474121</ele>
        <time>2015-08-10T17:48:16Z</time>
      </trkpt>
      <trkpt lat="48.8337" lon="2.33279">
        <ele>58.20000076294</ele>
        <time>2015-08-10T17:48:25Z</time>
      </trkpt>
      <trkpt lat="48.83374" lon="2.33278">
        <ele>57.79999923706</ele>
        <time>2015-08-10T17:48:26Z</time>
      </trkpt>
      <trkpt lat="48.83384" lon="2.33277">
        <ele>55.400001525879</ele>
        <time>2015-08-10T17:48:29Z</time>
      </trkpt>
      <trkpt lat="48.83404" lon="2.33283">
        <ele>52.400001525879</ele>
        <time>2015-08-10T17:48:34Z</time>
      </trkpt>
      <trkpt lat="48.83415" lon="2.33271">
        <ele>55.79999923706</ele>
        <time>2015-08-10T17:48:40Z</time>
      </trkpt>
      <trkpt lat="48.83419" lon="2.33283">
        <ele>58.599998474121</ele>
        <time>2015-08-10T17:48:46Z</time>
      </trkpt>
      <trkpt lat="48.83419" lon="2.33286">
        <ele>59.599998474121</ele>
        <time>2015-08-10T17:48:48Z</time>
      </trkpt>
      <trkpt lat="48.8342" lon="2.33288">
        <ele>60</ele>
        <time>2015-08-10T17:48:50Z</time>
      </trkpt>
      <trkpt lat="48.8343" lon="2.33276">
        <ele>61.599998474121</ele>
        <time>2015-08-10T17:49:07Z</time>
      </trkpt>
      <trkpt lat="48.83436" lon="2.33303">
        <ele>59.599998474121</ele>
        <time>2015-08-10T17:49:19Z</time>
      </trkpt>
      <trkpt lat="48.83456" lon="2.333">
        <ele>59.599998474121</ele>
        <time>2015-08-10T17:49:25Z</time>
      </trkpt>
      <trkpt lat="48.83472" lon="2.3329">
        <ele>58.599998474121</ele>
        <time>2015-08-10T17:49:38Z</time>
      </trkpt>
      <trkpt lat="48.83489" lon="2.33281">
        <ele>56.599998474121</ele>
        <time>2015-08-10T17:49:46Z</time>
      </trkpt>
      <trkpt lat="48.83508" lon="2.33297">
        <ele>55.20000076294</ele>
        <time>2015-08-10T17:49:53Z</time>
      </trkpt>
      <trkpt lat="48.83525" lon="2.33312">
        <ele>53.599998474121</ele>
        <time>2015-08-10T17:49:58Z</time>
      </trkpt>
      <trkpt lat="48.83542" lon="2.33328">
        <ele>52.20000076294</ele>
        <time>2015-08-10T17:50:03Z</time>
      </trkpt>
      <trkpt lat="48.8356" lon="2.33343">
        <ele>50</ele>
        <time>2015-08-10T17:50:08Z</time>
      </trkpt>
      <trkpt lat="48.83579" lon="2.33357">
        <ele>48.20000076294</ele>
        <time>2015-08-10T17:50:13Z</time>
      </trkpt>
      <trkpt lat="48.83593" lon="2.33376">
        <ele>47.20000076294</ele>
        <time>2015-08-10T17:50:18Z</time>
      </trkpt>
      <trkpt lat="48.83608" lon="2.33393">
        <ele>48.599998474121</ele>
        <time>2015-08-10T17:50:23Z</time>
      </trkpt>
      <trkpt lat="48.83625" lon="2.33407">
        <ele>46.400001525879</ele>
        <time>2015-08-10T17:50:28Z</time>
      </trkpt>
      <trkpt lat="48.83641" lon="2.33425">
        <ele>45.79999923706</ele>
        <time>2015-08-10T17:50:33Z</time>
      </trkpt>
      <trkpt lat="48.8366" lon="2.33442">
        <ele>48</ele>
        <time>2015-08-10T17:50:38Z</time>
      </trkpt>
      <trkpt lat="48.83677" lon="2.33464">
        <ele>52.599998474121</ele>
        <time>2015-08-10T17:50:43Z</time>
      </trkpt>
      <trkpt lat="48.83692" lon="2.33478">
        <ele>52.400001525879</ele>
        <time>2015-08-10T17:50:47Z</time>
      </trkpt>
      <trkpt lat="48.83703" lon="2.33489">
        <ele>52.20000076294</ele>
        <time>2015-08-10T17:50:50Z</time>
      </trkpt>
      <trkpt lat="48.83709" lon="2.33498">
        <ele>52.400001525879</ele>
        <time>2015-08-10T17:50:52Z</time>
      </trkpt>
      <trkpt lat="48.83725" lon="2.33514">
        <ele>51</ele>
        <time>2015-08-10T17:50:57Z</time>
      </trkpt>
      <trkpt lat="48.83737" lon="2.3352">
        <ele>49.20000076294</ele>
        <time>2015-08-10T17:51:00Z</time>
      </trkpt>
      <trkpt lat="48.83753" lon="2.3354">
        <ele>50.599998474121</ele>
        <time>2015-08-10T17:51:05Z</time>
      </trkpt>
      <trkpt lat="48.83761" lon="2.33548">
        <ele>51.79999923706</ele>
        <time>2015-08-10T17:51:07Z</time>
      </trkpt>
      <trkpt lat="48.8377" lon="2.33556">
        <ele>52.79999923706</ele>
        <time>2015-08-10T17:51:09Z</time>
      </trkpt>
      <trkpt lat="48.83787" lon="2.33571">
        <ele>52.79999923706</ele>
        <time>2015-08-10T17:51:13Z</time>
      </trkpt>
      <trkpt lat="48.83795" lon="2.33579">
        <ele>52.79999923706</ele>
        <time>2015-08-10T17:51:15Z</time>
      </trkpt>
      <trkpt lat="48.83812" lon="2.33595">
        <ele>53.79999923706</ele>
        <time>2015-08-10T17:51:19Z</time>
      </trkpt>
      <trkpt lat="48.83829" lon="2.33609">
        <ele>52.20000076294</ele>
        <time>2015-08-10T17:51:23Z</time>
      </trkpt>
      <trkpt lat="48.83841" lon="2.33621">
        <ele>50</ele>
        <time>2015-08-10T17:51:26Z</time>
      </trkpt>
      <trkpt lat="48.83855" lon="2.33639">
        <ele>49</ele>
        <time>2015-08-10T17:51:30Z</time>
      </trkpt>
      <trkpt lat="48.83872" lon="2.33653">
        <ele>48.599998474121</ele>
        <time>2015-08-10T17:51:35Z</time>
      </trkpt>
      <trkpt lat="48.83892" lon="2.33653">
        <ele>48.79999923706</ele>
        <time>2015-08-10T17:51:39Z</time>
      </trkpt>
      <trkpt lat="48.83908" lon="2.33658">
        <ele>52.400001525879</ele>
        <time>2015-08-10T17:51:43Z</time>
      </trkpt>
      <trkpt lat="48.83928" lon="2.33661">
        <ele>51.79999923706</ele>
        <time>2015-08-10T17:51:49Z</time>
      </trkpt>
      <trkpt lat="48.83936" lon="2.33661">
        <ele>51.599998474121</ele>
        <time>2015-08-10T17:51:51Z</time>
      </trkpt>
      <trkpt lat="48.83942" lon="2.33662">
        <ele>50.20000076294</ele>
        <time>2015-08-10T17:51:53Z</time>
      </trkpt>
      <trkpt lat="48.83947" lon="2.3368">
        <ele>50.599998474121</ele>
        <time>2015-08-10T17:51:59Z</time>
      </trkpt>
      <trkpt lat="48.83946" lon="2.33687">
        <ele>50.20000076294</ele>
        <time>2015-08-10T17:52:01Z</time>
      </trkpt>
      <trkpt lat="48.83954" lon="2.337">
        <ele>55.400001525879</ele>
        <time>2015-08-10T17:52:05Z</time>
      </trkpt>
      <trkpt lat="48.83956" lon="2.33703">
        <ele>56.599998474121</ele>
        <time>2015-08-10T17:52:07Z</time>
      </trkpt>
      <trkpt lat="48.83974" lon="2.33695">
        <ele>60</ele>
        <time>2015-08-10T17:52:18Z</time>
      </trkpt>
      <trkpt lat="48.83994" lon="2.33693">
        <ele>60.79999923706</ele>
        <time>2015-08-10T17:52:23Z</time>
      </trkpt>
      <trkpt lat="48.84013" lon="2.337">
        <ele>60.79999923706</ele>
        <time>2015-08-10T17:52:27Z</time>
      </trkpt>
      <trkpt lat="48.84037" lon="2.33708">
        <ele>58.79999923706</ele>
        <time>2015-08-10T17:52:31Z</time>
      </trkpt>
      <trkpt lat="48.84059" lon="2.33715">
        <ele>59.400001525879</ele>
        <time>2015-08-10T17:52:35Z</time>
      </trkpt>
      <trkpt lat="48.84075" lon="2.3372">
        <ele>61.20000076294</ele>
        <time>2015-08-10T17:52:38Z</time>
      </trkpt>
      <trkpt lat="48.84098" lon="2.33726">
        <ele>64.800003051758</ele>
        <time>2015-08-10T17:52:42Z</time>
      </trkpt>
      <trkpt lat="48.84103" lon="2.33726">
        <ele>67</ele>
        <time>2015-08-10T17:52:43Z</time>
      </trkpt>
      <trkpt lat="48.84126" lon="2.33732">
        <ele>70.400001525879</ele>
        <time>2015-08-10T17:52:47Z</time>
      </trkpt>
      <trkpt lat="48.84145" lon="2.33741">
        <ele>70.800003051758</ele>
        <time>2015-08-10T17:52:50Z</time>
      </trkpt>
      <trkpt lat="48.8417" lon="2.33747">
        <ele>76</ele>
        <time>2015-08-10T17:52:54Z</time>
      </trkpt>
      <trkpt lat="48.84175" lon="2.33747">
        <ele>79.199996948242</ele>
        <time>2015-08-10T17:52:55Z</time>
      </trkpt>
      <trkpt lat="48.84193" lon="2.33759">
        <ele>82</ele>
        <time>2015-08-10T17:52:58Z</time>
      </trkpt>
      <trkpt lat="48.84212" lon="2.3377">
        <ele>83.199996948242</ele>
        <time>2015-08-10T17:53:01Z</time>
      </trkpt>
      <trkpt lat="48.8423" lon="2.33781">
        <ele>84.800003051758</ele>
        <time>2015-08-10T17:53:04Z</time>
      </trkpt>
      <trkpt lat="48.84248" lon="2.33789">
        <ele>87.599998474121</ele>
        <time>2015-08-10T17:53:07Z</time>
      </trkpt>
      <trkpt lat="48.84266" lon="2.33798">
        <ele>91.400001525879</ele>
        <time>2015-08-10T17:53:10Z</time>
      </trkpt>
      <trkpt lat="48.84282" lon="2.33811">
        <ele>93</ele>
        <time>2015-08-10T17:53:13Z</time>
      </trkpt>
      <trkpt lat="48.84298" lon="2.33823">
        <ele>95.400001525879</ele>
        <time>2015-08-10T17:53:16Z</time>
      </trkpt>
      <trkpt lat="48.8432" lon="2.33834">
        <ele>100.40000152588</ele>
        <time>2015-08-10T17:53:20Z</time>
      </trkpt>
      <trkpt lat="48.84331" lon="2.33837">
        <ele>102.59999847412</ele>
        <time>2015-08-10T17:53:22Z</time>
      </trkpt>
      <trkpt lat="48.84349" lon="2.33843">
        <ele>110.40000152588</ele>
        <time>2015-08-10T17:53:26Z</time>
      </trkpt>
      <trkpt lat="48.84366" lon="2.33852">
        <ele>122</ele>
        <time>2015-08-10T17:53:31Z</time>
      </trkpt>
      <trkpt lat="48.84373" lon="2.33853">
        <ele>126.40000152588</ele>
        <time>2015-08-10T17:53:33Z</time>
      </trkpt>
      <trkpt lat="48.84391" lon="2.33867">
        <ele>119.80000305176</ele>
        <time>2015-08-10T17:53:37Z</time>
      </trkpt>
      <trkpt lat="48.84414" lon="2.33872">
        <ele>113.80000305176</ele>
        <time>2015-08-10T17:53:41Z</time>
      </trkpt>
      <trkpt lat="48.84419" lon="2.33875">
        <ele>114.59999847412</ele>
        <time>2015-08-10T17:53:42Z</time>
      </trkpt>
      <trkpt lat="48.84439" lon="2.33885">
        <ele>120</ele>
        <time>2015-08-10T17:53:46Z</time>
      </trkpt>
      <trkpt lat="48.84462" lon="2.33898">
        <ele>122.59999847412</ele>
        <time>2015-08-10T17:53:50Z</time>
      </trkpt>
      <trkpt lat="48.84481" lon="2.33903">
        <ele>121.40000152588</ele>
        <time>2015-08-10T17:53:53Z</time>
      </trkpt>
      <trkpt lat="48.84499" lon="2.3391">
        <ele>120.19999694824</ele>
        <time>2015-08-10T17:53:56Z</time>
      </trkpt>
      <trkpt lat="48.84516" lon="2.33918">
        <ele>120.80000305176</ele>
        <time>2015-08-10T17:53:59Z</time>
      </trkpt>
      <trkpt lat="48.84533" lon="2.33928">
        <ele>120.40000152588</ele>
        <time>2015-08-10T17:54:02Z</time>
      </trkpt>
      <trkpt lat="48.84554" lon="2.33943">
        <ele>121.80000305176</ele>
        <time>2015-08-10T17:54:06Z</time>
      </trkpt>
      <trkpt lat="48.84573" lon="2.33954">
        <ele>119.19999694824</ele>
        <time>2015-08-10T17:54:09Z</time>
      </trkpt>
      <trkpt lat="48.84592" lon="2.33966">
        <ele>112.40000152588</ele>
        <time>2015-08-10T17:54:12Z</time>
      </trkpt>
      <trkpt lat="48.84604" lon="2.33972">
        <ele>108.59999847412</ele>
        <time>2015-08-10T17:54:14Z</time>
      </trkpt>
      <trkpt lat="48.84621" lon="2.33983">
        <ele>104.19999694824</ele>
        <time>2015-08-10T17:54:17Z</time>
      </trkpt>
      <trkpt lat="48.84637" lon="2.33994">
        <ele>101</ele>
        <time>2015-08-10T17:54:20Z</time>
      </trkpt>
      <trkpt lat="48.84654" lon="2.34006">
        <ele>95.599998474121</ele>
        <time>2015-08-10T17:54:23Z</time>
      </trkpt>
      <trkpt lat="48.84664" lon="2.3401">
        <ele>94.199996948242</ele>
        <time>2015-08-10T17:54:25Z</time>
      </trkpt>
      <trkpt lat="48.84684" lon="2.34021">
        <ele>92.400001525879</ele>
        <time>2015-08-10T17:54:29Z</time>
      </trkpt>
      <trkpt lat="48.84698" lon="2.34029">
        <ele>89.800003051758</ele>
        <time>2015-08-10T17:54:32Z</time>
      </trkpt>
      <trkpt lat="48.84708" lon="2.34033">
        <ele>88.199996948242</ele>
        <time>2015-08-10T17:54:34Z</time>
      </trkpt>
      <trkpt lat="48.84727" lon="2.34046">
        <ele>85.599998474121</ele>
        <time>2015-08-10T17:54:38Z</time>
      </trkpt>
      <trkpt lat="48.84747" lon="2.34059">
        <ele>83.199996948242</ele>
        <time>2015-08-10T17:54:42Z</time>
      </trkpt>
      <trkpt lat="48.84765" lon="2.34075">
        <ele>79.599998474121</ele>
        <time>2015-08-10T17:54:46Z</time>
      </trkpt>
      <trkpt lat="48.8477" lon="2.34079">
        <ele>80</ele>
        <time>2015-08-10T17:54:47Z</time>
      </trkpt>
      <trkpt lat="48.84788" lon="2.3409">
        <ele>78.400001525879</ele>
        <time>2015-08-10T17:54:50Z</time>
      </trkpt>
      <trkpt lat="48.84805" lon="2.34102">
        <ele>79.199996948242</ele>
        <time>2015-08-10T17:54:53Z</time>
      </trkpt>
      <trkpt lat="48.84823" lon="2.34115">
        <ele>80.199996948242</ele>
        <time>2015-08-10T17:54:56Z</time>
      </trkpt>
      <trkpt lat="48.84841" lon="2.34126">
        <ele>81.400001525879</ele>
        <time>2015-08-10T17:54:59Z</time>
      </trkpt>
      <trkpt lat="48.84853" lon="2.34132">
        <ele>84</ele>
        <time>2015-08-10T17:55:01Z</time>
      </trkpt>
      <trkpt lat="48.8487" lon="2.34142">
        <ele>89.599998474121</ele>
        <time>2015-08-10T17:55:04Z</time>
      </trkpt>
      <trkpt lat="48.84888" lon="2.3415">
        <ele>93.199996948242</ele>
        <time>2015-08-10T17:55:07Z</time>
      </trkpt>
      <trkpt lat="48.84907" lon="2.34162">
        <ele>94.599998474121</ele>
        <time>2015-08-10T17:55:10Z</time>
      </trkpt>
      <trkpt lat="48.84925" lon="2.34169">
        <ele>100.59999847412</ele>
        <time>2015-08-10T17:55:13Z</time>
      </trkpt>
      <trkpt lat="48.84946" lon="2.34181">
        <ele>109.19999694824</ele>
        <time>2015-08-10T17:55:17Z</time>
      </trkpt>
      <trkpt lat="48.84967" lon="2.34192">
        <ele>120</ele>
        <time>2015-08-10T17:55:21Z</time>
      </trkpt>
      <trkpt lat="48.84983" lon="2.3421">
        <ele>127.19999694824</ele>
        <time>2015-08-10T17:55:26Z</time>
      </trkpt>
      <trkpt lat="48.85" lon="2.34216">
        <ele>130</ele>
        <time>2015-08-10T17:55:32Z</time>
      </trkpt>
      <trkpt lat="48.85012" lon="2.34228">
        <ele>121.80000305176</ele>
        <time>2015-08-10T17:55:35Z</time>
      </trkpt>
      <trkpt lat="48.85019" lon="2.34235">
        <ele>121.80000305176</ele>
        <time>2015-08-10T17:55:37Z</time>
      </trkpt>
      <trkpt lat="48.85041" lon="2.34241">
        <ele>114.19999694824</ele>
        <time>2015-08-10T17:55:41Z</time>
      </trkpt>
      <trkpt lat="48.85059" lon="2.34255">
        <ele>114.59999847412</ele>
        <time>2015-08-10T17:55:45Z</time>
      </trkpt>
      <trkpt lat="48.85069" lon="2.34258">
        <ele>115.40000152588</ele>
        <time>2015-08-10T17:55:47Z</time>
      </trkpt>
      <trkpt lat="48.85082" lon="2.34262">
        <ele>117.19999694824</ele>
        <time>2015-08-10T17:55:50Z</time>
      </trkpt>
      <trkpt lat="48.85103" lon="2.34266">
        <ele>116.59999847412</ele>
        <time>2015-08-10T17:55:59Z</time>
      </trkpt>
      <trkpt lat="48.85107" lon="2.34272">
        <ele>111.40000152588</ele>
        <time>2015-08-10T17:56:02Z</time>
      </trkpt>
      <trkpt lat="48.85111" lon="2.34272">
        <ele>108.80000305176</ele>
        <time>2015-08-10T17:56:03Z</time>
      </trkpt>
      <trkpt lat="48.85131" lon="2.34274">
        <ele>101</ele>
        <time>2015-08-10T17:56:07Z</time>
      </trkpt>
      <trkpt lat="48.85136" lon="2.34277">
        <ele>100.40000152588</ele>
        <time>2015-08-10T17:56:08Z</time>
      </trkpt>
      <trkpt lat="48.85152" lon="2.34289">
        <ele>98.199996948242</ele>
        <time>2015-08-10T17:56:12Z</time>
      </trkpt>
      <trkpt lat="48.85166" lon="2.34298">
        <ele>94.400001525879</ele>
        <time>2015-08-10T17:56:15Z</time>
      </trkpt>
      <trkpt lat="48.85185" lon="2.3431">
        <ele>93</ele>
        <time>2015-08-10T17:56:19Z</time>
      </trkpt>
      <trkpt lat="48.85204" lon="2.34316">
        <ele>95</ele>
        <time>2015-08-10T17:56:23Z</time>
      </trkpt>
      <trkpt lat="48.85223" lon="2.34327">
        <ele>96.400001525879</ele>
        <time>2015-08-10T17:56:27Z</time>
      </trkpt>
      <trkpt lat="48.85242" lon="2.34341">
        <ele>98.199996948242</ele>
        <time>2015-08-10T17:56:31Z</time>
      </trkpt>
      <trkpt lat="48.85253" lon="2.34344">
        <ele>96.599998474121</ele>
        <time>2015-08-10T17:56:33Z</time>
      </trkpt>
      <trkpt lat="48.85274" lon="2.34355">
        <ele>96.800003051758</ele>
        <time>2015-08-10T17:56:37Z</time>
      </trkpt>
      <trkpt lat="48.85297" lon="2.34365">
        <ele>96</ele>
        <time>2015-08-10T17:56:41Z</time>
      </trkpt>
      <trkpt lat="48.85314" lon="2.34375">
        <ele>95</ele>
        <time>2015-08-10T17:56:44Z</time>
      </trkpt>
      <trkpt lat="48.85324" lon="2.34382">
        <ele>94.599998474121</ele>
        <time>2015-08-10T17:56:46Z</time>
      </trkpt>
      <trkpt lat="48.85345" lon="2.34397">
        <ele>93.800003051758</ele>
        <time>2015-08-10T17:56:50Z</time>
      </trkpt>
      <trkpt lat="48.85364" lon="2.34406">
        <ele>90</ele>
        <time>2015-08-10T17:56:53Z</time>
      </trkpt>
      <trkpt lat="48.8537" lon="2.34409">
        <ele>88</ele>
        <time>2015-08-10T17:56:54Z</time>
      </trkpt>
      <trkpt lat="48.85385" lon="2.34433">
        <ele>72.199996948242</ele>
        <time>2015-08-10T17:56:56Z</time>
      </trkpt>
      <trkpt lat="48.85391" lon="2.34437">
        <ele>71</ele>
        <time>2015-08-10T17:56:57Z</time>
      </trkpt>
      <trkpt lat="48.85412" lon="2.34449">
        <ele>69.199996948242</ele>
        <time>2015-08-10T17:57:01Z</time>
      </trkpt>
      <trkpt lat="48.85429" lon="2.34454">
        <ele>67</ele>
        <time>2015-08-10T17:57:04Z</time>
      </trkpt>
      <trkpt lat="48.85438" lon="2.3446">
        <ele>65.800003051758</ele>
        <time>2015-08-10T17:57:06Z</time>
      </trkpt>
      <trkpt lat="48.85447" lon="2.34468">
        <ele>65.199996948242</ele>
        <time>2015-08-10T17:57:08Z</time>
      </trkpt>
      <trkpt lat="48.85465" lon="2.34486">
        <ele>63</ele>
        <time>2015-08-10T17:57:12Z</time>
      </trkpt>
      <trkpt lat="48.85468" lon="2.34493">
        <ele>62.20000076294</ele>
        <time>2015-08-10T17:57:13Z</time>
      </trkpt>
      <trkpt lat="48.85484" lon="2.34512">
        <ele>60.20000076294</ele>
        <time>2015-08-10T17:57:17Z</time>
      </trkpt>
      <trkpt lat="48.85497" lon="2.34532">
        <ele>56.400001525879</ele>
        <time>2015-08-10T17:57:22Z</time>
      </trkpt>
      <trkpt lat="48.85503" lon="2.34542">
        <ele>54.79999923706</ele>
        <time>2015-08-10T17:57:26Z</time>
      </trkpt>
      <trkpt lat="48.8551" lon="2.34549">
        <ele>54</ele>
        <time>2015-08-10T17:57:29Z</time>
      </trkpt>
      <trkpt lat="48.85517" lon="2.34556">
        <ele>53</ele>
        <time>2015-08-10T17:57:31Z</time>
      </trkpt>
      <trkpt lat="48.85532" lon="2.34561">
        <ele>49.20000076294</ele>
        <time>2015-08-10T17:57:35Z</time>
      </trkpt>
      <trkpt lat="48.85542" lon="2.34569">
        <ele>47.400001525879</ele>
        <time>2015-08-10T17:57:39Z</time>
      </trkpt>
      <trkpt lat="48.85553" lon="2.34578">
        <ele>47</ele>
        <time>2015-08-10T17:57:43Z</time>
      </trkpt>
      <trkpt lat="48.85556" lon="2.34579">
        <ele>47.20000076294</ele>
        <time>2015-08-10T17:57:44Z</time>
      </trkpt>
      <trkpt lat="48.85574" lon="2.34588">
        <ele>47.79999923706</ele>
        <time>2015-08-10T17:57:49Z</time>
      </trkpt>
      <trkpt lat="48.85577" lon="2.34588">
        <ele>48</ele>
        <time>2015-08-10T17:57:50Z</time>
      </trkpt>
      <trkpt lat="48.85589" lon="2.34597">
        <ele>47.79999923706</ele>
        <time>2015-08-10T17:57:54Z</time>
      </trkpt>
      <trkpt lat="48.85612" lon="2.34589">
        <ele>32</ele>
        <time>2015-08-10T17:57:58Z</time>
      </trkpt>
      <trkpt lat="48.85615" lon="2.34592">
        <ele>30.200000762939</ele>
        <time>2015-08-10T17:57:59Z</time>
      </trkpt>
      <trkpt lat="48.85633" lon="2.34621">
        <ele>26.39999961853</ele>
        <time>2015-08-10T17:58:03Z</time>
      </trkpt>
      <trkpt lat="48.85649" lon="2.34637">
        <ele>24.799999237061</ele>
        <time>2015-08-10T17:58:07Z</time>
      </trkpt>
      <trkpt lat="48.8566" lon="2.34647">
        <ele>25.200000762939</ele>
        <time>2015-08-10T17:58:10Z</time>
      </trkpt>
      <trkpt lat="48.85674" lon="2.34657">
        <ele>25.60000038147</ele>
        <time>2015-08-10T17:58:14Z</time>
      </trkpt>
      <trkpt lat="48.85692" lon="2.34668">
        <ele>26.799999237061</ele>
        <time>2015-08-10T17:58:19Z</time>
      </trkpt>
      <trkpt lat="48.85696" lon="2.34671">
        <ele>26.60000038147</ele>
        <time>2015-08-10T17:58:20Z</time>
      </trkpt>
      <trkpt lat="48.85703" lon="2.34677">
        <ele>26.60000038147</ele>
        <time>2015-08-10T17:58:22Z</time>
      </trkpt>
      <trkpt lat="48.85721" lon="2.34686">
        <ele>26.799999237061</ele>
        <time>2015-08-10T17:58:27Z</time>
      </trkpt>
      <trkpt lat="48.85739" lon="2.34685">
        <ele>26.200000762939</ele>
        <time>2015-08-10T17:58:33Z</time>
      </trkpt>
      <trkpt lat="48.85747" lon="2.34696">
        <ele>26.60000038147</ele>
        <time>2015-08-10T17:58:37Z</time>
      </trkpt>
      <trkpt lat="48.8575" lon="2.34712">
        <ele>26.799999237061</ele>
        <time>2015-08-10T17:58:42Z</time>
      </trkpt>
      <trkpt lat="48.85742" lon="2.34719">
        <ele>27.200000762939</ele>
        <time>2015-08-10T17:58:50Z</time>
      </trkpt>
      <trkpt lat="48.85735" lon="2.34717">
        <ele>28</ele>
        <time>2015-08-10T17:58:55Z</time>
      </trkpt>
      <trkpt lat="48.85742" lon="2.34731">
        <ele>30.39999961853</ele>
        <time>2015-08-10T17:59:46Z</time>
      </trkpt>
      <trkpt lat="48.8574" lon="2.3474">
        <ele>33.599998474121</ele>
        <time>2015-08-10T18:00:24Z</time>
      </trkpt>
      <trkpt lat="48.85739" lon="2.3474">
        <ele>36.599998474121</ele>
        <time>2015-08-10T18:02:05Z</time>
      </trkpt>
      <trkpt lat="48.85741" lon="2.34727">
        <ele>36.400001525879</ele>
        <time>2015-08-10T18:03:17Z</time>
      </trkpt>
      <trkpt lat="48.85743" lon="2.34726">
        <ele>34.20000076294</ele>
        <time>2015-08-10T18:05:08Z</time>
      </trkpt>
      <trkpt lat="48.85744" lon="2.34728">
        <ele>35.79999923706</ele>
        <time>2015-08-10T18:06:53Z</time>
      </trkpt>
      <trkpt lat="48.85739" lon="2.34723">
        <ele>43.400001525879</ele>
        <time>2015-08-10T18:08:36Z</time>
      </trkpt>
      <trkpt lat="48.8574" lon="2.34728">
        <ele>41.79999923706</ele>
        <time>2015-08-10T18:10:52Z</time>
      </trkpt>
      <trkpt lat="48.85742" lon="2.34732">
        <ele>40.79999923706</ele>
        <time>2015-08-10T18:12:36Z</time>
      </trkpt>
      <trkpt lat="48.85743" lon="2.34725">
        <ele>37.400001525879</ele>
        <time>2015-08-10T18:14:36Z</time>
      </trkpt>
      <trkpt lat="48.85743" lon="2.34728">
        <ele>35.400001525879</ele>
        <time>2015-08-10T18:17:29Z</time>
      </trkpt>
      <trkpt lat="48.85737" lon="2.34735">
        <ele>34.599998474121</ele>
        <time>2015-08-10T18:19:02Z</time>
      </trkpt>
      <trkpt lat="48.85739" lon="2.34731">
        <ele>39</ele>
        <time>2015-08-10T18:20:36Z</time>
      </trkpt>
      <trkpt lat="48.85738" lon="2.34729">
        <ele>39.20000076294</ele>
        <time>2015-08-10T18:20:41Z</time>
      </trkpt>
      <trkpt lat="48.85733" lon="2.34705">
        <ele>38.599998474121</ele>
        <time>2015-08-10T18:20:56Z</time>
      </trkpt>
      <trkpt lat="48.8572" lon="2.34698">
        <ele>37.20000076294</ele>
        <time>2015-08-10T18:21:19Z</time>
      </trkpt>
      <trkpt lat="48.85703" lon="2.3469">
        <ele>35.20000076294</ele>
        <time>2015-08-10T18:21:26Z</time>
      </trkpt>
      <trkpt lat="48.85683" lon="2.34679">
        <ele>34.400001525879</ele>
        <time>2015-08-10T18:21:33Z</time>
      </trkpt>
      <trkpt lat="48.85664" lon="2.34669">
        <ele>33.599998474121</ele>
        <time>2015-08-10T18:21:40Z</time>
      </trkpt>
      <trkpt lat="48.85646" lon="2.34657">
        <ele>32.599998474121</ele>
        <time>2015-08-10T18:21:46Z</time>
      </trkpt>
      <trkpt lat="48.85629" lon="2.34646">
        <ele>30.799999237061</ele>
        <time>2015-08-10T18:21:53Z</time>
      </trkpt>
      <trkpt lat="48.85608" lon="2.3464">
        <ele>29.799999237061</ele>
        <time>2015-08-10T18:21:59Z</time>
      </trkpt>
      <trkpt lat="48.856" lon="2.34634">
        <ele>30.200000762939</ele>
        <time>2015-08-10T18:22:01Z</time>
      </trkpt>
      <trkpt lat="48.85582" lon="2.34621">
        <ele>29</ele>
        <time>2015-08-10T18:22:05Z</time>
      </trkpt>
      <trkpt lat="48.85577" lon="2.34618">
        <ele>28.799999237061</ele>
        <time>2015-08-10T18:22:06Z</time>
      </trkpt>
      <trkpt lat="48.85561" lon="2.34606">
        <ele>27.39999961853</ele>
        <time>2015-08-10T18:22:09Z</time>
      </trkpt>
      <trkpt lat="48.85541" lon="2.3459">
        <ele>26</ele>
        <time>2015-08-10T18:22:13Z</time>
      </trkpt>
      <trkpt lat="48.85522" lon="2.34572">
        <ele>24.60000038147</ele>
        <time>2015-08-10T18:22:17Z</time>
      </trkpt>
      <trkpt lat="48.85507" lon="2.34556">
        <ele>24.60000038147</ele>
        <time>2015-08-10T18:22:20Z</time>
      </trkpt>
      <trkpt lat="48.8549" lon="2.34536">
        <ele>24.39999961853</ele>
        <time>2015-08-10T18:22:24Z</time>
      </trkpt>
      <trkpt lat="48.85484" lon="2.34533">
        <ele>24.60000038147</ele>
        <time>2015-08-10T18:22:25Z</time>
      </trkpt>
      <trkpt lat="48.85466" lon="2.34517">
        <ele>24</ele>
        <time>2015-08-10T18:22:30Z</time>
      </trkpt>
      <trkpt lat="48.85454" lon="2.34508">
        <ele>24.60000038147</ele>
        <time>2015-08-10T18:22:35Z</time>
      </trkpt>
      <trkpt lat="48.85448" lon="2.34495">
        <ele>29.200000762939</ele>
        <time>2015-08-10T18:23:20Z</time>
      </trkpt>
      <trkpt lat="48.85434" lon="2.34479">
        <ele>29.799999237061</ele>
        <time>2015-08-10T18:23:31Z</time>
      </trkpt>
      <trkpt lat="48.85417" lon="2.3446">
        <ele>29.200000762939</ele>
        <time>2015-08-10T18:23:37Z</time>
      </trkpt>
      <trkpt lat="48.85401" lon="2.34441">
        <ele>29.39999961853</ele>
        <time>2015-08-10T18:23:42Z</time>
      </trkpt>
      <trkpt lat="48.85394" lon="2.34435">
        <ele>29.60000038147</ele>
        <time>2015-08-10T18:23:46Z</time>
      </trkpt>
      <trkpt lat="48.85382" lon="2.34423">
        <ele>28.799999237061</ele>
        <time>2015-08-10T18:24:25Z</time>
      </trkpt>
      <trkpt lat="48.85364" lon="2.34403">
        <ele>29.799999237061</ele>
        <time>2015-08-10T18:24:32Z</time>
      </trkpt>
      <trkpt lat="48.85348" lon="2.34383">
        <ele>30.60000038147</ele>
        <time>2015-08-10T18:24:37Z</time>
      </trkpt>
      <trkpt lat="48.85333" lon="2.3436">
        <ele>31.200000762939</ele>
        <time>2015-08-10T18:24:42Z</time>
      </trkpt>
      <trkpt lat="48.85321" lon="2.34339">
        <ele>31.200000762939</ele>
        <time>2015-08-10T18:24:46Z</time>
      </trkpt>
      <trkpt lat="48.85307" lon="2.34315">
        <ele>31.60000038147</ele>
        <time>2015-08-10T18:24:51Z</time>
      </trkpt>
      <trkpt lat="48.85295" lon="2.3429">
        <ele>30.39999961853</ele>
        <time>2015-08-10T18:24:57Z</time>
      </trkpt>
      <trkpt lat="48.85281" lon="2.34269">
        <ele>29.60000038147</ele>
        <time>2015-08-10T18:25:02Z</time>
      </trkpt>
      <trkpt lat="48.85268" lon="2.34245">
        <ele>29.60000038147</ele>
        <time>2015-08-10T18:25:07Z</time>
      </trkpt>
      <trkpt lat="48.85255" lon="2.34219">
        <ele>29</ele>
        <time>2015-08-10T18:25:12Z</time>
      </trkpt>
      <trkpt lat="48.85245" lon="2.34195">
        <ele>28.799999237061</ele>
        <time>2015-08-10T18:25:16Z</time>
      </trkpt>
      <trkpt lat="48.85239" lon="2.34168">
        <ele>25.60000038147</ele>
        <time>2015-08-10T18:25:20Z</time>
      </trkpt>
      <trkpt lat="48.8523" lon="2.34137">
        <ele>23.60000038147</ele>
        <time>2015-08-10T18:25:25Z</time>
      </trkpt>
      <trkpt lat="48.85228" lon="2.3413">
        <ele>23.60000038147</ele>
        <time>2015-08-10T18:25:26Z</time>
      </trkpt>
      <trkpt lat="48.85225" lon="2.34111">
        <ele>21.799999237061</ele>
        <time>2015-08-10T18:25:29Z</time>
      </trkpt>
      <trkpt lat="48.85224" lon="2.34086">
        <ele>21.200000762939</ele>
        <time>2015-08-10T18:25:33Z</time>
      </trkpt>
      <trkpt lat="48.8522" lon="2.34066">
        <ele>21.200000762939</ele>
        <time>2015-08-10T18:25:37Z</time>
      </trkpt>
      <trkpt lat="48.85218" lon="2.3406">
        <ele>20.799999237061</ele>
        <time>2015-08-10T18:25:39Z</time>
      </trkpt>
      <trkpt lat="48.85219" lon="2.34057">
        <ele>23.200000762939</ele>
        <time>2015-08-10T18:25:42Z</time>
      </trkpt>
      <trkpt lat="48.8521" lon="2.34033">
        <ele>27.39999961853</ele>
        <time>2015-08-10T18:26:06Z</time>
      </trkpt>
      <trkpt lat="48.85204" lon="2.34005">
        <ele>28.39999961853</ele>
        <time>2015-08-10T18:26:12Z</time>
      </trkpt>
      <trkpt lat="48.85198" lon="2.33975">
        <ele>31</ele>
        <time>2015-08-10T18:26:17Z</time>
      </trkpt>
      <trkpt lat="48.852" lon="2.33961">
        <ele>31.39999961853</ele>
        <time>2015-08-10T18:26:19Z</time>
      </trkpt>
      <trkpt lat="48.85208" lon="2.33935">
        <ele>32.400001525879</ele>
        <time>2015-08-10T18:26:23Z</time>
      </trkpt>
      <trkpt lat="48.85218" lon="2.33908">
        <ele>34</ele>
        <time>2015-08-10T18:26:29Z</time>
      </trkpt>
      <trkpt lat="48.85227" lon="2.33882">
        <ele>37</ele>
        <time>2015-08-10T18:26:37Z</time>
      </trkpt>
      <trkpt lat="48.85225" lon="2.33879">
        <ele>37.79999923706</ele>
        <time>2015-08-10T18:26:39Z</time>
      </trkpt>
      <trkpt lat="48.85209" lon="2.33875">
        <ele>35.599998474121</ele>
        <time>2015-08-10T18:26:43Z</time>
      </trkpt>
      <trkpt lat="48.8519" lon="2.33864">
        <ele>35.599998474121</ele>
        <time>2015-08-10T18:26:48Z</time>
      </trkpt>
      <trkpt lat="48.85172" lon="2.33845">
        <ele>32.599998474121</ele>
        <time>2015-08-10T18:26:53Z</time>
      </trkpt>
      <trkpt lat="48.8516" lon="2.33836">
        <ele>31.799999237061</ele>
        <time>2015-08-10T18:26:56Z</time>
      </trkpt>
      <trkpt lat="48.85157" lon="2.33809">
        <ele>29.799999237061</ele>
        <time>2015-08-10T18:27:00Z</time>
      </trkpt>
      <trkpt lat="48.85152" lon="2.33778">
        <ele>29.60000038147</ele>
        <time>2015-08-10T18:27:05Z</time>
      </trkpt>
      <trkpt lat="48.85149" lon="2.33748">
        <ele>29.200000762939</ele>
        <time>2015-08-10T18:27:10Z</time>
      </trkpt>
      <trkpt lat="48.85147" lon="2.33717">
        <ele>27.60000038147</ele>
        <time>2015-08-10T18:27:14Z</time>
      </trkpt>
      <trkpt lat="48.85146" lon="2.33689">
        <ele>27</ele>
        <time>2015-08-10T18:27:18Z</time>
      </trkpt>
      <trkpt lat="48.85142" lon="2.33659">
        <ele>25.60000038147</ele>
        <time>2015-08-10T18:27:22Z</time>
      </trkpt>
      <trkpt lat="48.85139" lon="2.33627">
        <ele>24</ele>
        <time>2015-08-10T18:27:26Z</time>
      </trkpt>
      <trkpt lat="48.85136" lon="2.33611">
        <ele>24</ele>
        <time>2015-08-10T18:27:28Z</time>
      </trkpt>
      <trkpt lat="48.85131" lon="2.33577">
        <ele>24</ele>
        <time>2015-08-10T18:27:32Z</time>
      </trkpt>
      <trkpt lat="48.85133" lon="2.33543">
        <ele>23.60000038147</ele>
        <time>2015-08-10T18:27:36Z</time>
      </trkpt>
      <trkpt lat="48.85133" lon="2.33535">
        <ele>23</ele>
        <time>2015-08-10T18:27:37Z</time>
      </trkpt>
      <trkpt lat="48.85133" lon="2.33527">
        <ele>22.39999961853</ele>
        <time>2015-08-10T18:27:38Z</time>
      </trkpt>
      <trkpt lat="48.85134" lon="2.33495">
        <ele>21.39999961853</ele>
        <time>2015-08-10T18:27:42Z</time>
      </trkpt>
      <trkpt lat="48.85133" lon="2.3346">
        <ele>20.799999237061</ele>
        <time>2015-08-10T18:27:46Z</time>
      </trkpt>
      <trkpt lat="48.8513" lon="2.33425">
        <ele>22</ele>
        <time>2015-08-10T18:27:50Z</time>
      </trkpt>
      <trkpt lat="48.85122" lon="2.33393">
        <ele>15.60000038147</ele>
        <time>2015-08-10T18:27:54Z</time>
      </trkpt>
      <trkpt lat="48.85123" lon="2.33385">
        <ele>15.60000038147</ele>
        <time>2015-08-10T18:27:55Z</time>
      </trkpt>
      <trkpt lat="48.85124" lon="2.33353">
        <ele>15.39999961853</ele>
        <time>2015-08-10T18:27:59Z</time>
      </trkpt>
      <trkpt lat="48.85123" lon="2.33323">
        <ele>14.39999961853</ele>
        <time>2015-08-10T18:28:03Z</time>
      </trkpt>
      <trkpt lat="48.85128" lon="2.33295">
        <ele>16.200000762939</ele>
        <time>2015-08-10T18:28:07Z</time>
      </trkpt>
      <trkpt lat="48.85136" lon="2.33268">
        <ele>16</ele>
        <time>2015-08-10T18:28:11Z</time>
      </trkpt>
      <trkpt lat="48.85142" lon="2.3324">
        <ele>15.199999809265</ele>
        <time>2015-08-10T18:28:15Z</time>
      </trkpt>
      <trkpt lat="48.85143" lon="2.33209">
        <ele>16.60000038147</ele>
        <time>2015-08-10T18:28:19Z</time>
      </trkpt>
      <trkpt lat="48.85149" lon="2.3318">
        <ele>16.799999237061</ele>
        <time>2015-08-10T18:28:23Z</time>
      </trkpt>
      <trkpt lat="48.85155" lon="2.33151">
        <ele>16.200000762939</ele>
        <time>2015-08-10T18:28:28Z</time>
      </trkpt>
      <trkpt lat="48.85155" lon="2.33146">
        <ele>17.200000762939</ele>
        <time>2015-08-10T18:28:29Z</time>
      </trkpt>
      <trkpt lat="48.85156" lon="2.33132">
        <ele>19.60000038147</ele>
        <time>2015-08-10T18:28:33Z</time>
      </trkpt>
      <trkpt lat="48.85157" lon="2.33131">
        <ele>19.60000038147</ele>
        <time>2015-08-10T18:28:34Z</time>
      </trkpt>
      <trkpt lat="48.85161" lon="2.33125">
        <ele>24.799999237061</ele>
        <time>2015-08-10T18:28:38Z</time>
      </trkpt>
      <trkpt lat="48.85159" lon="2.33109">
        <ele>29.799999237061</ele>
        <time>2015-08-10T18:28:44Z</time>
      </trkpt>
      <trkpt lat="48.85169" lon="2.33081">
        <ele>32.599998474121</ele>
        <time>2015-08-10T18:28:49Z</time>
      </trkpt>
      <trkpt lat="48.85171" lon="2.33074">
        <ele>33</ele>
        <time>2015-08-10T18:28:50Z</time>
      </trkpt>
      <trkpt lat="48.85181" lon="2.33047">
        <ele>33.79999923706</ele>
        <time>2015-08-10T18:28:54Z</time>
      </trkpt>
      <trkpt lat="48.85191" lon="2.3302">
        <ele>34.79999923706</ele>
        <time>2015-08-10T18:28:58Z</time>
      </trkpt>
      <trkpt lat="48.85195" lon="2.32993">
        <ele>34.20000076294</ele>
        <time>2015-08-10T18:29:01Z</time>
      </trkpt>
      <trkpt lat="48.85197" lon="2.32965">
        <ele>33.79999923706</ele>
        <time>2015-08-10T18:29:04Z</time>
      </trkpt>
      <trkpt lat="48.85195" lon="2.32932">
        <ele>33.599998474121</ele>
        <time>2015-08-10T18:29:08Z</time>
      </trkpt>
      <trkpt lat="48.85191" lon="2.32911">
        <ele>33.20000076294</ele>
        <time>2015-08-10T18:29:11Z</time>
      </trkpt>
      <trkpt lat="48.85189" lon="2.32898">
        <ele>33</ele>
        <time>2015-08-10T18:29:13Z</time>
      </trkpt>
      <trkpt lat="48.85186" lon="2.32869">
        <ele>32.400001525879</ele>
        <time>2015-08-10T18:29:17Z</time>
      </trkpt>
      <trkpt lat="48.85184" lon="2.32862">
        <ele>32.20000076294</ele>
        <time>2015-08-10T18:29:18Z</time>
      </trkpt>
      <trkpt lat="48.85181" lon="2.32843">
        <ele>31</ele>
        <time>2015-08-10T18:29:21Z</time>
      </trkpt>
      <trkpt lat="48.85175" lon="2.32816">
        <ele>30.39999961853</ele>
        <time>2015-08-10T18:29:25Z</time>
      </trkpt>
      <trkpt lat="48.85174" lon="2.32808">
        <ele>28.799999237061</ele>
        <time>2015-08-10T18:29:26Z</time>
      </trkpt>
      <trkpt lat="48.85172" lon="2.32793">
        <ele>27.200000762939</ele>
        <time>2015-08-10T18:29:28Z</time>
      </trkpt>
      <trkpt lat="48.85169" lon="2.32764">
        <ele>25.200000762939</ele>
        <time>2015-08-10T18:29:32Z</time>
      </trkpt>
      <trkpt lat="48.85167" lon="2.32737">
        <ele>23.60000038147</ele>
        <time>2015-08-10T18:29:36Z</time>
      </trkpt>
      <trkpt lat="48.85167" lon="2.3273">
        <ele>23.799999237061</ele>
        <time>2015-08-10T18:29:37Z</time>
      </trkpt>
      <trkpt lat="48.85173" lon="2.32707">
        <ele>22.799999237061</ele>
        <time>2015-08-10T18:29:42Z</time>
      </trkpt>
      <trkpt lat="48.85175" lon="2.32701">
        <ele>23.60000038147</ele>
        <time>2015-08-10T18:29:44Z</time>
      </trkpt>
      <trkpt lat="48.85177" lon="2.32689">
        <ele>27.200000762939</ele>
        <time>2015-08-10T18:29:54Z</time>
      </trkpt>
      <trkpt lat="48.85176" lon="2.32657">
        <ele>27.60000038147</ele>
        <time>2015-08-10T18:30:01Z</time>
      </trkpt>
      <trkpt lat="48.85175" lon="2.32625">
        <ele>27.200000762939</ele>
        <time>2015-08-10T18:30:06Z</time>
      </trkpt>
      <trkpt lat="48.85174" lon="2.32595">
        <ele>25.799999237061</ele>
        <time>2015-08-10T18:30:10Z</time>
      </trkpt>
      <trkpt lat="48.85173" lon="2.32566">
        <ele>24.200000762939</ele>
        <time>2015-08-10T18:30:14Z</time>
      </trkpt>
      <trkpt lat="48.85173" lon="2.32534">
        <ele>22.200000762939</ele>
        <time>2015-08-10T18:30:18Z</time>
      </trkpt>
      <trkpt lat="48.85174" lon="2.32504">
        <ele>20</ele>
        <time>2015-08-10T18:30:22Z</time>
      </trkpt>
      <trkpt lat="48.85174" lon="2.32476">
        <ele>20.39999961853</ele>
        <time>2015-08-10T18:30:26Z</time>
      </trkpt>
      <trkpt lat="48.85173" lon="2.32446">
        <ele>19.60000038147</ele>
        <time>2015-08-10T18:30:30Z</time>
      </trkpt>
      <trkpt lat="48.85171" lon="2.32415">
        <ele>19.60000038147</ele>
        <time>2015-08-10T18:30:34Z</time>
      </trkpt>
      <trkpt lat="48.85169" lon="2.32384">
        <ele>19.200000762939</ele>
        <time>2015-08-10T18:30:38Z</time>
      </trkpt>
      <trkpt lat="48.85168" lon="2.32354">
        <ele>19.200000762939</ele>
        <time>2015-08-10T18:30:42Z</time>
      </trkpt>
      <trkpt lat="48.85168" lon="2.32325">
        <ele>20.200000762939</ele>
        <time>2015-08-10T18:30:46Z</time>
      </trkpt>
      <trkpt lat="48.85168" lon="2.32303">
        <ele>19.799999237061</ele>
        <time>2015-08-10T18:30:49Z</time>
      </trkpt>
      <trkpt lat="48.85168" lon="2.32273">
        <ele>19.39999961853</ele>
        <time>2015-08-10T18:30:53Z</time>
      </trkpt>
      <trkpt lat="48.85167" lon="2.3224">
        <ele>19.799999237061</ele>
        <time>2015-08-10T18:30:57Z</time>
      </trkpt>
      <trkpt lat="48.85166" lon="2.32206">
        <ele>20</ele>
        <time>2015-08-10T18:31:01Z</time>
      </trkpt>
      <trkpt lat="48.85168" lon="2.32179">
        <ele>24.60000038147</ele>
        <time>2015-08-10T18:31:04Z</time>
      </trkpt>
      <trkpt lat="48.85169" lon="2.32151">
        <ele>27</ele>
        <time>2015-08-10T18:31:07Z</time>
      </trkpt>
      <trkpt lat="48.85171" lon="2.32133">
        <ele>26.60000038147</ele>
        <time>2015-08-10T18:31:09Z</time>
      </trkpt>
      <trkpt lat="48.85171" lon="2.32106">
        <ele>25.200000762939</ele>
        <time>2015-08-10T18:31:12Z</time>
      </trkpt>
      <trkpt lat="48.85172" lon="2.32071">
        <ele>24.200000762939</ele>
        <time>2015-08-10T18:31:16Z</time>
      </trkpt>
      <trkpt lat="48.85172" lon="2.3204">
        <ele>23.39999961853</ele>
        <time>2015-08-10T18:31:20Z</time>
      </trkpt>
      <trkpt lat="48.85173" lon="2.32009">
        <ele>22.799999237061</ele>
        <time>2015-08-10T18:31:24Z</time>
      </trkpt>
      <trkpt lat="48.85173" lon="2.31976">
        <ele>23</ele>
        <time>2015-08-10T18:31:28Z</time>
      </trkpt>
      <trkpt lat="48.85174" lon="2.31961">
        <ele>22.200000762939</ele>
        <time>2015-08-10T18:31:30Z</time>
      </trkpt>
      <trkpt lat="48.85176" lon="2.31932">
        <ele>20.200000762939</ele>
        <time>2015-08-10T18:31:34Z</time>
      </trkpt>
      <trkpt lat="48.85175" lon="2.31924">
        <ele>19.799999237061</ele>
        <time>2015-08-10T18:31:35Z</time>
      </trkpt>
      <trkpt lat="48.85176" lon="2.31892">
        <ele>19.799999237061</ele>
        <time>2015-08-10T18:31:39Z</time>
      </trkpt>
      <trkpt lat="48.85178" lon="2.3186">
        <ele>20.200000762939</ele>
        <time>2015-08-10T18:31:43Z</time>
      </trkpt>
      <trkpt lat="48.85176" lon="2.31828">
        <ele>19.799999237061</ele>
        <time>2015-08-10T18:31:47Z</time>
      </trkpt>
      <trkpt lat="48.85176" lon="2.31796">
        <ele>19.60000038147</ele>
        <time>2015-08-10T18:31:51Z</time>
      </trkpt>
      <trkpt lat="48.85179" lon="2.31765">
        <ele>20.200000762939</ele>
        <time>2015-08-10T18:31:55Z</time>
      </trkpt>
      <trkpt lat="48.8518" lon="2.3175">
        <ele>19.39999961853</ele>
        <time>2015-08-10T18:31:57Z</time>
      </trkpt>
      <trkpt lat="48.85181" lon="2.3172">
        <ele>18.799999237061</ele>
        <time>2015-08-10T18:32:01Z</time>
      </trkpt>
      <trkpt lat="48.85182" lon="2.31693">
        <ele>17</ele>
        <time>2015-08-10T18:32:05Z</time>
      </trkpt>
      <trkpt lat="48.85184" lon="2.31666">
        <ele>15</ele>
        <time>2015-08-10T18:32:09Z</time>
      </trkpt>
      <trkpt lat="48.85184" lon="2.31634">
        <ele>17</ele>
        <time>2015-08-10T18:32:13Z</time>
      </trkpt>
      <trkpt lat="48.85186" lon="2.31601">
        <ele>16.60000038147</ele>
        <time>2015-08-10T18:32:17Z</time>
      </trkpt>
      <trkpt lat="48.85188" lon="2.31568">
        <ele>15.60000038147</ele>
        <time>2015-08-10T18:32:21Z</time>
      </trkpt>
      <trkpt lat="48.85185" lon="2.31536">
        <ele>17.200000762939</ele>
        <time>2015-08-10T18:32:25Z</time>
      </trkpt>
      <trkpt lat="48.85186" lon="2.31505">
        <ele>17.60000038147</ele>
        <time>2015-08-10T18:32:30Z</time>
      </trkpt>
      <trkpt lat="48.85185" lon="2.31475">
        <ele>19.60000038147</ele>
        <time>2015-08-10T18:32:37Z</time>
      </trkpt>
      <trkpt lat="48.85184" lon="2.31465">
        <ele>20.39999961853</ele>
        <time>2015-08-10T18:32:40Z</time>
      </trkpt>
      <trkpt lat="48.85181" lon="2.31433">
        <ele>23</ele>
        <time>2015-08-10T18:32:47Z</time>
      </trkpt>
      <trkpt lat="48.85179" lon="2.31406">
        <ele>23.60000038147</ele>
        <time>2015-08-10T18:32:52Z</time>
      </trkpt>
      <trkpt lat="48.85176" lon="2.31383">
        <ele>24</ele>
        <time>2015-08-10T18:32:56Z</time>
      </trkpt>
      <trkpt lat="48.85173" lon="2.31364">
        <ele>25</ele>
        <time>2015-08-10T18:32:59Z</time>
      </trkpt>
      <trkpt lat="48.85171" lon="2.31338">
        <ele>25.799999237061</ele>
        <time>2015-08-10T18:33:03Z</time>
      </trkpt>
      <trkpt lat="48.85169" lon="2.31318">
        <ele>26</ele>
        <time>2015-08-10T18:33:06Z</time>
      </trkpt>
      <trkpt lat="48.85168" lon="2.31288">
        <ele>25.200000762939</ele>
        <time>2015-08-10T18:33:10Z</time>
      </trkpt>
      <trkpt lat="48.85167" lon="2.31274">
        <ele>25.39999961853</ele>
        <time>2015-08-10T18:33:12Z</time>
      </trkpt>
      <trkpt lat="48.85163" lon="2.31247">
        <ele>24.799999237061</ele>
        <time>2015-08-10T18:33:16Z</time>
      </trkpt>
      <trkpt lat="48.85161" lon="2.31233">
        <ele>25.39999961853</ele>
        <time>2015-08-10T18:33:18Z</time>
      </trkpt>
      <trkpt lat="48.8516" lon="2.3122">
        <ele>26</ele>
        <time>2015-08-10T18:33:20Z</time>
      </trkpt>
      <trkpt lat="48.85158" lon="2.31195">
        <ele>27.39999961853</ele>
        <time>2015-08-10T18:33:24Z</time>
      </trkpt>
      <trkpt lat="48.85154" lon="2.31163">
        <ele>26.39999961853</ele>
        <time>2015-08-10T18:33:29Z</time>
      </trkpt>
      <trkpt lat="48.85155" lon="2.31134">
        <ele>25.39999961853</ele>
        <time>2015-08-10T18:33:33Z</time>
      </trkpt>
      <trkpt lat="48.85152" lon="2.31104">
        <ele>24.60000038147</ele>
        <time>2015-08-10T18:33:37Z</time>
      </trkpt>
      <trkpt lat="48.85151" lon="2.31079">
        <ele>25.39999961853</ele>
        <time>2015-08-10T18:33:41Z</time>
      </trkpt>
      <trkpt lat="48.85149" lon="2.31057">
        <ele>26.39999961853</ele>
        <time>2015-08-10T18:33:46Z</time>
      </trkpt>
      <trkpt lat="48.8515" lon="2.3105">
        <ele>26.799999237061</ele>
        <time>2015-08-10T18:33:48Z</time>
      </trkpt>
      <trkpt lat="48.85155" lon="2.3104">
        <ele>28.39999961853</ele>
        <time>2015-08-10T18:33:53Z</time>
      </trkpt>
      <trkpt lat="48.85156" lon="2.31038">
        <ele>28.799999237061</ele>
        <time>2015-08-10T18:33:54Z</time>
      </trkpt>
      <trkpt lat="48.85144" lon="2.31013">
        <ele>31</ele>
        <time>2015-08-10T18:34:04Z</time>
      </trkpt>
      <trkpt lat="48.85133" lon="2.30992">
        <ele>34</ele>
        <time>2015-08-10T18:34:10Z</time>
      </trkpt>
      <trkpt lat="48.85119" lon="2.30973">
        <ele>35.400001525879</ele>
        <time>2015-08-10T18:34:15Z</time>
      </trkpt>
      <trkpt lat="48.85102" lon="2.30958">
        <ele>35.79999923706</ele>
        <time>2015-08-10T18:34:20Z</time>
      </trkpt>
      <trkpt lat="48.85087" lon="2.30942">
        <ele>35.599998474121</ele>
        <time>2015-08-10T18:34:25Z</time>
      </trkpt>
      <trkpt lat="48.85068" lon="2.30921">
        <ele>38.599998474121</ele>
        <time>2015-08-10T18:34:31Z</time>
      </trkpt>
      <trkpt lat="48.85051" lon="2.30906">
        <ele>37.79999923706</ele>
        <time>2015-08-10T18:34:35Z</time>
      </trkpt>
      <trkpt lat="48.85034" lon="2.30884">
        <ele>37</ele>
        <time>2015-08-10T18:34:40Z</time>
      </trkpt>
      <trkpt lat="48.85017" lon="2.30868">
        <ele>35.20000076294</ele>
        <time>2015-08-10T18:34:44Z</time>
      </trkpt>
      <trkpt lat="48.85" lon="2.3085">
        <ele>33.599998474121</ele>
        <time>2015-08-10T18:34:48Z</time>
      </trkpt>
      <trkpt lat="48.84984" lon="2.30835">
        <ele>32</ele>
        <time>2015-08-10T18:34:55Z</time>
      </trkpt>
      <trkpt lat="48.84969" lon="2.30816">
        <ele>31.60000038147</ele>
        <time>2015-08-10T18:35:05Z</time>
      </trkpt>
      <trkpt lat="48.84953" lon="2.308">
        <ele>33</ele>
        <time>2015-08-10T18:35:13Z</time>
      </trkpt>
      <trkpt lat="48.84938" lon="2.30781">
        <ele>33.79999923706</ele>
        <time>2015-08-10T18:35:20Z</time>
      </trkpt>
      <trkpt lat="48.84923" lon="2.30767">
        <ele>32.79999923706</ele>
        <time>2015-08-10T18:35:25Z</time>
      </trkpt>
      <trkpt lat="48.84906" lon="2.30754">
        <ele>31.200000762939</ele>
        <time>2015-08-10T18:35:30Z</time>
      </trkpt>
      <trkpt lat="48.8489" lon="2.3074">
        <ele>28.39999961853</ele>
        <time>2015-08-10T18:35:35Z</time>
      </trkpt>
      <trkpt lat="48.84873" lon="2.30726">
        <ele>26.39999961853</ele>
        <time>2015-08-10T18:35:41Z</time>
      </trkpt>
      <trkpt lat="48.84863" lon="2.30704">
        <ele>26.39999961853</ele>
        <time>2015-08-10T18:35:48Z</time>
      </trkpt>
      <trkpt lat="48.8485" lon="2.30682">
        <ele>25.39999961853</ele>
        <time>2015-08-10T18:35:55Z</time>
      </trkpt>
      <trkpt lat="48.84834" lon="2.30666">
        <ele>26.200000762939</ele>
        <time>2015-08-10T18:36:00Z</time>
      </trkpt>
      <trkpt lat="48.84816" lon="2.30649">
        <ele>23.60000038147</ele>
        <time>2015-08-10T18:36:06Z</time>
      </trkpt>
      <trkpt lat="48.84813" lon="2.30645">
        <ele>23</ele>
        <time>2015-08-10T18:36:07Z</time>
      </trkpt>
      <trkpt lat="48.84799" lon="2.30619">
        <ele>24</ele>
        <time>2015-08-10T18:36:12Z</time>
      </trkpt>
      <trkpt lat="48.84783" lon="2.30595">
        <ele>27.39999961853</ele>
        <time>2015-08-10T18:36:16Z</time>
      </trkpt>
      <trkpt lat="48.84764" lon="2.30581">
        <ele>30.39999961853</ele>
        <time>2015-08-10T18:36:19Z</time>
      </trkpt>
      <trkpt lat="48.84746" lon="2.30564">
        <ele>33.599998474121</ele>
        <time>2015-08-10T18:36:23Z</time>
      </trkpt>
      <trkpt lat="48.84731" lon="2.30549">
        <ele>35.599998474121</ele>
        <time>2015-08-10T18:36:27Z</time>
      </trkpt>
      <trkpt lat="48.84715" lon="2.30534">
        <ele>37.400001525879</ele>
        <time>2015-08-10T18:36:31Z</time>
      </trkpt>
      <trkpt lat="48.84709" lon="2.30526">
        <ele>37.400001525879</ele>
        <time>2015-08-10T18:36:33Z</time>
      </trkpt>
      <trkpt lat="48.84702" lon="2.30508">
        <ele>37.400001525879</ele>
        <time>2015-08-10T18:36:39Z</time>
      </trkpt>
      <trkpt lat="48.84701" lon="2.30506">
        <ele>37.599998474121</ele>
        <time>2015-08-10T18:36:40Z</time>
      </trkpt>
      <trkpt lat="48.84695" lon="2.30497">
        <ele>39.79999923706</ele>
        <time>2015-08-10T18:36:50Z</time>
      </trkpt>
      <trkpt lat="48.84683" lon="2.30514">
        <ele>40.599998474121</ele>
        <time>2015-08-10T18:36:57Z</time>
      </trkpt>
      <trkpt lat="48.84681" lon="2.3052">
        <ele>40.599998474121</ele>
        <time>2015-08-10T18:36:58Z</time>
      </trkpt>
      <trkpt lat="48.84673" lon="2.30545">
        <ele>37.400001525879</ele>
        <time>2015-08-10T18:37:04Z</time>
      </trkpt>
      <trkpt lat="48.84663" lon="2.30574">
        <ele>34.20000076294</ele>
        <time>2015-08-10T18:37:09Z</time>
      </trkpt>
      <trkpt lat="48.84659" lon="2.30581">
        <ele>32.400001525879</ele>
        <time>2015-08-10T18:37:10Z</time>
      </trkpt>
      <trkpt lat="48.84643" lon="2.30579">
        <ele>29.799999237061</ele>
        <time>2015-08-10T18:37:16Z</time>
      </trkpt>
      <trkpt lat="48.84636" lon="2.3056">
        <ele>29</ele>
        <time>2015-08-10T18:37:20Z</time>
      </trkpt>
      <trkpt lat="48.84626" lon="2.30532">
        <ele>28.60000038147</ele>
        <time>2015-08-10T18:37:25Z</time>
      </trkpt>
      <trkpt lat="48.84617" lon="2.30505">
        <ele>27.39999961853</ele>
        <time>2015-08-10T18:37:30Z</time>
      </trkpt>
      <trkpt lat="48.8461" lon="2.30478">
        <ele>25.60000038147</ele>
        <time>2015-08-10T18:37:35Z</time>
      </trkpt>
      <trkpt lat="48.84599" lon="2.3045">
        <ele>24.60000038147</ele>
        <time>2015-08-10T18:37:41Z</time>
      </trkpt>
      <trkpt lat="48.84592" lon="2.3042">
        <ele>23.39999961853</ele>
        <time>2015-08-10T18:37:46Z</time>
      </trkpt>
      <trkpt lat="48.84586" lon="2.30392">
        <ele>24.200000762939</ele>
        <time>2015-08-10T18:37:50Z</time>
      </trkpt>
      <trkpt lat="48.84578" lon="2.30364">
        <ele>24.799999237061</ele>
        <time>2015-08-10T18:37:54Z</time>
      </trkpt>
      <trkpt lat="48.8457" lon="2.30336">
        <ele>25.200000762939</ele>
        <time>2015-08-10T18:37:58Z</time>
      </trkpt>
      <trkpt lat="48.84562" lon="2.30307">
        <ele>25</ele>
        <time>2015-08-10T18:38:02Z</time>
      </trkpt>
      <trkpt lat="48.8456" lon="2.303">
        <ele>25</ele>
        <time>2015-08-10T18:38:03Z</time>
      </trkpt>
      <trkpt lat="48.84556" lon="2.30286">
        <ele>25.39999961853</ele>
        <time>2015-08-10T18:38:05Z</time>
      </trkpt>
      <trkpt lat="48.84552" lon="2.30272">
        <ele>25</ele>
        <time>2015-08-10T18:38:07Z</time>
      </trkpt>
      <trkpt lat="48.84546" lon="2.30243">
        <ele>25.200000762939</ele>
        <time>2015-08-10T18:38:11Z</time>
      </trkpt>
      <trkpt lat="48.84542" lon="2.30229">
        <ele>25.39999961853</ele>
        <time>2015-08-10T18:38:13Z</time>
      </trkpt>
      <trkpt lat="48.8454" lon="2.30216">
        <ele>26</ele>
        <time>2015-08-10T18:38:15Z</time>
      </trkpt>
      <trkpt lat="48.84521" lon="2.30207">
        <ele>27.60000038147</ele>
        <time>2015-08-10T18:38:20Z</time>
      </trkpt>
      <trkpt lat="48.84503" lon="2.30212">
        <ele>27.39999961853</ele>
        <time>2015-08-10T18:38:23Z</time>
      </trkpt>
      <trkpt lat="48.84493" lon="2.30216">
        <ele>27.39999961853</ele>
        <time>2015-08-10T18:38:25Z</time>
      </trkpt>
      <trkpt lat="48.84487" lon="2.30216">
        <ele>27.799999237061</ele>
        <time>2015-08-10T18:38:26Z</time>
      </trkpt>
      <trkpt lat="48.84468" lon="2.3022">
        <ele>27.60000038147</ele>
        <time>2015-08-10T18:38:30Z</time>
      </trkpt>
      <trkpt lat="48.84463" lon="2.30222">
        <ele>27.60000038147</ele>
        <time>2015-08-10T18:38:31Z</time>
      </trkpt>
      <trkpt lat="48.84441" lon="2.30229">
        <ele>26</ele>
        <time>2015-08-10T18:38:35Z</time>
      </trkpt>
      <trkpt lat="48.84421" lon="2.30237">
        <ele>26.39999961853</ele>
        <time>2015-08-10T18:38:39Z</time>
      </trkpt>
      <trkpt lat="48.84401" lon="2.30245">
        <ele>27.60000038147</ele>
        <time>2015-08-10T18:38:43Z</time>
      </trkpt>
      <trkpt lat="48.84396" lon="2.30248">
        <ele>27.799999237061</ele>
        <time>2015-08-10T18:38:44Z</time>
      </trkpt>
      <trkpt lat="48.8438" lon="2.30254">
        <ele>28.60000038147</ele>
        <time>2015-08-10T18:38:47Z</time>
      </trkpt>
      <trkpt lat="48.84356" lon="2.30255">
        <ele>31</ele>
        <time>2015-08-10T18:38:51Z</time>
      </trkpt>
      <trkpt lat="48.84335" lon="2.3026">
        <ele>30.60000038147</ele>
        <time>2015-08-10T18:38:55Z</time>
      </trkpt>
      <trkpt lat="48.84313" lon="2.30266">
        <ele>30.60000038147</ele>
        <time>2015-08-10T18:38:59Z</time>
      </trkpt>
      <trkpt lat="48.84293" lon="2.30271">
        <ele>29.799999237061</ele>
        <time>2015-08-10T18:39:03Z</time>
      </trkpt>
      <trkpt lat="48.84277" lon="2.30274">
        <ele>29.799999237061</ele>
        <time>2015-08-10T18:39:06Z</time>
      </trkpt>
      <trkpt lat="48.84259" lon="2.30261">
        <ele>30.200000762939</ele>
        <time>2015-08-10T18:39:10Z</time>
      </trkpt>
      <trkpt lat="48.84253" lon="2.30243">
        <ele>28.60000038147</ele>
        <time>2015-08-10T18:39:13Z</time>
      </trkpt>
      <trkpt lat="48.84251" lon="2.30236">
        <ele>29</ele>
        <time>2015-08-10T18:39:14Z</time>
      </trkpt>
      <trkpt lat="48.84242" lon="2.30209">
        <ele>29.60000038147</ele>
        <time>2015-08-10T18:39:18Z</time>
      </trkpt>
      <trkpt lat="48.84234" lon="2.3018">
        <ele>30.799999237061</ele>
        <time>2015-08-10T18:39:22Z</time>
      </trkpt>
      <trkpt lat="48.84226" lon="2.30148">
        <ele>29</ele>
        <time>2015-08-10T18:39:26Z</time>
      </trkpt>
      <trkpt lat="48.84218" lon="2.30116">
        <ele>28</ele>
        <time>2015-08-10T18:39:30Z</time>
      </trkpt>
      <trkpt lat="48.84211" lon="2.30085">
        <ele>28.60000038147</ele>
        <time>2015-08-10T18:39:34Z</time>
      </trkpt>
      <trkpt lat="48.84202" lon="2.30054">
        <ele>27</ele>
        <time>2015-08-10T18:39:38Z</time>
      </trkpt>
      <trkpt lat="48.84197" lon="2.30032">
        <ele>26.39999961853</ele>
        <time>2015-08-10T18:39:41Z</time>
      </trkpt>
      <trkpt lat="48.84189" lon="2.30003">
        <ele>26.799999237061</ele>
        <time>2015-08-10T18:39:45Z</time>
      </trkpt>
      <trkpt lat="48.84181" lon="2.29978">
        <ele>28.39999961853</ele>
        <time>2015-08-10T18:39:49Z</time>
      </trkpt>
      <trkpt lat="48.84173" lon="2.29954">
        <ele>28.60000038147</ele>
        <time>2015-08-10T18:39:53Z</time>
      </trkpt>
      <trkpt lat="48.84164" lon="2.29925">
        <ele>30.39999961853</ele>
        <time>2015-08-10T18:39:58Z</time>
      </trkpt>
      <trkpt lat="48.84163" lon="2.29915">
        <ele>32.20000076294</ele>
        <time>2015-08-10T18:40:00Z</time>
      </trkpt>
      <trkpt lat="48.84155" lon="2.29887">
        <ele>33</ele>
        <time>2015-08-10T18:40:05Z</time>
      </trkpt>
      <trkpt lat="48.84146" lon="2.2986">
        <ele>34.400001525879</ele>
        <time>2015-08-10T18:40:09Z</time>
      </trkpt>
      <trkpt lat="48.84134" lon="2.29829">
        <ele>34.599998474121</ele>
        <time>2015-08-10T18:40:13Z</time>
      </trkpt>
      <trkpt lat="48.84124" lon="2.29796">
        <ele>34</ele>
        <time>2015-08-10T18:40:17Z</time>
      </trkpt>
      <trkpt lat="48.84118" lon="2.29771">
        <ele>34</ele>
        <time>2015-08-10T18:40:20Z</time>
      </trkpt>
      <trkpt lat="48.84107" lon="2.29739">
        <ele>34.400001525879</ele>
        <time>2015-08-10T18:40:24Z</time>
      </trkpt>
      <trkpt lat="48.84099" lon="2.29716">
        <ele>35.20000076294</ele>
        <time>2015-08-10T18:40:27Z</time>
      </trkpt>
      <trkpt lat="48.84086" lon="2.29687">
        <ele>35.599998474121</ele>
        <time>2015-08-10T18:40:31Z</time>
      </trkpt>
      <trkpt lat="48.84076" lon="2.29657">
        <ele>35</ele>
        <time>2015-08-10T18:40:35Z</time>
      </trkpt>
      <trkpt lat="48.84065" lon="2.29628">
        <ele>34.20000076294</ele>
        <time>2015-08-10T18:40:39Z</time>
      </trkpt>
      <trkpt lat="48.84056" lon="2.29597">
        <ele>33.400001525879</ele>
        <time>2015-08-10T18:40:43Z</time>
      </trkpt>
      <trkpt lat="48.84047" lon="2.29567">
        <ele>33.79999923706</ele>
        <time>2015-08-10T18:40:47Z</time>
      </trkpt>
      <trkpt lat="48.8404" lon="2.29547">
        <ele>33.400001525879</ele>
        <time>2015-08-10T18:40:50Z</time>
      </trkpt>
      <trkpt lat="48.84032" lon="2.29519">
        <ele>34</ele>
        <time>2015-08-10T18:40:54Z</time>
      </trkpt>
      <trkpt lat="48.84022" lon="2.2949">
        <ele>33.79999923706</ele>
        <time>2015-08-10T18:40:58Z</time>
      </trkpt>
      <trkpt lat="48.84016" lon="2.29465">
        <ele>33.79999923706</ele>
        <time>2015-08-10T18:41:01Z</time>
      </trkpt>
      <trkpt lat="48.84008" lon="2.29436">
        <ele>30.60000038147</ele>
        <time>2015-08-10T18:41:05Z</time>
      </trkpt>
      <trkpt lat="48.84" lon="2.29404">
        <ele>31.39999961853</ele>
        <time>2015-08-10T18:41:09Z</time>
      </trkpt>
      <trkpt lat="48.83989" lon="2.29373">
        <ele>32.400001525879</ele>
        <time>2015-08-10T18:41:13Z</time>
      </trkpt>
      <trkpt lat="48.83981" lon="2.29348">
        <ele>32.79999923706</ele>
        <time>2015-08-10T18:41:16Z</time>
      </trkpt>
      <trkpt lat="48.83971" lon="2.29323">
        <ele>31.39999961853</ele>
        <time>2015-08-10T18:41:19Z</time>
      </trkpt>
      <trkpt lat="48.83962" lon="2.29298">
        <ele>30.39999961853</ele>
        <time>2015-08-10T18:41:22Z</time>
      </trkpt>
      <trkpt lat="48.83951" lon="2.29265">
        <ele>29.799999237061</ele>
        <time>2015-08-10T18:41:26Z</time>
      </trkpt>
      <trkpt lat="48.83945" lon="2.29232">
        <ele>27.39999961853</ele>
        <time>2015-08-10T18:41:30Z</time>
      </trkpt>
      <trkpt lat="48.83937" lon="2.29206">
        <ele>26.60000038147</ele>
        <time>2015-08-10T18:41:34Z</time>
      </trkpt>
      <trkpt lat="48.83935" lon="2.29196">
        <ele>26.200000762939</ele>
        <time>2015-08-10T18:41:36Z</time>
      </trkpt>
      <trkpt lat="48.83926" lon="2.29168">
        <ele>25.799999237061</ele>
        <time>2015-08-10T18:41:41Z</time>
      </trkpt>
      <trkpt lat="48.8392" lon="2.29158">
        <ele>24.60000038147</ele>
        <time>2015-08-10T18:41:43Z</time>
      </trkpt>
      <trkpt lat="48.83912" lon="2.29129">
        <ele>24</ele>
        <time>2015-08-10T18:41:47Z</time>
      </trkpt>
      <trkpt lat="48.83904" lon="2.29099">
        <ele>23.799999237061</ele>
        <time>2015-08-10T18:41:51Z</time>
      </trkpt>
      <trkpt lat="48.83895" lon="2.29066">
        <ele>23.799999237061</ele>
        <time>2015-08-10T18:41:55Z</time>
      </trkpt>
      <trkpt lat="48.83887" lon="2.29038">
        <ele>24</ele>
        <time>2015-08-10T18:41:58Z</time>
      </trkpt>
      <trkpt lat="48.83889" lon="2.29018">
        <ele>25.200000762939</ele>
        <time>2015-08-10T18:42:00Z</time>
      </trkpt>
      <trkpt lat="48.83881" lon="2.28985">
        <ele>25.60000038147</ele>
        <time>2015-08-10T18:42:04Z</time>
      </trkpt>
      <trkpt lat="48.83868" lon="2.28957">
        <ele>28.200000762939</ele>
        <time>2015-08-10T18:42:08Z</time>
      </trkpt>
      <trkpt lat="48.83862" lon="2.28934">
        <ele>34.20000076294</ele>
        <time>2015-08-10T18:42:12Z</time>
      </trkpt>
      <trkpt lat="48.83855" lon="2.28908">
        <ele>36</ele>
        <time>2015-08-10T18:42:17Z</time>
      </trkpt>
      <trkpt lat="48.83852" lon="2.28896">
        <ele>36.599998474121</ele>
        <time>2015-08-10T18:42:19Z</time>
      </trkpt>
      <trkpt lat="48.83846" lon="2.28875">
        <ele>37.599998474121</ele>
        <time>2015-08-10T18:42:22Z</time>
      </trkpt>
      <trkpt lat="48.83838" lon="2.28844">
        <ele>39.599998474121</ele>
        <time>2015-08-10T18:42:26Z</time>
      </trkpt>
      <trkpt lat="48.83828" lon="2.28813">
        <ele>42.20000076294</ele>
        <time>2015-08-10T18:42:30Z</time>
      </trkpt>
      <trkpt lat="48.83818" lon="2.28781">
        <ele>43.79999923706</ele>
        <time>2015-08-10T18:42:34Z</time>
      </trkpt>
      <trkpt lat="48.83808" lon="2.28757">
        <ele>45</ele>
        <time>2015-08-10T18:42:37Z</time>
      </trkpt>
      <trkpt lat="48.838" lon="2.28723">
        <ele>48.400001525879</ele>
        <time>2015-08-10T18:42:41Z</time>
      </trkpt>
      <trkpt lat="48.83788" lon="2.28698">
        <ele>47.599998474121</ele>
        <time>2015-08-10T18:42:44Z</time>
      </trkpt>
      <trkpt lat="48.83783" lon="2.28674">
        <ele>48.20000076294</ele>
        <time>2015-08-10T18:42:47Z</time>
      </trkpt>
      <trkpt lat="48.83779" lon="2.28646">
        <ele>50</ele>
        <time>2015-08-10T18:42:50Z</time>
      </trkpt>
      <trkpt lat="48.83777" lon="2.28637">
        <ele>50.400001525879</ele>
        <time>2015-08-10T18:42:51Z</time>
      </trkpt>
      <trkpt lat="48.8377" lon="2.2861">
        <ele>51.400001525879</ele>
        <time>2015-08-10T18:42:54Z</time>
      </trkpt>
      <trkpt lat="48.83763" lon="2.28584">
        <ele>52</ele>
        <time>2015-08-10T18:42:57Z</time>
      </trkpt>
      <trkpt lat="48.8376" lon="2.28577">
        <ele>50.79999923706</ele>
        <time>2015-08-10T18:42:58Z</time>
      </trkpt>
      <trkpt lat="48.83745" lon="2.28547">
        <ele>49.599998474121</ele>
        <time>2015-08-10T18:43:02Z</time>
      </trkpt>
      <trkpt lat="48.83735" lon="2.28523">
        <ele>49</ele>
        <time>2015-08-10T18:43:05Z</time>
      </trkpt>
      <trkpt lat="48.83725" lon="2.28491">
        <ele>50.79999923706</ele>
        <time>2015-08-10T18:43:09Z</time>
      </trkpt>
      <trkpt lat="48.83717" lon="2.28465">
        <ele>51.599998474121</ele>
        <time>2015-08-10T18:43:12Z</time>
      </trkpt>
      <trkpt lat="48.83712" lon="2.28448">
        <ele>52.400001525879</ele>
        <time>2015-08-10T18:43:14Z</time>
      </trkpt>
      <trkpt lat="48.83705" lon="2.28423">
        <ele>53.400001525879</ele>
        <time>2015-08-10T18:43:17Z</time>
      </trkpt>
      <trkpt lat="48.83693" lon="2.28398">
        <ele>52</ele>
        <time>2015-08-10T18:43:20Z</time>
      </trkpt>
      <trkpt lat="48.83682" lon="2.28367">
        <ele>52.79999923706</ele>
        <time>2015-08-10T18:43:24Z</time>
      </trkpt>
      <trkpt lat="48.83675" lon="2.28342">
        <ele>53.20000076294</ele>
        <time>2015-08-10T18:43:27Z</time>
      </trkpt>
      <trkpt lat="48.83666" lon="2.28317">
        <ele>53.599998474121</ele>
        <time>2015-08-10T18:43:30Z</time>
      </trkpt>
      <trkpt lat="48.83656" lon="2.28293">
        <ele>54.20000076294</ele>
        <time>2015-08-10T18:43:33Z</time>
      </trkpt>
      <trkpt lat="48.83647" lon="2.28267">
        <ele>54.400001525879</ele>
        <time>2015-08-10T18:43:36Z</time>
      </trkpt>
      <trkpt lat="48.83643" lon="2.28259">
        <ele>54.599998474121</ele>
        <time>2015-08-10T18:43:37Z</time>
      </trkpt>
      <trkpt lat="48.83634" lon="2.28236">
        <ele>55.79999923706</ele>
        <time>2015-08-10T18:43:40Z</time>
      </trkpt>
      <trkpt lat="48.83622" lon="2.2821">
        <ele>57.599998474121</ele>
        <time>2015-08-10T18:43:44Z</time>
      </trkpt>
      <trkpt lat="48.83618" lon="2.28199">
        <ele>57.79999923706</ele>
        <time>2015-08-10T18:43:46Z</time>
      </trkpt>
      <trkpt lat="48.83606" lon="2.28177">
        <ele>57</ele>
        <time>2015-08-10T18:43:51Z</time>
      </trkpt>
      <trkpt lat="48.83606" lon="2.2817">
        <ele>56</ele>
        <time>2015-08-10T18:43:52Z</time>
      </trkpt>
      <trkpt lat="48.83605" lon="2.28165">
        <ele>55.400001525879</ele>
        <time>2015-08-10T18:43:53Z</time>
      </trkpt>
      <trkpt lat="48.83603" lon="2.28156">
        <ele>54.79999923706</ele>
        <time>2015-08-10T18:43:55Z</time>
      </trkpt>
      <trkpt lat="48.83604" lon="2.28151">
        <ele>53.599998474121</ele>
        <time>2015-08-10T18:44:00Z</time>
      </trkpt>
      <trkpt lat="48.83588" lon="2.2814">
        <ele>52.20000076294</ele>
        <time>2015-08-10T18:44:07Z</time>
      </trkpt>
      <trkpt lat="48.8357" lon="2.28125">
        <ele>54</ele>
        <time>2015-08-10T18:44:14Z</time>
      </trkpt>
      <trkpt lat="48.83555" lon="2.28105">
        <ele>44</ele>
        <time>2015-08-10T18:44:20Z</time>
      </trkpt>
      <trkpt lat="48.83549" lon="2.28082">
        <ele>38.20000076294</ele>
        <time>2015-08-10T18:44:40Z</time>
      </trkpt>
      <trkpt lat="48.83556" lon="2.28054">
        <ele>38.400001525879</ele>
        <time>2015-08-10T18:44:46Z</time>
      </trkpt>
      <trkpt lat="48.83564" lon="2.28022">
        <ele>37.79999923706</ele>
        <time>2015-08-10T18:44:51Z</time>
      </trkpt>
      <trkpt lat="48.83571" lon="2.27995">
        <ele>37.20000076294</ele>
        <time>2015-08-10T18:44:55Z</time>
      </trkpt>
      <trkpt lat="48.83579" lon="2.27963">
        <ele>37.79999923706</ele>
        <time>2015-08-10T18:45:00Z</time>
      </trkpt>
      <trkpt lat="48.83585" lon="2.27937">
        <ele>37.599998474121</ele>
        <time>2015-08-10T18:45:04Z</time>
      </trkpt>
      <trkpt lat="48.83589" lon="2.27905">
        <ele>37.79999923706</ele>
        <time>2015-08-10T18:45:09Z</time>
      </trkpt>
      <trkpt lat="48.83593" lon="2.27878">
        <ele>40.400001525879</ele>
        <time>2015-08-10T18:45:13Z</time>
      </trkpt>
      <trkpt lat="48.83595" lon="2.27872">
        <ele>42.400001525879</ele>
        <time>2015-08-10T18:45:14Z</time>
      </trkpt>
      <trkpt lat="48.83598" lon="2.27856">
        <ele>43.79999923706</ele>
        <time>2015-08-10T18:45:17Z</time>
      </trkpt>
      <trkpt lat="48.83607" lon="2.27824">
        <ele>43.400001525879</ele>
        <time>2015-08-10T18:45:22Z</time>
      </trkpt>
      <trkpt lat="48.83608" lon="2.27818">
        <ele>44.599998474121</ele>
        <time>2015-08-10T18:45:23Z</time>
      </trkpt>
      <trkpt lat="48.83614" lon="2.27791">
        <ele>46.79999923706</ele>
        <time>2015-08-10T18:45:27Z</time>
      </trkpt>
      <trkpt lat="48.83622" lon="2.27764">
        <ele>46.20000076294</ele>
        <time>2015-08-10T18:45:31Z</time>
      </trkpt>
      <trkpt lat="48.8363" lon="2.27733">
        <ele>46.79999923706</ele>
        <time>2015-08-10T18:45:35Z</time>
      </trkpt>
      <trkpt lat="48.83638" lon="2.27703">
        <ele>46.79999923706</ele>
        <time>2015-08-10T18:45:39Z</time>
      </trkpt>
      <trkpt lat="48.83643" lon="2.2767">
        <ele>47</ele>
        <time>2015-08-10T18:45:43Z</time>
      </trkpt>
      <trkpt lat="48.8365" lon="2.27642">
        <ele>45.400001525879</ele>
        <time>2015-08-10T18:45:46Z</time>
      </trkpt>
      <trkpt lat="48.83653" lon="2.27614">
        <ele>47.400001525879</ele>
        <time>2015-08-10T18:45:49Z</time>
      </trkpt>
      <trkpt lat="48.83657" lon="2.27586">
        <ele>48.79999923706</ele>
        <time>2015-08-10T18:45:52Z</time>
      </trkpt>
      <trkpt lat="48.83661" lon="2.27556">
        <ele>48.599998474121</ele>
        <time>2015-08-10T18:45:55Z</time>
      </trkpt>
      <trkpt lat="48.83667" lon="2.27526">
        <ele>49.20000076294</ele>
        <time>2015-08-10T18:45:58Z</time>
      </trkpt>
      <trkpt lat="48.83674" lon="2.27495">
        <ele>49</ele>
        <time>2015-08-10T18:46:01Z</time>
      </trkpt>
      <trkpt lat="48.8368" lon="2.27465">
        <ele>48.79999923706</ele>
        <time>2015-08-10T18:46:04Z</time>
      </trkpt>
      <trkpt lat="48.83685" lon="2.27435">
        <ele>48</ele>
        <time>2015-08-10T18:46:08Z</time>
      </trkpt>
      <trkpt lat="48.83689" lon="2.27426">
        <ele>49.20000076294</ele>
        <time>2015-08-10T18:46:10Z</time>
      </trkpt>
      <trkpt lat="48.83692" lon="2.27412">
        <ele>49</ele>
        <time>2015-08-10T18:46:14Z</time>
      </trkpt>
      <trkpt lat="48.83704" lon="2.27414">
        <ele>51</ele>
        <time>2015-08-10T18:46:26Z</time>
      </trkpt>
      <trkpt lat="48.83698" lon="2.27404">
        <ele>45.599998474121</ele>
        <time>2015-08-10T18:46:45Z</time>
      </trkpt>
      <trkpt lat="48.83693" lon="2.27425">
        <ele>42.20000076294</ele>
        <time>2015-08-10T18:47:40Z</time>
      </trkpt>
      <trkpt lat="48.83695" lon="2.2744">
        <ele>41.20000076294</ele>
        <time>2015-08-10T18:47:46Z</time>
      </trkpt>
      <trkpt lat="48.83691" lon="2.27467">
        <ele>40.400001525879</ele>
        <time>2015-08-10T18:47:52Z</time>
      </trkpt>
      <trkpt lat="48.83687" lon="2.27496">
        <ele>41.20000076294</ele>
        <time>2015-08-10T18:47:56Z</time>
      </trkpt>
      <trkpt lat="48.83682" lon="2.27522">
        <ele>42.400001525879</ele>
        <time>2015-08-10T18:48:00Z</time>
      </trkpt>
      <trkpt lat="48.83677" lon="2.27552">
        <ele>43.79999923706</ele>
        <time>2015-08-10T18:48:05Z</time>
      </trkpt>
      <trkpt lat="48.83671" lon="2.27581">
        <ele>45.400001525879</ele>
        <time>2015-08-10T18:48:10Z</time>
      </trkpt>
      <trkpt lat="48.83666" lon="2.27612">
        <ele>47.400001525879</ele>
        <time>2015-08-10T18:48:15Z</time>
      </trkpt>
      <trkpt lat="48.83662" lon="2.2764">
        <ele>49</ele>
        <time>2015-08-10T18:48:19Z</time>
      </trkpt>
      <trkpt lat="48.83655" lon="2.27671">
        <ele>50.20000076294</ele>
        <time>2015-08-10T18:48:23Z</time>
      </trkpt>
      <trkpt lat="48.8365" lon="2.27701">
        <ele>51.20000076294</ele>
        <time>2015-08-10T18:48:27Z</time>
      </trkpt>
      <trkpt lat="48.83644" lon="2.2773">
        <ele>51.599998474121</ele>
        <time>2015-08-10T18:48:31Z</time>
      </trkpt>
      <trkpt lat="48.83637" lon="2.27759">
        <ele>52.400001525879</ele>
        <time>2015-08-10T18:48:35Z</time>
      </trkpt>
      <trkpt lat="48.83629" lon="2.27788">
        <ele>53</ele>
        <time>2015-08-10T18:48:39Z</time>
      </trkpt>
      <trkpt lat="48.83611" lon="2.27801">
        <ele>46.79999923706</ele>
        <time>2015-08-10T18:48:42Z</time>
      </trkpt>
      <trkpt lat="48.836" lon="2.278">
        <ele>45.20000076294</ele>
        <time>2015-08-10T18:48:44Z</time>
      </trkpt>
      <trkpt lat="48.83595" lon="2.278">
        <ele>44</ele>
        <time>2015-08-10T18:48:45Z</time>
      </trkpt>
      <trkpt lat="48.83574" lon="2.27792">
        <ele>42.400001525879</ele>
        <time>2015-08-10T18:48:49Z</time>
      </trkpt>
      <trkpt lat="48.83551" lon="2.27781">
        <ele>38.599998474121</ele>
        <time>2015-08-10T18:48:53Z</time>
      </trkpt>
      <trkpt lat="48.8353" lon="2.27771">
        <ele>35.79999923706</ele>
        <time>2015-08-10T18:48:57Z</time>
      </trkpt>
      <trkpt lat="48.83509" lon="2.27764">
        <ele>34</ele>
        <time>2015-08-10T18:49:01Z</time>
      </trkpt>
      <trkpt lat="48.83488" lon="2.27755">
        <ele>32</ele>
        <time>2015-08-10T18:49:05Z</time>
      </trkpt>
      <trkpt lat="48.83466" lon="2.27745">
        <ele>32</ele>
        <time>2015-08-10T18:49:09Z</time>
      </trkpt>
      <trkpt lat="48.8345" lon="2.27736">
        <ele>30.799999237061</ele>
        <time>2015-08-10T18:49:12Z</time>
      </trkpt>
      <trkpt lat="48.8343" lon="2.27725">
        <ele>29</ele>
        <time>2015-08-10T18:49:16Z</time>
      </trkpt>
      <trkpt lat="48.83412" lon="2.27715">
        <ele>29.39999961853</ele>
        <time>2015-08-10T18:49:20Z</time>
      </trkpt>
      <trkpt lat="48.83393" lon="2.27705">
        <ele>31</ele>
        <time>2015-08-10T18:49:25Z</time>
      </trkpt>
      <trkpt lat="48.83375" lon="2.27697">
        <ele>30.60000038147</ele>
        <time>2015-08-10T18:49:29Z</time>
      </trkpt>
      <trkpt lat="48.83366" lon="2.2767">
        <ele>29.39999961853</ele>
        <time>2015-08-10T18:49:33Z</time>
      </trkpt>
      <trkpt lat="48.83365" lon="2.27663">
        <ele>29</ele>
        <time>2015-08-10T18:49:34Z</time>
      </trkpt>
      <trkpt lat="48.83359" lon="2.27646">
        <ele>27.39999961853</ele>
        <time>2015-08-10T18:49:37Z</time>
      </trkpt>
      <trkpt lat="48.83342" lon="2.27629">
        <ele>26</ele>
        <time>2015-08-10T18:49:43Z</time>
      </trkpt>
      <trkpt lat="48.83326" lon="2.2764">
        <ele>26.39999961853</ele>
        <time>2015-08-10T18:49:48Z</time>
      </trkpt>
      <trkpt lat="48.83322" lon="2.27647">
        <ele>26</ele>
        <time>2015-08-10T18:49:50Z</time>
      </trkpt>
      <trkpt lat="48.83316" lon="2.27658">
        <ele>26</ele>
        <time>2015-08-10T18:49:53Z</time>
      </trkpt>
      <trkpt lat="48.83309" lon="2.27662">
        <ele>25.39999961853</ele>
        <time>2015-08-10T18:49:59Z</time>
      </trkpt>
      <trkpt lat="48.8329" lon="2.27648">
        <ele>25.799999237061</ele>
        <time>2015-08-10T18:50:20Z</time>
      </trkpt>
      <trkpt lat="48.83274" lon="2.27634">
        <ele>26.60000038147</ele>
        <time>2015-08-10T18:50:24Z</time>
      </trkpt>
      <trkpt lat="48.83259" lon="2.27615">
        <ele>27</ele>
        <time>2015-08-10T18:50:28Z</time>
      </trkpt>
      <trkpt lat="48.83256" lon="2.27582">
        <ele>27.60000038147</ele>
        <time>2015-08-10T18:50:32Z</time>
      </trkpt>
      <trkpt lat="48.83256" lon="2.27545">
        <ele>27.60000038147</ele>
        <time>2015-08-10T18:50:36Z</time>
      </trkpt>
      <trkpt lat="48.83254" lon="2.27529">
        <ele>27.200000762939</ele>
        <time>2015-08-10T18:50:38Z</time>
      </trkpt>
      <trkpt lat="48.8325" lon="2.27512">
        <ele>27.39999961853</ele>
        <time>2015-08-10T18:50:40Z</time>
      </trkpt>
      <trkpt lat="48.8324" lon="2.27489">
        <ele>26.799999237061</ele>
        <time>2015-08-10T18:50:43Z</time>
      </trkpt>
      <trkpt lat="48.83234" lon="2.27474">
        <ele>25.39999961853</ele>
        <time>2015-08-10T18:50:45Z</time>
      </trkpt>
      <trkpt lat="48.83224" lon="2.2745">
        <ele>23.60000038147</ele>
        <time>2015-08-10T18:50:48Z</time>
      </trkpt>
      <trkpt lat="48.83214" lon="2.27427">
        <ele>23.39999961853</ele>
        <time>2015-08-10T18:50:51Z</time>
      </trkpt>
      <trkpt lat="48.83211" lon="2.27418">
        <ele>23</ele>
        <time>2015-08-10T18:50:52Z</time>
      </trkpt>
      <trkpt lat="48.83205" lon="2.27384">
        <ele>21.799999237061</ele>
        <time>2015-08-10T18:50:56Z</time>
      </trkpt>
      <trkpt lat="48.83204" lon="2.27376">
        <ele>21.60000038147</ele>
        <time>2015-08-10T18:50:57Z</time>
      </trkpt>
      <trkpt lat="48.83203" lon="2.27342">
        <ele>20.39999961853</ele>
        <time>2015-08-10T18:51:01Z</time>
      </trkpt>
      <trkpt lat="48.83205" lon="2.2731">
        <ele>19.200000762939</ele>
        <time>2015-08-10T18:51:05Z</time>
      </trkpt>
      <trkpt lat="48.8321" lon="2.27276">
        <ele>20</ele>
        <time>2015-08-10T18:51:09Z</time>
      </trkpt>
      <trkpt lat="48.83212" lon="2.27261">
        <ele>20</ele>
        <time>2015-08-10T18:51:11Z</time>
      </trkpt>
      <trkpt lat="48.83216" lon="2.27228">
        <ele>20.799999237061</ele>
        <time>2015-08-10T18:51:15Z</time>
      </trkpt>
      <trkpt lat="48.83213" lon="2.27194">
        <ele>22.200000762939</ele>
        <time>2015-08-10T18:51:19Z</time>
      </trkpt>
      <trkpt lat="48.8321" lon="2.27177">
        <ele>22.60000038147</ele>
        <time>2015-08-10T18:51:21Z</time>
      </trkpt>
      <trkpt lat="48.83202" lon="2.27153">
        <ele>23.200000762939</ele>
        <time>2015-08-10T18:51:24Z</time>
      </trkpt>
      <trkpt lat="48.83198" lon="2.27145">
        <ele>23.60000038147</ele>
        <time>2015-08-10T18:51:25Z</time>
      </trkpt>
      <trkpt lat="48.83194" lon="2.27138">
        <ele>23.39999961853</ele>
        <time>2015-08-10T18:51:26Z</time>
      </trkpt>
      <trkpt lat="48.83183" lon="2.27107">
        <ele>23.200000762939</ele>
        <time>2015-08-10T18:51:30Z</time>
      </trkpt>
      <trkpt lat="48.83181" lon="2.27089">
        <ele>22.799999237061</ele>
        <time>2015-08-10T18:51:32Z</time>
      </trkpt>
      <trkpt lat="48.83181" lon="2.27053">
        <ele>22.39999961853</ele>
        <time>2015-08-10T18:51:36Z</time>
      </trkpt>
      <trkpt lat="48.83181" lon="2.27037">
        <ele>23.200000762939</ele>
        <time>2015-08-10T18:51:38Z</time>
      </trkpt>
      <trkpt lat="48.83176" lon="2.27013">
        <ele>24</ele>
        <time>2015-08-10T18:51:41Z</time>
      </trkpt>
      <trkpt lat="48.83166" lon="2.26986">
        <ele>24.60000038147</ele>
        <time>2015-08-10T18:51:45Z</time>
      </trkpt>
      <trkpt lat="48.83149" lon="2.26964">
        <ele>25.39999961853</ele>
        <time>2015-08-10T18:51:49Z</time>
      </trkpt>
      <trkpt lat="48.8314" lon="2.26954">
        <ele>25.799999237061</ele>
        <time>2015-08-10T18:51:51Z</time>
      </trkpt>
      <trkpt lat="48.83129" lon="2.26925">
        <ele>26.200000762939</ele>
        <time>2015-08-10T18:51:55Z</time>
      </trkpt>
      <trkpt lat="48.83126" lon="2.26918">
        <ele>26.200000762939</ele>
        <time>2015-08-10T18:51:56Z</time>
      </trkpt>
      <trkpt lat="48.83121" lon="2.26905">
        <ele>26.799999237061</ele>
        <time>2015-08-10T18:51:58Z</time>
      </trkpt>
      <trkpt lat="48.83105" lon="2.26887">
        <ele>26.200000762939</ele>
        <time>2015-08-10T18:52:02Z</time>
      </trkpt>
      <trkpt lat="48.83105" lon="2.26862">
        <ele>25.60000038147</ele>
        <time>2015-08-10T18:52:06Z</time>
      </trkpt>
      <trkpt lat="48.83121" lon="2.26848">
        <ele>24.39999961853</ele>
        <time>2015-08-10T18:52:10Z</time>
      </trkpt>
      <trkpt lat="48.83134" lon="2.26825">
        <ele>23.39999961853</ele>
        <time>2015-08-10T18:52:14Z</time>
      </trkpt>
      <trkpt lat="48.83131" lon="2.26795">
        <ele>22.39999961853</ele>
        <time>2015-08-10T18:52:18Z</time>
      </trkpt>
      <trkpt lat="48.83119" lon="2.26777">
        <ele>23.60000038147</ele>
        <time>2015-08-10T18:52:21Z</time>
      </trkpt>
      <trkpt lat="48.83115" lon="2.26772">
        <ele>23.799999237061</ele>
        <time>2015-08-10T18:52:22Z</time>
      </trkpt>
      <trkpt lat="48.83094" lon="2.26757">
        <ele>23.799999237061</ele>
        <time>2015-08-10T18:52:26Z</time>
      </trkpt>
      <trkpt lat="48.83088" lon="2.26756">
        <ele>23.799999237061</ele>
        <time>2015-08-10T18:52:27Z</time>
      </trkpt>
      <trkpt lat="48.83071" lon="2.26757">
        <ele>24</ele>
        <time>2015-08-10T18:52:30Z</time>
      </trkpt>
      <trkpt lat="48.83051" lon="2.26766">
        <ele>24</ele>
        <time>2015-08-10T18:52:34Z</time>
      </trkpt>
      <trkpt lat="48.83031" lon="2.26777">
        <ele>22.200000762939</ele>
        <time>2015-08-10T18:52:38Z</time>
      </trkpt>
      <trkpt lat="48.8302" lon="2.26779">
        <ele>21.60000038147</ele>
        <time>2015-08-10T18:52:40Z</time>
      </trkpt>
      <trkpt lat="48.82998" lon="2.26782">
        <ele>20.39999961853</ele>
        <time>2015-08-10T18:52:44Z</time>
      </trkpt>
      <trkpt lat="48.82976" lon="2.26784">
        <ele>20</ele>
        <time>2015-08-10T18:52:48Z</time>
      </trkpt>
      <trkpt lat="48.82953" lon="2.26786">
        <ele>18.60000038147</ele>
        <time>2015-08-10T18:52:52Z</time>
      </trkpt>
      <trkpt lat="48.82946" lon="2.26786">
        <ele>18.200000762939</ele>
        <time>2015-08-10T18:52:53Z</time>
      </trkpt>
      <trkpt lat="48.82929" lon="2.26794">
        <ele>17.39999961853</ele>
        <time>2015-08-10T18:52:56Z</time>
      </trkpt>
      <trkpt lat="48.8292" lon="2.26817">
        <ele>16.799999237061</ele>
        <time>2015-08-10T18:52:59Z</time>
      </trkpt>
      <trkpt lat="48.82918" lon="2.26846">
        <ele>15.800000190735</ele>
        <time>2015-08-10T18:53:03Z</time>
      </trkpt>
      <trkpt lat="48.82908" lon="2.26875">
        <ele>14.60000038147</ele>
        <time>2015-08-10T18:53:08Z</time>
      </trkpt>
      <trkpt lat="48.82901" lon="2.26883">
        <ele>14</ele>
        <time>2015-08-10T18:53:10Z</time>
      </trkpt>
      <trkpt lat="48.82894" lon="2.26893">
        <ele>14</ele>
        <time>2015-08-10T18:53:12Z</time>
      </trkpt>
      <trkpt lat="48.82884" lon="2.26917">
        <ele>14.800000190735</ele>
        <time>2015-08-10T18:53:16Z</time>
      </trkpt>
      <trkpt lat="48.82885" lon="2.26945">
        <ele>14.199999809265</ele>
        <time>2015-08-10T18:53:20Z</time>
      </trkpt>
      <trkpt lat="48.82898" lon="2.26966">
        <ele>13.800000190735</ele>
        <time>2015-08-10T18:53:24Z</time>
      </trkpt>
      <trkpt lat="48.82914" lon="2.26989">
        <ele>12.39999961853</ele>
        <time>2015-08-10T18:53:28Z</time>
      </trkpt>
      <trkpt lat="48.82929" lon="2.27014">
        <ele>11.39999961853</ele>
        <time>2015-08-10T18:53:32Z</time>
      </trkpt>
      <trkpt lat="48.82939" lon="2.27037">
        <ele>11</ele>
        <time>2015-08-10T18:53:35Z</time>
      </trkpt>
      <trkpt lat="48.82946" lon="2.27063">
        <ele>10.60000038147</ele>
        <time>2015-08-10T18:53:38Z</time>
      </trkpt>
      <trkpt lat="48.82951" lon="2.27091">
        <ele>10.60000038147</ele>
        <time>2015-08-10T18:53:41Z</time>
      </trkpt>
      <trkpt lat="48.82954" lon="2.2712">
        <ele>10.39999961853</ele>
        <time>2015-08-10T18:53:44Z</time>
      </trkpt>
      <trkpt lat="48.82958" lon="2.27148">
        <ele>10</ele>
        <time>2015-08-10T18:53:47Z</time>
      </trkpt>
      <trkpt lat="48.82964" lon="2.27175">
        <ele>11.800000190735</ele>
        <time>2015-08-10T18:53:50Z</time>
      </trkpt>
      <trkpt lat="48.8297" lon="2.27206">
        <ele>12.39999961853</ele>
        <time>2015-08-10T18:53:54Z</time>
      </trkpt>
      <trkpt lat="48.82977" lon="2.2724">
        <ele>13</ele>
        <time>2015-08-10T18:53:58Z</time>
      </trkpt>
      <trkpt lat="48.82985" lon="2.27271">
        <ele>12.39999961853</ele>
        <time>2015-08-10T18:54:02Z</time>
      </trkpt>
      <trkpt lat="48.82993" lon="2.27302">
        <ele>12.199999809265</ele>
        <time>2015-08-10T18:54:06Z</time>
      </trkpt>
      <trkpt lat="48.83003" lon="2.2733">
        <ele>11</ele>
        <time>2015-08-10T18:54:11Z</time>
      </trkpt>
      <trkpt lat="48.83006" lon="2.27335">
        <ele>10.800000190735</ele>
        <time>2015-08-10T18:54:12Z</time>
      </trkpt>
      <trkpt lat="48.83017" lon="2.2736">
        <ele>9.3999996185303</ele>
        <time>2015-08-10T18:54:18Z</time>
      </trkpt>
      <trkpt lat="48.83024" lon="2.27367">
        <ele>10.199999809265</ele>
        <time>2015-08-10T18:54:21Z</time>
      </trkpt>
      <trkpt lat="48.83034" lon="2.27363">
        <ele>11</ele>
        <time>2015-08-10T18:54:25Z</time>
      </trkpt>
      <trkpt lat="48.8304" lon="2.27361">
        <ele>11.800000190735</ele>
        <time>2015-08-10T18:54:27Z</time>
      </trkpt>
      <trkpt lat="48.83046" lon="2.2736">
        <ele>12.199999809265</ele>
        <time>2015-08-10T18:54:29Z</time>
      </trkpt>
      <trkpt lat="48.83066" lon="2.27355">
        <ele>15</ele>
        <time>2015-08-10T18:54:34Z</time>
      </trkpt>
      <trkpt lat="48.83076" lon="2.27351">
        <ele>17</ele>
        <time>2015-08-10T18:54:37Z</time>
      </trkpt>
      <trkpt lat="48.83081" lon="2.27351">
        <ele>17</ele>
        <time>2015-08-10T18:54:39Z</time>
      </trkpt>
      <trkpt lat="48.83092" lon="2.27345">
        <ele>18.60000038147</ele>
        <time>2015-08-10T18:54:46Z</time>
      </trkpt>
      <trkpt lat="48.83095" lon="2.2734">
        <ele>19.200000762939</ele>
        <time>2015-08-10T18:54:48Z</time>
      </trkpt>
      <trkpt lat="48.83107" lon="2.27321">
        <ele>19</ele>
        <time>2015-08-10T18:54:55Z</time>
      </trkpt>
      <trkpt lat="48.83121" lon="2.27331">
        <ele>18.200000762939</ele>
        <time>2015-08-10T18:55:01Z</time>
      </trkpt>
      <trkpt lat="48.83125" lon="2.27329">
        <ele>18.39999961853</ele>
        <time>2015-08-10T18:55:02Z</time>
      </trkpt>
      <trkpt lat="48.83145" lon="2.27319">
        <ele>19.60000038147</ele>
        <time>2015-08-10T18:55:07Z</time>
      </trkpt>
      <trkpt lat="48.83163" lon="2.27308">
        <ele>20</ele>
        <time>2015-08-10T18:55:12Z</time>
      </trkpt>
      <trkpt lat="48.8318" lon="2.27299">
        <ele>20.799999237061</ele>
        <time>2015-08-10T18:55:17Z</time>
      </trkpt>
      <trkpt lat="48.832" lon="2.27289">
        <ele>20.799999237061</ele>
        <time>2015-08-10T18:55:23Z</time>
      </trkpt>
      <trkpt lat="48.83205" lon="2.2729">
        <ele>20.39999961853</ele>
        <time>2015-08-10T18:55:25Z</time>
      </trkpt>
      <trkpt lat="48.83208" lon="2.27302">
        <ele>20.799999237061</ele>
        <time>2015-08-10T18:55:29Z</time>
      </trkpt>
      <trkpt lat="48.83207" lon="2.27311">
        <ele>20</ele>
        <time>2015-08-10T18:55:34Z</time>
      </trkpt>
      <trkpt lat="48.83208" lon="2.27288">
        <ele>20.39999961853</ele>
        <time>2015-08-10T18:56:09Z</time>
      </trkpt>
      <trkpt lat="48.83213" lon="2.27259">
        <ele>20.39999961853</ele>
        <time>2015-08-10T18:56:15Z</time>
      </trkpt>
      <trkpt lat="48.83217" lon="2.27229">
        <ele>19.799999237061</ele>
        <time>2015-08-10T18:56:21Z</time>
      </trkpt>
      <trkpt lat="48.83215" lon="2.27196">
        <ele>19.39999961853</ele>
        <time>2015-08-10T18:56:27Z</time>
      </trkpt>
      <trkpt lat="48.8321" lon="2.27167">
        <ele>19.200000762939</ele>
        <time>2015-08-10T18:56:32Z</time>
      </trkpt>
      <trkpt lat="48.832" lon="2.27144">
        <ele>20</ele>
        <time>2015-08-10T18:56:36Z</time>
      </trkpt>
      <trkpt lat="48.83188" lon="2.27116">
        <ele>20.39999961853</ele>
        <time>2015-08-10T18:56:41Z</time>
      </trkpt>
      <trkpt lat="48.83183" lon="2.27087">
        <ele>20.200000762939</ele>
        <time>2015-08-10T18:56:46Z</time>
      </trkpt>
      <trkpt lat="48.83182" lon="2.27055">
        <ele>20.39999961853</ele>
        <time>2015-08-10T18:56:51Z</time>
      </trkpt>
      <trkpt lat="48.83185" lon="2.27029">
        <ele>22</ele>
        <time>2015-08-10T18:56:57Z</time>
      </trkpt>
      <trkpt lat="48.83202" lon="2.27013">
        <ele>24.39999961853</ele>
        <time>2015-08-10T18:57:06Z</time>
      </trkpt>
      <trkpt lat="48.83217" lon="2.26994">
        <ele>24.60000038147</ele>
        <time>2015-08-10T18:57:13Z</time>
      </trkpt>
      <trkpt lat="48.83232" lon="2.26973">
        <ele>23.39999961853</ele>
        <time>2015-08-10T18:57:19Z</time>
      </trkpt>
      <trkpt lat="48.83248" lon="2.26953">
        <ele>22.39999961853</ele>
        <time>2015-08-10T18:57:25Z</time>
      </trkpt>
      <trkpt lat="48.83262" lon="2.26935">
        <ele>20.799999237061</ele>
        <time>2015-08-10T18:57:36Z</time>
      </trkpt>
      <trkpt lat="48.83268" lon="2.26926">
        <ele>21.799999237061</ele>
        <time>2015-08-10T18:57:54Z</time>
      </trkpt>
      <trkpt lat="48.83262" lon="2.26904">
        <ele>22.200000762939</ele>
        <time>2015-08-10T18:58:30Z</time>
      </trkpt>
      <trkpt lat="48.83249" lon="2.26881">
        <ele>22</ele>
        <time>2015-08-10T18:58:35Z</time>
      </trkpt>
      <trkpt lat="48.83237" lon="2.2686">
        <ele>23.200000762939</ele>
        <time>2015-08-10T18:58:39Z</time>
      </trkpt>
      <trkpt lat="48.83223" lon="2.26836">
        <ele>23.799999237061</ele>
        <time>2015-08-10T18:58:43Z</time>
      </trkpt>
      <trkpt lat="48.8321" lon="2.26811">
        <ele>25</ele>
        <time>2015-08-10T18:58:47Z</time>
      </trkpt>
      <trkpt lat="48.83195" lon="2.26789">
        <ele>26.200000762939</ele>
        <time>2015-08-10T18:58:51Z</time>
      </trkpt>
      <trkpt lat="48.83182" lon="2.26767">
        <ele>27.39999961853</ele>
        <time>2015-08-10T18:58:55Z</time>
      </trkpt>
      <trkpt lat="48.83167" lon="2.26743">
        <ele>27.60000038147</ele>
        <time>2015-08-10T18:59:00Z</time>
      </trkpt>
      <trkpt lat="48.83165" lon="2.26739">
        <ele>27</ele>
        <time>2015-08-10T18:59:01Z</time>
      </trkpt>
      <trkpt lat="48.83157" lon="2.26728">
        <ele>27</ele>
        <time>2015-08-10T18:59:04Z</time>
      </trkpt>
      <trkpt lat="48.83151" lon="2.26721">
        <ele>27.200000762939</ele>
        <time>2015-08-10T18:59:06Z</time>
      </trkpt>
      <trkpt lat="48.83137" lon="2.26699">
        <ele>28</ele>
        <time>2015-08-10T18:59:11Z</time>
      </trkpt>
      <trkpt lat="48.8312" lon="2.26678">
        <ele>29.799999237061</ele>
        <time>2015-08-10T18:59:16Z</time>
      </trkpt>
      <trkpt lat="48.83116" lon="2.26674">
        <ele>30.200000762939</ele>
        <time>2015-08-10T18:59:17Z</time>
      </trkpt>
      <trkpt lat="48.83101" lon="2.26656">
        <ele>32.79999923706</ele>
        <time>2015-08-10T18:59:21Z</time>
      </trkpt>
      <trkpt lat="48.83086" lon="2.26633">
        <ele>33.79999923706</ele>
        <time>2015-08-10T18:59:25Z</time>
      </trkpt>
      <trkpt lat="48.83074" lon="2.2662">
        <ele>35.400001525879</ele>
        <time>2015-08-10T18:59:28Z</time>
      </trkpt>
      <trkpt lat="48.83062" lon="2.26605">
        <ele>36</ele>
        <time>2015-08-10T18:59:31Z</time>
      </trkpt>
      <trkpt lat="48.83044" lon="2.26583">
        <ele>36.599998474121</ele>
        <time>2015-08-10T18:59:35Z</time>
      </trkpt>
      <trkpt lat="48.83032" lon="2.26565">
        <ele>37.20000076294</ele>
        <time>2015-08-10T18:59:38Z</time>
      </trkpt>
      <trkpt lat="48.8302" lon="2.26543">
        <ele>44.599998474121</ele>
        <time>2015-08-10T18:59:42Z</time>
      </trkpt>
      <trkpt lat="48.83005" lon="2.26525">
        <ele>45</ele>
        <time>2015-08-10T18:59:45Z</time>
      </trkpt>
      <trkpt lat="48.83002" lon="2.26518">
        <ele>46</ele>
        <time>2015-08-10T18:59:46Z</time>
      </trkpt>
      <trkpt lat="48.82992" lon="2.26501">
        <ele>50.400001525879</ele>
        <time>2015-08-10T18:59:49Z</time>
      </trkpt>
      <trkpt lat="48.82973" lon="2.26485">
        <ele>55.79999923706</ele>
        <time>2015-08-10T18:59:54Z</time>
      </trkpt>
      <trkpt lat="48.82966" lon="2.26475">
        <ele>56.599998474121</ele>
        <time>2015-08-10T18:59:56Z</time>
      </trkpt>
      <trkpt lat="48.82953" lon="2.26456">
        <ele>57.599998474121</ele>
        <time>2015-08-10T19:00:00Z</time>
      </trkpt>
      <trkpt lat="48.82942" lon="2.26443">
        <ele>58.20000076294</ele>
        <time>2015-08-10T19:00:03Z</time>
      </trkpt>
      <trkpt lat="48.82926" lon="2.26432">
        <ele>58</ele>
        <time>2015-08-10T19:00:08Z</time>
      </trkpt>
      <trkpt lat="48.82917" lon="2.26419">
        <ele>58.79999923706</ele>
        <time>2015-08-10T19:00:13Z</time>
      </trkpt>
      <trkpt lat="48.82916" lon="2.26413">
        <ele>59.400001525879</ele>
        <time>2015-08-10T19:00:15Z</time>
      </trkpt>
      <trkpt lat="48.82916" lon="2.26408">
        <ele>60</ele>
        <time>2015-08-10T19:00:17Z</time>
      </trkpt>
      <trkpt lat="48.8291" lon="2.26378">
        <ele>61.400001525879</ele>
        <time>2015-08-10T19:00:23Z</time>
      </trkpt>
      <trkpt lat="48.82907" lon="2.26374">
        <ele>61.599998474121</ele>
        <time>2015-08-10T19:00:24Z</time>
      </trkpt>
      <trkpt lat="48.82903" lon="2.26368">
        <ele>60.599998474121</ele>
        <time>2015-08-10T19:00:25Z</time>
      </trkpt>
      <trkpt lat="48.82889" lon="2.26346">
        <ele>57.400001525879</ele>
        <time>2015-08-10T19:00:29Z</time>
      </trkpt>
      <trkpt lat="48.82877" lon="2.26328">
        <ele>55</ele>
        <time>2015-08-10T19:00:32Z</time>
      </trkpt>
      <trkpt lat="48.82863" lon="2.26303">
        <ele>53.79999923706</ele>
        <time>2015-08-10T19:00:36Z</time>
      </trkpt>
      <trkpt lat="48.82846" lon="2.26278">
        <ele>51.599998474121</ele>
        <time>2015-08-10T19:00:40Z</time>
      </trkpt>
      <trkpt lat="48.82831" lon="2.26254">
        <ele>51.79999923706</ele>
        <time>2015-08-10T19:00:44Z</time>
      </trkpt>
      <trkpt lat="48.82817" lon="2.26234">
        <ele>52.400001525879</ele>
        <time>2015-08-10T19:00:47Z</time>
      </trkpt>
      <trkpt lat="48.82802" lon="2.26211">
        <ele>51</ele>
        <time>2015-08-10T19:00:50Z</time>
      </trkpt>
      <trkpt lat="48.82786" lon="2.26188">
        <ele>48</ele>
        <time>2015-08-10T19:00:53Z</time>
      </trkpt>
      <trkpt lat="48.82768" lon="2.26165">
        <ele>43</ele>
        <time>2015-08-10T19:00:56Z</time>
      </trkpt>
      <trkpt lat="48.82757" lon="2.26141">
        <ele>40.400001525879</ele>
        <time>2015-08-10T19:00:59Z</time>
      </trkpt>
      <trkpt lat="48.82743" lon="2.26115">
        <ele>37.400001525879</ele>
        <time>2015-08-10T19:01:03Z</time>
      </trkpt>
      <trkpt lat="48.82739" lon="2.26109">
        <ele>36.79999923706</ele>
        <time>2015-08-10T19:01:04Z</time>
      </trkpt>
      <trkpt lat="48.82729" lon="2.26092">
        <ele>34.20000076294</ele>
        <time>2015-08-10T19:01:07Z</time>
      </trkpt>
      <trkpt lat="48.82722" lon="2.26075">
        <ele>31.60000038147</ele>
        <time>2015-08-10T19:01:11Z</time>
      </trkpt>
      <trkpt lat="48.82721" lon="2.26074">
        <ele>31</ele>
        <time>2015-08-10T19:01:12Z</time>
      </trkpt>
      <trkpt lat="48.82708" lon="2.26056">
        <ele>29.39999961853</ele>
        <time>2015-08-10T19:01:19Z</time>
      </trkpt>
      <trkpt lat="48.82703" lon="2.26047">
        <ele>29.200000762939</ele>
        <time>2015-08-10T19:01:21Z</time>
      </trkpt>
      <trkpt lat="48.82692" lon="2.26029">
        <ele>28.60000038147</ele>
        <time>2015-08-10T19:01:25Z</time>
      </trkpt>
      <trkpt lat="48.82677" lon="2.26009">
        <ele>28.60000038147</ele>
        <time>2015-08-10T19:01:29Z</time>
      </trkpt>
      <trkpt lat="48.82665" lon="2.2599">
        <ele>29.799999237061</ele>
        <time>2015-08-10T19:01:33Z</time>
      </trkpt>
      <trkpt lat="48.82657" lon="2.2597">
        <ele>29.200000762939</ele>
        <time>2015-08-10T19:01:38Z</time>
      </trkpt>
      <trkpt lat="48.82646" lon="2.25954">
        <ele>28.200000762939</ele>
        <time>2015-08-10T19:01:41Z</time>
      </trkpt>
      <trkpt lat="48.82632" lon="2.25933">
        <ele>29.200000762939</ele>
        <time>2015-08-10T19:01:45Z</time>
      </trkpt>
      <trkpt lat="48.82615" lon="2.25912">
        <ele>29.200000762939</ele>
        <time>2015-08-10T19:01:49Z</time>
      </trkpt>
      <trkpt lat="48.826" lon="2.25894">
        <ele>29</ele>
        <time>2015-08-10T19:01:52Z</time>
      </trkpt>
      <trkpt lat="48.82581" lon="2.25872">
        <ele>28.200000762939</ele>
        <time>2015-08-10T19:01:56Z</time>
      </trkpt>
      <trkpt lat="48.82565" lon="2.25859">
        <ele>28.799999237061</ele>
        <time>2015-08-10T19:01:59Z</time>
      </trkpt>
      <trkpt lat="48.82547" lon="2.2584">
        <ele>29.60000038147</ele>
        <time>2015-08-10T19:02:03Z</time>
      </trkpt>
      <trkpt lat="48.82532" lon="2.25819">
        <ele>34</ele>
        <time>2015-08-10T19:02:07Z</time>
      </trkpt>
      <trkpt lat="48.82517" lon="2.25802">
        <ele>35.79999923706</ele>
        <time>2015-08-10T19:02:10Z</time>
      </trkpt>
      <trkpt lat="48.82504" lon="2.25785">
        <ele>37.79999923706</ele>
        <time>2015-08-10T19:02:13Z</time>
      </trkpt>
      <trkpt lat="48.82486" lon="2.25764">
        <ele>41.79999923706</ele>
        <time>2015-08-10T19:02:17Z</time>
      </trkpt>
      <trkpt lat="48.82478" lon="2.25753">
        <ele>42.599998474121</ele>
        <time>2015-08-10T19:02:19Z</time>
      </trkpt>
      <trkpt lat="48.82464" lon="2.25732">
        <ele>42.400001525879</ele>
        <time>2015-08-10T19:02:22Z</time>
      </trkpt>
      <trkpt lat="48.82451" lon="2.25711">
        <ele>42.20000076294</ele>
        <time>2015-08-10T19:02:25Z</time>
      </trkpt>
      <trkpt lat="48.82439" lon="2.25689">
        <ele>42.400001525879</ele>
        <time>2015-08-10T19:02:28Z</time>
      </trkpt>
      <trkpt lat="48.82425" lon="2.25666">
        <ele>40.79999923706</ele>
        <time>2015-08-10T19:02:31Z</time>
      </trkpt>
      <trkpt lat="48.82413" lon="2.25645">
        <ele>40.599998474121</ele>
        <time>2015-08-10T19:02:34Z</time>
      </trkpt>
      <trkpt lat="48.82397" lon="2.2562">
        <ele>39.79999923706</ele>
        <time>2015-08-10T19:02:38Z</time>
      </trkpt>
      <trkpt lat="48.82381" lon="2.25594">
        <ele>39.400001525879</ele>
        <time>2015-08-10T19:02:42Z</time>
      </trkpt>
      <trkpt lat="48.82369" lon="2.25573">
        <ele>38.599998474121</ele>
        <time>2015-08-10T19:02:45Z</time>
      </trkpt>
      <trkpt lat="48.82355" lon="2.25544">
        <ele>38.20000076294</ele>
        <time>2015-08-10T19:02:49Z</time>
      </trkpt>
      <trkpt lat="48.82349" lon="2.25529">
        <ele>38.20000076294</ele>
        <time>2015-08-10T19:02:51Z</time>
      </trkpt>
      <trkpt lat="48.82336" lon="2.25499">
        <ele>37.599998474121</ele>
        <time>2015-08-10T19:02:55Z</time>
      </trkpt>
      <trkpt lat="48.82325" lon="2.25472">
        <ele>37.20000076294</ele>
        <time>2015-08-10T19:02:59Z</time>
      </trkpt>
      <trkpt lat="48.82314" lon="2.25444">
        <ele>37.20000076294</ele>
        <time>2015-08-10T19:03:03Z</time>
      </trkpt>
      <trkpt lat="48.82303" lon="2.25416">
        <ele>38</ele>
        <time>2015-08-10T19:03:07Z</time>
      </trkpt>
      <trkpt lat="48.82294" lon="2.2539">
        <ele>37.400001525879</ele>
        <time>2015-08-10T19:03:11Z</time>
      </trkpt>
      <trkpt lat="48.82284" lon="2.25362">
        <ele>38</ele>
        <time>2015-08-10T19:03:15Z</time>
      </trkpt>
      <trkpt lat="48.82274" lon="2.25333">
        <ele>39.20000076294</ele>
        <time>2015-08-10T19:03:19Z</time>
      </trkpt>
      <trkpt lat="48.82263" lon="2.25303">
        <ele>40</ele>
        <time>2015-08-10T19:03:23Z</time>
      </trkpt>
      <trkpt lat="48.82258" lon="2.25288">
        <ele>40.599998474121</ele>
        <time>2015-08-10T19:03:25Z</time>
      </trkpt>
      <trkpt lat="48.82249" lon="2.25263">
        <ele>41</ele>
        <time>2015-08-10T19:03:28Z</time>
      </trkpt>
      <trkpt lat="48.8224" lon="2.25238">
        <ele>42.599998474121</ele>
        <time>2015-08-10T19:03:31Z</time>
      </trkpt>
      <trkpt lat="48.82232" lon="2.2521">
        <ele>43.599998474121</ele>
        <time>2015-08-10T19:03:34Z</time>
      </trkpt>
      <trkpt lat="48.82224" lon="2.25183">
        <ele>44.20000076294</ele>
        <time>2015-08-10T19:03:37Z</time>
      </trkpt>
      <trkpt lat="48.82216" lon="2.25155">
        <ele>44.599998474121</ele>
        <time>2015-08-10T19:03:40Z</time>
      </trkpt>
      <trkpt lat="48.82208" lon="2.25129">
        <ele>45.599998474121</ele>
        <time>2015-08-10T19:03:43Z</time>
      </trkpt>
      <trkpt lat="48.82201" lon="2.25107">
        <ele>47.79999923706</ele>
        <time>2015-08-10T19:03:46Z</time>
      </trkpt>
      <trkpt lat="48.82192" lon="2.25078">
        <ele>49.400001525879</ele>
        <time>2015-08-10T19:03:50Z</time>
      </trkpt>
      <trkpt lat="48.82188" lon="2.25069">
        <ele>51.400001525879</ele>
        <time>2015-08-10T19:03:52Z</time>
      </trkpt>
      <trkpt lat="48.82181" lon="2.25049">
        <ele>51.79999923706</ele>
        <time>2015-08-10T19:03:56Z</time>
      </trkpt>
      <trkpt lat="48.82175" lon="2.25036">
        <ele>53.599998474121</ele>
        <time>2015-08-10T19:04:01Z</time>
      </trkpt>
      <trkpt lat="48.82173" lon="2.25022">
        <ele>52.20000076294</ele>
        <time>2015-08-10T19:04:03Z</time>
      </trkpt>
      <trkpt lat="48.8218" lon="2.25012">
        <ele>44</ele>
        <time>2015-08-10T19:04:10Z</time>
      </trkpt>
      <trkpt lat="48.82181" lon="2.25011">
        <ele>42.400001525879</ele>
        <time>2015-08-10T19:04:11Z</time>
      </trkpt>
      <trkpt lat="48.82171" lon="2.24999">
        <ele>30.799999237061</ele>
        <time>2015-08-10T19:05:02Z</time>
      </trkpt>
      <trkpt lat="48.82152" lon="2.24988">
        <ele>29.60000038147</ele>
        <time>2015-08-10T19:05:09Z</time>
      </trkpt>
      <trkpt lat="48.82131" lon="2.24993">
        <ele>28.799999237061</ele>
        <time>2015-08-10T19:05:15Z</time>
      </trkpt>
      <trkpt lat="48.82109" lon="2.24999">
        <ele>28.799999237061</ele>
        <time>2015-08-10T19:05:20Z</time>
      </trkpt>
      <trkpt lat="48.8209" lon="2.24993">
        <ele>28.60000038147</ele>
        <time>2015-08-10T19:05:24Z</time>
      </trkpt>
      <trkpt lat="48.82071" lon="2.24987">
        <ele>26</ele>
        <time>2015-08-10T19:05:28Z</time>
      </trkpt>
      <trkpt lat="48.8205" lon="2.24984">
        <ele>23.39999961853</ele>
        <time>2015-08-10T19:05:32Z</time>
      </trkpt>
      <trkpt lat="48.8203" lon="2.2498">
        <ele>21.39999961853</ele>
        <time>2015-08-10T19:05:36Z</time>
      </trkpt>
      <trkpt lat="48.8201" lon="2.24974">
        <ele>20</ele>
        <time>2015-08-10T19:05:40Z</time>
      </trkpt>
      <trkpt lat="48.81992" lon="2.24972">
        <ele>18.799999237061</ele>
        <time>2015-08-10T19:05:43Z</time>
      </trkpt>
      <trkpt lat="48.81969" lon="2.24971">
        <ele>17.200000762939</ele>
        <time>2015-08-10T19:05:47Z</time>
      </trkpt>
      <trkpt lat="48.81949" lon="2.2497">
        <ele>15.39999961853</ele>
        <time>2015-08-10T19:05:51Z</time>
      </trkpt>
      <trkpt lat="48.81931" lon="2.2497">
        <ele>13.60000038147</ele>
        <time>2015-08-10T19:05:55Z</time>
      </trkpt>
      <trkpt lat="48.81923" lon="2.24969">
        <ele>12.800000190735</ele>
        <time>2015-08-10T19:05:57Z</time>
      </trkpt>
      <trkpt lat="48.81907" lon="2.24967">
        <ele>12</ele>
        <time>2015-08-10T19:06:01Z</time>
      </trkpt>
      <trkpt lat="48.81887" lon="2.24964">
        <ele>11.60000038147</ele>
        <time>2015-08-10T19:06:05Z</time>
      </trkpt>
      <trkpt lat="48.81867" lon="2.24961">
        <ele>10.60000038147</ele>
        <time>2015-08-10T19:06:09Z</time>
      </trkpt>
      <trkpt lat="48.81848" lon="2.24957">
        <ele>10</ele>
        <time>2015-08-10T19:06:13Z</time>
      </trkpt>
      <trkpt lat="48.81843" lon="2.24955">
        <ele>10</ele>
        <time>2015-08-10T19:06:14Z</time>
      </trkpt>
      <trkpt lat="48.81822" lon="2.24951">
        <ele>10.199999809265</ele>
        <time>2015-08-10T19:06:18Z</time>
      </trkpt>
      <trkpt lat="48.81803" lon="2.24949">
        <ele>10.39999961853</ele>
        <time>2015-08-10T19:06:22Z</time>
      </trkpt>
      <trkpt lat="48.8179" lon="2.24946">
        <ele>14.199999809265</ele>
        <time>2015-08-10T19:06:26Z</time>
      </trkpt>
      <trkpt lat="48.81784" lon="2.24921">
        <ele>19.200000762939</ele>
        <time>2015-08-10T19:06:32Z</time>
      </trkpt>
      <trkpt lat="48.81786" lon="2.24909">
        <ele>25.200000762939</ele>
        <time>2015-08-10T19:06:35Z</time>
      </trkpt>
      <trkpt lat="48.81786" lon="2.24903">
        <ele>26.39999961853</ele>
        <time>2015-08-10T19:06:36Z</time>
      </trkpt>
      <trkpt lat="48.81764" lon="2.24892">
        <ele>31.799999237061</ele>
        <time>2015-08-10T19:06:41Z</time>
      </trkpt>
      <trkpt lat="48.81759" lon="2.24891">
        <ele>32.20000076294</ele>
        <time>2015-08-10T19:06:42Z</time>
      </trkpt>
      <trkpt lat="48.81745" lon="2.2488">
        <ele>30.200000762939</ele>
        <time>2015-08-10T19:06:46Z</time>
      </trkpt>
      <trkpt lat="48.81729" lon="2.24862">
        <ele>27.39999961853</ele>
        <time>2015-08-10T19:06:51Z</time>
      </trkpt>
      <trkpt lat="48.81714" lon="2.24846">
        <ele>27.60000038147</ele>
        <time>2015-08-10T19:06:55Z</time>
      </trkpt>
      <trkpt lat="48.81708" lon="2.24838">
        <ele>28.200000762939</ele>
        <time>2015-08-10T19:06:57Z</time>
      </trkpt>
      <trkpt lat="48.81693" lon="2.24816">
        <ele>28.39999961853</ele>
        <time>2015-08-10T19:07:01Z</time>
      </trkpt>
      <trkpt lat="48.81678" lon="2.24793">
        <ele>28.799999237061</ele>
        <time>2015-08-10T19:07:05Z</time>
      </trkpt>
      <trkpt lat="48.81674" lon="2.24787">
        <ele>28.799999237061</ele>
        <time>2015-08-10T19:07:06Z</time>
      </trkpt>
      <trkpt lat="48.81662" lon="2.24761">
        <ele>29.799999237061</ele>
        <time>2015-08-10T19:07:10Z</time>
      </trkpt>
      <trkpt lat="48.81649" lon="2.24741">
        <ele>33</ele>
        <time>2015-08-10T19:07:14Z</time>
      </trkpt>
      <trkpt lat="48.81644" lon="2.24735">
        <ele>34.400001525879</ele>
        <time>2015-08-10T19:07:15Z</time>
      </trkpt>
      <trkpt lat="48.81625" lon="2.2472">
        <ele>35.79999923706</ele>
        <time>2015-08-10T19:07:19Z</time>
      </trkpt>
      <trkpt lat="48.81612" lon="2.24711">
        <ele>37.599998474121</ele>
        <time>2015-08-10T19:07:22Z</time>
      </trkpt>
      <trkpt lat="48.81601" lon="2.24708">
        <ele>38.79999923706</ele>
        <time>2015-08-10T19:07:25Z</time>
      </trkpt>
      <trkpt lat="48.81582" lon="2.24708">
        <ele>40.400001525879</ele>
        <time>2015-08-10T19:07:30Z</time>
      </trkpt>
      <trkpt lat="48.81578" lon="2.24708">
        <ele>41</ele>
        <time>2015-08-10T19:07:31Z</time>
      </trkpt>
      <trkpt lat="48.81561" lon="2.24705">
        <ele>42.400001525879</ele>
        <time>2015-08-10T19:07:35Z</time>
      </trkpt>
      <trkpt lat="48.81552" lon="2.24703">
        <ele>42.599998474121</ele>
        <time>2015-08-10T19:07:37Z</time>
      </trkpt>
      <trkpt lat="48.81532" lon="2.24696">
        <ele>41.400001525879</ele>
        <time>2015-08-10T19:07:42Z</time>
      </trkpt>
      <trkpt lat="48.81511" lon="2.24688">
        <ele>39.79999923706</ele>
        <time>2015-08-10T19:07:47Z</time>
      </trkpt>
      <trkpt lat="48.8149" lon="2.24682">
        <ele>38.79999923706</ele>
        <time>2015-08-10T19:07:52Z</time>
      </trkpt>
      <trkpt lat="48.81472" lon="2.24679">
        <ele>38.20000076294</ele>
        <time>2015-08-10T19:07:56Z</time>
      </trkpt>
      <trkpt lat="48.81454" lon="2.24677">
        <ele>38.20000076294</ele>
        <time>2015-08-10T19:08:00Z</time>
      </trkpt>
      <trkpt lat="48.81436" lon="2.24674">
        <ele>38.599998474121</ele>
        <time>2015-08-10T19:08:04Z</time>
      </trkpt>
      <trkpt lat="48.81419" lon="2.2467">
        <ele>37.79999923706</ele>
        <time>2015-08-10T19:08:08Z</time>
      </trkpt>
      <trkpt lat="48.81403" lon="2.24662">
        <ele>38.400001525879</ele>
        <time>2015-08-10T19:08:12Z</time>
      </trkpt>
      <trkpt lat="48.81385" lon="2.24648">
        <ele>37.79999923706</ele>
        <time>2015-08-10T19:08:17Z</time>
      </trkpt>
      <trkpt lat="48.81379" lon="2.24645">
        <ele>37.599998474121</ele>
        <time>2015-08-10T19:08:19Z</time>
      </trkpt>
      <trkpt lat="48.81367" lon="2.2464">
        <ele>39</ele>
        <time>2015-08-10T19:08:22Z</time>
      </trkpt>
      <trkpt lat="48.81359" lon="2.24635">
        <ele>40</ele>
        <time>2015-08-10T19:08:24Z</time>
      </trkpt>
      <trkpt lat="48.81341" lon="2.24628">
        <ele>41</ele>
        <time>2015-08-10T19:08:28Z</time>
      </trkpt>
      <trkpt lat="48.8133" lon="2.24624">
        <ele>43.20000076294</ele>
        <time>2015-08-10T19:08:31Z</time>
      </trkpt>
      <trkpt lat="48.81327" lon="2.24623">
        <ele>43.79999923706</ele>
        <time>2015-08-10T19:08:32Z</time>
      </trkpt>
      <trkpt lat="48.81323" lon="2.24621">
        <ele>44.599998474121</ele>
        <time>2015-08-10T19:08:34Z</time>
      </trkpt>
      <trkpt lat="48.81317" lon="2.24622">
        <ele>46.79999923706</ele>
        <time>2015-08-10T19:08:37Z</time>
      </trkpt>
      <trkpt lat="48.81312" lon="2.24624">
        <ele>47.599998474121</ele>
        <time>2015-08-10T19:08:41Z</time>
      </trkpt>
      <trkpt lat="48.81312" lon="2.24623">
        <ele>47.599998474121</ele>
        <time>2015-08-10T19:08:42Z</time>
      </trkpt>
      <trkpt lat="48.81318" lon="2.24611">
        <ele>50.79999923706</ele>
        <time>2015-08-10T19:10:25Z</time>
      </trkpt>
      <trkpt lat="48.81321" lon="2.2461">
        <ele>51.20000076294</ele>
        <time>2015-08-10T19:10:28Z</time>
      </trkpt>
      <trkpt lat="48.81322" lon="2.24626">
        <ele>51.20000076294</ele>
        <time>2015-08-10T19:11:02Z</time>
      </trkpt>
      <trkpt lat="48.81308" lon="2.24629">
        <ele>51.599998474121</ele>
        <time>2015-08-10T19:11:59Z</time>
      </trkpt>
      <trkpt lat="48.81288" lon="2.24618">
        <ele>51</ele>
        <time>2015-08-10T19:12:07Z</time>
      </trkpt>
      <trkpt lat="48.81271" lon="2.24602">
        <ele>51</ele>
        <time>2015-08-10T19:12:12Z</time>
      </trkpt>
      <trkpt lat="48.81252" lon="2.24585">
        <ele>51.599998474121</ele>
        <time>2015-08-10T19:12:17Z</time>
      </trkpt>
      <trkpt lat="48.81232" lon="2.24571">
        <ele>52.400001525879</ele>
        <time>2015-08-10T19:12:22Z</time>
      </trkpt>
      <trkpt lat="48.81216" lon="2.24561">
        <ele>53.20000076294</ele>
        <time>2015-08-10T19:12:26Z</time>
      </trkpt>
      <trkpt lat="48.81196" lon="2.24547">
        <ele>54.400001525879</ele>
        <time>2015-08-10T19:12:31Z</time>
      </trkpt>
      <trkpt lat="48.81178" lon="2.24532">
        <ele>55</ele>
        <time>2015-08-10T19:12:36Z</time>
      </trkpt>
      <trkpt lat="48.81168" lon="2.24519">
        <ele>54.599998474121</ele>
        <time>2015-08-10T19:12:39Z</time>
      </trkpt>
      <trkpt lat="48.8115" lon="2.24499">
        <ele>54.400001525879</ele>
        <time>2015-08-10T19:12:44Z</time>
      </trkpt>
      <trkpt lat="48.81134" lon="2.24484">
        <ele>55</ele>
        <time>2015-08-10T19:12:48Z</time>
      </trkpt>
      <trkpt lat="48.8112" lon="2.24467">
        <ele>56.20000076294</ele>
        <time>2015-08-10T19:12:52Z</time>
      </trkpt>
      <trkpt lat="48.81107" lon="2.24448">
        <ele>57.79999923706</ele>
        <time>2015-08-10T19:12:56Z</time>
      </trkpt>
      <trkpt lat="48.81091" lon="2.24427">
        <ele>60.20000076294</ele>
        <time>2015-08-10T19:13:01Z</time>
      </trkpt>
      <trkpt lat="48.81079" lon="2.24415">
        <ele>60</ele>
        <time>2015-08-10T19:13:04Z</time>
      </trkpt>
      <trkpt lat="48.81066" lon="2.24393">
        <ele>60.400001525879</ele>
        <time>2015-08-10T19:13:08Z</time>
      </trkpt>
      <trkpt lat="48.81049" lon="2.24372">
        <ele>60.79999923706</ele>
        <time>2015-08-10T19:13:13Z</time>
      </trkpt>
      <trkpt lat="48.81043" lon="2.24363">
        <ele>60.79999923706</ele>
        <time>2015-08-10T19:13:15Z</time>
      </trkpt>
      <trkpt lat="48.8103" lon="2.24344">
        <ele>59.20000076294</ele>
        <time>2015-08-10T19:13:19Z</time>
      </trkpt>
      <trkpt lat="48.81016" lon="2.24325">
        <ele>59.599998474121</ele>
        <time>2015-08-10T19:13:23Z</time>
      </trkpt>
      <trkpt lat="48.81" lon="2.24305">
        <ele>60.599998474121</ele>
        <time>2015-08-10T19:13:27Z</time>
      </trkpt>
      <trkpt lat="48.80989" lon="2.24289">
        <ele>60.79999923706</ele>
        <time>2015-08-10T19:13:30Z</time>
      </trkpt>
      <trkpt lat="48.80973" lon="2.2427">
        <ele>60.599998474121</ele>
        <time>2015-08-10T19:13:34Z</time>
      </trkpt>
      <trkpt lat="48.80957" lon="2.24249">
        <ele>61</ele>
        <time>2015-08-10T19:13:38Z</time>
      </trkpt>
      <trkpt lat="48.80952" lon="2.24244">
        <ele>61</ele>
        <time>2015-08-10T19:13:39Z</time>
      </trkpt>
      <trkpt lat="48.80937" lon="2.24227">
        <ele>62</ele>
        <time>2015-08-10T19:13:43Z</time>
      </trkpt>
      <trkpt lat="48.80921" lon="2.2421">
        <ele>61.599998474121</ele>
        <time>2015-08-10T19:13:47Z</time>
      </trkpt>
      <trkpt lat="48.80908" lon="2.24196">
        <ele>60.79999923706</ele>
        <time>2015-08-10T19:13:50Z</time>
      </trkpt>
      <trkpt lat="48.80891" lon="2.2418">
        <ele>60.20000076294</ele>
        <time>2015-08-10T19:13:54Z</time>
      </trkpt>
      <trkpt lat="48.80886" lon="2.24176">
        <ele>60.20000076294</ele>
        <time>2015-08-10T19:13:55Z</time>
      </trkpt>
      <trkpt lat="48.80874" lon="2.24168">
        <ele>60</ele>
        <time>2015-08-10T19:13:58Z</time>
      </trkpt>
      <trkpt lat="48.80858" lon="2.24152">
        <ele>61</ele>
        <time>2015-08-10T19:14:02Z</time>
      </trkpt>
      <trkpt lat="48.80843" lon="2.24138">
        <ele>61.400001525879</ele>
        <time>2015-08-10T19:14:06Z</time>
      </trkpt>
      <trkpt lat="48.80829" lon="2.24127">
        <ele>62.20000076294</ele>
        <time>2015-08-10T19:14:10Z</time>
      </trkpt>
      <trkpt lat="48.80811" lon="2.24121">
        <ele>61.599998474121</ele>
        <time>2015-08-10T19:14:18Z</time>
      </trkpt>
      <trkpt lat="48.80808" lon="2.24128">
        <ele>62.599998474121</ele>
        <time>2015-08-10T19:14:21Z</time>
      </trkpt>
      <trkpt lat="48.80807" lon="2.24131">
        <ele>62.79999923706</ele>
        <time>2015-08-10T19:14:22Z</time>
      </trkpt>
      <trkpt lat="48.80796" lon="2.24137">
        <ele>64.599998474121</ele>
        <time>2015-08-10T19:14:30Z</time>
      </trkpt>
      <trkpt lat="48.80798" lon="2.24133">
        <ele>65.800003051758</ele>
        <time>2015-08-10T19:16:22Z</time>
      </trkpt>
      <trkpt lat="48.80789" lon="2.24151">
        <ele>67</ele>
        <time>2015-08-10T19:17:17Z</time>
      </trkpt>
      <trkpt lat="48.80783" lon="2.24173">
        <ele>68.199996948242</ele>
        <time>2015-08-10T19:17:26Z</time>
      </trkpt>
      <trkpt lat="48.80769" lon="2.2416">
        <ele>69.400001525879</ele>
        <time>2015-08-10T19:17:42Z</time>
      </trkpt>
      <trkpt lat="48.80751" lon="2.24149">
        <ele>69.199996948242</ele>
        <time>2015-08-10T19:17:47Z</time>
      </trkpt>
      <trkpt lat="48.80733" lon="2.24139">
        <ele>68.599998474121</ele>
        <time>2015-08-10T19:17:51Z</time>
      </trkpt>
      <trkpt lat="48.80711" lon="2.24131">
        <ele>68</ele>
        <time>2015-08-10T19:17:55Z</time>
      </trkpt>
      <trkpt lat="48.8069" lon="2.24119">
        <ele>68</ele>
        <time>2015-08-10T19:17:59Z</time>
      </trkpt>
      <trkpt lat="48.80685" lon="2.24116">
        <ele>68</ele>
        <time>2015-08-10T19:18:00Z</time>
      </trkpt>
      <trkpt lat="48.80663" lon="2.24112">
        <ele>69</ele>
        <time>2015-08-10T19:18:04Z</time>
      </trkpt>
      <trkpt lat="48.80643" lon="2.24104">
        <ele>70.599998474121</ele>
        <time>2015-08-10T19:18:08Z</time>
      </trkpt>
      <trkpt lat="48.80628" lon="2.24097">
        <ele>72.400001525879</ele>
        <time>2015-08-10T19:18:11Z</time>
      </trkpt>
      <trkpt lat="48.80614" lon="2.24088">
        <ele>73.199996948242</ele>
        <time>2015-08-10T19:18:14Z</time>
      </trkpt>
      <trkpt lat="48.80606" lon="2.24085">
        <ele>73.400001525879</ele>
        <time>2015-08-10T19:18:17Z</time>
      </trkpt>
      <trkpt lat="48.80604" lon="2.24084">
        <ele>73.400001525879</ele>
        <time>2015-08-10T19:18:19Z</time>
      </trkpt>
      <trkpt lat="48.80617" lon="2.2409">
        <ele>74</ele>
        <time>2015-08-10T19:18:29Z</time>
      </trkpt>
      <trkpt lat="48.8062" lon="2.24115">
        <ele>77.800003051758</ele>
        <time>2015-08-10T19:18:54Z</time>
      </trkpt>
      <trkpt lat="48.80627" lon="2.24138">
        <ele>79</ele>
        <time>2015-08-10T19:19:05Z</time>
      </trkpt>
      <trkpt lat="48.80628" lon="2.24143">
        <ele>79.599998474121</ele>
        <time>2015-08-10T19:19:09Z</time>
      </trkpt>
      <trkpt lat="48.80626" lon="2.24171">
        <ele>81.400001525879</ele>
        <time>2015-08-10T19:19:17Z</time>
      </trkpt>
      <trkpt lat="48.80627" lon="2.24185">
        <ele>81.199996948242</ele>
        <time>2015-08-10T19:19:22Z</time>
      </trkpt>
      <trkpt lat="48.80632" lon="2.24207">
        <ele>80.400001525879</ele>
        <time>2015-08-10T19:19:30Z</time>
      </trkpt>
      <trkpt lat="48.80626" lon="2.24236">
        <ele>80.400001525879</ele>
        <time>2015-08-10T19:19:36Z</time>
      </trkpt>
      <trkpt lat="48.80619" lon="2.24266">
        <ele>80.400001525879</ele>
        <time>2015-08-10T19:19:43Z</time>
      </trkpt>
      <trkpt lat="48.80615" lon="2.24277">
        <ele>81.199996948242</ele>
        <time>2015-08-10T19:19:49Z</time>
      </trkpt>
      <trkpt lat="48.80624" lon="2.24286">
        <ele>83.800003051758</ele>
        <time>2015-08-10T19:20:00Z</time>
      </trkpt>
      <trkpt lat="48.80616" lon="2.24311">
        <ele>85.599998474121</ele>
        <time>2015-08-10T19:20:07Z</time>
      </trkpt>
      <trkpt lat="48.80613" lon="2.24324">
        <ele>86.199996948242</ele>
        <time>2015-08-10T19:20:12Z</time>
      </trkpt>
      <trkpt lat="48.80625" lon="2.24345">
        <ele>87.199996948242</ele>
        <time>2015-08-10T19:20:18Z</time>
      </trkpt>
      <trkpt lat="48.80634" lon="2.24362">
        <ele>88.599998474121</ele>
        <time>2015-08-10T19:20:23Z</time>
      </trkpt>
      <trkpt lat="48.80641" lon="2.24385">
        <ele>87.199996948242</ele>
        <time>2015-08-10T19:20:41Z</time>
      </trkpt>
      <trkpt lat="48.80652" lon="2.24406">
        <ele>88.400001525879</ele>
        <time>2015-08-10T19:20:48Z</time>
      </trkpt>
      <trkpt lat="48.80653" lon="2.24415">
        <ele>89.400001525879</ele>
        <time>2015-08-10T19:20:53Z</time>
      </trkpt>
      <trkpt lat="48.80647" lon="2.24438">
        <ele>91.199996948242</ele>
        <time>2015-08-10T19:21:06Z</time>
      </trkpt>
      <trkpt lat="48.80644" lon="2.24447">
        <ele>92.599998474121</ele>
        <time>2015-08-10T19:21:11Z</time>
      </trkpt>
      <trkpt lat="48.80634" lon="2.24428">
        <ele>106.40000152588</ele>
        <time>2015-08-10T19:21:56Z</time>
      </trkpt>
      <trkpt lat="48.80629" lon="2.24434">
        <ele>107.19999694824</ele>
        <time>2015-08-10T19:21:59Z</time>
      </trkpt>
      <trkpt lat="48.80618" lon="2.24454">
        <ele>108.40000152588</ele>
        <time>2015-08-10T19:22:03Z</time>
      </trkpt>
      <trkpt lat="48.80602" lon="2.24479">
        <ele>110.40000152588</ele>
        <time>2015-08-10T19:22:08Z</time>
      </trkpt>
      <trkpt lat="48.80596" lon="2.24489">
        <ele>110.80000305176</ele>
        <time>2015-08-10T19:22:10Z</time>
      </trkpt>
      <trkpt lat="48.80588" lon="2.24499">
        <ele>111.80000305176</ele>
        <time>2015-08-10T19:22:13Z</time>
      </trkpt>
      <trkpt lat="48.80579" lon="2.24509">
        <ele>112.19999694824</ele>
        <time>2015-08-10T19:22:18Z</time>
      </trkpt>
      <trkpt lat="48.80578" lon="2.2451">
        <ele>112.40000152588</ele>
        <time>2015-08-10T19:22:19Z</time>
      </trkpt>
      <trkpt lat="48.80569" lon="2.24507">
        <ele>109.19999694824</ele>
        <time>2015-08-10T19:23:58Z</time>
      </trkpt>
      <trkpt lat="48.80569" lon="2.24506">
        <ele>110.59999847412</ele>
        <time>2015-08-10T19:26:09Z</time>
      </trkpt>
      <trkpt lat="48.80575" lon="2.24515">
        <ele>112.40000152588</ele>
        <time>2015-08-10T19:27:27Z</time>
      </trkpt>
      <trkpt lat="48.80577" lon="2.2452">
        <ele>112.59999847412</ele>
        <time>2015-08-10T19:27:30Z</time>
      </trkpt>
      <trkpt lat="48.80581" lon="2.24538">
        <ele>113</ele>
        <time>2015-08-10T19:27:38Z</time>
      </trkpt>
      <trkpt lat="48.80587" lon="2.24546">
        <ele>113.80000305176</ele>
        <time>2015-08-10T19:27:44Z</time>
      </trkpt>
      <trkpt lat="48.80595" lon="2.24573">
        <ele>115</ele>
        <time>2015-08-10T19:27:53Z</time>
      </trkpt>
      <trkpt lat="48.80603" lon="2.24595">
        <ele>114.40000152588</ele>
        <time>2015-08-10T19:28:01Z</time>
      </trkpt>
      <trkpt lat="48.80607" lon="2.24603">
        <ele>113.19999694824</ele>
        <time>2015-08-10T19:28:26Z</time>
      </trkpt>
      <trkpt lat="48.80623" lon="2.24614">
        <ele>112.80000305176</ele>
        <time>2015-08-10T19:28:34Z</time>
      </trkpt>
      <trkpt lat="48.80637" lon="2.24632">
        <ele>111.59999847412</ele>
        <time>2015-08-10T19:28:41Z</time>
      </trkpt>
      <trkpt lat="48.80652" lon="2.24651">
        <ele>110.59999847412</ele>
        <time>2015-08-10T19:28:48Z</time>
      </trkpt>
      <trkpt lat="48.80668" lon="2.24669">
        <ele>107.59999847412</ele>
        <time>2015-08-10T19:28:55Z</time>
      </trkpt>
      <trkpt lat="48.80683" lon="2.24688">
        <ele>107</ele>
        <time>2015-08-10T19:29:00Z</time>
      </trkpt>
      <trkpt lat="48.80697" lon="2.24714">
        <ele>104.59999847412</ele>
        <time>2015-08-10T19:29:05Z</time>
      </trkpt>
      <trkpt lat="48.80708" lon="2.2474">
        <ele>103</ele>
        <time>2015-08-10T19:29:09Z</time>
      </trkpt>
      <trkpt lat="48.8072" lon="2.2477">
        <ele>103.19999694824</ele>
        <time>2015-08-10T19:29:13Z</time>
      </trkpt>
      <trkpt lat="48.8073" lon="2.24802">
        <ele>104.40000152588</ele>
        <time>2015-08-10T19:29:17Z</time>
      </trkpt>
      <trkpt lat="48.8074" lon="2.24825">
        <ele>107.19999694824</ele>
        <time>2015-08-10T19:29:20Z</time>
      </trkpt>
      <trkpt lat="48.80743" lon="2.24832">
        <ele>108.59999847412</ele>
        <time>2015-08-10T19:29:21Z</time>
      </trkpt>
      <trkpt lat="48.80748" lon="2.2486">
        <ele>109</ele>
        <time>2015-08-10T19:29:25Z</time>
      </trkpt>
      <trkpt lat="48.80753" lon="2.24888">
        <ele>107.80000305176</ele>
        <time>2015-08-10T19:29:30Z</time>
      </trkpt>
      <trkpt lat="48.80756" lon="2.24916">
        <ele>107</ele>
        <time>2015-08-10T19:29:35Z</time>
      </trkpt>
      <trkpt lat="48.8076" lon="2.24941">
        <ele>109.59999847412</ele>
        <time>2015-08-10T19:29:40Z</time>
      </trkpt>
      <trkpt lat="48.80765" lon="2.24968">
        <ele>110.19999694824</ele>
        <time>2015-08-10T19:29:45Z</time>
      </trkpt>
      <trkpt lat="48.80766" lon="2.24974">
        <ele>110.40000152588</ele>
        <time>2015-08-10T19:29:46Z</time>
      </trkpt>
      <trkpt lat="48.80771" lon="2.25003">
        <ele>111.40000152588</ele>
        <time>2015-08-10T19:29:52Z</time>
      </trkpt>
      <trkpt lat="48.80773" lon="2.25017">
        <ele>112.19999694824</ele>
        <time>2015-08-10T19:29:56Z</time>
      </trkpt>
      <trkpt lat="48.80774" lon="2.2502">
        <ele>112.40000152588</ele>
        <time>2015-08-10T19:29:57Z</time>
      </trkpt>
      <trkpt lat="48.80781" lon="2.25041">
        <ele>110.40000152588</ele>
        <time>2015-08-10T19:30:39Z</time>
      </trkpt>
      <trkpt lat="48.80798" lon="2.25057">
        <ele>106.80000305176</ele>
        <time>2015-08-10T19:31:07Z</time>
      </trkpt>
      <trkpt lat="48.80812" lon="2.25079">
        <ele>106.59999847412</ele>
        <time>2015-08-10T19:31:12Z</time>
      </trkpt>
      <trkpt lat="48.80825" lon="2.25099">
        <ele>106.40000152588</ele>
        <time>2015-08-10T19:31:16Z</time>
      </trkpt>
      <trkpt lat="48.80838" lon="2.25118">
        <ele>106.80000305176</ele>
        <time>2015-08-10T19:31:20Z</time>
      </trkpt>
      <trkpt lat="48.80851" lon="2.25139">
        <ele>105.80000305176</ele>
        <time>2015-08-10T19:31:24Z</time>
      </trkpt>
      <trkpt lat="48.80864" lon="2.25159">
        <ele>105.19999694824</ele>
        <time>2015-08-10T19:31:28Z</time>
      </trkpt>
      <trkpt lat="48.80879" lon="2.25177">
        <ele>104.80000305176</ele>
        <time>2015-08-10T19:31:32Z</time>
      </trkpt>
      <trkpt lat="48.80894" lon="2.25192">
        <ele>102.80000305176</ele>
        <time>2015-08-10T19:31:36Z</time>
      </trkpt>
      <trkpt lat="48.80898" lon="2.25196">
        <ele>102.80000305176</ele>
        <time>2015-08-10T19:31:37Z</time>
      </trkpt>
      <trkpt lat="48.80913" lon="2.25213">
        <ele>100.40000152588</ele>
        <time>2015-08-10T19:31:41Z</time>
      </trkpt>
      <trkpt lat="48.80929" lon="2.2523">
        <ele>97.800003051758</ele>
        <time>2015-08-10T19:31:45Z</time>
      </trkpt>
      <trkpt lat="48.80946" lon="2.2525">
        <ele>95.599998474121</ele>
        <time>2015-08-10T19:31:50Z</time>
      </trkpt>
      <trkpt lat="48.80949" lon="2.25254">
        <ele>95.400001525879</ele>
        <time>2015-08-10T19:31:51Z</time>
      </trkpt>
      <trkpt lat="48.8096" lon="2.25277">
        <ele>94.800003051758</ele>
        <time>2015-08-10T19:31:55Z</time>
      </trkpt>
      <trkpt lat="48.80968" lon="2.25297">
        <ele>94.199996948242</ele>
        <time>2015-08-10T19:31:58Z</time>
      </trkpt>
      <trkpt lat="48.80974" lon="2.25311">
        <ele>94</ele>
        <time>2015-08-10T19:32:00Z</time>
      </trkpt>
      <trkpt lat="48.80981" lon="2.25344">
        <ele>92.599998474121</ele>
        <time>2015-08-10T19:32:04Z</time>
      </trkpt>
      <trkpt lat="48.80988" lon="2.25378">
        <ele>92</ele>
        <time>2015-08-10T19:32:08Z</time>
      </trkpt>
      <trkpt lat="48.80994" lon="2.25409">
        <ele>91.400001525879</ele>
        <time>2015-08-10T19:32:12Z</time>
      </trkpt>
      <trkpt lat="48.81001" lon="2.25442">
        <ele>90.400001525879</ele>
        <time>2015-08-10T19:32:16Z</time>
      </trkpt>
      <trkpt lat="48.81008" lon="2.25474">
        <ele>89.199996948242</ele>
        <time>2015-08-10T19:32:20Z</time>
      </trkpt>
      <trkpt lat="48.8101" lon="2.25482">
        <ele>88.800003051758</ele>
        <time>2015-08-10T19:32:21Z</time>
      </trkpt>
      <trkpt lat="48.81018" lon="2.25514">
        <ele>88.199996948242</ele>
        <time>2015-08-10T19:32:25Z</time>
      </trkpt>
      <trkpt lat="48.81027" lon="2.25546">
        <ele>87.599998474121</ele>
        <time>2015-08-10T19:32:29Z</time>
      </trkpt>
      <trkpt lat="48.81034" lon="2.25579">
        <ele>85.800003051758</ele>
        <time>2015-08-10T19:32:33Z</time>
      </trkpt>
      <trkpt lat="48.8104" lon="2.25605">
        <ele>84.599998474121</ele>
        <time>2015-08-10T19:32:36Z</time>
      </trkpt>
      <trkpt lat="48.81048" lon="2.25639">
        <ele>84.400001525879</ele>
        <time>2015-08-10T19:32:40Z</time>
      </trkpt>
      <trkpt lat="48.81054" lon="2.25665">
        <ele>84.199996948242</ele>
        <time>2015-08-10T19:32:43Z</time>
      </trkpt>
      <trkpt lat="48.81063" lon="2.25697">
        <ele>83.400001525879</ele>
        <time>2015-08-10T19:32:47Z</time>
      </trkpt>
      <trkpt lat="48.81073" lon="2.25724">
        <ele>83.599998474121</ele>
        <time>2015-08-10T19:32:51Z</time>
      </trkpt>
      <trkpt lat="48.81077" lon="2.25736">
        <ele>83.400001525879</ele>
        <time>2015-08-10T19:32:53Z</time>
      </trkpt>
      <trkpt lat="48.81087" lon="2.25763">
        <ele>84</ele>
        <time>2015-08-10T19:32:58Z</time>
      </trkpt>
      <trkpt lat="48.8109" lon="2.25778">
        <ele>83.400001525879</ele>
        <time>2015-08-10T19:33:01Z</time>
      </trkpt>
      <trkpt lat="48.811" lon="2.25805">
        <ele>84</ele>
        <time>2015-08-10T19:33:08Z</time>
      </trkpt>
      <trkpt lat="48.81101" lon="2.25811">
        <ele>84.800003051758</ele>
        <time>2015-08-10T19:33:10Z</time>
      </trkpt>
      <trkpt lat="48.811" lon="2.25814">
        <ele>85.400001525879</ele>
        <time>2015-08-10T19:33:12Z</time>
      </trkpt>
      <trkpt lat="48.81113" lon="2.25832">
        <ele>89.400001525879</ele>
        <time>2015-08-10T19:33:44Z</time>
      </trkpt>
      <trkpt lat="48.81121" lon="2.2586">
        <ele>88</ele>
        <time>2015-08-10T19:34:08Z</time>
      </trkpt>
      <trkpt lat="48.81129" lon="2.25889">
        <ele>86.800003051758</ele>
        <time>2015-08-10T19:34:13Z</time>
      </trkpt>
      <trkpt lat="48.81137" lon="2.25914">
        <ele>85.800003051758</ele>
        <time>2015-08-10T19:34:17Z</time>
      </trkpt>
      <trkpt lat="48.81146" lon="2.25939">
        <ele>85</ele>
        <time>2015-08-10T19:34:21Z</time>
      </trkpt>
      <trkpt lat="48.81153" lon="2.25964">
        <ele>84.599998474121</ele>
        <time>2015-08-10T19:34:25Z</time>
      </trkpt>
      <trkpt lat="48.81161" lon="2.2599">
        <ele>84.400001525879</ele>
        <time>2015-08-10T19:34:29Z</time>
      </trkpt>
      <trkpt lat="48.8117" lon="2.26021">
        <ele>83.400001525879</ele>
        <time>2015-08-10T19:34:34Z</time>
      </trkpt>
      <trkpt lat="48.81177" lon="2.26049">
        <ele>82.599998474121</ele>
        <time>2015-08-10T19:34:39Z</time>
      </trkpt>
      <trkpt lat="48.81186" lon="2.26078">
        <ele>81.800003051758</ele>
        <time>2015-08-10T19:34:44Z</time>
      </trkpt>
      <trkpt lat="48.81191" lon="2.26095">
        <ele>81.800003051758</ele>
        <time>2015-08-10T19:34:47Z</time>
      </trkpt>
      <trkpt lat="48.81198" lon="2.26117">
        <ele>81.400001525879</ele>
        <time>2015-08-10T19:34:51Z</time>
      </trkpt>
      <trkpt lat="48.81206" lon="2.26145">
        <ele>80.400001525879</ele>
        <time>2015-08-10T19:34:56Z</time>
      </trkpt>
      <trkpt lat="48.81216" lon="2.26174">
        <ele>78.400001525879</ele>
        <time>2015-08-10T19:35:01Z</time>
      </trkpt>
      <trkpt lat="48.81225" lon="2.26199">
        <ele>78</ele>
        <time>2015-08-10T19:35:05Z</time>
      </trkpt>
      <trkpt lat="48.81235" lon="2.26228">
        <ele>76.800003051758</ele>
        <time>2015-08-10T19:35:10Z</time>
      </trkpt>
      <trkpt lat="48.81236" lon="2.26234">
        <ele>76.400001525879</ele>
        <time>2015-08-10T19:35:11Z</time>
      </trkpt>
      <trkpt lat="48.81245" lon="2.26259">
        <ele>77</ele>
        <time>2015-08-10T19:35:15Z</time>
      </trkpt>
      <trkpt lat="48.81249" lon="2.26271">
        <ele>77.199996948242</ele>
        <time>2015-08-10T19:35:17Z</time>
      </trkpt>
      <trkpt lat="48.81258" lon="2.26297">
        <ele>77.400001525879</ele>
        <time>2015-08-10T19:35:21Z</time>
      </trkpt>
      <trkpt lat="48.81267" lon="2.26325">
        <ele>79.400001525879</ele>
        <time>2015-08-10T19:35:25Z</time>
      </trkpt>
      <trkpt lat="48.81274" lon="2.26345">
        <ele>79.800003051758</ele>
        <time>2015-08-10T19:35:28Z</time>
      </trkpt>
      <trkpt lat="48.81282" lon="2.26371">
        <ele>79.400001525879</ele>
        <time>2015-08-10T19:35:32Z</time>
      </trkpt>
      <trkpt lat="48.8129" lon="2.26396">
        <ele>78.599998474121</ele>
        <time>2015-08-10T19:35:36Z</time>
      </trkpt>
      <trkpt lat="48.81299" lon="2.26426">
        <ele>79.199996948242</ele>
        <time>2015-08-10T19:35:41Z</time>
      </trkpt>
      <trkpt lat="48.81306" lon="2.26452">
        <ele>78.599998474121</ele>
        <time>2015-08-10T19:35:45Z</time>
      </trkpt>
      <trkpt lat="48.81308" lon="2.26459">
        <ele>78.400001525879</ele>
        <time>2015-08-10T19:35:46Z</time>
      </trkpt>
      <trkpt lat="48.8131" lon="2.26488">
        <ele>77.400001525879</ele>
        <time>2015-08-10T19:35:50Z</time>
      </trkpt>
      <trkpt lat="48.81313" lon="2.26516">
        <ele>78</ele>
        <time>2015-08-10T19:35:54Z</time>
      </trkpt>
      <trkpt lat="48.81312" lon="2.26523">
        <ele>77.800003051758</ele>
        <time>2015-08-10T19:35:55Z</time>
      </trkpt>
      <trkpt lat="48.81317" lon="2.2655">
        <ele>78.800003051758</ele>
        <time>2015-08-10T19:35:59Z</time>
      </trkpt>
      <trkpt lat="48.81318" lon="2.26556">
        <ele>78.599998474121</ele>
        <time>2015-08-10T19:36:00Z</time>
      </trkpt>
      <trkpt lat="48.81321" lon="2.26584">
        <ele>79</ele>
        <time>2015-08-10T19:36:04Z</time>
      </trkpt>
      <trkpt lat="48.81323" lon="2.26613">
        <ele>77.800003051758</ele>
        <time>2015-08-10T19:36:08Z</time>
      </trkpt>
      <trkpt lat="48.81326" lon="2.26643">
        <ele>76.599998474121</ele>
        <time>2015-08-10T19:36:12Z</time>
      </trkpt>
      <trkpt lat="48.8133" lon="2.26674">
        <ele>76</ele>
        <time>2015-08-10T19:36:16Z</time>
      </trkpt>
      <trkpt lat="48.81335" lon="2.26702">
        <ele>76.199996948242</ele>
        <time>2015-08-10T19:36:20Z</time>
      </trkpt>
      <trkpt lat="48.81348" lon="2.26712">
        <ele>76.599998474121</ele>
        <time>2015-08-10T19:36:24Z</time>
      </trkpt>
      <trkpt lat="48.81351" lon="2.26713">
        <ele>76</ele>
        <time>2015-08-10T19:36:25Z</time>
      </trkpt>
      <trkpt lat="48.81371" lon="2.26719">
        <ele>73.400001525879</ele>
        <time>2015-08-10T19:36:31Z</time>
      </trkpt>
      <trkpt lat="48.81382" lon="2.26725">
        <ele>73.599998474121</ele>
        <time>2015-08-10T19:36:34Z</time>
      </trkpt>
      <trkpt lat="48.81394" lon="2.26751">
        <ele>71.599998474121</ele>
        <time>2015-08-10T19:36:40Z</time>
      </trkpt>
      <trkpt lat="48.81396" lon="2.26762">
        <ele>71.599998474121</ele>
        <time>2015-08-10T19:36:42Z</time>
      </trkpt>
      <trkpt lat="48.81397" lon="2.26774">
        <ele>71.199996948242</ele>
        <time>2015-08-10T19:36:44Z</time>
      </trkpt>
      <trkpt lat="48.814" lon="2.26801">
        <ele>70.599998474121</ele>
        <time>2015-08-10T19:36:48Z</time>
      </trkpt>
      <trkpt lat="48.81402" lon="2.26815">
        <ele>70.599998474121</ele>
        <time>2015-08-10T19:36:50Z</time>
      </trkpt>
      <trkpt lat="48.81405" lon="2.26844">
        <ele>69.599998474121</ele>
        <time>2015-08-10T19:36:54Z</time>
      </trkpt>
      <trkpt lat="48.81406" lon="2.26859">
        <ele>69</ele>
        <time>2015-08-10T19:36:56Z</time>
      </trkpt>
      <trkpt lat="48.81409" lon="2.26889">
        <ele>68.599998474121</ele>
        <time>2015-08-10T19:37:00Z</time>
      </trkpt>
      <trkpt lat="48.8141" lon="2.26916">
        <ele>67.800003051758</ele>
        <time>2015-08-10T19:37:04Z</time>
      </trkpt>
      <trkpt lat="48.81412" lon="2.2695">
        <ele>66.400001525879</ele>
        <time>2015-08-10T19:37:09Z</time>
      </trkpt>
      <trkpt lat="48.81413" lon="2.26977">
        <ele>65.599998474121</ele>
        <time>2015-08-10T19:37:13Z</time>
      </trkpt>
      <trkpt lat="48.81414" lon="2.26984">
        <ele>65.400001525879</ele>
        <time>2015-08-10T19:37:14Z</time>
      </trkpt>
      <trkpt lat="48.81418" lon="2.2701">
        <ele>66.800003051758</ele>
        <time>2015-08-10T19:37:18Z</time>
      </trkpt>
      <trkpt lat="48.8142" lon="2.27016">
        <ele>65.599998474121</ele>
        <time>2015-08-10T19:37:22Z</time>
      </trkpt>
      <trkpt lat="48.81421" lon="2.27044">
        <ele>65.800003051758</ele>
        <time>2015-08-10T19:37:29Z</time>
      </trkpt>
      <trkpt lat="48.81424" lon="2.2708">
        <ele>65</ele>
        <time>2015-08-10T19:37:33Z</time>
      </trkpt>
      <trkpt lat="48.81426" lon="2.2711">
        <ele>64.800003051758</ele>
        <time>2015-08-10T19:37:36Z</time>
      </trkpt>
      <trkpt lat="48.81429" lon="2.2714">
        <ele>64.400001525879</ele>
        <time>2015-08-10T19:37:39Z</time>
      </trkpt>
      <trkpt lat="48.81433" lon="2.2717">
        <ele>63.400001525879</ele>
        <time>2015-08-10T19:37:42Z</time>
      </trkpt>
      <trkpt lat="48.81436" lon="2.27203">
        <ele>62.599998474121</ele>
        <time>2015-08-10T19:37:46Z</time>
      </trkpt>
      <trkpt lat="48.81438" lon="2.27226">
        <ele>62</ele>
        <time>2015-08-10T19:37:50Z</time>
      </trkpt>
      <trkpt lat="48.81439" lon="2.2726">
        <ele>60.79999923706</ele>
        <time>2015-08-10T19:37:55Z</time>
      </trkpt>
      <trkpt lat="48.81439" lon="2.27274">
        <ele>60.400001525879</ele>
        <time>2015-08-10T19:37:57Z</time>
      </trkpt>
      <trkpt lat="48.8144" lon="2.27303">
        <ele>58.400001525879</ele>
        <time>2015-08-10T19:38:01Z</time>
      </trkpt>
      <trkpt lat="48.81443" lon="2.27332">
        <ele>58.400001525879</ele>
        <time>2015-08-10T19:38:05Z</time>
      </trkpt>
      <trkpt lat="48.81446" lon="2.27359">
        <ele>56.79999923706</ele>
        <time>2015-08-10T19:38:09Z</time>
      </trkpt>
      <trkpt lat="48.81449" lon="2.27381">
        <ele>56.20000076294</ele>
        <time>2015-08-10T19:38:12Z</time>
      </trkpt>
      <trkpt lat="48.81454" lon="2.27412">
        <ele>55.599998474121</ele>
        <time>2015-08-10T19:38:16Z</time>
      </trkpt>
      <trkpt lat="48.81456" lon="2.27419">
        <ele>55.400001525879</ele>
        <time>2015-08-10T19:38:17Z</time>
      </trkpt>
      <trkpt lat="48.81463" lon="2.27454">
        <ele>54.79999923706</ele>
        <time>2015-08-10T19:38:21Z</time>
      </trkpt>
      <trkpt lat="48.81466" lon="2.27462">
        <ele>54.599998474121</ele>
        <time>2015-08-10T19:38:22Z</time>
      </trkpt>
      <trkpt lat="48.81473" lon="2.27488">
        <ele>54.20000076294</ele>
        <time>2015-08-10T19:38:25Z</time>
      </trkpt>
      <trkpt lat="48.81478" lon="2.27515">
        <ele>54.20000076294</ele>
        <time>2015-08-10T19:38:28Z</time>
      </trkpt>
      <trkpt lat="48.81482" lon="2.2754">
        <ele>53.20000076294</ele>
        <time>2015-08-10T19:38:31Z</time>
      </trkpt>
      <trkpt lat="48.81489" lon="2.27573">
        <ele>52.599998474121</ele>
        <time>2015-08-10T19:38:35Z</time>
      </trkpt>
      <trkpt lat="48.81496" lon="2.27605">
        <ele>51.79999923706</ele>
        <time>2015-08-10T19:38:39Z</time>
      </trkpt>
      <trkpt lat="48.81499" lon="2.27613">
        <ele>51.79999923706</ele>
        <time>2015-08-10T19:38:40Z</time>
      </trkpt>
      <trkpt lat="48.81509" lon="2.27641">
        <ele>51.400001525879</ele>
        <time>2015-08-10T19:38:44Z</time>
      </trkpt>
      <trkpt lat="48.81519" lon="2.27664">
        <ele>50.79999923706</ele>
        <time>2015-08-10T19:38:48Z</time>
      </trkpt>
      <trkpt lat="48.8153" lon="2.27693">
        <ele>50.400001525879</ele>
        <time>2015-08-10T19:38:53Z</time>
      </trkpt>
      <trkpt lat="48.81532" lon="2.27699">
        <ele>50.79999923706</ele>
        <time>2015-08-10T19:38:54Z</time>
      </trkpt>
      <trkpt lat="48.81532" lon="2.27727">
        <ele>50.79999923706</ele>
        <time>2015-08-10T19:38:59Z</time>
      </trkpt>
      <trkpt lat="48.81529" lon="2.27733">
        <ele>50.400001525879</ele>
        <time>2015-08-10T19:39:00Z</time>
      </trkpt>
      <trkpt lat="48.81526" lon="2.27738">
        <ele>50.400001525879</ele>
        <time>2015-08-10T19:39:01Z</time>
      </trkpt>
      <trkpt lat="48.8152" lon="2.27749">
        <ele>49.79999923706</ele>
        <time>2015-08-10T19:39:03Z</time>
      </trkpt>
      <trkpt lat="48.81508" lon="2.27775">
        <ele>48.599998474121</ele>
        <time>2015-08-10T19:39:08Z</time>
      </trkpt>
      <trkpt lat="48.81504" lon="2.27784">
        <ele>48.599998474121</ele>
        <time>2015-08-10T19:39:10Z</time>
      </trkpt>
      <trkpt lat="48.81493" lon="2.27802">
        <ele>48.20000076294</ele>
        <time>2015-08-10T19:39:15Z</time>
      </trkpt>
      <trkpt lat="48.81495" lon="2.27828">
        <ele>51.20000076294</ele>
        <time>2015-08-10T19:39:22Z</time>
      </trkpt>
      <trkpt lat="48.81497" lon="2.27832">
        <ele>51.599998474121</ele>
        <time>2015-08-10T19:39:23Z</time>
      </trkpt>
      <trkpt lat="48.81499" lon="2.27835">
        <ele>52</ele>
        <time>2015-08-10T19:39:24Z</time>
      </trkpt>
      <trkpt lat="48.81511" lon="2.27847">
        <ele>52.599998474121</ele>
        <time>2015-08-10T19:39:28Z</time>
      </trkpt>
      <trkpt lat="48.81529" lon="2.27862">
        <ele>52</ele>
        <time>2015-08-10T19:39:33Z</time>
      </trkpt>
      <trkpt lat="48.81546" lon="2.27881">
        <ele>52.20000076294</ele>
        <time>2015-08-10T19:39:37Z</time>
      </trkpt>
      <trkpt lat="48.81565" lon="2.27901">
        <ele>52.400001525879</ele>
        <time>2015-08-10T19:39:41Z</time>
      </trkpt>
      <trkpt lat="48.81584" lon="2.27923">
        <ele>52.400001525879</ele>
        <time>2015-08-10T19:39:45Z</time>
      </trkpt>
      <trkpt lat="48.81601" lon="2.27946">
        <ele>52.599998474121</ele>
        <time>2015-08-10T19:39:49Z</time>
      </trkpt>
      <trkpt lat="48.81615" lon="2.27969">
        <ele>53.20000076294</ele>
        <time>2015-08-10T19:39:53Z</time>
      </trkpt>
      <trkpt lat="48.81619" lon="2.27974">
        <ele>53.20000076294</ele>
        <time>2015-08-10T19:39:54Z</time>
      </trkpt>
      <trkpt lat="48.81634" lon="2.27993">
        <ele>52.599998474121</ele>
        <time>2015-08-10T19:39:57Z</time>
      </trkpt>
      <trkpt lat="48.8165" lon="2.2802">
        <ele>52.599998474121</ele>
        <time>2015-08-10T19:40:01Z</time>
      </trkpt>
      <trkpt lat="48.8166" lon="2.28036">
        <ele>50.599998474121</ele>
        <time>2015-08-10T19:40:03Z</time>
      </trkpt>
      <trkpt lat="48.81672" lon="2.28058">
        <ele>49</ele>
        <time>2015-08-10T19:40:06Z</time>
      </trkpt>
      <trkpt lat="48.81674" lon="2.28066">
        <ele>48.20000076294</ele>
        <time>2015-08-10T19:40:07Z</time>
      </trkpt>
      <trkpt lat="48.81686" lon="2.28098">
        <ele>46.20000076294</ele>
        <time>2015-08-10T19:40:11Z</time>
      </trkpt>
      <trkpt lat="48.81696" lon="2.28127">
        <ele>45</ele>
        <time>2015-08-10T19:40:15Z</time>
      </trkpt>
      <trkpt lat="48.81704" lon="2.28157">
        <ele>45.20000076294</ele>
        <time>2015-08-10T19:40:19Z</time>
      </trkpt>
      <trkpt lat="48.81711" lon="2.28188">
        <ele>45.79999923706</ele>
        <time>2015-08-10T19:40:23Z</time>
      </trkpt>
      <trkpt lat="48.81718" lon="2.28218">
        <ele>48.20000076294</ele>
        <time>2015-08-10T19:40:27Z</time>
      </trkpt>
      <trkpt lat="48.81728" lon="2.28246">
        <ele>48.599998474121</ele>
        <time>2015-08-10T19:40:31Z</time>
      </trkpt>
      <trkpt lat="48.81738" lon="2.28274">
        <ele>48.400001525879</ele>
        <time>2015-08-10T19:40:35Z</time>
      </trkpt>
      <trkpt lat="48.81749" lon="2.28302">
        <ele>48.79999923706</ele>
        <time>2015-08-10T19:40:39Z</time>
      </trkpt>
      <trkpt lat="48.81759" lon="2.28324">
        <ele>49</ele>
        <time>2015-08-10T19:40:42Z</time>
      </trkpt>
      <trkpt lat="48.81769" lon="2.28347">
        <ele>50</ele>
        <time>2015-08-10T19:40:45Z</time>
      </trkpt>
      <trkpt lat="48.81773" lon="2.28354">
        <ele>49.79999923706</ele>
        <time>2015-08-10T19:40:46Z</time>
      </trkpt>
      <trkpt lat="48.81784" lon="2.28376">
        <ele>49</ele>
        <time>2015-08-10T19:40:49Z</time>
      </trkpt>
      <trkpt lat="48.8179" lon="2.2839">
        <ele>49</ele>
        <time>2015-08-10T19:40:51Z</time>
      </trkpt>
      <trkpt lat="48.81802" lon="2.28417">
        <ele>48.400001525879</ele>
        <time>2015-08-10T19:40:55Z</time>
      </trkpt>
      <trkpt lat="48.81811" lon="2.28444">
        <ele>47.79999923706</ele>
        <time>2015-08-10T19:40:59Z</time>
      </trkpt>
      <trkpt lat="48.81814" lon="2.2845">
        <ele>47.20000076294</ele>
        <time>2015-08-10T19:41:00Z</time>
      </trkpt>
      <trkpt lat="48.81821" lon="2.28462">
        <ele>46</ele>
        <time>2015-08-10T19:41:03Z</time>
      </trkpt>
      <trkpt lat="48.81825" lon="2.28468">
        <ele>45</ele>
        <time>2015-08-10T19:41:06Z</time>
      </trkpt>
      <trkpt lat="48.81828" lon="2.28496">
        <ele>46.20000076294</ele>
        <time>2015-08-10T19:41:19Z</time>
      </trkpt>
      <trkpt lat="48.81834" lon="2.28526">
        <ele>45</ele>
        <time>2015-08-10T19:41:23Z</time>
      </trkpt>
      <trkpt lat="48.81844" lon="2.28558">
        <ele>45.20000076294</ele>
        <time>2015-08-10T19:41:27Z</time>
      </trkpt>
      <trkpt lat="48.81853" lon="2.28588">
        <ele>46</ele>
        <time>2015-08-10T19:41:31Z</time>
      </trkpt>
      <trkpt lat="48.81863" lon="2.28616">
        <ele>47.400001525879</ele>
        <time>2015-08-10T19:41:35Z</time>
      </trkpt>
      <trkpt lat="48.81873" lon="2.28642">
        <ele>49.79999923706</ele>
        <time>2015-08-10T19:41:39Z</time>
      </trkpt>
      <trkpt lat="48.81885" lon="2.28667">
        <ele>51.599998474121</ele>
        <time>2015-08-10T19:41:43Z</time>
      </trkpt>
      <trkpt lat="48.81897" lon="2.28693">
        <ele>53.599998474121</ele>
        <time>2015-08-10T19:41:48Z</time>
      </trkpt>
      <trkpt lat="48.81901" lon="2.28702">
        <ele>54.599998474121</ele>
        <time>2015-08-10T19:41:50Z</time>
      </trkpt>
      <trkpt lat="48.81913" lon="2.28728">
        <ele>57.79999923706</ele>
        <time>2015-08-10T19:41:55Z</time>
      </trkpt>
      <trkpt lat="48.81918" lon="2.28744">
        <ele>58.79999923706</ele>
        <time>2015-08-10T19:41:58Z</time>
      </trkpt>
      <trkpt lat="48.81927" lon="2.28766">
        <ele>59.79999923706</ele>
        <time>2015-08-10T19:42:02Z</time>
      </trkpt>
      <trkpt lat="48.81938" lon="2.28793">
        <ele>60.400001525879</ele>
        <time>2015-08-10T19:42:07Z</time>
      </trkpt>
      <trkpt lat="48.81942" lon="2.28803">
        <ele>60.599998474121</ele>
        <time>2015-08-10T19:42:09Z</time>
      </trkpt>
      <trkpt lat="48.81949" lon="2.28823">
        <ele>60.79999923706</ele>
        <time>2015-08-10T19:42:13Z</time>
      </trkpt>
      <trkpt lat="48.8195" lon="2.28825">
        <ele>60.79999923706</ele>
        <time>2015-08-10T19:42:14Z</time>
      </trkpt>
      <trkpt lat="48.81965" lon="2.28843">
        <ele>61.400001525879</ele>
        <time>2015-08-10T19:42:20Z</time>
      </trkpt>
      <trkpt lat="48.81966" lon="2.28852">
        <ele>62.20000076294</ele>
        <time>2015-08-10T19:42:22Z</time>
      </trkpt>
      <trkpt lat="48.81972" lon="2.28879">
        <ele>63.400001525879</ele>
        <time>2015-08-10T19:42:28Z</time>
      </trkpt>
      <trkpt lat="48.81978" lon="2.28908">
        <ele>60.20000076294</ele>
        <time>2015-08-10T19:42:36Z</time>
      </trkpt>
      <trkpt lat="48.81984" lon="2.28934">
        <ele>59.599998474121</ele>
        <time>2015-08-10T19:42:46Z</time>
      </trkpt>
      <trkpt lat="48.81983" lon="2.28954">
        <ele>57.79999923706</ele>
        <time>2015-08-10T19:43:21Z</time>
      </trkpt>
      <trkpt lat="48.81994" lon="2.28982">
        <ele>57.79999923706</ele>
        <time>2015-08-10T19:43:27Z</time>
      </trkpt>
      <trkpt lat="48.82004" lon="2.29008">
        <ele>56</ele>
        <time>2015-08-10T19:43:33Z</time>
      </trkpt>
      <trkpt lat="48.82017" lon="2.29032">
        <ele>49.400001525879</ele>
        <time>2015-08-10T19:43:42Z</time>
      </trkpt>
      <trkpt lat="48.82022" lon="2.29044">
        <ele>49.79999923706</ele>
        <time>2015-08-10T19:43:46Z</time>
      </trkpt>
      <trkpt lat="48.8202" lon="2.29069">
        <ele>49.20000076294</ele>
        <time>2015-08-10T19:44:01Z</time>
      </trkpt>
      <trkpt lat="48.82025" lon="2.29089">
        <ele>49</ele>
        <time>2015-08-10T19:44:07Z</time>
      </trkpt>
      <trkpt lat="48.82043" lon="2.29107">
        <ele>47.599998474121</ele>
        <time>2015-08-10T19:44:14Z</time>
      </trkpt>
      <trkpt lat="48.82055" lon="2.29132">
        <ele>46.79999923706</ele>
        <time>2015-08-10T19:44:19Z</time>
      </trkpt>
      <trkpt lat="48.82063" lon="2.2915">
        <ele>46.400001525879</ele>
        <time>2015-08-10T19:44:22Z</time>
      </trkpt>
      <trkpt lat="48.82074" lon="2.29175">
        <ele>46.599998474121</ele>
        <time>2015-08-10T19:44:26Z</time>
      </trkpt>
      <trkpt lat="48.82091" lon="2.29199">
        <ele>47.400001525879</ele>
        <time>2015-08-10T19:44:30Z</time>
      </trkpt>
      <trkpt lat="48.82107" lon="2.29224">
        <ele>47</ele>
        <time>2015-08-10T19:44:34Z</time>
      </trkpt>
      <trkpt lat="48.82121" lon="2.2925">
        <ele>46.79999923706</ele>
        <time>2015-08-10T19:44:38Z</time>
      </trkpt>
      <trkpt lat="48.82134" lon="2.29276">
        <ele>47</ele>
        <time>2015-08-10T19:44:42Z</time>
      </trkpt>
      <trkpt lat="48.8215" lon="2.293">
        <ele>47.599998474121</ele>
        <time>2015-08-10T19:44:46Z</time>
      </trkpt>
      <trkpt lat="48.82167" lon="2.29321">
        <ele>47.400001525879</ele>
        <time>2015-08-10T19:44:50Z</time>
      </trkpt>
      <trkpt lat="48.82181" lon="2.29342">
        <ele>48</ele>
        <time>2015-08-10T19:44:54Z</time>
      </trkpt>
      <trkpt lat="48.82193" lon="2.29364">
        <ele>49.79999923706</ele>
        <time>2015-08-10T19:44:58Z</time>
      </trkpt>
      <trkpt lat="48.82208" lon="2.29388">
        <ele>51.599998474121</ele>
        <time>2015-08-10T19:45:02Z</time>
      </trkpt>
      <trkpt lat="48.82212" lon="2.29391">
        <ele>53</ele>
        <time>2015-08-10T19:45:03Z</time>
      </trkpt>
      <trkpt lat="48.82226" lon="2.29412">
        <ele>56</ele>
        <time>2015-08-10T19:45:07Z</time>
      </trkpt>
      <trkpt lat="48.82233" lon="2.29425">
        <ele>57.400001525879</ele>
        <time>2015-08-10T19:45:09Z</time>
      </trkpt>
      <trkpt lat="48.82248" lon="2.2945">
        <ele>58.599998474121</ele>
        <time>2015-08-10T19:45:13Z</time>
      </trkpt>
      <trkpt lat="48.82251" lon="2.29457">
        <ele>59</ele>
        <time>2015-08-10T19:45:14Z</time>
      </trkpt>
      <trkpt lat="48.82268" lon="2.29481">
        <ele>61.20000076294</ele>
        <time>2015-08-10T19:45:18Z</time>
      </trkpt>
      <trkpt lat="48.8228" lon="2.29509">
        <ele>66</ele>
        <time>2015-08-10T19:45:21Z</time>
      </trkpt>
      <trkpt lat="48.82292" lon="2.29534">
        <ele>69.199996948242</ele>
        <time>2015-08-10T19:45:25Z</time>
      </trkpt>
      <trkpt lat="48.82305" lon="2.29562">
        <ele>72.800003051758</ele>
        <time>2015-08-10T19:45:29Z</time>
      </trkpt>
      <trkpt lat="48.82316" lon="2.29584">
        <ele>75.400001525879</ele>
        <time>2015-08-10T19:45:32Z</time>
      </trkpt>
      <trkpt lat="48.82328" lon="2.29613">
        <ele>77.400001525879</ele>
        <time>2015-08-10T19:45:36Z</time>
      </trkpt>
      <trkpt lat="48.82338" lon="2.29641">
        <ele>79</ele>
        <time>2015-08-10T19:45:40Z</time>
      </trkpt>
      <trkpt lat="48.82349" lon="2.2967">
        <ele>79.400001525879</ele>
        <time>2015-08-10T19:45:44Z</time>
      </trkpt>
      <trkpt lat="48.82359" lon="2.29689">
        <ele>79.599998474121</ele>
        <time>2015-08-10T19:45:47Z</time>
      </trkpt>
      <trkpt lat="48.82373" lon="2.29716">
        <ele>80</ele>
        <time>2015-08-10T19:45:51Z</time>
      </trkpt>
      <trkpt lat="48.82385" lon="2.29743">
        <ele>81.599998474121</ele>
        <time>2015-08-10T19:45:56Z</time>
      </trkpt>
      <trkpt lat="48.82397" lon="2.2977">
        <ele>82.199996948242</ele>
        <time>2015-08-10T19:46:01Z</time>
      </trkpt>
      <trkpt lat="48.82408" lon="2.29796">
        <ele>85.599998474121</ele>
        <time>2015-08-10T19:46:05Z</time>
      </trkpt>
      <trkpt lat="48.82418" lon="2.29816">
        <ele>86.800003051758</ele>
        <time>2015-08-10T19:46:08Z</time>
      </trkpt>
      <trkpt lat="48.82431" lon="2.29843">
        <ele>87.400001525879</ele>
        <time>2015-08-10T19:46:12Z</time>
      </trkpt>
      <trkpt lat="48.82438" lon="2.29857">
        <ele>87.800003051758</ele>
        <time>2015-08-10T19:46:14Z</time>
      </trkpt>
      <trkpt lat="48.82449" lon="2.29882">
        <ele>89.800003051758</ele>
        <time>2015-08-10T19:46:18Z</time>
      </trkpt>
      <trkpt lat="48.82462" lon="2.29909">
        <ele>93.400001525879</ele>
        <time>2015-08-10T19:46:22Z</time>
      </trkpt>
      <trkpt lat="48.82472" lon="2.29935">
        <ele>97.800003051758</ele>
        <time>2015-08-10T19:46:26Z</time>
      </trkpt>
      <trkpt lat="48.82484" lon="2.2996">
        <ele>100.40000152588</ele>
        <time>2015-08-10T19:46:30Z</time>
      </trkpt>
      <trkpt lat="48.82496" lon="2.29988">
        <ele>101.59999847412</ele>
        <time>2015-08-10T19:46:35Z</time>
      </trkpt>
      <trkpt lat="48.82496" lon="2.29992">
        <ele>101</ele>
        <time>2015-08-10T19:46:36Z</time>
      </trkpt>
      <trkpt lat="48.82507" lon="2.3001">
        <ele>98.199996948242</ele>
        <time>2015-08-10T19:46:42Z</time>
      </trkpt>
      <trkpt lat="48.82521" lon="2.30037">
        <ele>76.199996948242</ele>
        <time>2015-08-10T19:46:54Z</time>
      </trkpt>
      <trkpt lat="48.82524" lon="2.30044">
        <ele>67.400001525879</ele>
        <time>2015-08-10T19:47:07Z</time>
      </trkpt>
      <trkpt lat="48.82528" lon="2.3005">
        <ele>49.79999923706</ele>
        <time>2015-08-10T19:47:35Z</time>
      </trkpt>
      <trkpt lat="48.82536" lon="2.30077">
        <ele>49</ele>
        <time>2015-08-10T19:47:47Z</time>
      </trkpt>
      <trkpt lat="48.82535" lon="2.30104">
        <ele>49.20000076294</ele>
        <time>2015-08-10T19:47:52Z</time>
      </trkpt>
      <trkpt lat="48.82529" lon="2.30132">
        <ele>48.599998474121</ele>
        <time>2015-08-10T19:47:56Z</time>
      </trkpt>
      <trkpt lat="48.82519" lon="2.30157">
        <ele>48.599998474121</ele>
        <time>2015-08-10T19:48:00Z</time>
      </trkpt>
      <trkpt lat="48.82511" lon="2.30183">
        <ele>46.79999923706</ele>
        <time>2015-08-10T19:48:06Z</time>
      </trkpt>
      <trkpt lat="48.82518" lon="2.30203">
        <ele>45.79999923706</ele>
        <time>2015-08-10T19:48:22Z</time>
      </trkpt>
      <trkpt lat="48.82537" lon="2.30211">
        <ele>46.79999923706</ele>
        <time>2015-08-10T19:48:32Z</time>
      </trkpt>
      <trkpt lat="48.82541" lon="2.30212">
        <ele>46.599998474121</ele>
        <time>2015-08-10T19:48:35Z</time>
      </trkpt>
      <trkpt lat="48.82559" lon="2.30224">
        <ele>46.79999923706</ele>
        <time>2015-08-10T19:48:44Z</time>
      </trkpt>
      <trkpt lat="48.82573" lon="2.30242">
        <ele>48.400001525879</ele>
        <time>2015-08-10T19:48:49Z</time>
      </trkpt>
      <trkpt lat="48.82589" lon="2.30256">
        <ele>48.20000076294</ele>
        <time>2015-08-10T19:48:54Z</time>
      </trkpt>
      <trkpt lat="48.82602" lon="2.30275">
        <ele>47.79999923706</ele>
        <time>2015-08-10T19:48:59Z</time>
      </trkpt>
      <trkpt lat="48.82612" lon="2.3029">
        <ele>47</ele>
        <time>2015-08-10T19:49:03Z</time>
      </trkpt>
      <trkpt lat="48.82629" lon="2.303">
        <ele>48.20000076294</ele>
        <time>2015-08-10T19:49:08Z</time>
      </trkpt>
      <trkpt lat="48.82646" lon="2.30316">
        <ele>48.599998474121</ele>
        <time>2015-08-10T19:49:13Z</time>
      </trkpt>
      <trkpt lat="48.82664" lon="2.30331">
        <ele>48.599998474121</ele>
        <time>2015-08-10T19:49:19Z</time>
      </trkpt>
      <trkpt lat="48.82682" lon="2.30347">
        <ele>50</ele>
        <time>2015-08-10T19:49:24Z</time>
      </trkpt>
      <trkpt lat="48.82699" lon="2.30365">
        <ele>52.20000076294</ele>
        <time>2015-08-10T19:49:30Z</time>
      </trkpt>
      <trkpt lat="48.82716" lon="2.30381">
        <ele>53.400001525879</ele>
        <time>2015-08-10T19:49:36Z</time>
      </trkpt>
      <trkpt lat="48.82732" lon="2.304">
        <ele>55</ele>
        <time>2015-08-10T19:49:41Z</time>
      </trkpt>
      <trkpt lat="48.8275" lon="2.30418">
        <ele>56.599998474121</ele>
        <time>2015-08-10T19:49:46Z</time>
      </trkpt>
      <trkpt lat="48.82767" lon="2.30437">
        <ele>56.20000076294</ele>
        <time>2015-08-10T19:49:50Z</time>
      </trkpt>
      <trkpt lat="48.82781" lon="2.30455">
        <ele>54.20000076294</ele>
        <time>2015-08-10T19:49:53Z</time>
      </trkpt>
      <trkpt lat="48.82795" lon="2.30473">
        <ele>55.20000076294</ele>
        <time>2015-08-10T19:49:57Z</time>
      </trkpt>
      <trkpt lat="48.8281" lon="2.30491">
        <ele>54.79999923706</ele>
        <time>2015-08-10T19:50:01Z</time>
      </trkpt>
      <trkpt lat="48.82824" lon="2.30509">
        <ele>54.79999923706</ele>
        <time>2015-08-10T19:50:05Z</time>
      </trkpt>
      <trkpt lat="48.8284" lon="2.30528">
        <ele>54.400001525879</ele>
        <time>2015-08-10T19:50:09Z</time>
      </trkpt>
      <trkpt lat="48.82856" lon="2.30547">
        <ele>55.20000076294</ele>
        <time>2015-08-10T19:50:13Z</time>
      </trkpt>
      <trkpt lat="48.82868" lon="2.30568">
        <ele>53.20000076294</ele>
        <time>2015-08-10T19:50:16Z</time>
      </trkpt>
      <trkpt lat="48.82874" lon="2.30582">
        <ele>52.400001525879</ele>
        <time>2015-08-10T19:50:18Z</time>
      </trkpt>
      <trkpt lat="48.82883" lon="2.306">
        <ele>51.400001525879</ele>
        <time>2015-08-10T19:50:21Z</time>
      </trkpt>
      <trkpt lat="48.82899" lon="2.30619">
        <ele>50</ele>
        <time>2015-08-10T19:50:26Z</time>
      </trkpt>
      <trkpt lat="48.82916" lon="2.30637">
        <ele>50</ele>
        <time>2015-08-10T19:50:31Z</time>
      </trkpt>
      <trkpt lat="48.82922" lon="2.30641">
        <ele>50.20000076294</ele>
        <time>2015-08-10T19:50:33Z</time>
      </trkpt>
      <trkpt lat="48.82927" lon="2.30648">
        <ele>50.400001525879</ele>
        <time>2015-08-10T19:50:38Z</time>
      </trkpt>
      <trkpt lat="48.82943" lon="2.30662">
        <ele>52.79999923706</ele>
        <time>2015-08-10T19:50:54Z</time>
      </trkpt>
      <trkpt lat="48.82956" lon="2.30683">
        <ele>53.20000076294</ele>
        <time>2015-08-10T19:50:59Z</time>
      </trkpt>
      <trkpt lat="48.8297" lon="2.30708">
        <ele>53.400001525879</ele>
        <time>2015-08-10T19:51:05Z</time>
      </trkpt>
      <trkpt lat="48.82985" lon="2.30728">
        <ele>53.599998474121</ele>
        <time>2015-08-10T19:51:09Z</time>
      </trkpt>
      <trkpt lat="48.83" lon="2.30747">
        <ele>54.20000076294</ele>
        <time>2015-08-10T19:51:13Z</time>
      </trkpt>
      <trkpt lat="48.83014" lon="2.30766">
        <ele>53.79999923706</ele>
        <time>2015-08-10T19:51:17Z</time>
      </trkpt>
      <trkpt lat="48.83028" lon="2.30785">
        <ele>52.599998474121</ele>
        <time>2015-08-10T19:51:21Z</time>
      </trkpt>
      <trkpt lat="48.83044" lon="2.30807">
        <ele>48.20000076294</ele>
        <time>2015-08-10T19:51:24Z</time>
      </trkpt>
      <trkpt lat="48.83058" lon="2.30831">
        <ele>45.400001525879</ele>
        <time>2015-08-10T19:51:29Z</time>
      </trkpt>
      <trkpt lat="48.83074" lon="2.30847">
        <ele>45.79999923706</ele>
        <time>2015-08-10T19:51:32Z</time>
      </trkpt>
      <trkpt lat="48.8309" lon="2.30867">
        <ele>44.599998474121</ele>
        <time>2015-08-10T19:51:36Z</time>
      </trkpt>
      <trkpt lat="48.83106" lon="2.30891">
        <ele>41</ele>
        <time>2015-08-10T19:51:40Z</time>
      </trkpt>
      <trkpt lat="48.83122" lon="2.30918">
        <ele>38</ele>
        <time>2015-08-10T19:51:44Z</time>
      </trkpt>
      <trkpt lat="48.8314" lon="2.30937">
        <ele>38.20000076294</ele>
        <time>2015-08-10T19:51:47Z</time>
      </trkpt>
      <trkpt lat="48.83156" lon="2.30955">
        <ele>38.400001525879</ele>
        <time>2015-08-10T19:51:50Z</time>
      </trkpt>
      <trkpt lat="48.83171" lon="2.30976">
        <ele>37.400001525879</ele>
        <time>2015-08-10T19:51:53Z</time>
      </trkpt>
      <trkpt lat="48.83185" lon="2.31003">
        <ele>37.400001525879</ele>
        <time>2015-08-10T19:51:57Z</time>
      </trkpt>
      <trkpt lat="48.83202" lon="2.31029">
        <ele>38.20000076294</ele>
        <time>2015-08-10T19:52:01Z</time>
      </trkpt>
      <trkpt lat="48.83216" lon="2.31053">
        <ele>37.400001525879</ele>
        <time>2015-08-10T19:52:05Z</time>
      </trkpt>
      <trkpt lat="48.83227" lon="2.31076">
        <ele>37</ele>
        <time>2015-08-10T19:52:09Z</time>
      </trkpt>
      <trkpt lat="48.83241" lon="2.31101">
        <ele>36</ele>
        <time>2015-08-10T19:52:15Z</time>
      </trkpt>
      <trkpt lat="48.83251" lon="2.3112">
        <ele>35.79999923706</ele>
        <time>2015-08-10T19:52:20Z</time>
      </trkpt>
      <trkpt lat="48.83257" lon="2.31121">
        <ele>35.79999923706</ele>
        <time>2015-08-10T19:52:23Z</time>
      </trkpt>
      <trkpt lat="48.83268" lon="2.31131">
        <ele>36.599998474121</ele>
        <time>2015-08-10T19:52:28Z</time>
      </trkpt>
      <trkpt lat="48.83271" lon="2.31134">
        <ele>37.400001525879</ele>
        <time>2015-08-10T19:52:29Z</time>
      </trkpt>
      <trkpt lat="48.83283" lon="2.31149">
        <ele>40.20000076294</ele>
        <time>2015-08-10T19:52:35Z</time>
      </trkpt>
      <trkpt lat="48.83287" lon="2.31153">
        <ele>40.599998474121</ele>
        <time>2015-08-10T19:52:37Z</time>
      </trkpt>
      <trkpt lat="48.83301" lon="2.31173">
        <ele>42.400001525879</ele>
        <time>2015-08-10T19:52:45Z</time>
      </trkpt>
      <trkpt lat="48.83318" lon="2.31184">
        <ele>50</ele>
        <time>2015-08-10T19:53:23Z</time>
      </trkpt>
      <trkpt lat="48.83312" lon="2.31176">
        <ele>55.20000076294</ele>
        <time>2015-08-10T19:54:07Z</time>
      </trkpt>
      <trkpt lat="48.83314" lon="2.31174">
        <ele>59</ele>
        <time>2015-08-10T19:55:15Z</time>
      </trkpt>
      <trkpt lat="48.83316" lon="2.31179">
        <ele>61.400001525879</ele>
        <time>2015-08-10T19:55:58Z</time>
      </trkpt>
      <trkpt lat="48.83328" lon="2.31198">
        <ele>61.599998474121</ele>
        <time>2015-08-10T19:56:05Z</time>
      </trkpt>
      <trkpt lat="48.83341" lon="2.31223">
        <ele>63</ele>
        <time>2015-08-10T19:56:11Z</time>
      </trkpt>
      <trkpt lat="48.83354" lon="2.31244">
        <ele>63.79999923706</ele>
        <time>2015-08-10T19:56:16Z</time>
      </trkpt>
      <trkpt lat="48.83369" lon="2.31263">
        <ele>64.199996948242</ele>
        <time>2015-08-10T19:56:21Z</time>
      </trkpt>
      <trkpt lat="48.83386" lon="2.31289">
        <ele>63.79999923706</ele>
        <time>2015-08-10T19:56:27Z</time>
      </trkpt>
      <trkpt lat="48.83402" lon="2.31309">
        <ele>62.79999923706</ele>
        <time>2015-08-10T19:56:31Z</time>
      </trkpt>
      <trkpt lat="48.83414" lon="2.31331">
        <ele>60.79999923706</ele>
        <time>2015-08-10T19:56:36Z</time>
      </trkpt>
      <trkpt lat="48.83431" lon="2.31348">
        <ele>59</ele>
        <time>2015-08-10T19:56:42Z</time>
      </trkpt>
      <trkpt lat="48.83445" lon="2.31372">
        <ele>58.400001525879</ele>
        <time>2015-08-10T19:56:49Z</time>
      </trkpt>
      <trkpt lat="48.8346" lon="2.31394">
        <ele>58.599998474121</ele>
        <time>2015-08-10T19:56:54Z</time>
      </trkpt>
      <trkpt lat="48.83473" lon="2.31413">
        <ele>60.599998474121</ele>
        <time>2015-08-10T19:56:58Z</time>
      </trkpt>
      <trkpt lat="48.83487" lon="2.31434">
        <ele>62.400001525879</ele>
        <time>2015-08-10T19:57:03Z</time>
      </trkpt>
      <trkpt lat="48.835" lon="2.31453">
        <ele>65</ele>
        <time>2015-08-10T19:57:07Z</time>
      </trkpt>
      <trkpt lat="48.83515" lon="2.31477">
        <ele>65.400001525879</ele>
        <time>2015-08-10T19:57:12Z</time>
      </trkpt>
      <trkpt lat="48.83529" lon="2.31499">
        <ele>62.79999923706</ele>
        <time>2015-08-10T19:57:16Z</time>
      </trkpt>
      <trkpt lat="48.83542" lon="2.31522">
        <ele>61.400001525879</ele>
        <time>2015-08-10T19:57:21Z</time>
      </trkpt>
      <trkpt lat="48.83544" lon="2.31525">
        <ele>61.400001525879</ele>
        <time>2015-08-10T19:57:22Z</time>
      </trkpt>
      <trkpt lat="48.83552" lon="2.31539">
        <ele>61.400001525879</ele>
        <time>2015-08-10T19:57:27Z</time>
      </trkpt>
      <trkpt lat="48.83553" lon="2.31544">
        <ele>61.20000076294</ele>
        <time>2015-08-10T19:57:28Z</time>
      </trkpt>
      <trkpt lat="48.83561" lon="2.31564">
        <ele>62.79999923706</ele>
        <time>2015-08-10T19:57:33Z</time>
      </trkpt>
      <trkpt lat="48.83572" lon="2.31585">
        <ele>62.400001525879</ele>
        <time>2015-08-10T19:57:38Z</time>
      </trkpt>
      <trkpt lat="48.83583" lon="2.31609">
        <ele>62</ele>
        <time>2015-08-10T19:57:43Z</time>
      </trkpt>
      <trkpt lat="48.83592" lon="2.31634">
        <ele>61.599998474121</ele>
        <time>2015-08-10T19:57:49Z</time>
      </trkpt>
      <trkpt lat="48.83609" lon="2.31654">
        <ele>58.20000076294</ele>
        <time>2015-08-10T19:57:53Z</time>
      </trkpt>
      <trkpt lat="48.83623" lon="2.31679">
        <ele>54.79999923706</ele>
        <time>2015-08-10T19:57:58Z</time>
      </trkpt>
      <trkpt lat="48.83636" lon="2.31705">
        <ele>51.599998474121</ele>
        <time>2015-08-10T19:58:03Z</time>
      </trkpt>
      <trkpt lat="48.83647" lon="2.31727">
        <ele>50.20000076294</ele>
        <time>2015-08-10T19:58:08Z</time>
      </trkpt>
      <trkpt lat="48.83658" lon="2.31751">
        <ele>49.400001525879</ele>
        <time>2015-08-10T19:58:16Z</time>
      </trkpt>
      <trkpt lat="48.83674" lon="2.31768">
        <ele>48.400001525879</ele>
        <time>2015-08-10T19:58:23Z</time>
      </trkpt>
      <trkpt lat="48.83686" lon="2.31789">
        <ele>45.79999923706</ele>
        <time>2015-08-10T19:58:30Z</time>
      </trkpt>
      <trkpt lat="48.83699" lon="2.31798">
        <ele>47.599998474121</ele>
        <time>2015-08-10T19:58:56Z</time>
      </trkpt>
      <trkpt lat="48.83696" lon="2.3182">
        <ele>49.400001525879</ele>
        <time>2015-08-10T19:59:24Z</time>
      </trkpt>
      <trkpt lat="48.83699" lon="2.3185">
        <ele>50.20000076294</ele>
        <time>2015-08-10T19:59:32Z</time>
      </trkpt>
      <trkpt lat="48.83715" lon="2.31872">
        <ele>51</ele>
        <time>2015-08-10T19:59:38Z</time>
      </trkpt>
      <trkpt lat="48.83728" lon="2.31898">
        <ele>51.400001525879</ele>
        <time>2015-08-10T19:59:43Z</time>
      </trkpt>
      <trkpt lat="48.83733" lon="2.3192">
        <ele>51</ele>
        <time>2015-08-10T19:59:46Z</time>
      </trkpt>
      <trkpt lat="48.83737" lon="2.31951">
        <ele>50.20000076294</ele>
        <time>2015-08-10T19:59:50Z</time>
      </trkpt>
      <trkpt lat="48.83742" lon="2.31981">
        <ele>50</ele>
        <time>2015-08-10T19:59:54Z</time>
      </trkpt>
      <trkpt lat="48.83747" lon="2.32009">
        <ele>50</ele>
        <time>2015-08-10T19:59:59Z</time>
      </trkpt>
      <trkpt lat="48.83747" lon="2.32014">
        <ele>50</ele>
        <time>2015-08-10T20:00:00Z</time>
      </trkpt>
      <trkpt lat="48.83748" lon="2.32027">
        <ele>50.599998474121</ele>
        <time>2015-08-10T20:00:03Z</time>
      </trkpt>
      <trkpt lat="48.83755" lon="2.3205">
        <ele>51.599998474121</ele>
        <time>2015-08-10T20:00:07Z</time>
      </trkpt>
      <trkpt lat="48.83758" lon="2.32081">
        <ele>52.79999923706</ele>
        <time>2015-08-10T20:00:11Z</time>
      </trkpt>
      <trkpt lat="48.83758" lon="2.32098">
        <ele>53.79999923706</ele>
        <time>2015-08-10T20:00:13Z</time>
      </trkpt>
      <trkpt lat="48.83762" lon="2.32131">
        <ele>55.599998474121</ele>
        <time>2015-08-10T20:00:17Z</time>
      </trkpt>
      <trkpt lat="48.83768" lon="2.32155">
        <ele>56.599998474121</ele>
        <time>2015-08-10T20:00:20Z</time>
      </trkpt>
      <trkpt lat="48.83773" lon="2.32186">
        <ele>57</ele>
        <time>2015-08-10T20:00:24Z</time>
      </trkpt>
      <trkpt lat="48.83774" lon="2.322">
        <ele>57.400001525879</ele>
        <time>2015-08-10T20:00:26Z</time>
      </trkpt>
      <trkpt lat="48.83773" lon="2.32221">
        <ele>57</ele>
        <time>2015-08-10T20:00:29Z</time>
      </trkpt>
      <trkpt lat="48.8377" lon="2.32243">
        <ele>57.79999923706</ele>
        <time>2015-08-10T20:00:33Z</time>
      </trkpt>
      <trkpt lat="48.83765" lon="2.32268">
        <ele>60.20000076294</ele>
        <time>2015-08-10T20:00:38Z</time>
      </trkpt>
      <trkpt lat="48.8376" lon="2.32288">
        <ele>61.599998474121</ele>
        <time>2015-08-10T20:00:42Z</time>
      </trkpt>
      <trkpt lat="48.83755" lon="2.32318">
        <ele>62.79999923706</ele>
        <time>2015-08-10T20:00:47Z</time>
      </trkpt>
      <trkpt lat="48.83748" lon="2.32341">
        <ele>64</ele>
        <time>2015-08-10T20:00:51Z</time>
      </trkpt>
      <trkpt lat="48.83738" lon="2.32365">
        <ele>63.79999923706</ele>
        <time>2015-08-10T20:00:55Z</time>
      </trkpt>
      <trkpt lat="48.8373" lon="2.32391">
        <ele>62.599998474121</ele>
        <time>2015-08-10T20:01:00Z</time>
      </trkpt>
      <trkpt lat="48.83728" lon="2.32397">
        <ele>62.599998474121</ele>
        <time>2015-08-10T20:01:01Z</time>
      </trkpt>
      <trkpt lat="48.83722" lon="2.32417">
        <ele>61.20000076294</ele>
        <time>2015-08-10T20:01:04Z</time>
      </trkpt>
      <trkpt lat="48.83713" lon="2.32445">
        <ele>60.20000076294</ele>
        <time>2015-08-10T20:01:08Z</time>
      </trkpt>
      <trkpt lat="48.83711" lon="2.32452">
        <ele>60.20000076294</ele>
        <time>2015-08-10T20:01:09Z</time>
      </trkpt>
      <trkpt lat="48.837" lon="2.32481">
        <ele>58.20000076294</ele>
        <time>2015-08-10T20:01:13Z</time>
      </trkpt>
      <trkpt lat="48.83689" lon="2.32512">
        <ele>56.599998474121</ele>
        <time>2015-08-10T20:01:17Z</time>
      </trkpt>
      <trkpt lat="48.83681" lon="2.32537">
        <ele>54.400001525879</ele>
        <time>2015-08-10T20:01:20Z</time>
      </trkpt>
      <trkpt lat="48.83671" lon="2.32563">
        <ele>52</ele>
        <time>2015-08-10T20:01:23Z</time>
      </trkpt>
      <trkpt lat="48.83661" lon="2.32596">
        <ele>50.599998474121</ele>
        <time>2015-08-10T20:01:27Z</time>
      </trkpt>
      <trkpt lat="48.8365" lon="2.32627">
        <ele>48.20000076294</ele>
        <time>2015-08-10T20:01:31Z</time>
      </trkpt>
      <trkpt lat="48.83637" lon="2.32656">
        <ele>45</ele>
        <time>2015-08-10T20:01:35Z</time>
      </trkpt>
      <trkpt lat="48.8363" lon="2.32678">
        <ele>43.400001525879</ele>
        <time>2015-08-10T20:01:38Z</time>
      </trkpt>
      <trkpt lat="48.83619" lon="2.32705">
        <ele>41</ele>
        <time>2015-08-10T20:01:42Z</time>
      </trkpt>
      <trkpt lat="48.83614" lon="2.3272">
        <ele>41.20000076294</ele>
        <time>2015-08-10T20:01:44Z</time>
      </trkpt>
      <trkpt lat="48.83609" lon="2.32735">
        <ele>40.79999923706</ele>
        <time>2015-08-10T20:01:46Z</time>
      </trkpt>
      <trkpt lat="48.83599" lon="2.32763">
        <ele>39.599998474121</ele>
        <time>2015-08-10T20:01:50Z</time>
      </trkpt>
      <trkpt lat="48.83595" lon="2.32778">
        <ele>38.599998474121</ele>
        <time>2015-08-10T20:01:52Z</time>
      </trkpt>
      <trkpt lat="48.83585" lon="2.32801">
        <ele>37.79999923706</ele>
        <time>2015-08-10T20:01:55Z</time>
      </trkpt>
      <trkpt lat="48.83575" lon="2.32828">
        <ele>37.599998474121</ele>
        <time>2015-08-10T20:01:58Z</time>
      </trkpt>
      <trkpt lat="48.83563" lon="2.32856">
        <ele>37</ele>
        <time>2015-08-10T20:02:01Z</time>
      </trkpt>
      <trkpt lat="48.83553" lon="2.32884">
        <ele>37.599998474121</ele>
        <time>2015-08-10T20:02:04Z</time>
      </trkpt>
      <trkpt lat="48.83545" lon="2.329">
        <ele>37.20000076294</ele>
        <time>2015-08-10T20:02:06Z</time>
      </trkpt>
      <trkpt lat="48.83536" lon="2.32913">
        <ele>37.20000076294</ele>
        <time>2015-08-10T20:02:08Z</time>
      </trkpt>
      <trkpt lat="48.83522" lon="2.3293">
        <ele>37.79999923706</ele>
        <time>2015-08-10T20:02:11Z</time>
      </trkpt>
      <trkpt lat="48.83514" lon="2.32943">
        <ele>38</ele>
        <time>2015-08-10T20:02:13Z</time>
      </trkpt>
      <trkpt lat="48.83502" lon="2.32967">
        <ele>38.599998474121</ele>
        <time>2015-08-10T20:02:17Z</time>
      </trkpt>
      <trkpt lat="48.8351" lon="2.32989">
        <ele>39.20000076294</ele>
        <time>2015-08-10T20:02:22Z</time>
      </trkpt>
      <trkpt lat="48.83512" lon="2.32991">
        <ele>39</ele>
        <time>2015-08-10T20:02:23Z</time>
      </trkpt>
      <trkpt lat="48.83531" lon="2.33003">
        <ele>39.79999923706</ele>
        <time>2015-08-10T20:02:28Z</time>
      </trkpt>
      <trkpt lat="48.83548" lon="2.33018">
        <ele>40.79999923706</ele>
        <time>2015-08-10T20:02:32Z</time>
      </trkpt>
      <trkpt lat="48.83567" lon="2.33037">
        <ele>41.400001525879</ele>
        <time>2015-08-10T20:02:36Z</time>
      </trkpt>
      <trkpt lat="48.83587" lon="2.33055">
        <ele>42.20000076294</ele>
        <time>2015-08-10T20:02:40Z</time>
      </trkpt>
      <trkpt lat="48.83604" lon="2.33068">
        <ele>42.79999923706</ele>
        <time>2015-08-10T20:02:43Z</time>
      </trkpt>
      <trkpt lat="48.83621" lon="2.33081">
        <ele>44</ele>
        <time>2015-08-10T20:02:46Z</time>
      </trkpt>
      <trkpt lat="48.83638" lon="2.33093">
        <ele>45.400001525879</ele>
        <time>2015-08-10T20:02:49Z</time>
      </trkpt>
      <trkpt lat="48.83655" lon="2.33107">
        <ele>45.79999923706</ele>
        <time>2015-08-10T20:02:53Z</time>
      </trkpt>
      <trkpt lat="48.83674" lon="2.33118">
        <ele>45.79999923706</ele>
        <time>2015-08-10T20:02:57Z</time>
      </trkpt>
      <trkpt lat="48.83678" lon="2.33122">
        <ele>46.400001525879</ele>
        <time>2015-08-10T20:02:59Z</time>
      </trkpt>
      <trkpt lat="48.83681" lon="2.33124">
        <ele>46.400001525879</ele>
        <time>2015-08-10T20:03:01Z</time>
      </trkpt>
      <trkpt lat="48.837" lon="2.33127">
        <ele>50</ele>
        <time>2015-08-10T20:03:17Z</time>
      </trkpt>
      <trkpt lat="48.83719" lon="2.33124">
        <ele>50.599998474121</ele>
        <time>2015-08-10T20:03:21Z</time>
      </trkpt>
      <trkpt lat="48.83739" lon="2.33118">
        <ele>51.20000076294</ele>
        <time>2015-08-10T20:03:25Z</time>
      </trkpt>
      <trkpt lat="48.83759" lon="2.3311">
        <ele>51.79999923706</ele>
        <time>2015-08-10T20:03:29Z</time>
      </trkpt>
      <trkpt lat="48.83769" lon="2.33113">
        <ele>55.599998474121</ele>
        <time>2015-08-10T20:03:32Z</time>
      </trkpt>
      <trkpt lat="48.83782" lon="2.3314">
        <ele>61.599998474121</ele>
        <time>2015-08-10T20:03:38Z</time>
      </trkpt>
      <trkpt lat="48.83796" lon="2.33163">
        <ele>61.20000076294</ele>
        <time>2015-08-10T20:03:42Z</time>
      </trkpt>
      <trkpt lat="48.83812" lon="2.33183">
        <ele>61</ele>
        <time>2015-08-10T20:03:46Z</time>
      </trkpt>
      <trkpt lat="48.8383" lon="2.33205">
        <ele>61</ele>
        <time>2015-08-10T20:03:50Z</time>
      </trkpt>
      <trkpt lat="48.83844" lon="2.33224">
        <ele>60.20000076294</ele>
        <time>2015-08-10T20:03:54Z</time>
      </trkpt>
      <trkpt lat="48.83851" lon="2.33232">
        <ele>60.20000076294</ele>
        <time>2015-08-10T20:03:56Z</time>
      </trkpt>
      <trkpt lat="48.83861" lon="2.33246">
        <ele>59</ele>
        <time>2015-08-10T20:03:59Z</time>
      </trkpt>
      <trkpt lat="48.83875" lon="2.33265">
        <ele>57.79999923706</ele>
        <time>2015-08-10T20:04:04Z</time>
      </trkpt>
      <trkpt lat="48.83886" lon="2.33272">
        <ele>55</ele>
        <time>2015-08-10T20:04:07Z</time>
      </trkpt>
      <trkpt lat="48.839" lon="2.33287">
        <ele>50.79999923706</ele>
        <time>2015-08-10T20:04:12Z</time>
      </trkpt>
      <trkpt lat="48.83909" lon="2.33297">
        <ele>49.20000076294</ele>
        <time>2015-08-10T20:04:15Z</time>
      </trkpt>
      <trkpt lat="48.83923" lon="2.33315">
        <ele>44.400001525879</ele>
        <time>2015-08-10T20:04:18Z</time>
      </trkpt>
      <trkpt lat="48.83939" lon="2.33339">
        <ele>39.400001525879</ele>
        <time>2015-08-10T20:04:22Z</time>
      </trkpt>
      <trkpt lat="48.83953" lon="2.33363">
        <ele>37.400001525879</ele>
        <time>2015-08-10T20:04:26Z</time>
      </trkpt>
      <trkpt lat="48.83956" lon="2.33369">
        <ele>37.599998474121</ele>
        <time>2015-08-10T20:04:27Z</time>
      </trkpt>
      <trkpt lat="48.83964" lon="2.33381">
        <ele>37.400001525879</ele>
        <time>2015-08-10T20:04:29Z</time>
      </trkpt>
      <trkpt lat="48.83978" lon="2.33402">
        <ele>35.400001525879</ele>
        <time>2015-08-10T20:04:33Z</time>
      </trkpt>
      <trkpt lat="48.83986" lon="2.33414">
        <ele>33.79999923706</ele>
        <time>2015-08-10T20:04:36Z</time>
      </trkpt>
      <trkpt lat="48.84001" lon="2.33438">
        <ele>33</ele>
        <time>2015-08-10T20:04:41Z</time>
      </trkpt>
      <trkpt lat="48.84007" lon="2.33451">
        <ele>32.20000076294</ele>
        <time>2015-08-10T20:04:44Z</time>
      </trkpt>
      <trkpt lat="48.84009" lon="2.33461">
        <ele>32.79999923706</ele>
        <time>2015-08-10T20:04:46Z</time>
      </trkpt>
      <trkpt lat="48.84012" lon="2.33492">
        <ele>34.79999923706</ele>
        <time>2015-08-10T20:04:51Z</time>
      </trkpt>
      <trkpt lat="48.84006" lon="2.3352">
        <ele>36.400001525879</ele>
        <time>2015-08-10T20:04:56Z</time>
      </trkpt>
      <trkpt lat="48.84004" lon="2.33525">
        <ele>36.599998474121</ele>
        <time>2015-08-10T20:04:57Z</time>
      </trkpt>
      <trkpt lat="48.83999" lon="2.33548">
        <ele>37.20000076294</ele>
        <time>2015-08-10T20:05:01Z</time>
      </trkpt>
      <trkpt lat="48.83992" lon="2.33569">
        <ele>38.79999923706</ele>
        <time>2015-08-10T20:05:05Z</time>
      </trkpt>
      <trkpt lat="48.83983" lon="2.33597">
        <ele>40.79999923706</ele>
        <time>2015-08-10T20:05:10Z</time>
      </trkpt>
      <trkpt lat="48.8398" lon="2.33609">
        <ele>41.400001525879</ele>
        <time>2015-08-10T20:05:12Z</time>
      </trkpt>
      <trkpt lat="48.83972" lon="2.33634">
        <ele>39.79999923706</ele>
        <time>2015-08-10T20:05:17Z</time>
      </trkpt>
      <trkpt lat="48.83965" lon="2.3366">
        <ele>38.400001525879</ele>
        <time>2015-08-10T20:05:25Z</time>
      </trkpt>
      <trkpt lat="48.83961" lon="2.33671">
        <ele>37.400001525879</ele>
        <time>2015-08-10T20:05:31Z</time>
      </trkpt>
      <trkpt lat="48.83952" lon="2.33691">
        <ele>40</ele>
        <time>2015-08-10T20:06:20Z</time>
      </trkpt>
      <trkpt lat="48.83947" lon="2.33719">
        <ele>39.599998474121</ele>
        <time>2015-08-10T20:06:28Z</time>
      </trkpt>
      <trkpt lat="48.8394" lon="2.33745">
        <ele>39</ele>
        <time>2015-08-10T20:06:33Z</time>
      </trkpt>
      <trkpt lat="48.83932" lon="2.33773">
        <ele>38.79999923706</ele>
        <time>2015-08-10T20:06:37Z</time>
      </trkpt>
      <trkpt lat="48.83923" lon="2.33804">
        <ele>38.599998474121</ele>
        <time>2015-08-10T20:06:41Z</time>
      </trkpt>
      <trkpt lat="48.83916" lon="2.33829">
        <ele>38.400001525879</ele>
        <time>2015-08-10T20:06:44Z</time>
      </trkpt>
      <trkpt lat="48.83909" lon="2.33854">
        <ele>38.599998474121</ele>
        <time>2015-08-10T20:06:47Z</time>
      </trkpt>
      <trkpt lat="48.83902" lon="2.3388">
        <ele>38.599998474121</ele>
        <time>2015-08-10T20:06:50Z</time>
      </trkpt>
      <trkpt lat="48.83896" lon="2.33907">
        <ele>38.599998474121</ele>
        <time>2015-08-10T20:06:53Z</time>
      </trkpt>
      <trkpt lat="48.83887" lon="2.3394">
        <ele>38.400001525879</ele>
        <time>2015-08-10T20:06:57Z</time>
      </trkpt>
      <trkpt lat="48.83878" lon="2.3397">
        <ele>38.20000076294</ele>
        <time>2015-08-10T20:07:01Z</time>
      </trkpt>
      <trkpt lat="48.83874" lon="2.33986">
        <ele>37.599998474121</ele>
        <time>2015-08-10T20:07:03Z</time>
      </trkpt>
      <trkpt lat="48.83869" lon="2.34019">
        <ele>37</ele>
        <time>2015-08-10T20:07:07Z</time>
      </trkpt>
      <trkpt lat="48.83861" lon="2.34053">
        <ele>36.599998474121</ele>
        <time>2015-08-10T20:07:11Z</time>
      </trkpt>
      <trkpt lat="48.83855" lon="2.34079">
        <ele>35.79999923706</ele>
        <time>2015-08-10T20:07:14Z</time>
      </trkpt>
      <trkpt lat="48.83848" lon="2.34113">
        <ele>35.20000076294</ele>
        <time>2015-08-10T20:07:18Z</time>
      </trkpt>
      <trkpt lat="48.83842" lon="2.3414">
        <ele>34.400001525879</ele>
        <time>2015-08-10T20:07:21Z</time>
      </trkpt>
      <trkpt lat="48.83836" lon="2.34166">
        <ele>34</ele>
        <time>2015-08-10T20:07:24Z</time>
      </trkpt>
      <trkpt lat="48.83832" lon="2.34192">
        <ele>33.400001525879</ele>
        <time>2015-08-10T20:07:27Z</time>
      </trkpt>
      <trkpt lat="48.8383" lon="2.34219">
        <ele>32.79999923706</ele>
        <time>2015-08-10T20:07:30Z</time>
      </trkpt>
      <trkpt lat="48.83825" lon="2.34247">
        <ele>32.20000076294</ele>
        <time>2015-08-10T20:07:33Z</time>
      </trkpt>
      <trkpt lat="48.83821" lon="2.34266">
        <ele>32.20000076294</ele>
        <time>2015-08-10T20:07:35Z</time>
      </trkpt>
      <trkpt lat="48.83815" lon="2.34294">
        <ele>31.799999237061</ele>
        <time>2015-08-10T20:07:38Z</time>
      </trkpt>
      <trkpt lat="48.83813" lon="2.34303">
        <ele>31.39999961853</ele>
        <time>2015-08-10T20:07:39Z</time>
      </trkpt>
      <trkpt lat="48.83806" lon="2.34332">
        <ele>30.39999961853</ele>
        <time>2015-08-10T20:07:42Z</time>
      </trkpt>
      <trkpt lat="48.838" lon="2.34362">
        <ele>30</ele>
        <time>2015-08-10T20:07:45Z</time>
      </trkpt>
      <trkpt lat="48.83794" lon="2.34392">
        <ele>29.39999961853</ele>
        <time>2015-08-10T20:07:48Z</time>
      </trkpt>
      <trkpt lat="48.83787" lon="2.34422">
        <ele>29.39999961853</ele>
        <time>2015-08-10T20:07:51Z</time>
      </trkpt>
      <trkpt lat="48.83779" lon="2.34452">
        <ele>29.60000038147</ele>
        <time>2015-08-10T20:07:54Z</time>
      </trkpt>
      <trkpt lat="48.83774" lon="2.3448">
        <ele>30.200000762939</ele>
        <time>2015-08-10T20:07:57Z</time>
      </trkpt>
      <trkpt lat="48.83769" lon="2.34508">
        <ele>31.60000038147</ele>
        <time>2015-08-10T20:08:00Z</time>
      </trkpt>
      <trkpt lat="48.83768" lon="2.34525">
        <ele>34.20000076294</ele>
        <time>2015-08-10T20:08:02Z</time>
      </trkpt>
      <trkpt lat="48.83761" lon="2.34551">
        <ele>34.79999923706</ele>
        <time>2015-08-10T20:08:05Z</time>
      </trkpt>
      <trkpt lat="48.83757" lon="2.34569">
        <ele>35.20000076294</ele>
        <time>2015-08-10T20:08:07Z</time>
      </trkpt>
      <trkpt lat="48.83752" lon="2.34603">
        <ele>34.599998474121</ele>
        <time>2015-08-10T20:08:11Z</time>
      </trkpt>
      <trkpt lat="48.83749" lon="2.34638">
        <ele>34.400001525879</ele>
        <time>2015-08-10T20:08:15Z</time>
      </trkpt>
      <trkpt lat="48.83744" lon="2.34664">
        <ele>33.79999923706</ele>
        <time>2015-08-10T20:08:18Z</time>
      </trkpt>
      <trkpt lat="48.83738" lon="2.34683">
        <ele>33</ele>
        <time>2015-08-10T20:08:20Z</time>
      </trkpt>
      <trkpt lat="48.83734" lon="2.34713">
        <ele>33</ele>
        <time>2015-08-10T20:08:23Z</time>
      </trkpt>
      <trkpt lat="48.83732" lon="2.34741">
        <ele>33.400001525879</ele>
        <time>2015-08-10T20:08:26Z</time>
      </trkpt>
      <trkpt lat="48.83731" lon="2.3477">
        <ele>34.20000076294</ele>
        <time>2015-08-10T20:08:29Z</time>
      </trkpt>
      <trkpt lat="48.83728" lon="2.34799">
        <ele>35.20000076294</ele>
        <time>2015-08-10T20:08:32Z</time>
      </trkpt>
      <trkpt lat="48.83728" lon="2.34834">
        <ele>37.20000076294</ele>
        <time>2015-08-10T20:08:36Z</time>
      </trkpt>
      <trkpt lat="48.83722" lon="2.34863">
        <ele>37.79999923706</ele>
        <time>2015-08-10T20:08:39Z</time>
      </trkpt>
      <trkpt lat="48.83717" lon="2.34892">
        <ele>38.79999923706</ele>
        <time>2015-08-10T20:08:42Z</time>
      </trkpt>
      <trkpt lat="48.83713" lon="2.34926">
        <ele>39.79999923706</ele>
        <time>2015-08-10T20:08:46Z</time>
      </trkpt>
      <trkpt lat="48.83709" lon="2.3496">
        <ele>40.599998474121</ele>
        <time>2015-08-10T20:08:50Z</time>
      </trkpt>
      <trkpt lat="48.83704" lon="2.34993">
        <ele>41.20000076294</ele>
        <time>2015-08-10T20:08:54Z</time>
      </trkpt>
      <trkpt lat="48.83699" lon="2.35027">
        <ele>42.20000076294</ele>
        <time>2015-08-10T20:08:58Z</time>
      </trkpt>
      <trkpt lat="48.83697" lon="2.35059">
        <ele>45.20000076294</ele>
        <time>2015-08-10T20:09:02Z</time>
      </trkpt>
      <trkpt lat="48.83693" lon="2.35074">
        <ele>45.20000076294</ele>
        <time>2015-08-10T20:09:04Z</time>
      </trkpt>
      <trkpt lat="48.83682" lon="2.35099">
        <ele>42.79999923706</ele>
        <time>2015-08-10T20:09:08Z</time>
      </trkpt>
      <trkpt lat="48.83679" lon="2.35103">
        <ele>42.599998474121</ele>
        <time>2015-08-10T20:09:09Z</time>
      </trkpt>
      <trkpt lat="48.83674" lon="2.35108">
        <ele>42.20000076294</ele>
        <time>2015-08-10T20:09:12Z</time>
      </trkpt>
      <trkpt lat="48.8367" lon="2.3511">
        <ele>41.79999923706</ele>
        <time>2015-08-10T20:09:16Z</time>
      </trkpt>
      <trkpt lat="48.83669" lon="2.35111">
        <ele>41.79999923706</ele>
        <time>2015-08-10T20:09:17Z</time>
      </trkpt>
      <trkpt lat="48.83669" lon="2.35135">
        <ele>38.79999923706</ele>
        <time>2015-08-10T20:09:25Z</time>
      </trkpt>
      <trkpt lat="48.8367" lon="2.35139">
        <ele>38.599998474121</ele>
        <time>2015-08-10T20:09:26Z</time>
      </trkpt>
      <trkpt lat="48.83676" lon="2.35149">
        <ele>37.599998474121</ele>
        <time>2015-08-10T20:09:30Z</time>
      </trkpt>
      <trkpt lat="48.83682" lon="2.35159">
        <ele>36.400001525879</ele>
        <time>2015-08-10T20:09:34Z</time>
      </trkpt>
      <trkpt lat="48.83689" lon="2.35166">
        <ele>36.20000076294</ele>
        <time>2015-08-10T20:09:42Z</time>
      </trkpt>
      <trkpt lat="48.83701" lon="2.35173">
        <ele>32</ele>
        <time>2015-08-10T20:10:05Z</time>
      </trkpt>
      <trkpt lat="48.83712" lon="2.35165">
        <ele>31.39999961853</ele>
        <time>2015-08-10T20:10:09Z</time>
      </trkpt>
      <trkpt lat="48.83729" lon="2.35154">
        <ele>31.799999237061</ele>
        <time>2015-08-10T20:10:14Z</time>
      </trkpt>
      <trkpt lat="48.83747" lon="2.35137">
        <ele>32</ele>
        <time>2015-08-10T20:10:19Z</time>
      </trkpt>
      <trkpt lat="48.83764" lon="2.35122">
        <ele>32.79999923706</ele>
        <time>2015-08-10T20:10:24Z</time>
      </trkpt>
      <trkpt lat="48.83782" lon="2.35104">
        <ele>34.400001525879</ele>
        <time>2015-08-10T20:10:29Z</time>
      </trkpt>
      <trkpt lat="48.838" lon="2.35089">
        <ele>35.79999923706</ele>
        <time>2015-08-10T20:10:34Z</time>
      </trkpt>
      <trkpt lat="48.83819" lon="2.35076">
        <ele>37.400001525879</ele>
        <time>2015-08-10T20:10:39Z</time>
      </trkpt>
      <trkpt lat="48.83837" lon="2.35068">
        <ele>37.20000076294</ele>
        <time>2015-08-10T20:10:43Z</time>
      </trkpt>
      <trkpt lat="48.83858" lon="2.35063">
        <ele>37</ele>
        <time>2015-08-10T20:10:48Z</time>
      </trkpt>
      <trkpt lat="48.83877" lon="2.35068">
        <ele>36.599998474121</ele>
        <time>2015-08-10T20:10:52Z</time>
      </trkpt>
      <trkpt lat="48.83898" lon="2.35078">
        <ele>35.79999923706</ele>
        <time>2015-08-10T20:10:56Z</time>
      </trkpt>
      <trkpt lat="48.83908" lon="2.35084">
        <ele>35.79999923706</ele>
        <time>2015-08-10T20:10:58Z</time>
      </trkpt>
      <trkpt lat="48.83928" lon="2.35098">
        <ele>37</ele>
        <time>2015-08-10T20:11:02Z</time>
      </trkpt>
      <trkpt lat="48.83948" lon="2.35104">
        <ele>38.20000076294</ele>
        <time>2015-08-10T20:11:06Z</time>
      </trkpt>
      <trkpt lat="48.83959" lon="2.35107">
        <ele>39</ele>
        <time>2015-08-10T20:11:08Z</time>
      </trkpt>
      <trkpt lat="48.83981" lon="2.35117">
        <ele>38.400001525879</ele>
        <time>2015-08-10T20:11:12Z</time>
      </trkpt>
      <trkpt lat="48.83993" lon="2.35131">
        <ele>34.400001525879</ele>
        <time>2015-08-10T20:11:14Z</time>
      </trkpt>
      <trkpt lat="48.84005" lon="2.35155">
        <ele>31.60000038147</ele>
        <time>2015-08-10T20:11:18Z</time>
      </trkpt>
      <trkpt lat="48.8401" lon="2.35167">
        <ele>31.200000762939</ele>
        <time>2015-08-10T20:11:20Z</time>
      </trkpt>
      <trkpt lat="48.84021" lon="2.35189">
        <ele>32</ele>
        <time>2015-08-10T20:11:24Z</time>
      </trkpt>
      <trkpt lat="48.84033" lon="2.35209">
        <ele>31</ele>
        <time>2015-08-10T20:11:28Z</time>
      </trkpt>
      <trkpt lat="48.84047" lon="2.35236">
        <ele>29.60000038147</ele>
        <time>2015-08-10T20:11:33Z</time>
      </trkpt>
      <trkpt lat="48.84057" lon="2.35261">
        <ele>26.799999237061</ele>
        <time>2015-08-10T20:11:38Z</time>
      </trkpt>
      <trkpt lat="48.84059" lon="2.35268">
        <ele>25</ele>
        <time>2015-08-10T20:11:40Z</time>
      </trkpt>
      <trkpt lat="48.84058" lon="2.35297">
        <ele>23.200000762939</ele>
        <time>2015-08-10T20:11:44Z</time>
      </trkpt>
      <trkpt lat="48.84057" lon="2.35305">
        <ele>23.60000038147</ele>
        <time>2015-08-10T20:11:45Z</time>
      </trkpt>
      <trkpt lat="48.84053" lon="2.35329">
        <ele>23.799999237061</ele>
        <time>2015-08-10T20:11:48Z</time>
      </trkpt>
      <trkpt lat="48.84057" lon="2.35356">
        <ele>24</ele>
        <time>2015-08-10T20:11:51Z</time>
      </trkpt>
      <trkpt lat="48.8406" lon="2.35365">
        <ele>24</ele>
        <time>2015-08-10T20:11:52Z</time>
      </trkpt>
      <trkpt lat="48.84067" lon="2.35392">
        <ele>23.60000038147</ele>
        <time>2015-08-10T20:11:55Z</time>
      </trkpt>
      <trkpt lat="48.84072" lon="2.35409">
        <ele>24.200000762939</ele>
        <time>2015-08-10T20:11:57Z</time>
      </trkpt>
      <trkpt lat="48.84081" lon="2.3544">
        <ele>25</ele>
        <time>2015-08-10T20:12:01Z</time>
      </trkpt>
      <trkpt lat="48.84089" lon="2.35466">
        <ele>25.39999961853</ele>
        <time>2015-08-10T20:12:05Z</time>
      </trkpt>
      <trkpt lat="48.84091" lon="2.35471">
        <ele>25.200000762939</ele>
        <time>2015-08-10T20:12:06Z</time>
      </trkpt>
      <trkpt lat="48.84104" lon="2.35477">
        <ele>24.39999961853</ele>
        <time>2015-08-10T20:12:10Z</time>
      </trkpt>
      <trkpt lat="48.84123" lon="2.35473">
        <ele>23.60000038147</ele>
        <time>2015-08-10T20:12:14Z</time>
      </trkpt>
      <trkpt lat="48.84135" lon="2.3547">
        <ele>23.200000762939</ele>
        <time>2015-08-10T20:12:17Z</time>
      </trkpt>
      <trkpt lat="48.84146" lon="2.35469">
        <ele>24.200000762939</ele>
        <time>2015-08-10T20:12:24Z</time>
      </trkpt>
      <trkpt lat="48.84148" lon="2.35468">
        <ele>24.39999961853</ele>
        <time>2015-08-10T20:12:25Z</time>
      </trkpt>
      <trkpt lat="48.84154" lon="2.35468">
        <ele>25</ele>
        <time>2015-08-10T20:12:27Z</time>
      </trkpt>
      <trkpt lat="48.84172" lon="2.35462">
        <ele>25.799999237061</ele>
        <time>2015-08-10T20:12:31Z</time>
      </trkpt>
      <trkpt lat="48.84178" lon="2.35458">
        <ele>26.200000762939</ele>
        <time>2015-08-10T20:12:32Z</time>
      </trkpt>
      <trkpt lat="48.84197" lon="2.35452">
        <ele>26.60000038147</ele>
        <time>2015-08-10T20:12:35Z</time>
      </trkpt>
      <trkpt lat="48.84217" lon="2.35446">
        <ele>27.60000038147</ele>
        <time>2015-08-10T20:12:39Z</time>
      </trkpt>
      <trkpt lat="48.84237" lon="2.35442">
        <ele>30.39999961853</ele>
        <time>2015-08-10T20:12:43Z</time>
      </trkpt>
      <trkpt lat="48.84261" lon="2.35436">
        <ele>29</ele>
        <time>2015-08-10T20:12:47Z</time>
      </trkpt>
      <trkpt lat="48.84279" lon="2.35432">
        <ele>27.60000038147</ele>
        <time>2015-08-10T20:12:50Z</time>
      </trkpt>
      <trkpt lat="48.84298" lon="2.35426">
        <ele>27.39999961853</ele>
        <time>2015-08-10T20:12:53Z</time>
      </trkpt>
      <trkpt lat="48.84316" lon="2.35419">
        <ele>28.799999237061</ele>
        <time>2015-08-10T20:12:56Z</time>
      </trkpt>
      <trkpt lat="48.84335" lon="2.35414">
        <ele>31</ele>
        <time>2015-08-10T20:13:00Z</time>
      </trkpt>
      <trkpt lat="48.84352" lon="2.35411">
        <ele>35</ele>
        <time>2015-08-10T20:13:04Z</time>
      </trkpt>
      <trkpt lat="48.84361" lon="2.35423">
        <ele>33.400001525879</ele>
        <time>2015-08-10T20:13:08Z</time>
      </trkpt>
      <trkpt lat="48.84363" lon="2.35416">
        <ele>39.599998474121</ele>
        <time>2015-08-10T20:13:32Z</time>
      </trkpt>
      <trkpt lat="48.84366" lon="2.35422">
        <ele>42.400001525879</ele>
        <time>2015-08-10T20:14:05Z</time>
      </trkpt>
      <trkpt lat="48.84368" lon="2.35453">
        <ele>42.20000076294</ele>
        <time>2015-08-10T20:14:12Z</time>
      </trkpt>
      <trkpt lat="48.84372" lon="2.35484">
        <ele>42.400001525879</ele>
        <time>2015-08-10T20:14:18Z</time>
      </trkpt>
      <trkpt lat="48.84373" lon="2.35491">
        <ele>43</ele>
        <time>2015-08-10T20:14:21Z</time>
      </trkpt>
      <trkpt lat="48.84378" lon="2.35497">
        <ele>46.79999923706</ele>
        <time>2015-08-10T20:15:31Z</time>
      </trkpt>
      <trkpt lat="48.8438" lon="2.35503">
        <ele>46.400001525879</ele>
        <time>2015-08-10T20:16:42Z</time>
      </trkpt>
      <trkpt lat="48.84395" lon="2.35522">
        <ele>45</ele>
        <time>2015-08-10T20:16:50Z</time>
      </trkpt>
      <trkpt lat="48.84406" lon="2.35545">
        <ele>44.20000076294</ele>
        <time>2015-08-10T20:16:55Z</time>
      </trkpt>
      <trkpt lat="48.84419" lon="2.35569">
        <ele>42.20000076294</ele>
        <time>2015-08-10T20:16:59Z</time>
      </trkpt>
      <trkpt lat="48.84433" lon="2.35596">
        <ele>40.400001525879</ele>
        <time>2015-08-10T20:17:03Z</time>
      </trkpt>
      <trkpt lat="48.84446" lon="2.35617">
        <ele>39.400001525879</ele>
        <time>2015-08-10T20:17:06Z</time>
      </trkpt>
      <trkpt lat="48.84451" lon="2.35623">
        <ele>39.20000076294</ele>
        <time>2015-08-10T20:17:07Z</time>
      </trkpt>
      <trkpt lat="48.84464" lon="2.35642">
        <ele>37.599998474121</ele>
        <time>2015-08-10T20:17:10Z</time>
      </trkpt>
      <trkpt lat="48.84476" lon="2.35664">
        <ele>35.599998474121</ele>
        <time>2015-08-10T20:17:13Z</time>
      </trkpt>
      <trkpt lat="48.84489" lon="2.35689">
        <ele>35</ele>
        <time>2015-08-10T20:17:16Z</time>
      </trkpt>
      <trkpt lat="48.84503" lon="2.35712">
        <ele>34.20000076294</ele>
        <time>2015-08-10T20:17:19Z</time>
      </trkpt>
      <trkpt lat="48.84512" lon="2.35725">
        <ele>33.79999923706</ele>
        <time>2015-08-10T20:17:21Z</time>
      </trkpt>
      <trkpt lat="48.84527" lon="2.35747">
        <ele>33.400001525879</ele>
        <time>2015-08-10T20:17:24Z</time>
      </trkpt>
      <trkpt lat="48.84541" lon="2.3577">
        <ele>33</ele>
        <time>2015-08-10T20:17:27Z</time>
      </trkpt>
      <trkpt lat="48.84556" lon="2.35797">
        <ele>33</ele>
        <time>2015-08-10T20:17:30Z</time>
      </trkpt>
      <trkpt lat="48.8456" lon="2.35807">
        <ele>33.400001525879</ele>
        <time>2015-08-10T20:17:31Z</time>
      </trkpt>
      <trkpt lat="48.84573" lon="2.35834">
        <ele>34</ele>
        <time>2015-08-10T20:17:34Z</time>
      </trkpt>
      <trkpt lat="48.84587" lon="2.35859">
        <ele>34.20000076294</ele>
        <time>2015-08-10T20:17:37Z</time>
      </trkpt>
      <trkpt lat="48.84602" lon="2.35882">
        <ele>34.20000076294</ele>
        <time>2015-08-10T20:17:40Z</time>
      </trkpt>
      <trkpt lat="48.84615" lon="2.35905">
        <ele>34</ele>
        <time>2015-08-10T20:17:43Z</time>
      </trkpt>
      <trkpt lat="48.84628" lon="2.35928">
        <ele>34</ele>
        <time>2015-08-10T20:17:46Z</time>
      </trkpt>
      <trkpt lat="48.84639" lon="2.35951">
        <ele>33.79999923706</ele>
        <time>2015-08-10T20:17:49Z</time>
      </trkpt>
      <trkpt lat="48.84648" lon="2.35975">
        <ele>34.599998474121</ele>
        <time>2015-08-10T20:17:52Z</time>
      </trkpt>
      <trkpt lat="48.84662" lon="2.35998">
        <ele>35.599998474121</ele>
        <time>2015-08-10T20:17:56Z</time>
      </trkpt>
      <trkpt lat="48.84669" lon="2.36012">
        <ele>37.20000076294</ele>
        <time>2015-08-10T20:17:59Z</time>
      </trkpt>
      <trkpt lat="48.84679" lon="2.36036">
        <ele>40.79999923706</ele>
        <time>2015-08-10T20:18:04Z</time>
      </trkpt>
      <trkpt lat="48.84686" lon="2.36058">
        <ele>43.79999923706</ele>
        <time>2015-08-10T20:18:09Z</time>
      </trkpt>
      <trkpt lat="48.84684" lon="2.36074">
        <ele>42.599998474121</ele>
        <time>2015-08-10T20:18:21Z</time>
      </trkpt>
      <trkpt lat="48.84688" lon="2.36076">
        <ele>39.79999923706</ele>
        <time>2015-08-10T20:18:23Z</time>
      </trkpt>
      <trkpt lat="48.84704" lon="2.36058">
        <ele>35.20000076294</ele>
        <time>2015-08-10T20:18:29Z</time>
      </trkpt>
      <trkpt lat="48.84719" lon="2.36036">
        <ele>33</ele>
        <time>2015-08-10T20:18:33Z</time>
      </trkpt>
      <trkpt lat="48.84733" lon="2.36017">
        <ele>32</ele>
        <time>2015-08-10T20:18:36Z</time>
      </trkpt>
      <trkpt lat="48.84747" lon="2.35997">
        <ele>32.400001525879</ele>
        <time>2015-08-10T20:18:39Z</time>
      </trkpt>
      <trkpt lat="48.84761" lon="2.35976">
        <ele>32.79999923706</ele>
        <time>2015-08-10T20:18:42Z</time>
      </trkpt>
      <trkpt lat="48.84774" lon="2.35955">
        <ele>33.79999923706</ele>
        <time>2015-08-10T20:18:45Z</time>
      </trkpt>
      <trkpt lat="48.84789" lon="2.35931">
        <ele>34</ele>
        <time>2015-08-10T20:18:48Z</time>
      </trkpt>
      <trkpt lat="48.84804" lon="2.35907">
        <ele>33.599998474121</ele>
        <time>2015-08-10T20:18:51Z</time>
      </trkpt>
      <trkpt lat="48.84819" lon="2.35881">
        <ele>33.20000076294</ele>
        <time>2015-08-10T20:18:54Z</time>
      </trkpt>
      <trkpt lat="48.84835" lon="2.35857">
        <ele>33</ele>
        <time>2015-08-10T20:18:57Z</time>
      </trkpt>
      <trkpt lat="48.8485" lon="2.35834">
        <ele>33.599998474121</ele>
        <time>2015-08-10T20:19:00Z</time>
      </trkpt>
      <trkpt lat="48.84863" lon="2.35811">
        <ele>34.20000076294</ele>
        <time>2015-08-10T20:19:03Z</time>
      </trkpt>
      <trkpt lat="48.84877" lon="2.3579">
        <ele>33.400001525879</ele>
        <time>2015-08-10T20:19:06Z</time>
      </trkpt>
      <trkpt lat="48.8489" lon="2.35769">
        <ele>33.20000076294</ele>
        <time>2015-08-10T20:19:09Z</time>
      </trkpt>
      <trkpt lat="48.84902" lon="2.3575">
        <ele>33</ele>
        <time>2015-08-10T20:19:12Z</time>
      </trkpt>
      <trkpt lat="48.84913" lon="2.35725">
        <ele>31.200000762939</ele>
        <time>2015-08-10T20:19:16Z</time>
      </trkpt>
      <trkpt lat="48.84922" lon="2.35701">
        <ele>29</ele>
        <time>2015-08-10T20:19:21Z</time>
      </trkpt>
      <trkpt lat="48.8493" lon="2.3568">
        <ele>29.200000762939</ele>
        <time>2015-08-10T20:19:26Z</time>
      </trkpt>
      <trkpt lat="48.84931" lon="2.35677">
        <ele>29.200000762939</ele>
        <time>2015-08-10T20:19:27Z</time>
      </trkpt>
      <trkpt lat="48.84937" lon="2.35656">
        <ele>28.200000762939</ele>
        <time>2015-08-10T20:19:32Z</time>
      </trkpt>
      <trkpt lat="48.84939" lon="2.35647">
        <ele>27.39999961853</ele>
        <time>2015-08-10T20:19:34Z</time>
      </trkpt>
      <trkpt lat="48.84941" lon="2.35633">
        <ele>27.39999961853</ele>
        <time>2015-08-10T20:19:37Z</time>
      </trkpt>
      <trkpt lat="48.84949" lon="2.35606">
        <ele>28.200000762939</ele>
        <time>2015-08-10T20:19:42Z</time>
      </trkpt>
      <trkpt lat="48.84954" lon="2.3559">
        <ele>28.39999961853</ele>
        <time>2015-08-10T20:19:45Z</time>
      </trkpt>
      <trkpt lat="48.84965" lon="2.35564">
        <ele>29.200000762939</ele>
        <time>2015-08-10T20:19:50Z</time>
      </trkpt>
      <trkpt lat="48.84972" lon="2.3555">
        <ele>29</ele>
        <time>2015-08-10T20:19:53Z</time>
      </trkpt>
      <trkpt lat="48.8498" lon="2.35526">
        <ele>28.799999237061</ele>
        <time>2015-08-10T20:19:58Z</time>
      </trkpt>
      <trkpt lat="48.84985" lon="2.35512">
        <ele>28.39999961853</ele>
        <time>2015-08-10T20:20:01Z</time>
      </trkpt>
      <trkpt lat="48.84992" lon="2.35496">
        <ele>28.60000038147</ele>
        <time>2015-08-10T20:20:06Z</time>
      </trkpt>
      <trkpt lat="48.85006" lon="2.35474">
        <ele>22</ele>
        <time>2015-08-10T20:20:34Z</time>
      </trkpt>
      <trkpt lat="48.85013" lon="2.3545">
        <ele>19.799999237061</ele>
        <time>2015-08-10T20:20:56Z</time>
      </trkpt>
      <trkpt lat="48.8502" lon="2.35434">
        <ele>20</ele>
        <time>2015-08-10T20:20:59Z</time>
      </trkpt>
      <trkpt lat="48.85029" lon="2.3541">
        <ele>19.60000038147</ele>
        <time>2015-08-10T20:21:03Z</time>
      </trkpt>
      <trkpt lat="48.85033" lon="2.35395">
        <ele>19.39999961853</ele>
        <time>2015-08-10T20:21:05Z</time>
      </trkpt>
      <trkpt lat="48.8504" lon="2.35369">
        <ele>19.799999237061</ele>
        <time>2015-08-10T20:21:08Z</time>
      </trkpt>
      <trkpt lat="48.85049" lon="2.35342">
        <ele>20</ele>
        <time>2015-08-10T20:21:11Z</time>
      </trkpt>
      <trkpt lat="48.85058" lon="2.35314">
        <ele>20.60000038147</ele>
        <time>2015-08-10T20:21:14Z</time>
      </trkpt>
      <trkpt lat="48.85064" lon="2.35295">
        <ele>20.799999237061</ele>
        <time>2015-08-10T20:21:16Z</time>
      </trkpt>
      <trkpt lat="48.85074" lon="2.35265">
        <ele>20.60000038147</ele>
        <time>2015-08-10T20:21:19Z</time>
      </trkpt>
      <trkpt lat="48.85083" lon="2.35236">
        <ele>21</ele>
        <time>2015-08-10T20:21:22Z</time>
      </trkpt>
      <trkpt lat="48.85092" lon="2.35209">
        <ele>20.799999237061</ele>
        <time>2015-08-10T20:21:25Z</time>
      </trkpt>
      <trkpt lat="48.851" lon="2.35182">
        <ele>21.39999961853</ele>
        <time>2015-08-10T20:21:28Z</time>
      </trkpt>
      <trkpt lat="48.8511" lon="2.35151">
        <ele>23.60000038147</ele>
        <time>2015-08-10T20:21:32Z</time>
      </trkpt>
      <trkpt lat="48.85113" lon="2.35142">
        <ele>24.799999237061</ele>
        <time>2015-08-10T20:21:34Z</time>
      </trkpt>
      <trkpt lat="48.8513" lon="2.35135">
        <ele>26.60000038147</ele>
        <time>2015-08-10T20:21:39Z</time>
      </trkpt>
      <trkpt lat="48.85145" lon="2.35143">
        <ele>27</ele>
        <time>2015-08-10T20:21:43Z</time>
      </trkpt>
      <trkpt lat="48.85149" lon="2.35145">
        <ele>27</ele>
        <time>2015-08-10T20:21:44Z</time>
      </trkpt>
      <trkpt lat="48.85159" lon="2.35153">
        <ele>27.39999961853</ele>
        <time>2015-08-10T20:21:47Z</time>
      </trkpt>
      <trkpt lat="48.85167" lon="2.35158">
        <ele>28</ele>
        <time>2015-08-10T20:21:49Z</time>
      </trkpt>
      <trkpt lat="48.85186" lon="2.35172">
        <ele>29</ele>
        <time>2015-08-10T20:21:54Z</time>
      </trkpt>
      <trkpt lat="48.85198" lon="2.35177">
        <ele>28</ele>
        <time>2015-08-10T20:21:57Z</time>
      </trkpt>
      <trkpt lat="48.85215" lon="2.35189">
        <ele>28.39999961853</ele>
        <time>2015-08-10T20:22:02Z</time>
      </trkpt>
      <trkpt lat="48.85218" lon="2.35191">
        <ele>28.39999961853</ele>
        <time>2015-08-10T20:22:03Z</time>
      </trkpt>
      <trkpt lat="48.85238" lon="2.35205">
        <ele>29.60000038147</ele>
        <time>2015-08-10T20:22:08Z</time>
      </trkpt>
      <trkpt lat="48.85257" lon="2.35216">
        <ele>30.200000762939</ele>
        <time>2015-08-10T20:22:13Z</time>
      </trkpt>
      <trkpt lat="48.85261" lon="2.35218">
        <ele>30.39999961853</ele>
        <time>2015-08-10T20:22:14Z</time>
      </trkpt>
      <trkpt lat="48.85274" lon="2.3522">
        <ele>30.60000038147</ele>
        <time>2015-08-10T20:22:18Z</time>
      </trkpt>
      <trkpt lat="48.85295" lon="2.35219">
        <ele>31.60000038147</ele>
        <time>2015-08-10T20:22:24Z</time>
      </trkpt>
      <trkpt lat="48.85314" lon="2.35217">
        <ele>34.599998474121</ele>
        <time>2015-08-10T20:22:30Z</time>
      </trkpt>
      <trkpt lat="48.85333" lon="2.35215">
        <ele>37</ele>
        <time>2015-08-10T20:22:35Z</time>
      </trkpt>
      <trkpt lat="48.85352" lon="2.35212">
        <ele>38.599998474121</ele>
        <time>2015-08-10T20:22:40Z</time>
      </trkpt>
      <trkpt lat="48.85372" lon="2.35201">
        <ele>38.79999923706</ele>
        <time>2015-08-10T20:22:44Z</time>
      </trkpt>
      <trkpt lat="48.85393" lon="2.35182">
        <ele>36</ele>
        <time>2015-08-10T20:22:48Z</time>
      </trkpt>
      <trkpt lat="48.85403" lon="2.35173">
        <ele>34.79999923706</ele>
        <time>2015-08-10T20:22:50Z</time>
      </trkpt>
      <trkpt lat="48.8542" lon="2.35155">
        <ele>34.400001525879</ele>
        <time>2015-08-10T20:22:54Z</time>
      </trkpt>
      <trkpt lat="48.85437" lon="2.3514">
        <ele>33.20000076294</ele>
        <time>2015-08-10T20:22:58Z</time>
      </trkpt>
      <trkpt lat="48.85453" lon="2.35122">
        <ele>32.20000076294</ele>
        <time>2015-08-10T20:23:02Z</time>
      </trkpt>
      <trkpt lat="48.85459" lon="2.3511">
        <ele>28.200000762939</ele>
        <time>2015-08-10T20:23:03Z</time>
      </trkpt>
      <trkpt lat="48.85473" lon="2.35087">
        <ele>24.799999237061</ele>
        <time>2015-08-10T20:23:07Z</time>
      </trkpt>
      <trkpt lat="48.85487" lon="2.35063">
        <ele>20.799999237061</ele>
        <time>2015-08-10T20:23:11Z</time>
      </trkpt>
      <trkpt lat="48.85501" lon="2.3504">
        <ele>19.200000762939</ele>
        <time>2015-08-10T20:23:16Z</time>
      </trkpt>
      <trkpt lat="48.85507" lon="2.3503">
        <ele>18.200000762939</ele>
        <time>2015-08-10T20:23:19Z</time>
      </trkpt>
      <trkpt lat="48.85513" lon="2.3502">
        <ele>17.60000038147</ele>
        <time>2015-08-10T20:23:23Z</time>
      </trkpt>
      <trkpt lat="48.85529" lon="2.35031">
        <ele>18.39999961853</ele>
        <time>2015-08-10T20:23:32Z</time>
      </trkpt>
      <trkpt lat="48.8553" lon="2.35032">
        <ele>18.799999237061</ele>
        <time>2015-08-10T20:23:34Z</time>
      </trkpt>
      <trkpt lat="48.85546" lon="2.35046">
        <ele>20.39999961853</ele>
        <time>2015-08-10T20:23:44Z</time>
      </trkpt>
      <trkpt lat="48.85563" lon="2.3506">
        <ele>20.39999961853</ele>
        <time>2015-08-10T20:23:50Z</time>
      </trkpt>
      <trkpt lat="48.85581" lon="2.3507">
        <ele>21.39999961853</ele>
        <time>2015-08-10T20:23:57Z</time>
      </trkpt>
      <trkpt lat="48.85592" lon="2.35077">
        <ele>21.799999237061</ele>
        <time>2015-08-10T20:24:03Z</time>
      </trkpt>
      <trkpt lat="48.8561" lon="2.35075">
        <ele>27</ele>
        <time>2015-08-10T20:24:20Z</time>
      </trkpt>
      <trkpt lat="48.8563" lon="2.35085">
        <ele>26.799999237061</ele>
        <time>2015-08-10T20:24:26Z</time>
      </trkpt>
      <trkpt lat="48.85652" lon="2.35095">
        <ele>26.39999961853</ele>
        <time>2015-08-10T20:24:31Z</time>
      </trkpt>
      <trkpt lat="48.8567" lon="2.35104">
        <ele>26.200000762939</ele>
        <time>2015-08-10T20:24:35Z</time>
      </trkpt>
      <trkpt lat="48.85686" lon="2.35084">
        <ele>26.200000762939</ele>
        <time>2015-08-10T20:24:39Z</time>
      </trkpt>
      <trkpt lat="48.85695" lon="2.3506">
        <ele>25</ele>
        <time>2015-08-10T20:24:42Z</time>
      </trkpt>
      <trkpt lat="48.85704" lon="2.35029">
        <ele>24.200000762939</ele>
        <time>2015-08-10T20:24:46Z</time>
      </trkpt>
      <trkpt lat="48.85713" lon="2.35005">
        <ele>21.39999961853</ele>
        <time>2015-08-10T20:24:49Z</time>
      </trkpt>
      <trkpt lat="48.85718" lon="2.34988">
        <ele>19</ele>
        <time>2015-08-10T20:24:51Z</time>
      </trkpt>
      <trkpt lat="48.85725" lon="2.34962">
        <ele>17</ele>
        <time>2015-08-10T20:24:54Z</time>
      </trkpt>
      <trkpt lat="48.85729" lon="2.34953">
        <ele>15.800000190735</ele>
        <time>2015-08-10T20:24:55Z</time>
      </trkpt>
      <trkpt lat="48.85738" lon="2.34924">
        <ele>13.800000190735</ele>
        <time>2015-08-10T20:24:58Z</time>
      </trkpt>
      <trkpt lat="48.85741" lon="2.34915">
        <ele>13.60000038147</ele>
        <time>2015-08-10T20:24:59Z</time>
      </trkpt>
      <trkpt lat="48.85746" lon="2.34898">
        <ele>13</ele>
        <time>2015-08-10T20:25:01Z</time>
      </trkpt>
      <trkpt lat="48.85755" lon="2.34865">
        <ele>13.39999961853</ele>
        <time>2015-08-10T20:25:05Z</time>
      </trkpt>
      <trkpt lat="48.85762" lon="2.34837">
        <ele>13.800000190735</ele>
        <time>2015-08-10T20:25:09Z</time>
      </trkpt>
      <trkpt lat="48.8577" lon="2.34805">
        <ele>14</ele>
        <time>2015-08-10T20:25:14Z</time>
      </trkpt>
      <trkpt lat="48.85783" lon="2.34789">
        <ele>17.60000038147</ele>
        <time>2015-08-10T20:25:20Z</time>
      </trkpt>
      <trkpt lat="48.85792" lon="2.34794">
        <ele>19.60000038147</ele>
        <time>2015-08-10T20:25:24Z</time>
      </trkpt>
      <trkpt lat="48.85807" lon="2.34803">
        <ele>25.60000038147</ele>
        <time>2015-08-10T20:25:29Z</time>
      </trkpt>
      <trkpt lat="48.85825" lon="2.34812">
        <ele>29.799999237061</ele>
        <time>2015-08-10T20:25:34Z</time>
      </trkpt>
      <trkpt lat="48.85849" lon="2.34808">
        <ele>24.799999237061</ele>
        <time>2015-08-10T20:25:39Z</time>
      </trkpt>
      <trkpt lat="48.85865" lon="2.34783">
        <ele>21.60000038147</ele>
        <time>2015-08-10T20:25:43Z</time>
      </trkpt>
      <trkpt lat="48.85875" lon="2.34756">
        <ele>22</ele>
        <time>2015-08-10T20:25:47Z</time>
      </trkpt>
      <trkpt lat="48.85889" lon="2.34744">
        <ele>23.60000038147</ele>
        <time>2015-08-10T20:25:51Z</time>
      </trkpt>
      <trkpt lat="48.85893" lon="2.34743">
        <ele>23.60000038147</ele>
        <time>2015-08-10T20:25:52Z</time>
      </trkpt>
      <trkpt lat="48.85906" lon="2.34739">
        <ele>24.200000762939</ele>
        <time>2015-08-10T20:25:55Z</time>
      </trkpt>
      <trkpt lat="48.85922" lon="2.34724">
        <ele>28</ele>
        <time>2015-08-10T20:25:59Z</time>
      </trkpt>
      <trkpt lat="48.85934" lon="2.34714">
        <ele>28.39999961853</ele>
        <time>2015-08-10T20:26:02Z</time>
      </trkpt>
      <trkpt lat="48.85954" lon="2.34717">
        <ele>32.20000076294</ele>
        <time>2015-08-10T20:26:08Z</time>
      </trkpt>
      <trkpt lat="48.85962" lon="2.34728">
        <ele>42.20000076294</ele>
        <time>2015-08-10T20:26:28Z</time>
      </trkpt>
      <trkpt lat="48.85964" lon="2.34727">
        <ele>46.20000076294</ele>
        <time>2015-08-10T20:26:47Z</time>
      </trkpt>
      <trkpt lat="48.85959" lon="2.34725">
        <ele>47.20000076294</ele>
        <time>2015-08-10T20:26:54Z</time>
      </trkpt>
      <trkpt lat="48.85954" lon="2.34725">
        <ele>47.599998474121</ele>
        <time>2015-08-10T20:26:59Z</time>
      </trkpt>
      <trkpt lat="48.85953" lon="2.34724">
        <ele>47.400001525879</ele>
        <time>2015-08-10T20:27:01Z</time>
      </trkpt>
      <trkpt lat="48.8596" lon="2.34721">
        <ele>47.400001525879</ele>
        <time>2015-08-10T20:27:08Z</time>
      </trkpt>
      <trkpt lat="48.85963" lon="2.34721">
        <ele>47.79999923706</ele>
        <time>2015-08-10T20:27:13Z</time>
      </trkpt>
      <trkpt lat="48.85957" lon="2.34729">
        <ele>49.400001525879</ele>
        <time>2015-08-10T20:27:23Z</time>
      </trkpt>
      <trkpt lat="48.85962" lon="2.34729">
        <ele>53.599998474121</ele>
        <time>2015-08-10T20:27:56Z</time>
      </trkpt>
      <trkpt lat="48.85963" lon="2.34719">
        <ele>61.400001525879</ele>
        <time>2015-08-10T20:28:54Z</time>
      </trkpt>
      <trkpt lat="48.8596" lon="2.34727">
        <ele>73.199996948242</ele>
        <time>2015-08-10T20:29:47Z</time>
      </trkpt>
      <trkpt lat="48.85959" lon="2.34727">
        <ele>73.199996948242</ele>
        <time>2015-08-10T20:29:49Z</time>
      </trkpt>
      <trkpt lat="48.85961" lon="2.34725">
        <ele>69.400001525879</ele>
        <time>2015-08-10T20:30:43Z</time>
      </trkpt>
      <trkpt lat="48.85959" lon="2.34712">
        <ele>74.800003051758</ele>
        <time>2015-08-10T20:31:59Z</time>
      </trkpt>
      <trkpt lat="48.85962" lon="2.34713">
        <ele>78.199996948242</ele>
        <time>2015-08-10T20:32:22Z</time>
      </trkpt>
      <trkpt lat="48.85959" lon="2.3472">
        <ele>79.400001525879</ele>
        <time>2015-08-10T20:33:27Z</time>
      </trkpt>
      <trkpt lat="48.85958" lon="2.34721">
        <ele>79.599998474121</ele>
        <time>2015-08-10T20:33:30Z</time>
      </trkpt>
      <trkpt lat="48.85963" lon="2.3472">
        <ele>80.199996948242</ele>
        <time>2015-08-10T20:33:59Z</time>
      </trkpt>
      <trkpt lat="48.85963" lon="2.34717">
        <ele>81</ele>
        <time>2015-08-10T20:34:51Z</time>
      </trkpt>
      <trkpt lat="48.85967" lon="2.34708">
        <ele>80.599998474121</ele>
        <time>2015-08-10T20:34:59Z</time>
      </trkpt>
      <trkpt lat="48.85965" lon="2.34699">
        <ele>79</ele>
        <time>2015-08-10T20:35:02Z</time>
      </trkpt>
      <trkpt lat="48.85943" lon="2.34701">
        <ele>67.599998474121</ele>
        <time>2015-08-10T20:35:10Z</time>
      </trkpt>
      <trkpt lat="48.8594" lon="2.34703">
        <ele>67.599998474121</ele>
        <time>2015-08-10T20:35:11Z</time>
      </trkpt>
      <trkpt lat="48.85923" lon="2.34718">
        <ele>63.400001525879</ele>
        <time>2015-08-10T20:35:17Z</time>
      </trkpt>
      <trkpt lat="48.85905" lon="2.34734">
        <ele>62.79999923706</ele>
        <time>2015-08-10T20:35:24Z</time>
      </trkpt>
      <trkpt lat="48.85887" lon="2.34741">
        <ele>64.599998474121</ele>
        <time>2015-08-10T20:35:31Z</time>
      </trkpt>
      <trkpt lat="48.85873" lon="2.34745">
        <ele>64.199996948242</ele>
        <time>2015-08-10T20:35:38Z</time>
      </trkpt>
      <trkpt lat="48.85864" lon="2.34745">
        <ele>64.599998474121</ele>
        <time>2015-08-10T20:35:42Z</time>
      </trkpt>
      <trkpt lat="48.85846" lon="2.3473">
        <ele>62.599998474121</ele>
        <time>2015-08-10T20:35:50Z</time>
      </trkpt>
      <trkpt lat="48.85826" lon="2.34717">
        <ele>59</ele>
        <time>2015-08-10T20:35:57Z</time>
      </trkpt>
      <trkpt lat="48.85805" lon="2.34714">
        <ele>55.599998474121</ele>
        <time>2015-08-10T20:36:03Z</time>
      </trkpt>
      <trkpt lat="48.85786" lon="2.3471">
        <ele>53.20000076294</ele>
        <time>2015-08-10T20:36:08Z</time>
      </trkpt>
      <trkpt lat="48.85766" lon="2.347">
        <ele>49.599998474121</ele>
        <time>2015-08-10T20:36:15Z</time>
      </trkpt>
      <trkpt lat="48.85748" lon="2.34689">
        <ele>44.20000076294</ele>
        <time>2015-08-10T20:36:22Z</time>
      </trkpt>
      <trkpt lat="48.85741" lon="2.34685">
        <ele>42</ele>
        <time>2015-08-10T20:36:27Z</time>
      </trkpt>
      <trkpt lat="48.85729" lon="2.34684">
        <ele>38</ele>
        <time>2015-08-10T20:36:46Z</time>
      </trkpt>
      <trkpt lat="48.85709" lon="2.34684">
        <ele>35.599998474121</ele>
        <time>2015-08-10T20:36:53Z</time>
      </trkpt>
      <trkpt lat="48.85692" lon="2.34671">
        <ele>34.79999923706</ele>
        <time>2015-08-10T20:36:59Z</time>
      </trkpt>
      <trkpt lat="48.85673" lon="2.34658">
        <ele>32.599998474121</ele>
        <time>2015-08-10T20:37:06Z</time>
      </trkpt>
      <trkpt lat="48.85654" lon="2.34646">
        <ele>31.39999961853</ele>
        <time>2015-08-10T20:37:12Z</time>
      </trkpt>
      <trkpt lat="48.85636" lon="2.34636">
        <ele>30.60000038147</ele>
        <time>2015-08-10T20:37:17Z</time>
      </trkpt>
      <trkpt lat="48.85617" lon="2.34624">
        <ele>30.200000762939</ele>
        <time>2015-08-10T20:37:22Z</time>
      </trkpt>
      <trkpt lat="48.85597" lon="2.3461">
        <ele>30.39999961853</ele>
        <time>2015-08-10T20:37:27Z</time>
      </trkpt>
      <trkpt lat="48.85578" lon="2.34601">
        <ele>31.39999961853</ele>
        <time>2015-08-10T20:37:32Z</time>
      </trkpt>
      <trkpt lat="48.85561" lon="2.34589">
        <ele>30.799999237061</ele>
        <time>2015-08-10T20:37:37Z</time>
      </trkpt>
      <trkpt lat="48.85545" lon="2.34571">
        <ele>31.200000762939</ele>
        <time>2015-08-10T20:37:42Z</time>
      </trkpt>
      <trkpt lat="48.85528" lon="2.34555">
        <ele>32.599998474121</ele>
        <time>2015-08-10T20:37:47Z</time>
      </trkpt>
      <trkpt lat="48.85509" lon="2.3454">
        <ele>32.599998474121</ele>
        <time>2015-08-10T20:37:53Z</time>
      </trkpt>
      <trkpt lat="48.85491" lon="2.34523">
        <ele>31.60000038147</ele>
        <time>2015-08-10T20:37:59Z</time>
      </trkpt>
      <trkpt lat="48.85472" lon="2.34515">
        <ele>31.799999237061</ele>
        <time>2015-08-10T20:38:04Z</time>
      </trkpt>
      <trkpt lat="48.85453" lon="2.34507">
        <ele>31.39999961853</ele>
        <time>2015-08-10T20:38:10Z</time>
      </trkpt>
      <trkpt lat="48.85441" lon="2.34477">
        <ele>33</ele>
        <time>2015-08-10T20:38:18Z</time>
      </trkpt>
      <trkpt lat="48.85425" lon="2.34457">
        <ele>30.799999237061</ele>
        <time>2015-08-10T20:38:25Z</time>
      </trkpt>
      <trkpt lat="48.85408" lon="2.34441">
        <ele>31.39999961853</ele>
        <time>2015-08-10T20:38:31Z</time>
      </trkpt>
      <trkpt lat="48.85392" lon="2.34429">
        <ele>32.599998474121</ele>
        <time>2015-08-10T20:38:39Z</time>
      </trkpt>
      <trkpt lat="48.8538" lon="2.34406">
        <ele>32.79999923706</ele>
        <time>2015-08-10T20:38:47Z</time>
      </trkpt>
      <trkpt lat="48.85363" lon="2.34396">
        <ele>32.79999923706</ele>
        <time>2015-08-10T20:38:52Z</time>
      </trkpt>
      <trkpt lat="48.85343" lon="2.34389">
        <ele>33.599998474121</ele>
        <time>2015-08-10T20:38:58Z</time>
      </trkpt>
      <trkpt lat="48.85334" lon="2.34387">
        <ele>34.599998474121</ele>
        <time>2015-08-10T20:39:02Z</time>
      </trkpt>
      <trkpt lat="48.85322" lon="2.34382">
        <ele>34.400001525879</ele>
        <time>2015-08-10T20:39:06Z</time>
      </trkpt>
      <trkpt lat="48.85304" lon="2.34378">
        <ele>35.20000076294</ele>
        <time>2015-08-10T20:39:12Z</time>
      </trkpt>
      <trkpt lat="48.85284" lon="2.34374">
        <ele>35.79999923706</ele>
        <time>2015-08-10T20:39:18Z</time>
      </trkpt>
      <trkpt lat="48.85266" lon="2.34364">
        <ele>35.20000076294</ele>
        <time>2015-08-10T20:39:27Z</time>
      </trkpt>
      <trkpt lat="48.85247" lon="2.34358">
        <ele>35.400001525879</ele>
        <time>2015-08-10T20:39:34Z</time>
      </trkpt>
      <trkpt lat="48.85227" lon="2.34351">
        <ele>37.20000076294</ele>
        <time>2015-08-10T20:39:40Z</time>
      </trkpt>
      <trkpt lat="48.85207" lon="2.34343">
        <ele>36.599998474121</ele>
        <time>2015-08-10T20:39:46Z</time>
      </trkpt>
      <trkpt lat="48.85188" lon="2.34332">
        <ele>36.79999923706</ele>
        <time>2015-08-10T20:39:52Z</time>
      </trkpt>
      <trkpt lat="48.8517" lon="2.34326">
        <ele>33.79999923706</ele>
        <time>2015-08-10T20:39:57Z</time>
      </trkpt>
      <trkpt lat="48.85158" lon="2.34319">
        <ele>32.400001525879</ele>
        <time>2015-08-10T20:40:03Z</time>
      </trkpt>
      <trkpt lat="48.85155" lon="2.34318">
        <ele>32.599998474121</ele>
        <time>2015-08-10T20:40:05Z</time>
      </trkpt>
      <trkpt lat="48.85141" lon="2.34303">
        <ele>35.599998474121</ele>
        <time>2015-08-10T20:40:44Z</time>
      </trkpt>
      <trkpt lat="48.85124" lon="2.34291">
        <ele>37</ele>
        <time>2015-08-10T20:40:51Z</time>
      </trkpt>
      <trkpt lat="48.85106" lon="2.34281">
        <ele>37.599998474121</ele>
        <time>2015-08-10T20:40:58Z</time>
      </trkpt>
      <trkpt lat="48.85089" lon="2.3427">
        <ele>38.400001525879</ele>
        <time>2015-08-10T20:41:05Z</time>
      </trkpt>
      <trkpt lat="48.85072" lon="2.34259">
        <ele>37.79999923706</ele>
        <time>2015-08-10T20:41:15Z</time>
      </trkpt>
      <trkpt lat="48.85054" lon="2.34251">
        <ele>36.79999923706</ele>
        <time>2015-08-10T20:41:22Z</time>
      </trkpt>
      <trkpt lat="48.85036" lon="2.34243">
        <ele>36</ele>
        <time>2015-08-10T20:41:29Z</time>
      </trkpt>
      <trkpt lat="48.85017" lon="2.34234">
        <ele>35.599998474121</ele>
        <time>2015-08-10T20:41:36Z</time>
      </trkpt>
      <trkpt lat="48.84997" lon="2.34228">
        <ele>36.20000076294</ele>
        <time>2015-08-10T20:41:42Z</time>
      </trkpt>
      <trkpt lat="48.84978" lon="2.34224">
        <ele>36.599998474121</ele>
        <time>2015-08-10T20:41:48Z</time>
      </trkpt>
      <trkpt lat="48.84961" lon="2.34217">
        <ele>41</ele>
        <time>2015-08-10T20:41:54Z</time>
      </trkpt>
      <trkpt lat="48.84943" lon="2.34211">
        <ele>45.400001525879</ele>
        <time>2015-08-10T20:42:00Z</time>
      </trkpt>
      <trkpt lat="48.84924" lon="2.34204">
        <ele>47.599998474121</ele>
        <time>2015-08-10T20:42:06Z</time>
      </trkpt>
      <trkpt lat="48.84905" lon="2.3419">
        <ele>46.599998474121</ele>
        <time>2015-08-10T20:42:12Z</time>
      </trkpt>
      <trkpt lat="48.84888" lon="2.34177">
        <ele>47.400001525879</ele>
        <time>2015-08-10T20:42:19Z</time>
      </trkpt>
      <trkpt lat="48.84879" lon="2.3417">
        <ele>47.20000076294</ele>
        <time>2015-08-10T20:42:23Z</time>
      </trkpt>
      <trkpt lat="48.84864" lon="2.3415">
        <ele>48.20000076294</ele>
        <time>2015-08-10T20:42:30Z</time>
      </trkpt>
      <trkpt lat="48.84847" lon="2.34137">
        <ele>48.20000076294</ele>
        <time>2015-08-10T20:42:36Z</time>
      </trkpt>
      <trkpt lat="48.84827" lon="2.34133">
        <ele>51</ele>
        <time>2015-08-10T20:42:43Z</time>
      </trkpt>
      <trkpt lat="48.84809" lon="2.34126">
        <ele>55.599998474121</ele>
        <time>2015-08-10T20:42:49Z</time>
      </trkpt>
      <trkpt lat="48.84791" lon="2.34123">
        <ele>58.20000076294</ele>
        <time>2015-08-10T20:42:55Z</time>
      </trkpt>
      <trkpt lat="48.84772" lon="2.34111">
        <ele>58.79999923706</ele>
        <time>2015-08-10T20:43:02Z</time>
      </trkpt>
      <trkpt lat="48.84757" lon="2.34092">
        <ele>56.79999923706</ele>
        <time>2015-08-10T20:43:09Z</time>
      </trkpt>
      <trkpt lat="48.84739" lon="2.34081">
        <ele>54.400001525879</ele>
        <time>2015-08-10T20:43:16Z</time>
      </trkpt>
      <trkpt lat="48.84721" lon="2.34066">
        <ele>53</ele>
        <time>2015-08-10T20:43:22Z</time>
      </trkpt>
      <trkpt lat="48.84704" lon="2.34053">
        <ele>50.20000076294</ele>
        <time>2015-08-10T20:43:28Z</time>
      </trkpt>
      <trkpt lat="48.84685" lon="2.34042">
        <ele>50</ele>
        <time>2015-08-10T20:43:35Z</time>
      </trkpt>
      <trkpt lat="48.84668" lon="2.34027">
        <ele>49.79999923706</ele>
        <time>2015-08-10T20:43:41Z</time>
      </trkpt>
      <trkpt lat="48.84651" lon="2.34017">
        <ele>49.400001525879</ele>
        <time>2015-08-10T20:43:46Z</time>
      </trkpt>
      <trkpt lat="48.84634" lon="2.34005">
        <ele>49.79999923706</ele>
        <time>2015-08-10T20:43:51Z</time>
      </trkpt>
      <trkpt lat="48.84615" lon="2.33994">
        <ele>51.599998474121</ele>
        <time>2015-08-10T20:43:56Z</time>
      </trkpt>
      <trkpt lat="48.84595" lon="2.33986">
        <ele>52.599998474121</ele>
        <time>2015-08-10T20:44:01Z</time>
      </trkpt>
      <trkpt lat="48.84575" lon="2.33978">
        <ele>53.599998474121</ele>
        <time>2015-08-10T20:44:06Z</time>
      </trkpt>
      <trkpt lat="48.84555" lon="2.3397">
        <ele>53.599998474121</ele>
        <time>2015-08-10T20:44:11Z</time>
      </trkpt>
      <trkpt lat="48.84535" lon="2.33961">
        <ele>53</ele>
        <time>2015-08-10T20:44:16Z</time>
      </trkpt>
      <trkpt lat="48.84516" lon="2.33952">
        <ele>53.599998474121</ele>
        <time>2015-08-10T20:44:21Z</time>
      </trkpt>
      <trkpt lat="48.84497" lon="2.33944">
        <ele>54.20000076294</ele>
        <time>2015-08-10T20:44:26Z</time>
      </trkpt>
      <trkpt lat="48.84477" lon="2.33936">
        <ele>55.599998474121</ele>
        <time>2015-08-10T20:44:32Z</time>
      </trkpt>
      <trkpt lat="48.84458" lon="2.33926">
        <ele>56.599998474121</ele>
        <time>2015-08-10T20:44:37Z</time>
      </trkpt>
      <trkpt lat="48.84438" lon="2.33915">
        <ele>58.599998474121</ele>
        <time>2015-08-10T20:44:42Z</time>
      </trkpt>
      <trkpt lat="48.84419" lon="2.33905">
        <ele>56.20000076294</ele>
        <time>2015-08-10T20:44:47Z</time>
      </trkpt>
      <trkpt lat="48.844" lon="2.3389">
        <ele>56.599998474121</ele>
        <time>2015-08-10T20:44:53Z</time>
      </trkpt>
      <trkpt lat="48.84381" lon="2.3388">
        <ele>57.79999923706</ele>
        <time>2015-08-10T20:45:00Z</time>
      </trkpt>
      <trkpt lat="48.84361" lon="2.33869">
        <ele>59.20000076294</ele>
        <time>2015-08-10T20:45:06Z</time>
      </trkpt>
      <trkpt lat="48.84341" lon="2.33864">
        <ele>58.20000076294</ele>
        <time>2015-08-10T20:45:12Z</time>
      </trkpt>
      <trkpt lat="48.84324" lon="2.33853">
        <ele>58.79999923706</ele>
        <time>2015-08-10T20:45:18Z</time>
      </trkpt>
      <trkpt lat="48.84306" lon="2.3384">
        <ele>59.400001525879</ele>
        <time>2015-08-10T20:45:24Z</time>
      </trkpt>
      <trkpt lat="48.84288" lon="2.33833">
        <ele>59.20000076294</ele>
        <time>2015-08-10T20:45:30Z</time>
      </trkpt>
      <trkpt lat="48.84269" lon="2.33824">
        <ele>57.599998474121</ele>
        <time>2015-08-10T20:45:36Z</time>
      </trkpt>
      <trkpt lat="48.84254" lon="2.33806">
        <ele>56.79999923706</ele>
        <time>2015-08-10T20:45:41Z</time>
      </trkpt>
      <trkpt lat="48.84237" lon="2.33793">
        <ele>56.599998474121</ele>
        <time>2015-08-10T20:45:47Z</time>
      </trkpt>
      <trkpt lat="48.8422" lon="2.33783">
        <ele>56</ele>
        <time>2015-08-10T20:45:53Z</time>
      </trkpt>
      <trkpt lat="48.84199" lon="2.33776">
        <ele>56</ele>
        <time>2015-08-10T20:46:00Z</time>
      </trkpt>
      <trkpt lat="48.84183" lon="2.33765">
        <ele>56.599998474121</ele>
        <time>2015-08-10T20:46:06Z</time>
      </trkpt>
      <trkpt lat="48.84164" lon="2.33753">
        <ele>56.20000076294</ele>
        <time>2015-08-10T20:46:14Z</time>
      </trkpt>
      <trkpt lat="48.84145" lon="2.33739">
        <ele>56.599998474121</ele>
        <time>2015-08-10T20:46:21Z</time>
      </trkpt>
      <trkpt lat="48.84127" lon="2.33731">
        <ele>57</ele>
        <time>2015-08-10T20:46:27Z</time>
      </trkpt>
      <trkpt lat="48.84109" lon="2.33719">
        <ele>57.20000076294</ele>
        <time>2015-08-10T20:46:33Z</time>
      </trkpt>
      <trkpt lat="48.8409" lon="2.33707">
        <ele>57.79999923706</ele>
        <time>2015-08-10T20:46:39Z</time>
      </trkpt>
      <trkpt lat="48.84074" lon="2.33691">
        <ele>56.79999923706</ele>
        <time>2015-08-10T20:46:45Z</time>
      </trkpt>
      <trkpt lat="48.84057" lon="2.33675">
        <ele>54</ele>
        <time>2015-08-10T20:46:51Z</time>
      </trkpt>
      <trkpt lat="48.84041" lon="2.33659">
        <ele>52.400001525879</ele>
        <time>2015-08-10T20:46:57Z</time>
      </trkpt>
      <trkpt lat="48.84021" lon="2.3365">
        <ele>52</ele>
        <time>2015-08-10T20:47:03Z</time>
      </trkpt>
      <trkpt lat="48.84001" lon="2.33642">
        <ele>52.599998474121</ele>
        <time>2015-08-10T20:47:10Z</time>
      </trkpt>
      <trkpt lat="48.83981" lon="2.33641">
        <ele>54.20000076294</ele>
        <time>2015-08-10T20:47:17Z</time>
      </trkpt>
      <trkpt lat="48.83963" lon="2.33644">
        <ele>54.400001525879</ele>
        <time>2015-08-10T20:47:24Z</time>
      </trkpt>
      <trkpt lat="48.83944" lon="2.33644">
        <ele>54.20000076294</ele>
        <time>2015-08-10T20:47:31Z</time>
      </trkpt>
      <trkpt lat="48.83926" lon="2.33643">
        <ele>55</ele>
        <time>2015-08-10T20:47:37Z</time>
      </trkpt>
      <trkpt lat="48.83905" lon="2.33658">
        <ele>59.400001525879</ele>
        <time>2015-08-10T20:47:43Z</time>
      </trkpt>
      <trkpt lat="48.83885" lon="2.33661">
        <ele>61</ele>
        <time>2015-08-10T20:47:49Z</time>
      </trkpt>
      <trkpt lat="48.83866" lon="2.3365">
        <ele>60</ele>
        <time>2015-08-10T20:47:55Z</time>
      </trkpt>
      <trkpt lat="48.83851" lon="2.33633">
        <ele>60</ele>
        <time>2015-08-10T20:48:00Z</time>
      </trkpt>
      <trkpt lat="48.83834" lon="2.33618">
        <ele>63</ele>
        <time>2015-08-10T20:48:06Z</time>
      </trkpt>
      <trkpt lat="48.83817" lon="2.33604">
        <ele>65</ele>
        <time>2015-08-10T20:48:12Z</time>
      </trkpt>
      <trkpt lat="48.838" lon="2.33593">
        <ele>67.400001525879</ele>
        <time>2015-08-10T20:48:17Z</time>
      </trkpt>
      <trkpt lat="48.83786" lon="2.33576">
        <ele>69</ele>
        <time>2015-08-10T20:48:22Z</time>
      </trkpt>
      <trkpt lat="48.83767" lon="2.33561">
        <ele>70</ele>
        <time>2015-08-10T20:48:28Z</time>
      </trkpt>
      <trkpt lat="48.83752" lon="2.33544">
        <ele>68.800003051758</ele>
        <time>2015-08-10T20:48:34Z</time>
      </trkpt>
      <trkpt lat="48.83737" lon="2.33521">
        <ele>65</ele>
        <time>2015-08-10T20:48:40Z</time>
      </trkpt>
      <trkpt lat="48.83723" lon="2.33501">
        <ele>62.20000076294</ele>
        <time>2015-08-10T20:48:46Z</time>
      </trkpt>
      <trkpt lat="48.83707" lon="2.33486">
        <ele>62.400001525879</ele>
        <time>2015-08-10T20:48:52Z</time>
      </trkpt>
      <trkpt lat="48.83693" lon="2.33468">
        <ele>62</ele>
        <time>2015-08-10T20:48:58Z</time>
      </trkpt>
      <trkpt lat="48.83678" lon="2.33452">
        <ele>60.20000076294</ele>
        <time>2015-08-10T20:49:04Z</time>
      </trkpt>
      <trkpt lat="48.83662" lon="2.33435">
        <ele>59.400001525879</ele>
        <time>2015-08-10T20:49:10Z</time>
      </trkpt>
      <trkpt lat="48.83646" lon="2.33415">
        <ele>60.20000076294</ele>
        <time>2015-08-10T20:49:16Z</time>
      </trkpt>
      <trkpt lat="48.83628" lon="2.33399">
        <ele>61.400001525879</ele>
        <time>2015-08-10T20:49:22Z</time>
      </trkpt>
      <trkpt lat="48.8361" lon="2.33387">
        <ele>62.20000076294</ele>
        <time>2015-08-10T20:49:28Z</time>
      </trkpt>
      <trkpt lat="48.83591" lon="2.33379">
        <ele>62</ele>
        <time>2015-08-10T20:49:34Z</time>
      </trkpt>
      <trkpt lat="48.83574" lon="2.33363">
        <ele>62.20000076294</ele>
        <time>2015-08-10T20:49:40Z</time>
      </trkpt>
      <trkpt lat="48.83556" lon="2.33347">
        <ele>62.400001525879</ele>
        <time>2015-08-10T20:49:46Z</time>
      </trkpt>
      <trkpt lat="48.83538" lon="2.33331">
        <ele>63.400001525879</ele>
        <time>2015-08-10T20:49:52Z</time>
      </trkpt>
      <trkpt lat="48.83518" lon="2.3332">
        <ele>64</ele>
        <time>2015-08-10T20:49:58Z</time>
      </trkpt>
      <trkpt lat="48.835" lon="2.33304">
        <ele>62.599998474121</ele>
        <time>2015-08-10T20:50:04Z</time>
      </trkpt>
      <trkpt lat="48.83485" lon="2.33286">
        <ele>65.400001525879</ele>
        <time>2015-08-10T20:50:11Z</time>
      </trkpt>
      <trkpt lat="48.83476" lon="2.33279">
        <ele>66.199996948242</ele>
        <time>2015-08-10T20:50:16Z</time>
      </trkpt>
      <trkpt lat="48.83461" lon="2.33288">
        <ele>66.400001525879</ele>
        <time>2015-08-10T20:50:43Z</time>
      </trkpt>
      <trkpt lat="48.83442" lon="2.33302">
        <ele>66.199996948242</ele>
        <time>2015-08-10T20:50:51Z</time>
      </trkpt>
      <trkpt lat="48.83436" lon="2.33305">
        <ele>66</ele>
        <time>2015-08-10T20:50:54Z</time>
      </trkpt>
      <trkpt lat="48.83429" lon="2.33298">
        <ele>65.400001525879</ele>
        <time>2015-08-10T20:51:00Z</time>
      </trkpt>
      <trkpt lat="48.83418" lon="2.33275">
        <ele>64.800003051758</ele>
        <time>2015-08-10T20:51:07Z</time>
      </trkpt>
      <trkpt lat="48.83404" lon="2.33284">
        <ele>62.400001525879</ele>
        <time>2015-08-10T20:51:14Z</time>
      </trkpt>
      <trkpt lat="48.83391" lon="2.33305">
        <ele>61.20000076294</ele>
        <time>2015-08-10T20:51:21Z</time>
      </trkpt>
      <trkpt lat="48.83373" lon="2.33305">
        <ele>61.400001525879</ele>
        <time>2015-08-10T20:51:28Z</time>
      </trkpt>
      <trkpt lat="48.83361" lon="2.33284">
        <ele>61</ele>
        <time>2015-08-10T20:51:36Z</time>
      </trkpt>
      <trkpt lat="48.8335" lon="2.33264">
        <ele>61</ele>
        <time>2015-08-10T20:51:59Z</time>
      </trkpt>
      <trkpt lat="48.83344" lon="2.33258">
        <ele>61</ele>
        <time>2015-08-10T20:52:04Z</time>
      </trkpt>
      <trkpt lat="48.83335" lon="2.33258">
        <ele>61.400001525879</ele>
        <time>2015-08-10T20:52:09Z</time>
      </trkpt>
      <trkpt lat="48.83323" lon="2.33256">
        <ele>61</ele>
        <time>2015-08-10T20:52:18Z</time>
      </trkpt>
    </trkseg>
  </trk>
  <trk>
    <name><![CDATA[lundi 2015 08 31 rando lune]]></name>
    <extensions>
      <line xmlns="http://www.topografix.com/GPX/gpx_style/0/2">
        <color>000000</color>
      </line>
    </extensions>
    <trkseg>
      <trkpt lat="48.86976" lon="2.3503">
        <ele>77.400001525879</ele>
        <time>2015-08-31T19:06:05Z</time>
      </trkpt>
      <trkpt lat="48.86979" lon="2.35034">
        <ele>74</ele>
        <time>2015-08-31T19:06:07Z</time>
      </trkpt>
      <trkpt lat="48.86977" lon="2.35051">
        <ele>66.400001525879</ele>
        <time>2015-08-31T19:06:10Z</time>
      </trkpt>
      <trkpt lat="48.8698" lon="2.3507">
        <ele>57.400001525879</ele>
        <time>2015-08-31T19:06:13Z</time>
      </trkpt>
      <trkpt lat="48.86975" lon="2.35087">
        <ele>43</ele>
        <time>2015-08-31T19:06:18Z</time>
      </trkpt>
      <trkpt lat="48.8697" lon="2.35093">
        <ele>42</ele>
        <time>2015-08-31T19:06:19Z</time>
      </trkpt>
      <trkpt lat="48.86972" lon="2.35101">
        <ele>31.200000762939</ele>
        <time>2015-08-31T19:06:23Z</time>
      </trkpt>
      <trkpt lat="48.86973" lon="2.35106">
        <ele>32.20000076294</ele>
        <time>2015-08-31T19:06:25Z</time>
      </trkpt>
      <trkpt lat="48.86976" lon="2.35117">
        <ele>33.400001525879</ele>
        <time>2015-08-31T19:06:29Z</time>
      </trkpt>
      <trkpt lat="48.86997" lon="2.35152">
        <ele>37.79999923706</ele>
        <time>2015-08-31T19:06:44Z</time>
      </trkpt>
      <trkpt lat="48.87007" lon="2.35183">
        <ele>40.400001525879</ele>
        <time>2015-08-31T19:06:56Z</time>
      </trkpt>
      <trkpt lat="48.87002" lon="2.3521">
        <ele>42.599998474121</ele>
        <time>2015-08-31T19:07:07Z</time>
      </trkpt>
      <trkpt lat="48.86999" lon="2.35223">
        <ele>43.79999923706</ele>
        <time>2015-08-31T19:07:13Z</time>
      </trkpt>
      <trkpt lat="48.86981" lon="2.35241">
        <ele>45.20000076294</ele>
        <time>2015-08-31T19:07:28Z</time>
      </trkpt>
      <trkpt lat="48.86979" lon="2.35242">
        <ele>45.400001525879</ele>
        <time>2015-08-31T19:07:30Z</time>
      </trkpt>
      <trkpt lat="48.86979" lon="2.35241">
        <ele>45.20000076294</ele>
        <time>2015-08-31T19:07:31Z</time>
      </trkpt>
      <trkpt lat="48.8696" lon="2.35244">
        <ele>46.79999923706</ele>
        <time>2015-08-31T19:07:59Z</time>
      </trkpt>
      <trkpt lat="48.8694" lon="2.35239">
        <ele>45</ele>
        <time>2015-08-31T19:08:07Z</time>
      </trkpt>
      <trkpt lat="48.86925" lon="2.35253">
        <ele>46</ele>
        <time>2015-08-31T19:08:18Z</time>
      </trkpt>
      <trkpt lat="48.86922" lon="2.35283">
        <ele>47.79999923706</ele>
        <time>2015-08-31T19:08:27Z</time>
      </trkpt>
      <trkpt lat="48.86921" lon="2.35314">
        <ele>48.79999923706</ele>
        <time>2015-08-31T19:08:35Z</time>
      </trkpt>
      <trkpt lat="48.86912" lon="2.35343">
        <ele>48.400001525879</ele>
        <time>2015-08-31T19:08:42Z</time>
      </trkpt>
      <trkpt lat="48.86904" lon="2.35369">
        <ele>46.20000076294</ele>
        <time>2015-08-31T19:08:48Z</time>
      </trkpt>
      <trkpt lat="48.86903" lon="2.35378">
        <ele>45.599998474121</ele>
        <time>2015-08-31T19:08:52Z</time>
      </trkpt>
      <trkpt lat="48.86898" lon="2.35405">
        <ele>48.400001525879</ele>
        <time>2015-08-31T19:09:02Z</time>
      </trkpt>
      <trkpt lat="48.86891" lon="2.35433">
        <ele>51.599998474121</ele>
        <time>2015-08-31T19:09:12Z</time>
      </trkpt>
      <trkpt lat="48.86884" lon="2.35464">
        <ele>51.79999923706</ele>
        <time>2015-08-31T19:09:18Z</time>
      </trkpt>
      <trkpt lat="48.86871" lon="2.35489">
        <ele>48.599998474121</ele>
        <time>2015-08-31T19:09:22Z</time>
      </trkpt>
      <trkpt lat="48.8687" lon="2.35499">
        <ele>48</ele>
        <time>2015-08-31T19:09:26Z</time>
      </trkpt>
      <trkpt lat="48.86869" lon="2.35508">
        <ele>49.20000076294</ele>
        <time>2015-08-31T19:09:31Z</time>
      </trkpt>
      <trkpt lat="48.8685" lon="2.35512">
        <ele>51</ele>
        <time>2015-08-31T19:09:37Z</time>
      </trkpt>
      <trkpt lat="48.86831" lon="2.35505">
        <ele>52.400001525879</ele>
        <time>2015-08-31T19:09:43Z</time>
      </trkpt>
      <trkpt lat="48.8681" lon="2.35496">
        <ele>53</ele>
        <time>2015-08-31T19:09:49Z</time>
      </trkpt>
      <trkpt lat="48.86789" lon="2.35487">
        <ele>52.79999923706</ele>
        <time>2015-08-31T19:09:55Z</time>
      </trkpt>
      <trkpt lat="48.86771" lon="2.35479">
        <ele>53.400001525879</ele>
        <time>2015-08-31T19:10:00Z</time>
      </trkpt>
      <trkpt lat="48.86753" lon="2.35471">
        <ele>53.400001525879</ele>
        <time>2015-08-31T19:10:05Z</time>
      </trkpt>
      <trkpt lat="48.86733" lon="2.35467">
        <ele>51.79999923706</ele>
        <time>2015-08-31T19:10:10Z</time>
      </trkpt>
      <trkpt lat="48.86715" lon="2.35452">
        <ele>53.599998474121</ele>
        <time>2015-08-31T19:10:15Z</time>
      </trkpt>
      <trkpt lat="48.86696" lon="2.3544">
        <ele>53</ele>
        <time>2015-08-31T19:10:20Z</time>
      </trkpt>
      <trkpt lat="48.86677" lon="2.35429">
        <ele>51.400001525879</ele>
        <time>2015-08-31T19:10:25Z</time>
      </trkpt>
      <trkpt lat="48.86658" lon="2.35418">
        <ele>50.599998474121</ele>
        <time>2015-08-31T19:10:30Z</time>
      </trkpt>
      <trkpt lat="48.86639" lon="2.35407">
        <ele>48.79999923706</ele>
        <time>2015-08-31T19:10:35Z</time>
      </trkpt>
      <trkpt lat="48.86622" lon="2.35394">
        <ele>48.400001525879</ele>
        <time>2015-08-31T19:10:40Z</time>
      </trkpt>
      <trkpt lat="48.86605" lon="2.35385">
        <ele>39.20000076294</ele>
        <time>2015-08-31T19:10:49Z</time>
      </trkpt>
      <trkpt lat="48.86595" lon="2.35407">
        <ele>44.20000076294</ele>
        <time>2015-08-31T19:11:08Z</time>
      </trkpt>
      <trkpt lat="48.86588" lon="2.35433">
        <ele>46</ele>
        <time>2015-08-31T19:11:12Z</time>
      </trkpt>
      <trkpt lat="48.86583" lon="2.35462">
        <ele>48.400001525879</ele>
        <time>2015-08-31T19:11:17Z</time>
      </trkpt>
      <trkpt lat="48.86577" lon="2.35493">
        <ele>50.599998474121</ele>
        <time>2015-08-31T19:11:22Z</time>
      </trkpt>
      <trkpt lat="48.86572" lon="2.3552">
        <ele>50.400001525879</ele>
        <time>2015-08-31T19:11:26Z</time>
      </trkpt>
      <trkpt lat="48.86565" lon="2.35548">
        <ele>50.79999923706</ele>
        <time>2015-08-31T19:11:31Z</time>
      </trkpt>
      <trkpt lat="48.86557" lon="2.35576">
        <ele>50.20000076294</ele>
        <time>2015-08-31T19:11:36Z</time>
      </trkpt>
      <trkpt lat="48.86551" lon="2.35606">
        <ele>50.400001525879</ele>
        <time>2015-08-31T19:11:41Z</time>
      </trkpt>
      <trkpt lat="48.86549" lon="2.35633">
        <ele>52.400001525879</ele>
        <time>2015-08-31T19:11:45Z</time>
      </trkpt>
      <trkpt lat="48.86547" lon="2.35661">
        <ele>56</ele>
        <time>2015-08-31T19:11:49Z</time>
      </trkpt>
      <trkpt lat="48.86545" lon="2.35674">
        <ele>57.79999923706</ele>
        <time>2015-08-31T19:11:51Z</time>
      </trkpt>
      <trkpt lat="48.86538" lon="2.35701">
        <ele>60.400001525879</ele>
        <time>2015-08-31T19:11:55Z</time>
      </trkpt>
      <trkpt lat="48.86532" lon="2.35729">
        <ele>61</ele>
        <time>2015-08-31T19:11:59Z</time>
      </trkpt>
      <trkpt lat="48.86525" lon="2.35761">
        <ele>61.20000076294</ele>
        <time>2015-08-31T19:12:04Z</time>
      </trkpt>
      <trkpt lat="48.86518" lon="2.35788">
        <ele>62.599998474121</ele>
        <time>2015-08-31T19:12:08Z</time>
      </trkpt>
      <trkpt lat="48.86512" lon="2.35807">
        <ele>62.599998474121</ele>
        <time>2015-08-31T19:12:11Z</time>
      </trkpt>
      <trkpt lat="48.86504" lon="2.35835">
        <ele>63.599998474121</ele>
        <time>2015-08-31T19:12:16Z</time>
      </trkpt>
      <trkpt lat="48.86495" lon="2.35863">
        <ele>64.199996948242</ele>
        <time>2015-08-31T19:12:20Z</time>
      </trkpt>
      <trkpt lat="48.86487" lon="2.35888">
        <ele>64.599998474121</ele>
        <time>2015-08-31T19:12:24Z</time>
      </trkpt>
      <trkpt lat="48.86481" lon="2.35907">
        <ele>64.199996948242</ele>
        <time>2015-08-31T19:12:28Z</time>
      </trkpt>
      <trkpt lat="48.86476" lon="2.35922">
        <ele>65.199996948242</ele>
        <time>2015-08-31T19:12:30Z</time>
      </trkpt>
      <trkpt lat="48.86471" lon="2.35953">
        <ele>61.79999923706</ele>
        <time>2015-08-31T19:12:34Z</time>
      </trkpt>
      <trkpt lat="48.86469" lon="2.35958">
        <ele>61.400001525879</ele>
        <time>2015-08-31T19:12:35Z</time>
      </trkpt>
      <trkpt lat="48.86454" lon="2.35984">
        <ele>60</ele>
        <time>2015-08-31T19:12:40Z</time>
      </trkpt>
      <trkpt lat="48.86438" lon="2.36006">
        <ele>58.79999923706</ele>
        <time>2015-08-31T19:12:45Z</time>
      </trkpt>
      <trkpt lat="48.86434" lon="2.36013">
        <ele>55.400001525879</ele>
        <time>2015-08-31T19:12:46Z</time>
      </trkpt>
      <trkpt lat="48.86421" lon="2.36037">
        <ele>53.599998474121</ele>
        <time>2015-08-31T19:12:51Z</time>
      </trkpt>
      <trkpt lat="48.86411" lon="2.36052">
        <ele>50.20000076294</ele>
        <time>2015-08-31T19:12:54Z</time>
      </trkpt>
      <trkpt lat="48.86396" lon="2.36073">
        <ele>46.79999923706</ele>
        <time>2015-08-31T19:12:59Z</time>
      </trkpt>
      <trkpt lat="48.86381" lon="2.36096">
        <ele>45.20000076294</ele>
        <time>2015-08-31T19:13:04Z</time>
      </trkpt>
      <trkpt lat="48.86378" lon="2.36099">
        <ele>44.400001525879</ele>
        <time>2015-08-31T19:13:05Z</time>
      </trkpt>
      <trkpt lat="48.86365" lon="2.36115">
        <ele>43.599998474121</ele>
        <time>2015-08-31T19:13:09Z</time>
      </trkpt>
      <trkpt lat="48.86362" lon="2.36119">
        <ele>43.20000076294</ele>
        <time>2015-08-31T19:13:10Z</time>
      </trkpt>
      <trkpt lat="48.86353" lon="2.36132">
        <ele>43.20000076294</ele>
        <time>2015-08-31T19:13:13Z</time>
      </trkpt>
      <trkpt lat="48.86337" lon="2.36156">
        <ele>44.599998474121</ele>
        <time>2015-08-31T19:13:18Z</time>
      </trkpt>
      <trkpt lat="48.86328" lon="2.3617">
        <ele>45.599998474121</ele>
        <time>2015-08-31T19:13:21Z</time>
      </trkpt>
      <trkpt lat="48.86314" lon="2.36194">
        <ele>46.400001525879</ele>
        <time>2015-08-31T19:13:26Z</time>
      </trkpt>
      <trkpt lat="48.86306" lon="2.3621">
        <ele>46.79999923706</ele>
        <time>2015-08-31T19:13:29Z</time>
      </trkpt>
      <trkpt lat="48.86293" lon="2.36229">
        <ele>48</ele>
        <time>2015-08-31T19:13:33Z</time>
      </trkpt>
      <trkpt lat="48.8629" lon="2.36233">
        <ele>48.20000076294</ele>
        <time>2015-08-31T19:13:34Z</time>
      </trkpt>
      <trkpt lat="48.86278" lon="2.36261">
        <ele>48.79999923706</ele>
        <time>2015-08-31T19:13:39Z</time>
      </trkpt>
      <trkpt lat="48.86275" lon="2.36266">
        <ele>49.20000076294</ele>
        <time>2015-08-31T19:13:40Z</time>
      </trkpt>
      <trkpt lat="48.86263" lon="2.36288">
        <ele>51.20000076294</ele>
        <time>2015-08-31T19:13:44Z</time>
      </trkpt>
      <trkpt lat="48.8625" lon="2.36313">
        <ele>53</ele>
        <time>2015-08-31T19:13:49Z</time>
      </trkpt>
      <trkpt lat="48.86238" lon="2.36338">
        <ele>56</ele>
        <time>2015-08-31T19:13:54Z</time>
      </trkpt>
      <trkpt lat="48.86227" lon="2.36362">
        <ele>57.400001525879</ele>
        <time>2015-08-31T19:13:58Z</time>
      </trkpt>
      <trkpt lat="48.86214" lon="2.36385">
        <ele>59</ele>
        <time>2015-08-31T19:14:02Z</time>
      </trkpt>
      <trkpt lat="48.86201" lon="2.36408">
        <ele>60</ele>
        <time>2015-08-31T19:14:06Z</time>
      </trkpt>
      <trkpt lat="48.86199" lon="2.36413">
        <ele>60</ele>
        <time>2015-08-31T19:14:07Z</time>
      </trkpt>
      <trkpt lat="48.86193" lon="2.36431">
        <ele>59.20000076294</ele>
        <time>2015-08-31T19:14:12Z</time>
      </trkpt>
      <trkpt lat="48.86193" lon="2.36437">
        <ele>58</ele>
        <time>2015-08-31T19:14:14Z</time>
      </trkpt>
      <trkpt lat="48.8618" lon="2.36445">
        <ele>55.79999923706</ele>
        <time>2015-08-31T19:15:04Z</time>
      </trkpt>
      <trkpt lat="48.86159" lon="2.36448">
        <ele>55.79999923706</ele>
        <time>2015-08-31T19:15:11Z</time>
      </trkpt>
      <trkpt lat="48.86138" lon="2.36455">
        <ele>53.20000076294</ele>
        <time>2015-08-31T19:15:19Z</time>
      </trkpt>
      <trkpt lat="48.8612" lon="2.36456">
        <ele>52.400001525879</ele>
        <time>2015-08-31T19:15:24Z</time>
      </trkpt>
      <trkpt lat="48.861" lon="2.36458">
        <ele>51.400001525879</ele>
        <time>2015-08-31T19:15:29Z</time>
      </trkpt>
      <trkpt lat="48.86081" lon="2.36461">
        <ele>51.599998474121</ele>
        <time>2015-08-31T19:15:34Z</time>
      </trkpt>
      <trkpt lat="48.86059" lon="2.36463">
        <ele>52.79999923706</ele>
        <time>2015-08-31T19:15:39Z</time>
      </trkpt>
      <trkpt lat="48.86038" lon="2.3646">
        <ele>53.79999923706</ele>
        <time>2015-08-31T19:15:44Z</time>
      </trkpt>
      <trkpt lat="48.86018" lon="2.36463">
        <ele>53.400001525879</ele>
        <time>2015-08-31T19:15:48Z</time>
      </trkpt>
      <trkpt lat="48.86" lon="2.36467">
        <ele>51.79999923706</ele>
        <time>2015-08-31T19:15:52Z</time>
      </trkpt>
      <trkpt lat="48.85981" lon="2.36467">
        <ele>51.599998474121</ele>
        <time>2015-08-31T19:15:56Z</time>
      </trkpt>
      <trkpt lat="48.85971" lon="2.36467">
        <ele>51.79999923706</ele>
        <time>2015-08-31T19:15:58Z</time>
      </trkpt>
      <trkpt lat="48.85952" lon="2.36465">
        <ele>53.20000076294</ele>
        <time>2015-08-31T19:16:02Z</time>
      </trkpt>
      <trkpt lat="48.85933" lon="2.36462">
        <ele>54.599998474121</ele>
        <time>2015-08-31T19:16:06Z</time>
      </trkpt>
      <trkpt lat="48.85912" lon="2.36462">
        <ele>56.20000076294</ele>
        <time>2015-08-31T19:16:10Z</time>
      </trkpt>
      <trkpt lat="48.8589" lon="2.36461">
        <ele>57.20000076294</ele>
        <time>2015-08-31T19:16:14Z</time>
      </trkpt>
      <trkpt lat="48.8587" lon="2.36459">
        <ele>57.79999923706</ele>
        <time>2015-08-31T19:16:18Z</time>
      </trkpt>
      <trkpt lat="48.8585" lon="2.36457">
        <ele>57.79999923706</ele>
        <time>2015-08-31T19:16:22Z</time>
      </trkpt>
      <trkpt lat="48.85833" lon="2.36456">
        <ele>58.400001525879</ele>
        <time>2015-08-31T19:16:25Z</time>
      </trkpt>
      <trkpt lat="48.85813" lon="2.36452">
        <ele>59.20000076294</ele>
        <time>2015-08-31T19:16:29Z</time>
      </trkpt>
      <trkpt lat="48.85794" lon="2.36451">
        <ele>59.79999923706</ele>
        <time>2015-08-31T19:16:33Z</time>
      </trkpt>
      <trkpt lat="48.85773" lon="2.36448">
        <ele>60.20000076294</ele>
        <time>2015-08-31T19:16:37Z</time>
      </trkpt>
      <trkpt lat="48.85752" lon="2.36449">
        <ele>60.79999923706</ele>
        <time>2015-08-31T19:16:41Z</time>
      </trkpt>
      <trkpt lat="48.85732" lon="2.36448">
        <ele>62</ele>
        <time>2015-08-31T19:16:45Z</time>
      </trkpt>
      <trkpt lat="48.85717" lon="2.36449">
        <ele>62.599998474121</ele>
        <time>2015-08-31T19:16:48Z</time>
      </trkpt>
      <trkpt lat="48.85699" lon="2.36451">
        <ele>63.400001525879</ele>
        <time>2015-08-31T19:16:52Z</time>
      </trkpt>
      <trkpt lat="48.85678" lon="2.36448">
        <ele>65.199996948242</ele>
        <time>2015-08-31T19:16:57Z</time>
      </trkpt>
      <trkpt lat="48.85671" lon="2.36446">
        <ele>65.599998474121</ele>
        <time>2015-08-31T19:16:59Z</time>
      </trkpt>
      <trkpt lat="48.85652" lon="2.3644">
        <ele>67.400001525879</ele>
        <time>2015-08-31T19:17:05Z</time>
      </trkpt>
      <trkpt lat="48.8564" lon="2.36432">
        <ele>69</ele>
        <time>2015-08-31T19:17:11Z</time>
      </trkpt>
      <trkpt lat="48.8564" lon="2.36445">
        <ele>68</ele>
        <time>2015-08-31T19:17:27Z</time>
      </trkpt>
      <trkpt lat="48.85631" lon="2.36471">
        <ele>65</ele>
        <time>2015-08-31T19:17:32Z</time>
      </trkpt>
      <trkpt lat="48.85624" lon="2.36498">
        <ele>63.400001525879</ele>
        <time>2015-08-31T19:17:38Z</time>
      </trkpt>
      <trkpt lat="48.85618" lon="2.36529">
        <ele>62.599998474121</ele>
        <time>2015-08-31T19:17:43Z</time>
      </trkpt>
      <trkpt lat="48.85612" lon="2.36559">
        <ele>59.79999923706</ele>
        <time>2015-08-31T19:17:48Z</time>
      </trkpt>
      <trkpt lat="48.85608" lon="2.3659">
        <ele>58.79999923706</ele>
        <time>2015-08-31T19:17:53Z</time>
      </trkpt>
      <trkpt lat="48.85604" lon="2.36622">
        <ele>56.20000076294</ele>
        <time>2015-08-31T19:17:58Z</time>
      </trkpt>
      <trkpt lat="48.85599" lon="2.36644">
        <ele>55.79999923706</ele>
        <time>2015-08-31T19:18:03Z</time>
      </trkpt>
      <trkpt lat="48.85581" lon="2.3664">
        <ele>58</ele>
        <time>2015-08-31T19:18:08Z</time>
      </trkpt>
      <trkpt lat="48.85574" lon="2.36636">
        <ele>59.20000076294</ele>
        <time>2015-08-31T19:18:10Z</time>
      </trkpt>
      <trkpt lat="48.85553" lon="2.36627">
        <ele>62</ele>
        <time>2015-08-31T19:18:15Z</time>
      </trkpt>
      <trkpt lat="48.85534" lon="2.3662">
        <ele>61.599998474121</ele>
        <time>2015-08-31T19:18:19Z</time>
      </trkpt>
      <trkpt lat="48.85513" lon="2.3661">
        <ele>63</ele>
        <time>2015-08-31T19:18:24Z</time>
      </trkpt>
      <trkpt lat="48.85497" lon="2.36593">
        <ele>63.20000076294</ele>
        <time>2015-08-31T19:18:29Z</time>
      </trkpt>
      <trkpt lat="48.85499" lon="2.36563">
        <ele>62.79999923706</ele>
        <time>2015-08-31T19:18:34Z</time>
      </trkpt>
      <trkpt lat="48.85501" lon="2.36558">
        <ele>62</ele>
        <time>2015-08-31T19:18:35Z</time>
      </trkpt>
      <trkpt lat="48.85508" lon="2.36536">
        <ele>50.599998474121</ele>
        <time>2015-08-31T19:18:41Z</time>
      </trkpt>
      <trkpt lat="48.85491" lon="2.3652">
        <ele>46.20000076294</ele>
        <time>2015-08-31T19:18:47Z</time>
      </trkpt>
      <trkpt lat="48.8547" lon="2.36512">
        <ele>44.599998474121</ele>
        <time>2015-08-31T19:18:52Z</time>
      </trkpt>
      <trkpt lat="48.8545" lon="2.36506">
        <ele>44.20000076294</ele>
        <time>2015-08-31T19:18:57Z</time>
      </trkpt>
      <trkpt lat="48.85431" lon="2.36499">
        <ele>43.599998474121</ele>
        <time>2015-08-31T19:19:02Z</time>
      </trkpt>
      <trkpt lat="48.85411" lon="2.36494">
        <ele>43.20000076294</ele>
        <time>2015-08-31T19:19:08Z</time>
      </trkpt>
      <trkpt lat="48.85401" lon="2.36496">
        <ele>42.599998474121</ele>
        <time>2015-08-31T19:19:13Z</time>
      </trkpt>
      <trkpt lat="48.85397" lon="2.36489">
        <ele>47</ele>
        <time>2015-08-31T19:19:22Z</time>
      </trkpt>
      <trkpt lat="48.8538" lon="2.36496">
        <ele>61.599998474121</ele>
        <time>2015-08-31T19:20:12Z</time>
      </trkpt>
      <trkpt lat="48.85373" lon="2.36526">
        <ele>62.20000076294</ele>
        <time>2015-08-31T19:20:19Z</time>
      </trkpt>
      <trkpt lat="48.85366" lon="2.36552">
        <ele>63.400001525879</ele>
        <time>2015-08-31T19:20:24Z</time>
      </trkpt>
      <trkpt lat="48.85359" lon="2.3658">
        <ele>64.599998474121</ele>
        <time>2015-08-31T19:20:29Z</time>
      </trkpt>
      <trkpt lat="48.85353" lon="2.36609">
        <ele>65.199996948242</ele>
        <time>2015-08-31T19:20:34Z</time>
      </trkpt>
      <trkpt lat="48.85345" lon="2.36633">
        <ele>66.400001525879</ele>
        <time>2015-08-31T19:20:39Z</time>
      </trkpt>
      <trkpt lat="48.85326" lon="2.36627">
        <ele>67.599998474121</ele>
        <time>2015-08-31T19:20:45Z</time>
      </trkpt>
      <trkpt lat="48.85307" lon="2.36619">
        <ele>67.599998474121</ele>
        <time>2015-08-31T19:20:51Z</time>
      </trkpt>
      <trkpt lat="48.85287" lon="2.36614">
        <ele>65.800003051758</ele>
        <time>2015-08-31T19:20:57Z</time>
      </trkpt>
      <trkpt lat="48.85268" lon="2.36612">
        <ele>64</ele>
        <time>2015-08-31T19:21:02Z</time>
      </trkpt>
      <trkpt lat="48.8525" lon="2.36605">
        <ele>62.599998474121</ele>
        <time>2015-08-31T19:21:07Z</time>
      </trkpt>
      <trkpt lat="48.8524" lon="2.36602">
        <ele>58.599998474121</ele>
        <time>2015-08-31T19:21:13Z</time>
      </trkpt>
      <trkpt lat="48.85235" lon="2.36605">
        <ele>56.20000076294</ele>
        <time>2015-08-31T19:21:19Z</time>
      </trkpt>
      <trkpt lat="48.85234" lon="2.36626">
        <ele>55.599998474121</ele>
        <time>2015-08-31T19:21:41Z</time>
      </trkpt>
      <trkpt lat="48.85244" lon="2.36655">
        <ele>56.400001525879</ele>
        <time>2015-08-31T19:21:47Z</time>
      </trkpt>
      <trkpt lat="48.85253" lon="2.36684">
        <ele>57.599998474121</ele>
        <time>2015-08-31T19:21:53Z</time>
      </trkpt>
      <trkpt lat="48.85263" lon="2.3671">
        <ele>59.79999923706</ele>
        <time>2015-08-31T19:21:58Z</time>
      </trkpt>
      <trkpt lat="48.85271" lon="2.36736">
        <ele>61.599998474121</ele>
        <time>2015-08-31T19:22:03Z</time>
      </trkpt>
      <trkpt lat="48.85277" lon="2.36766">
        <ele>60.599998474121</ele>
        <time>2015-08-31T19:22:08Z</time>
      </trkpt>
      <trkpt lat="48.85271" lon="2.36796">
        <ele>52.400001525879</ele>
        <time>2015-08-31T19:22:13Z</time>
      </trkpt>
      <trkpt lat="48.85269" lon="2.36802">
        <ele>52</ele>
        <time>2015-08-31T19:22:15Z</time>
      </trkpt>
      <trkpt lat="48.85276" lon="2.36829">
        <ele>49.20000076294</ele>
        <time>2015-08-31T19:22:22Z</time>
      </trkpt>
      <trkpt lat="48.85272" lon="2.36843">
        <ele>47.599998474121</ele>
        <time>2015-08-31T19:22:26Z</time>
      </trkpt>
      <trkpt lat="48.85263" lon="2.36869">
        <ele>39.599998474121</ele>
        <time>2015-08-31T19:22:34Z</time>
      </trkpt>
      <trkpt lat="48.8526" lon="2.36878">
        <ele>38.400001525879</ele>
        <time>2015-08-31T19:22:37Z</time>
      </trkpt>
      <trkpt lat="48.85253" lon="2.36898">
        <ele>35.599998474121</ele>
        <time>2015-08-31T19:22:46Z</time>
      </trkpt>
      <trkpt lat="48.8525" lon="2.36904">
        <ele>35.79999923706</ele>
        <time>2015-08-31T19:22:50Z</time>
      </trkpt>
      <trkpt lat="48.85247" lon="2.36911">
        <ele>37.599998474121</ele>
        <time>2015-08-31T19:23:02Z</time>
      </trkpt>
      <trkpt lat="48.85254" lon="2.36931">
        <ele>38.599998474121</ele>
        <time>2015-08-31T19:23:14Z</time>
      </trkpt>
      <trkpt lat="48.85265" lon="2.36947">
        <ele>40.400001525879</ele>
        <time>2015-08-31T19:23:39Z</time>
      </trkpt>
      <trkpt lat="48.85278" lon="2.36971">
        <ele>39.400001525879</ele>
        <time>2015-08-31T19:23:46Z</time>
      </trkpt>
      <trkpt lat="48.85292" lon="2.36989">
        <ele>38.20000076294</ele>
        <time>2015-08-31T19:23:52Z</time>
      </trkpt>
      <trkpt lat="48.85309" lon="2.37">
        <ele>37.20000076294</ele>
        <time>2015-08-31T19:24:01Z</time>
      </trkpt>
      <trkpt lat="48.85312" lon="2.37">
        <ele>38.79999923706</ele>
        <time>2015-08-31T19:25:38Z</time>
      </trkpt>
      <trkpt lat="48.85323" lon="2.37008">
        <ele>38.599998474121</ele>
        <time>2015-08-31T19:25:45Z</time>
      </trkpt>
      <trkpt lat="48.85332" lon="2.37006">
        <ele>38.79999923706</ele>
        <time>2015-08-31T19:25:50Z</time>
      </trkpt>
      <trkpt lat="48.85335" lon="2.37003">
        <ele>39.20000076294</ele>
        <time>2015-08-31T19:25:53Z</time>
      </trkpt>
      <trkpt lat="48.85342" lon="2.36993">
        <ele>40.20000076294</ele>
        <time>2015-08-31T19:26:11Z</time>
      </trkpt>
      <trkpt lat="48.85358" lon="2.36977">
        <ele>42</ele>
        <time>2015-08-31T19:26:21Z</time>
      </trkpt>
      <trkpt lat="48.85366" lon="2.36958">
        <ele>49</ele>
        <time>2015-08-31T19:26:55Z</time>
      </trkpt>
      <trkpt lat="48.85369" lon="2.36943">
        <ele>49.599998474121</ele>
        <time>2015-08-31T19:27:01Z</time>
      </trkpt>
      <trkpt lat="48.85388" lon="2.36942">
        <ele>50.400001525879</ele>
        <time>2015-08-31T19:27:10Z</time>
      </trkpt>
      <trkpt lat="48.85408" lon="2.36943">
        <ele>50.400001525879</ele>
        <time>2015-08-31T19:27:18Z</time>
      </trkpt>
      <trkpt lat="48.85424" lon="2.36954">
        <ele>45.599998474121</ele>
        <time>2015-08-31T19:27:23Z</time>
      </trkpt>
      <trkpt lat="48.85441" lon="2.36965">
        <ele>41.400001525879</ele>
        <time>2015-08-31T19:27:29Z</time>
      </trkpt>
      <trkpt lat="48.85458" lon="2.36978">
        <ele>39.20000076294</ele>
        <time>2015-08-31T19:27:34Z</time>
      </trkpt>
      <trkpt lat="48.85475" lon="2.36989">
        <ele>39.20000076294</ele>
        <time>2015-08-31T19:27:40Z</time>
      </trkpt>
      <trkpt lat="48.85494" lon="2.36999">
        <ele>42.400001525879</ele>
        <time>2015-08-31T19:27:46Z</time>
      </trkpt>
      <trkpt lat="48.85511" lon="2.37006">
        <ele>43.400001525879</ele>
        <time>2015-08-31T19:27:52Z</time>
      </trkpt>
      <trkpt lat="48.85519" lon="2.37011">
        <ele>43.79999923706</ele>
        <time>2015-08-31T19:27:56Z</time>
      </trkpt>
      <trkpt lat="48.8552" lon="2.37015">
        <ele>44.400001525879</ele>
        <time>2015-08-31T19:27:58Z</time>
      </trkpt>
      <trkpt lat="48.85538" lon="2.37024">
        <ele>44.20000076294</ele>
        <time>2015-08-31T19:28:08Z</time>
      </trkpt>
      <trkpt lat="48.85558" lon="2.37032">
        <ele>45.599998474121</ele>
        <time>2015-08-31T19:28:17Z</time>
      </trkpt>
      <trkpt lat="48.85577" lon="2.37038">
        <ele>49</ele>
        <time>2015-08-31T19:28:24Z</time>
      </trkpt>
      <trkpt lat="48.85597" lon="2.37045">
        <ele>52.79999923706</ele>
        <time>2015-08-31T19:28:31Z</time>
      </trkpt>
      <trkpt lat="48.85616" lon="2.3705">
        <ele>58.20000076294</ele>
        <time>2015-08-31T19:28:39Z</time>
      </trkpt>
      <trkpt lat="48.85634" lon="2.37058">
        <ele>65.800003051758</ele>
        <time>2015-08-31T19:28:46Z</time>
      </trkpt>
      <trkpt lat="48.85654" lon="2.37066">
        <ele>72</ele>
        <time>2015-08-31T19:28:54Z</time>
      </trkpt>
      <trkpt lat="48.85671" lon="2.37073">
        <ele>75.599998474121</ele>
        <time>2015-08-31T19:29:01Z</time>
      </trkpt>
      <trkpt lat="48.85689" lon="2.37077">
        <ele>78.199996948242</ele>
        <time>2015-08-31T19:29:08Z</time>
      </trkpt>
      <trkpt lat="48.85693" lon="2.37078">
        <ele>78.800003051758</ele>
        <time>2015-08-31T19:29:10Z</time>
      </trkpt>
      <trkpt lat="48.85699" lon="2.37079">
        <ele>81.400001525879</ele>
        <time>2015-08-31T19:29:16Z</time>
      </trkpt>
      <trkpt lat="48.85706" lon="2.3709">
        <ele>86.800003051758</ele>
        <time>2015-08-31T19:29:37Z</time>
      </trkpt>
      <trkpt lat="48.85706" lon="2.37091">
        <ele>86.800003051758</ele>
        <time>2015-08-31T19:29:39Z</time>
      </trkpt>
      <trkpt lat="48.85702" lon="2.37093">
        <ele>86.599998474121</ele>
        <time>2015-08-31T19:29:43Z</time>
      </trkpt>
      <trkpt lat="48.85704" lon="2.37098">
        <ele>87.599998474121</ele>
        <time>2015-08-31T19:30:13Z</time>
      </trkpt>
      <trkpt lat="48.85709" lon="2.37088">
        <ele>88.400001525879</ele>
        <time>2015-08-31T19:30:27Z</time>
      </trkpt>
      <trkpt lat="48.85728" lon="2.37093">
        <ele>88.199996948242</ele>
        <time>2015-08-31T19:30:37Z</time>
      </trkpt>
      <trkpt lat="48.85746" lon="2.37103">
        <ele>89.199996948242</ele>
        <time>2015-08-31T19:30:44Z</time>
      </trkpt>
      <trkpt lat="48.85765" lon="2.37111">
        <ele>91</ele>
        <time>2015-08-31T19:30:52Z</time>
      </trkpt>
      <trkpt lat="48.85783" lon="2.37119">
        <ele>88.800003051758</ele>
        <time>2015-08-31T19:30:59Z</time>
      </trkpt>
      <trkpt lat="48.85787" lon="2.37119">
        <ele>88.199996948242</ele>
        <time>2015-08-31T19:31:01Z</time>
      </trkpt>
      <trkpt lat="48.85786" lon="2.37103">
        <ele>84.400001525879</ele>
        <time>2015-08-31T19:31:11Z</time>
      </trkpt>
      <trkpt lat="48.8578" lon="2.37077">
        <ele>76.800003051758</ele>
        <time>2015-08-31T19:31:23Z</time>
      </trkpt>
      <trkpt lat="48.8577" lon="2.37052">
        <ele>67.800003051758</ele>
        <time>2015-08-31T19:31:32Z</time>
      </trkpt>
      <trkpt lat="48.85765" lon="2.37022">
        <ele>62.20000076294</ele>
        <time>2015-08-31T19:31:38Z</time>
      </trkpt>
      <trkpt lat="48.85758" lon="2.36993">
        <ele>57.599998474121</ele>
        <time>2015-08-31T19:31:44Z</time>
      </trkpt>
      <trkpt lat="48.8575" lon="2.36968">
        <ele>54.20000076294</ele>
        <time>2015-08-31T19:31:50Z</time>
      </trkpt>
      <trkpt lat="48.85742" lon="2.36939">
        <ele>47.400001525879</ele>
        <time>2015-08-31T19:31:57Z</time>
      </trkpt>
      <trkpt lat="48.85733" lon="2.36915">
        <ele>41.599998474121</ele>
        <time>2015-08-31T19:32:03Z</time>
      </trkpt>
      <trkpt lat="48.85719" lon="2.36892">
        <ele>36</ele>
        <time>2015-08-31T19:32:10Z</time>
      </trkpt>
      <trkpt lat="48.85705" lon="2.36871">
        <ele>31</ele>
        <time>2015-08-31T19:32:17Z</time>
      </trkpt>
      <trkpt lat="48.85704" lon="2.36856">
        <ele>33.20000076294</ele>
        <time>2015-08-31T19:32:27Z</time>
      </trkpt>
      <trkpt lat="48.85705" lon="2.36828">
        <ele>46.20000076294</ele>
        <time>2015-08-31T19:32:49Z</time>
      </trkpt>
      <trkpt lat="48.85708" lon="2.36822">
        <ele>47.20000076294</ele>
        <time>2015-08-31T19:32:51Z</time>
      </trkpt>
      <trkpt lat="48.85715" lon="2.36818">
        <ele>47.599998474121</ele>
        <time>2015-08-31T19:32:55Z</time>
      </trkpt>
      <trkpt lat="48.85733" lon="2.3681">
        <ele>47.400001525879</ele>
        <time>2015-08-31T19:33:02Z</time>
      </trkpt>
      <trkpt lat="48.85751" lon="2.36797">
        <ele>45</ele>
        <time>2015-08-31T19:33:08Z</time>
      </trkpt>
      <trkpt lat="48.85761" lon="2.36788">
        <ele>45.20000076294</ele>
        <time>2015-08-31T19:33:17Z</time>
      </trkpt>
      <trkpt lat="48.85768" lon="2.36782">
        <ele>50</ele>
        <time>2015-08-31T19:34:02Z</time>
      </trkpt>
      <trkpt lat="48.85763" lon="2.36756">
        <ele>52.20000076294</ele>
        <time>2015-08-31T19:34:12Z</time>
      </trkpt>
      <trkpt lat="48.85764" lon="2.36754">
        <ele>52.400001525879</ele>
        <time>2015-08-31T19:34:13Z</time>
      </trkpt>
      <trkpt lat="48.85765" lon="2.36742">
        <ele>53</ele>
        <time>2015-08-31T19:34:17Z</time>
      </trkpt>
      <trkpt lat="48.85768" lon="2.36711">
        <ele>53.20000076294</ele>
        <time>2015-08-31T19:34:25Z</time>
      </trkpt>
      <trkpt lat="48.85775" lon="2.36685">
        <ele>52.400001525879</ele>
        <time>2015-08-31T19:34:30Z</time>
      </trkpt>
      <trkpt lat="48.85781" lon="2.36649">
        <ele>50.79999923706</ele>
        <time>2015-08-31T19:34:35Z</time>
      </trkpt>
      <trkpt lat="48.85792" lon="2.36626">
        <ele>49.400001525879</ele>
        <time>2015-08-31T19:34:39Z</time>
      </trkpt>
      <trkpt lat="48.85803" lon="2.366">
        <ele>48.599998474121</ele>
        <time>2015-08-31T19:34:44Z</time>
      </trkpt>
      <trkpt lat="48.85807" lon="2.36573">
        <ele>47.20000076294</ele>
        <time>2015-08-31T19:34:50Z</time>
      </trkpt>
      <trkpt lat="48.85807" lon="2.36542">
        <ele>46.400001525879</ele>
        <time>2015-08-31T19:34:55Z</time>
      </trkpt>
      <trkpt lat="48.8581" lon="2.36512">
        <ele>46.20000076294</ele>
        <time>2015-08-31T19:35:00Z</time>
      </trkpt>
      <trkpt lat="48.85814" lon="2.36482">
        <ele>46.400001525879</ele>
        <time>2015-08-31T19:35:07Z</time>
      </trkpt>
      <trkpt lat="48.85816" lon="2.36469">
        <ele>45.79999923706</ele>
        <time>2015-08-31T19:35:12Z</time>
      </trkpt>
      <trkpt lat="48.85824" lon="2.36441">
        <ele>49.599998474121</ele>
        <time>2015-08-31T19:35:32Z</time>
      </trkpt>
      <trkpt lat="48.85833" lon="2.36416">
        <ele>49.400001525879</ele>
        <time>2015-08-31T19:35:38Z</time>
      </trkpt>
      <trkpt lat="48.85837" lon="2.36387">
        <ele>48.79999923706</ele>
        <time>2015-08-31T19:35:44Z</time>
      </trkpt>
      <trkpt lat="48.85848" lon="2.36362">
        <ele>48</ele>
        <time>2015-08-31T19:35:51Z</time>
      </trkpt>
      <trkpt lat="48.85858" lon="2.36334">
        <ele>45.599998474121</ele>
        <time>2015-08-31T19:35:58Z</time>
      </trkpt>
      <trkpt lat="48.85867" lon="2.36311">
        <ele>43.400001525879</ele>
        <time>2015-08-31T19:36:04Z</time>
      </trkpt>
      <trkpt lat="48.8587" lon="2.36296">
        <ele>43</ele>
        <time>2015-08-31T19:36:08Z</time>
      </trkpt>
      <trkpt lat="48.85859" lon="2.36279">
        <ele>42.79999923706</ele>
        <time>2015-08-31T19:36:15Z</time>
      </trkpt>
      <trkpt lat="48.85841" lon="2.36267">
        <ele>44.400001525879</ele>
        <time>2015-08-31T19:36:21Z</time>
      </trkpt>
      <trkpt lat="48.85825" lon="2.36252">
        <ele>44</ele>
        <time>2015-08-31T19:36:28Z</time>
      </trkpt>
      <trkpt lat="48.85807" lon="2.36238">
        <ele>44.599998474121</ele>
        <time>2015-08-31T19:36:35Z</time>
      </trkpt>
      <trkpt lat="48.8579" lon="2.36224">
        <ele>42.79999923706</ele>
        <time>2015-08-31T19:36:42Z</time>
      </trkpt>
      <trkpt lat="48.85771" lon="2.36212">
        <ele>39.599998474121</ele>
        <time>2015-08-31T19:36:49Z</time>
      </trkpt>
      <trkpt lat="48.85754" lon="2.36201">
        <ele>37.79999923706</ele>
        <time>2015-08-31T19:36:56Z</time>
      </trkpt>
      <trkpt lat="48.85738" lon="2.36186">
        <ele>35.400001525879</ele>
        <time>2015-08-31T19:37:04Z</time>
      </trkpt>
      <trkpt lat="48.85729" lon="2.36184">
        <ele>34.400001525879</ele>
        <time>2015-08-31T19:37:08Z</time>
      </trkpt>
      <trkpt lat="48.85732" lon="2.3617">
        <ele>32.599998474121</ele>
        <time>2015-08-31T19:37:14Z</time>
      </trkpt>
      <trkpt lat="48.85746" lon="2.3615">
        <ele>28.799999237061</ele>
        <time>2015-08-31T19:37:22Z</time>
      </trkpt>
      <trkpt lat="48.85759" lon="2.3613">
        <ele>23.60000038147</ele>
        <time>2015-08-31T19:37:31Z</time>
      </trkpt>
      <trkpt lat="48.85765" lon="2.36102">
        <ele>18.799999237061</ele>
        <time>2015-08-31T19:37:44Z</time>
      </trkpt>
      <trkpt lat="48.85769" lon="2.36076">
        <ele>19</ele>
        <time>2015-08-31T19:37:50Z</time>
      </trkpt>
      <trkpt lat="48.85784" lon="2.36053">
        <ele>19.39999961853</ele>
        <time>2015-08-31T19:37:57Z</time>
      </trkpt>
      <trkpt lat="48.85798" lon="2.36031">
        <ele>25.799999237061</ele>
        <time>2015-08-31T19:38:02Z</time>
      </trkpt>
      <trkpt lat="48.85812" lon="2.36011">
        <ele>28.39999961853</ele>
        <time>2015-08-31T19:38:08Z</time>
      </trkpt>
      <trkpt lat="48.85825" lon="2.3599">
        <ele>27.799999237061</ele>
        <time>2015-08-31T19:38:14Z</time>
      </trkpt>
      <trkpt lat="48.85832" lon="2.35959">
        <ele>27</ele>
        <time>2015-08-31T19:38:20Z</time>
      </trkpt>
      <trkpt lat="48.85847" lon="2.35938">
        <ele>25.799999237061</ele>
        <time>2015-08-31T19:38:26Z</time>
      </trkpt>
      <trkpt lat="48.85861" lon="2.35919">
        <ele>25</ele>
        <time>2015-08-31T19:38:31Z</time>
      </trkpt>
      <trkpt lat="48.85869" lon="2.35893">
        <ele>24.200000762939</ele>
        <time>2015-08-31T19:38:37Z</time>
      </trkpt>
      <trkpt lat="48.85862" lon="2.35872">
        <ele>24.200000762939</ele>
        <time>2015-08-31T19:38:42Z</time>
      </trkpt>
      <trkpt lat="48.85845" lon="2.35853">
        <ele>26</ele>
        <time>2015-08-31T19:38:48Z</time>
      </trkpt>
      <trkpt lat="48.85834" lon="2.3584">
        <ele>25.60000038147</ele>
        <time>2015-08-31T19:38:54Z</time>
      </trkpt>
      <trkpt lat="48.85845" lon="2.35817">
        <ele>26</ele>
        <time>2015-08-31T19:39:00Z</time>
      </trkpt>
      <trkpt lat="48.85857" lon="2.35794">
        <ele>26</ele>
        <time>2015-08-31T19:39:07Z</time>
      </trkpt>
      <trkpt lat="48.85867" lon="2.35767">
        <ele>24.60000038147</ele>
        <time>2015-08-31T19:39:14Z</time>
      </trkpt>
      <trkpt lat="48.85882" lon="2.35745">
        <ele>23.60000038147</ele>
        <time>2015-08-31T19:39:21Z</time>
      </trkpt>
      <trkpt lat="48.85896" lon="2.35722">
        <ele>22.60000038147</ele>
        <time>2015-08-31T19:39:29Z</time>
      </trkpt>
      <trkpt lat="48.85909" lon="2.35701">
        <ele>21.39999961853</ele>
        <time>2015-08-31T19:39:36Z</time>
      </trkpt>
      <trkpt lat="48.85922" lon="2.35682">
        <ele>23.200000762939</ele>
        <time>2015-08-31T19:39:41Z</time>
      </trkpt>
      <trkpt lat="48.85931" lon="2.35655">
        <ele>23.60000038147</ele>
        <time>2015-08-31T19:39:47Z</time>
      </trkpt>
      <trkpt lat="48.85933" lon="2.35647">
        <ele>24.60000038147</ele>
        <time>2015-08-31T19:39:50Z</time>
      </trkpt>
      <trkpt lat="48.85933" lon="2.3564">
        <ele>25.60000038147</ele>
        <time>2015-08-31T19:39:55Z</time>
      </trkpt>
      <trkpt lat="48.85935" lon="2.35622">
        <ele>33.79999923706</ele>
        <time>2015-08-31T19:40:12Z</time>
      </trkpt>
      <trkpt lat="48.85948" lon="2.35623">
        <ele>36</ele>
        <time>2015-08-31T19:40:19Z</time>
      </trkpt>
      <trkpt lat="48.8595" lon="2.35622">
        <ele>36.599998474121</ele>
        <time>2015-08-31T19:40:21Z</time>
      </trkpt>
      <trkpt lat="48.85935" lon="2.35607">
        <ele>38.400001525879</ele>
        <time>2015-08-31T19:40:36Z</time>
      </trkpt>
      <trkpt lat="48.85917" lon="2.35592">
        <ele>41.599998474121</ele>
        <time>2015-08-31T19:40:45Z</time>
      </trkpt>
      <trkpt lat="48.859" lon="2.35579">
        <ele>45.400001525879</ele>
        <time>2015-08-31T19:40:54Z</time>
      </trkpt>
      <trkpt lat="48.85885" lon="2.35566">
        <ele>49.79999923706</ele>
        <time>2015-08-31T19:41:03Z</time>
      </trkpt>
      <trkpt lat="48.85881" lon="2.35565">
        <ele>51.400001525879</ele>
        <time>2015-08-31T19:41:07Z</time>
      </trkpt>
      <trkpt lat="48.85885" lon="2.35563">
        <ele>51</ele>
        <time>2015-08-31T19:41:14Z</time>
      </trkpt>
      <trkpt lat="48.85871" lon="2.35546">
        <ele>49.599998474121</ele>
        <time>2015-08-31T19:41:35Z</time>
      </trkpt>
      <trkpt lat="48.85856" lon="2.3553">
        <ele>50.400001525879</ele>
        <time>2015-08-31T19:41:44Z</time>
      </trkpt>
      <trkpt lat="48.85857" lon="2.35526">
        <ele>50.599998474121</ele>
        <time>2015-08-31T19:41:45Z</time>
      </trkpt>
      <trkpt lat="48.85864" lon="2.35509">
        <ele>51.400001525879</ele>
        <time>2015-08-31T19:41:50Z</time>
      </trkpt>
      <trkpt lat="48.85871" lon="2.35484">
        <ele>51.79999923706</ele>
        <time>2015-08-31T19:41:57Z</time>
      </trkpt>
      <trkpt lat="48.8588" lon="2.35458">
        <ele>50.79999923706</ele>
        <time>2015-08-31T19:42:05Z</time>
      </trkpt>
      <trkpt lat="48.8589" lon="2.35432">
        <ele>49.599998474121</ele>
        <time>2015-08-31T19:42:12Z</time>
      </trkpt>
      <trkpt lat="48.85899" lon="2.35407">
        <ele>48.79999923706</ele>
        <time>2015-08-31T19:42:18Z</time>
      </trkpt>
      <trkpt lat="48.85907" lon="2.35383">
        <ele>48.79999923706</ele>
        <time>2015-08-31T19:42:24Z</time>
      </trkpt>
      <trkpt lat="48.85922" lon="2.35366">
        <ele>48.400001525879</ele>
        <time>2015-08-31T19:42:33Z</time>
      </trkpt>
      <trkpt lat="48.85932" lon="2.35338">
        <ele>49.400001525879</ele>
        <time>2015-08-31T19:42:41Z</time>
      </trkpt>
      <trkpt lat="48.85938" lon="2.35309">
        <ele>48.599998474121</ele>
        <time>2015-08-31T19:42:49Z</time>
      </trkpt>
      <trkpt lat="48.85941" lon="2.35302">
        <ele>49</ele>
        <time>2015-08-31T19:42:55Z</time>
      </trkpt>
      <trkpt lat="48.85957" lon="2.35315">
        <ele>47.79999923706</ele>
        <time>2015-08-31T19:43:06Z</time>
      </trkpt>
      <trkpt lat="48.85948" lon="2.35332">
        <ele>49.20000076294</ele>
        <time>2015-08-31T19:43:10Z</time>
      </trkpt>
      <trkpt lat="48.85963" lon="2.35291">
        <ele>55.20000076294</ele>
        <time>2015-08-31T19:43:20Z</time>
      </trkpt>
      <trkpt lat="48.85984" lon="2.35269">
        <ele>59.599998474121</ele>
        <time>2015-08-31T19:43:26Z</time>
      </trkpt>
      <trkpt lat="48.85999" lon="2.35242">
        <ele>71.599998474121</ele>
        <time>2015-08-31T19:43:53Z</time>
      </trkpt>
      <trkpt lat="48.86003" lon="2.35225">
        <ele>86.199996948242</ele>
        <time>2015-08-31T19:44:29Z</time>
      </trkpt>
      <trkpt lat="48.85999" lon="2.35217">
        <ele>84.800003051758</ele>
        <time>2015-08-31T19:44:34Z</time>
      </trkpt>
      <trkpt lat="48.85996" lon="2.35214">
        <ele>83.599998474121</ele>
        <time>2015-08-31T19:44:37Z</time>
      </trkpt>
      <trkpt lat="48.85974" lon="2.35239">
        <ele>73.599998474121</ele>
        <time>2015-08-31T19:44:54Z</time>
      </trkpt>
      <trkpt lat="48.8597" lon="2.35232">
        <ele>70.400001525879</ele>
        <time>2015-08-31T19:45:00Z</time>
      </trkpt>
      <trkpt lat="48.85971" lon="2.35204">
        <ele>66.800003051758</ele>
        <time>2015-08-31T19:45:09Z</time>
      </trkpt>
      <trkpt lat="48.85978" lon="2.35173">
        <ele>65.599998474121</ele>
        <time>2015-08-31T19:45:17Z</time>
      </trkpt>
      <trkpt lat="48.8599" lon="2.35152">
        <ele>64.400001525879</ele>
        <time>2015-08-31T19:45:24Z</time>
      </trkpt>
      <trkpt lat="48.85999" lon="2.35147">
        <ele>63.20000076294</ele>
        <time>2015-08-31T19:45:28Z</time>
      </trkpt>
      <trkpt lat="48.86011" lon="2.35137">
        <ele>63</ele>
        <time>2015-08-31T19:45:34Z</time>
      </trkpt>
      <trkpt lat="48.86024" lon="2.3512">
        <ele>62.400001525879</ele>
        <time>2015-08-31T19:45:42Z</time>
      </trkpt>
      <trkpt lat="48.8602" lon="2.35112">
        <ele>60.79999923706</ele>
        <time>2015-08-31T19:45:44Z</time>
      </trkpt>
      <trkpt lat="48.8602" lon="2.35088">
        <ele>73.800003051758</ele>
        <time>2015-08-31T19:46:47Z</time>
      </trkpt>
      <trkpt lat="48.86018" lon="2.35089">
        <ele>69</ele>
        <time>2015-08-31T19:46:52Z</time>
      </trkpt>
      <trkpt lat="48.86026" lon="2.35079">
        <ele>62.79999923706</ele>
        <time>2015-08-31T19:48:17Z</time>
      </trkpt>
      <trkpt lat="48.86033" lon="2.35053">
        <ele>62.79999923706</ele>
        <time>2015-08-31T19:48:27Z</time>
      </trkpt>
      <trkpt lat="48.86037" lon="2.35026">
        <ele>61.400001525879</ele>
        <time>2015-08-31T19:48:39Z</time>
      </trkpt>
      <trkpt lat="48.86043" lon="2.35013">
        <ele>60.20000076294</ele>
        <time>2015-08-31T19:48:47Z</time>
      </trkpt>
      <trkpt lat="48.86054" lon="2.34988">
        <ele>58.20000076294</ele>
        <time>2015-08-31T19:48:58Z</time>
      </trkpt>
      <trkpt lat="48.86054" lon="2.34958">
        <ele>57.400001525879</ele>
        <time>2015-08-31T19:49:07Z</time>
      </trkpt>
      <trkpt lat="48.86058" lon="2.34931">
        <ele>56.400001525879</ele>
        <time>2015-08-31T19:49:17Z</time>
      </trkpt>
      <trkpt lat="48.86063" lon="2.34924">
        <ele>56</ele>
        <time>2015-08-31T19:49:22Z</time>
      </trkpt>
      <trkpt lat="48.86049" lon="2.34908">
        <ele>54.599998474121</ele>
        <time>2015-08-31T19:49:45Z</time>
      </trkpt>
      <trkpt lat="48.86029" lon="2.3491">
        <ele>53.400001525879</ele>
        <time>2015-08-31T19:49:58Z</time>
      </trkpt>
      <trkpt lat="48.86016" lon="2.34907">
        <ele>53.79999923706</ele>
        <time>2015-08-31T19:50:05Z</time>
      </trkpt>
      <trkpt lat="48.86007" lon="2.34897">
        <ele>55.20000076294</ele>
        <time>2015-08-31T19:50:13Z</time>
      </trkpt>
      <trkpt lat="48.85994" lon="2.34891">
        <ele>56.79999923706</ele>
        <time>2015-08-31T19:50:20Z</time>
      </trkpt>
      <trkpt lat="48.85977" lon="2.34879">
        <ele>58.20000076294</ele>
        <time>2015-08-31T19:50:30Z</time>
      </trkpt>
      <trkpt lat="48.85962" lon="2.34864">
        <ele>60.20000076294</ele>
        <time>2015-08-31T19:50:39Z</time>
      </trkpt>
      <trkpt lat="48.85941" lon="2.34863">
        <ele>62.400001525879</ele>
        <time>2015-08-31T19:50:47Z</time>
      </trkpt>
      <trkpt lat="48.85921" lon="2.3486">
        <ele>69.800003051758</ele>
        <time>2015-08-31T19:50:55Z</time>
      </trkpt>
      <trkpt lat="48.85903" lon="2.34858">
        <ele>74</ele>
        <time>2015-08-31T19:51:02Z</time>
      </trkpt>
      <trkpt lat="48.85889" lon="2.34849">
        <ele>72.199996948242</ele>
        <time>2015-08-31T19:51:08Z</time>
      </trkpt>
      <trkpt lat="48.85878" lon="2.34831">
        <ele>68.800003051758</ele>
        <time>2015-08-31T19:51:23Z</time>
      </trkpt>
      <trkpt lat="48.85865" lon="2.34835">
        <ele>67.400001525879</ele>
        <time>2015-08-31T19:51:38Z</time>
      </trkpt>
      <trkpt lat="48.8586" lon="2.34832">
        <ele>67.599998474121</ele>
        <time>2015-08-31T19:51:44Z</time>
      </trkpt>
      <trkpt lat="48.85847" lon="2.34823">
        <ele>60.79999923706</ele>
        <time>2015-08-31T19:52:37Z</time>
      </trkpt>
      <trkpt lat="48.8583" lon="2.34809">
        <ele>57.400001525879</ele>
        <time>2015-08-31T19:52:48Z</time>
      </trkpt>
      <trkpt lat="48.85813" lon="2.34793">
        <ele>53.400001525879</ele>
        <time>2015-08-31T19:52:56Z</time>
      </trkpt>
      <trkpt lat="48.85796" lon="2.34776">
        <ele>47.79999923706</ele>
        <time>2015-08-31T19:53:03Z</time>
      </trkpt>
      <trkpt lat="48.85795" lon="2.34769">
        <ele>46.599998474121</ele>
        <time>2015-08-31T19:53:05Z</time>
      </trkpt>
      <trkpt lat="48.85801" lon="2.34741">
        <ele>41</ele>
        <time>2015-08-31T19:53:13Z</time>
      </trkpt>
      <trkpt lat="48.85798" lon="2.34714">
        <ele>41.599998474121</ele>
        <time>2015-08-31T19:53:19Z</time>
      </trkpt>
      <trkpt lat="48.85803" lon="2.34687">
        <ele>43.400001525879</ele>
        <time>2015-08-31T19:53:25Z</time>
      </trkpt>
      <trkpt lat="48.8581" lon="2.34657">
        <ele>45</ele>
        <time>2015-08-31T19:53:31Z</time>
      </trkpt>
      <trkpt lat="48.85817" lon="2.34631">
        <ele>44.79999923706</ele>
        <time>2015-08-31T19:53:36Z</time>
      </trkpt>
      <trkpt lat="48.85827" lon="2.34604">
        <ele>44</ele>
        <time>2015-08-31T19:53:41Z</time>
      </trkpt>
      <trkpt lat="48.85842" lon="2.34597">
        <ele>45.599998474121</ele>
        <time>2015-08-31T19:53:47Z</time>
      </trkpt>
      <trkpt lat="48.85861" lon="2.34605">
        <ele>44</ele>
        <time>2015-08-31T19:53:54Z</time>
      </trkpt>
      <trkpt lat="48.85866" lon="2.34603">
        <ele>43.79999923706</ele>
        <time>2015-08-31T19:53:56Z</time>
      </trkpt>
      <trkpt lat="48.85869" lon="2.346">
        <ele>44.20000076294</ele>
        <time>2015-08-31T19:53:58Z</time>
      </trkpt>
      <trkpt lat="48.85879" lon="2.34575">
        <ele>44.79999923706</ele>
        <time>2015-08-31T19:54:06Z</time>
      </trkpt>
      <trkpt lat="48.85886" lon="2.3455">
        <ele>45.599998474121</ele>
        <time>2015-08-31T19:54:14Z</time>
      </trkpt>
      <trkpt lat="48.85894" lon="2.34525">
        <ele>45.599998474121</ele>
        <time>2015-08-31T19:54:21Z</time>
      </trkpt>
      <trkpt lat="48.85902" lon="2.34508">
        <ele>45.599998474121</ele>
        <time>2015-08-31T19:54:26Z</time>
      </trkpt>
      <trkpt lat="48.85888" lon="2.34491">
        <ele>46.20000076294</ele>
        <time>2015-08-31T19:54:32Z</time>
      </trkpt>
      <trkpt lat="48.85884" lon="2.3449">
        <ele>46.400001525879</ele>
        <time>2015-08-31T19:54:33Z</time>
      </trkpt>
      <trkpt lat="48.85867" lon="2.3448">
        <ele>46.599998474121</ele>
        <time>2015-08-31T19:54:38Z</time>
      </trkpt>
      <trkpt lat="48.85849" lon="2.34468">
        <ele>46.79999923706</ele>
        <time>2015-08-31T19:54:44Z</time>
      </trkpt>
      <trkpt lat="48.85846" lon="2.34463">
        <ele>46.79999923706</ele>
        <time>2015-08-31T19:54:46Z</time>
      </trkpt>
      <trkpt lat="48.85852" lon="2.34449">
        <ele>47.400001525879</ele>
        <time>2015-08-31T19:54:50Z</time>
      </trkpt>
      <trkpt lat="48.85861" lon="2.34423">
        <ele>47.400001525879</ele>
        <time>2015-08-31T19:54:56Z</time>
      </trkpt>
      <trkpt lat="48.85866" lon="2.34392">
        <ele>47.79999923706</ele>
        <time>2015-08-31T19:55:02Z</time>
      </trkpt>
      <trkpt lat="48.85861" lon="2.34377">
        <ele>48.20000076294</ele>
        <time>2015-08-31T19:55:06Z</time>
      </trkpt>
      <trkpt lat="48.85845" lon="2.34362">
        <ele>47.400001525879</ele>
        <time>2015-08-31T19:55:13Z</time>
      </trkpt>
      <trkpt lat="48.85837" lon="2.34348">
        <ele>48.20000076294</ele>
        <time>2015-08-31T19:55:21Z</time>
      </trkpt>
      <trkpt lat="48.85843" lon="2.34325">
        <ele>47.20000076294</ele>
        <time>2015-08-31T19:55:28Z</time>
      </trkpt>
      <trkpt lat="48.85846" lon="2.34298">
        <ele>44.599998474121</ele>
        <time>2015-08-31T19:55:36Z</time>
      </trkpt>
      <trkpt lat="48.85848" lon="2.34293">
        <ele>43.79999923706</ele>
        <time>2015-08-31T19:55:38Z</time>
      </trkpt>
      <trkpt lat="48.85853" lon="2.3429">
        <ele>41.79999923706</ele>
        <time>2015-08-31T19:55:42Z</time>
      </trkpt>
      <trkpt lat="48.85854" lon="2.34288">
        <ele>41.20000076294</ele>
        <time>2015-08-31T19:55:43Z</time>
      </trkpt>
      <trkpt lat="48.85854" lon="2.3426">
        <ele>38</ele>
        <time>2015-08-31T19:55:52Z</time>
      </trkpt>
      <trkpt lat="48.85856" lon="2.34247">
        <ele>37.599998474121</ele>
        <time>2015-08-31T19:55:55Z</time>
      </trkpt>
      <trkpt lat="48.85863" lon="2.34217">
        <ele>36.79999923706</ele>
        <time>2015-08-31T19:56:01Z</time>
      </trkpt>
      <trkpt lat="48.8587" lon="2.34192">
        <ele>36.20000076294</ele>
        <time>2015-08-31T19:56:06Z</time>
      </trkpt>
      <trkpt lat="48.85877" lon="2.34172">
        <ele>34.599998474121</ele>
        <time>2015-08-31T19:56:11Z</time>
      </trkpt>
      <trkpt lat="48.85888" lon="2.34175">
        <ele>33.20000076294</ele>
        <time>2015-08-31T19:56:15Z</time>
      </trkpt>
      <trkpt lat="48.85907" lon="2.34182">
        <ele>30.799999237061</ele>
        <time>2015-08-31T19:56:21Z</time>
      </trkpt>
      <trkpt lat="48.85926" lon="2.34172">
        <ele>29.799999237061</ele>
        <time>2015-08-31T19:56:27Z</time>
      </trkpt>
      <trkpt lat="48.85939" lon="2.34148">
        <ele>30.200000762939</ele>
        <time>2015-08-31T19:56:33Z</time>
      </trkpt>
      <trkpt lat="48.85944" lon="2.34119">
        <ele>30.799999237061</ele>
        <time>2015-08-31T19:56:39Z</time>
      </trkpt>
      <trkpt lat="48.8595" lon="2.3409">
        <ele>30.60000038147</ele>
        <time>2015-08-31T19:56:45Z</time>
      </trkpt>
      <trkpt lat="48.85961" lon="2.3407">
        <ele>31.200000762939</ele>
        <time>2015-08-31T19:56:51Z</time>
      </trkpt>
      <trkpt lat="48.85949" lon="2.34034">
        <ele>31.799999237061</ele>
        <time>2015-08-31T19:56:58Z</time>
      </trkpt>
      <trkpt lat="48.8595" lon="2.34029">
        <ele>32.79999923706</ele>
        <time>2015-08-31T19:57:00Z</time>
      </trkpt>
      <trkpt lat="48.85944" lon="2.34012">
        <ele>37.20000076294</ele>
        <time>2015-08-31T19:57:49Z</time>
      </trkpt>
      <trkpt lat="48.85925" lon="2.34008">
        <ele>35.400001525879</ele>
        <time>2015-08-31T19:57:56Z</time>
      </trkpt>
      <trkpt lat="48.85917" lon="2.34009">
        <ele>34.599998474121</ele>
        <time>2015-08-31T19:58:02Z</time>
      </trkpt>
      <trkpt lat="48.85922" lon="2.33988">
        <ele>34.79999923706</ele>
        <time>2015-08-31T19:58:16Z</time>
      </trkpt>
      <trkpt lat="48.85923" lon="2.33979">
        <ele>37</ele>
        <time>2015-08-31T19:58:21Z</time>
      </trkpt>
      <trkpt lat="48.85918" lon="2.33952">
        <ele>38.79999923706</ele>
        <time>2015-08-31T19:58:35Z</time>
      </trkpt>
      <trkpt lat="48.85922" lon="2.33922">
        <ele>40</ele>
        <time>2015-08-31T19:58:42Z</time>
      </trkpt>
      <trkpt lat="48.85925" lon="2.33895">
        <ele>42.20000076294</ele>
        <time>2015-08-31T19:58:48Z</time>
      </trkpt>
      <trkpt lat="48.85927" lon="2.33867">
        <ele>42.400001525879</ele>
        <time>2015-08-31T19:58:54Z</time>
      </trkpt>
      <trkpt lat="48.8593" lon="2.33838">
        <ele>39.400001525879</ele>
        <time>2015-08-31T19:59:01Z</time>
      </trkpt>
      <trkpt lat="48.85932" lon="2.33811">
        <ele>35.400001525879</ele>
        <time>2015-08-31T19:59:10Z</time>
      </trkpt>
      <trkpt lat="48.85933" lon="2.33797">
        <ele>34.599998474121</ele>
        <time>2015-08-31T19:59:17Z</time>
      </trkpt>
      <trkpt lat="48.85921" lon="2.33786">
        <ele>41</ele>
        <time>2015-08-31T19:59:52Z</time>
      </trkpt>
      <trkpt lat="48.85919" lon="2.33786">
        <ele>40.79999923706</ele>
        <time>2015-08-31T19:59:53Z</time>
      </trkpt>
      <trkpt lat="48.85916" lon="2.33787">
        <ele>40.79999923706</ele>
        <time>2015-08-31T19:59:57Z</time>
      </trkpt>
      <trkpt lat="48.85898" lon="2.3378">
        <ele>40.400001525879</ele>
        <time>2015-08-31T20:00:12Z</time>
      </trkpt>
      <trkpt lat="48.85879" lon="2.33771">
        <ele>40</ele>
        <time>2015-08-31T20:00:20Z</time>
      </trkpt>
      <trkpt lat="48.8586" lon="2.3376">
        <ele>38.400001525879</ele>
        <time>2015-08-31T20:00:28Z</time>
      </trkpt>
      <trkpt lat="48.85841" lon="2.33749">
        <ele>35.79999923706</ele>
        <time>2015-08-31T20:00:36Z</time>
      </trkpt>
      <trkpt lat="48.85824" lon="2.3374">
        <ele>35</ele>
        <time>2015-08-31T20:00:43Z</time>
      </trkpt>
      <trkpt lat="48.85805" lon="2.3373">
        <ele>35.599998474121</ele>
        <time>2015-08-31T20:00:51Z</time>
      </trkpt>
      <trkpt lat="48.85788" lon="2.33719">
        <ele>35.20000076294</ele>
        <time>2015-08-31T20:01:00Z</time>
      </trkpt>
      <trkpt lat="48.85785" lon="2.33716">
        <ele>34.79999923706</ele>
        <time>2015-08-31T20:01:03Z</time>
      </trkpt>
      <trkpt lat="48.8579" lon="2.3369">
        <ele>30.39999961853</ele>
        <time>2015-08-31T20:01:27Z</time>
      </trkpt>
      <trkpt lat="48.85791" lon="2.33677">
        <ele>30.799999237061</ele>
        <time>2015-08-31T20:01:36Z</time>
      </trkpt>
      <trkpt lat="48.85791" lon="2.33671">
        <ele>34.20000076294</ele>
        <time>2015-08-31T20:02:38Z</time>
      </trkpt>
      <trkpt lat="48.85795" lon="2.33643">
        <ele>34.400001525879</ele>
        <time>2015-08-31T20:02:51Z</time>
      </trkpt>
      <trkpt lat="48.85788" lon="2.33625">
        <ele>35</ele>
        <time>2015-08-31T20:02:58Z</time>
      </trkpt>
      <trkpt lat="48.85785" lon="2.33622">
        <ele>34.79999923706</ele>
        <time>2015-08-31T20:03:01Z</time>
      </trkpt>
      <trkpt lat="48.85768" lon="2.33613">
        <ele>34.599998474121</ele>
        <time>2015-08-31T20:03:13Z</time>
      </trkpt>
      <trkpt lat="48.85761" lon="2.33626">
        <ele>34.400001525879</ele>
        <time>2015-08-31T20:03:17Z</time>
      </trkpt>
      <trkpt lat="48.85747" lon="2.33646">
        <ele>34.20000076294</ele>
        <time>2015-08-31T20:03:23Z</time>
      </trkpt>
      <trkpt lat="48.8573" lon="2.33655">
        <ele>34.20000076294</ele>
        <time>2015-08-31T20:03:29Z</time>
      </trkpt>
      <trkpt lat="48.85728" lon="2.33658">
        <ele>34.20000076294</ele>
        <time>2015-08-31T20:03:30Z</time>
      </trkpt>
      <trkpt lat="48.8572" lon="2.33678">
        <ele>34.599998474121</ele>
        <time>2015-08-31T20:03:34Z</time>
      </trkpt>
      <trkpt lat="48.85711" lon="2.33706">
        <ele>36.20000076294</ele>
        <time>2015-08-31T20:03:40Z</time>
      </trkpt>
      <trkpt lat="48.85697" lon="2.33726">
        <ele>39</ele>
        <time>2015-08-31T20:03:49Z</time>
      </trkpt>
      <trkpt lat="48.85679" lon="2.33728">
        <ele>42</ele>
        <time>2015-08-31T20:03:56Z</time>
      </trkpt>
      <trkpt lat="48.85659" lon="2.33731">
        <ele>44.20000076294</ele>
        <time>2015-08-31T20:04:03Z</time>
      </trkpt>
      <trkpt lat="48.85638" lon="2.33738">
        <ele>45.79999923706</ele>
        <time>2015-08-31T20:04:08Z</time>
      </trkpt>
      <trkpt lat="48.85626" lon="2.3375">
        <ele>48.599998474121</ele>
        <time>2015-08-31T20:04:15Z</time>
      </trkpt>
      <trkpt lat="48.8562" lon="2.3376">
        <ele>50.79999923706</ele>
        <time>2015-08-31T20:04:36Z</time>
      </trkpt>
      <trkpt lat="48.8561" lon="2.33759">
        <ele>51.20000076294</ele>
        <time>2015-08-31T20:04:40Z</time>
      </trkpt>
      <trkpt lat="48.85591" lon="2.33763">
        <ele>51.79999923706</ele>
        <time>2015-08-31T20:04:48Z</time>
      </trkpt>
      <trkpt lat="48.85573" lon="2.3376">
        <ele>52</ele>
        <time>2015-08-31T20:04:57Z</time>
      </trkpt>
      <trkpt lat="48.85554" lon="2.33764">
        <ele>51.599998474121</ele>
        <time>2015-08-31T20:05:05Z</time>
      </trkpt>
      <trkpt lat="48.8554" lon="2.33772">
        <ele>52</ele>
        <time>2015-08-31T20:05:10Z</time>
      </trkpt>
      <trkpt lat="48.85536" lon="2.33773">
        <ele>52.20000076294</ele>
        <time>2015-08-31T20:05:13Z</time>
      </trkpt>
      <trkpt lat="48.85518" lon="2.33783">
        <ele>52</ele>
        <time>2015-08-31T20:05:23Z</time>
      </trkpt>
      <trkpt lat="48.85501" lon="2.3379">
        <ele>51</ele>
        <time>2015-08-31T20:05:29Z</time>
      </trkpt>
      <trkpt lat="48.85481" lon="2.33802">
        <ele>50.79999923706</ele>
        <time>2015-08-31T20:05:35Z</time>
      </trkpt>
      <trkpt lat="48.85463" lon="2.3381">
        <ele>50.599998474121</ele>
        <time>2015-08-31T20:05:40Z</time>
      </trkpt>
      <trkpt lat="48.85444" lon="2.33815">
        <ele>49.79999923706</ele>
        <time>2015-08-31T20:05:44Z</time>
      </trkpt>
      <trkpt lat="48.85423" lon="2.33824">
        <ele>48.599998474121</ele>
        <time>2015-08-31T20:05:49Z</time>
      </trkpt>
      <trkpt lat="48.85402" lon="2.33833">
        <ele>47.20000076294</ele>
        <time>2015-08-31T20:05:55Z</time>
      </trkpt>
      <trkpt lat="48.85385" lon="2.3383">
        <ele>46.79999923706</ele>
        <time>2015-08-31T20:06:01Z</time>
      </trkpt>
      <trkpt lat="48.85386" lon="2.33813">
        <ele>47.20000076294</ele>
        <time>2015-08-31T20:06:06Z</time>
      </trkpt>
      <trkpt lat="48.85391" lon="2.33785">
        <ele>47.599998474121</ele>
        <time>2015-08-31T20:06:13Z</time>
      </trkpt>
      <trkpt lat="48.85395" lon="2.33759">
        <ele>47</ele>
        <time>2015-08-31T20:06:19Z</time>
      </trkpt>
      <trkpt lat="48.85397" lon="2.33728">
        <ele>46.79999923706</ele>
        <time>2015-08-31T20:06:25Z</time>
      </trkpt>
      <trkpt lat="48.85389" lon="2.337">
        <ele>47</ele>
        <time>2015-08-31T20:06:30Z</time>
      </trkpt>
      <trkpt lat="48.85375" lon="2.33677">
        <ele>44.79999923706</ele>
        <time>2015-08-31T20:06:35Z</time>
      </trkpt>
      <trkpt lat="48.85362" lon="2.33658">
        <ele>42.79999923706</ele>
        <time>2015-08-31T20:06:42Z</time>
      </trkpt>
      <trkpt lat="48.85363" lon="2.33654">
        <ele>42.599998474121</ele>
        <time>2015-08-31T20:06:44Z</time>
      </trkpt>
      <trkpt lat="48.85379" lon="2.3363">
        <ele>42.400001525879</ele>
        <time>2015-08-31T20:06:50Z</time>
      </trkpt>
      <trkpt lat="48.85395" lon="2.33614">
        <ele>41.400001525879</ele>
        <time>2015-08-31T20:06:57Z</time>
      </trkpt>
      <trkpt lat="48.85417" lon="2.33617">
        <ele>40.79999923706</ele>
        <time>2015-08-31T20:07:02Z</time>
      </trkpt>
      <trkpt lat="48.85436" lon="2.33613">
        <ele>39.79999923706</ele>
        <time>2015-08-31T20:07:07Z</time>
      </trkpt>
      <trkpt lat="48.85447" lon="2.33593">
        <ele>38.400001525879</ele>
        <time>2015-08-31T20:07:13Z</time>
      </trkpt>
      <trkpt lat="48.85437" lon="2.33579">
        <ele>37.79999923706</ele>
        <time>2015-08-31T20:07:19Z</time>
      </trkpt>
      <trkpt lat="48.85421" lon="2.33561">
        <ele>38.20000076294</ele>
        <time>2015-08-31T20:07:26Z</time>
      </trkpt>
      <trkpt lat="48.85419" lon="2.3356">
        <ele>38</ele>
        <time>2015-08-31T20:07:28Z</time>
      </trkpt>
      <trkpt lat="48.85406" lon="2.33585">
        <ele>39.20000076294</ele>
        <time>2015-08-31T20:07:35Z</time>
      </trkpt>
      <trkpt lat="48.85396" lon="2.33582">
        <ele>39.400001525879</ele>
        <time>2015-08-31T20:07:38Z</time>
      </trkpt>
      <trkpt lat="48.85377" lon="2.3357">
        <ele>38.20000076294</ele>
        <time>2015-08-31T20:07:46Z</time>
      </trkpt>
      <trkpt lat="48.85359" lon="2.3356">
        <ele>38.79999923706</ele>
        <time>2015-08-31T20:07:51Z</time>
      </trkpt>
      <trkpt lat="48.8535" lon="2.33549">
        <ele>39.400001525879</ele>
        <time>2015-08-31T20:07:59Z</time>
      </trkpt>
      <trkpt lat="48.85337" lon="2.33558">
        <ele>49.79999923706</ele>
        <time>2015-08-31T20:08:21Z</time>
      </trkpt>
      <trkpt lat="48.85326" lon="2.33567">
        <ele>49</ele>
        <time>2015-08-31T20:08:28Z</time>
      </trkpt>
      <trkpt lat="48.85304" lon="2.3356">
        <ele>49</ele>
        <time>2015-08-31T20:08:59Z</time>
      </trkpt>
      <trkpt lat="48.85296" lon="2.33535">
        <ele>49.20000076294</ele>
        <time>2015-08-31T20:09:06Z</time>
      </trkpt>
      <trkpt lat="48.85287" lon="2.33508">
        <ele>49.79999923706</ele>
        <time>2015-08-31T20:09:12Z</time>
      </trkpt>
      <trkpt lat="48.85278" lon="2.33482">
        <ele>50.599998474121</ele>
        <time>2015-08-31T20:09:18Z</time>
      </trkpt>
      <trkpt lat="48.85268" lon="2.33458">
        <ele>52.400001525879</ele>
        <time>2015-08-31T20:09:24Z</time>
      </trkpt>
      <trkpt lat="48.85255" lon="2.33444">
        <ele>57.599998474121</ele>
        <time>2015-08-31T20:09:40Z</time>
      </trkpt>
      <trkpt lat="48.85235" lon="2.3345">
        <ele>63.400001525879</ele>
        <time>2015-08-31T20:09:50Z</time>
      </trkpt>
      <trkpt lat="48.85229" lon="2.33436">
        <ele>64.800003051758</ele>
        <time>2015-08-31T20:09:54Z</time>
      </trkpt>
      <trkpt lat="48.85216" lon="2.33412">
        <ele>66.599998474121</ele>
        <time>2015-08-31T20:09:59Z</time>
      </trkpt>
      <trkpt lat="48.85203" lon="2.33385">
        <ele>69</ele>
        <time>2015-08-31T20:10:05Z</time>
      </trkpt>
      <trkpt lat="48.85183" lon="2.33371">
        <ele>70</ele>
        <time>2015-08-31T20:10:12Z</time>
      </trkpt>
      <trkpt lat="48.85164" lon="2.33376">
        <ele>68</ele>
        <time>2015-08-31T20:10:14Z</time>
      </trkpt>
      <trkpt lat="48.85149" lon="2.33383">
        <ele>66.599998474121</ele>
        <time>2015-08-31T20:10:16Z</time>
      </trkpt>
      <trkpt lat="48.85129" lon="2.33379">
        <ele>64.800003051758</ele>
        <time>2015-08-31T20:10:21Z</time>
      </trkpt>
      <trkpt lat="48.85115" lon="2.33373">
        <ele>61.599998474121</ele>
        <time>2015-08-31T20:10:25Z</time>
      </trkpt>
      <trkpt lat="48.85114" lon="2.3337">
        <ele>61.20000076294</ele>
        <time>2015-08-31T20:10:26Z</time>
      </trkpt>
      <trkpt lat="48.8511" lon="2.33366">
        <ele>60.599998474121</ele>
        <time>2015-08-31T20:10:29Z</time>
      </trkpt>
      <trkpt lat="48.85103" lon="2.33361">
        <ele>59.79999923706</ele>
        <time>2015-08-31T20:10:36Z</time>
      </trkpt>
      <trkpt lat="48.85102" lon="2.33357">
        <ele>59.20000076294</ele>
        <time>2015-08-31T20:10:39Z</time>
      </trkpt>
      <trkpt lat="48.85096" lon="2.33355">
        <ele>59.20000076294</ele>
        <time>2015-08-31T20:10:47Z</time>
      </trkpt>
      <trkpt lat="48.85078" lon="2.33365">
        <ele>54.20000076294</ele>
        <time>2015-08-31T20:11:03Z</time>
      </trkpt>
      <trkpt lat="48.85072" lon="2.33365">
        <ele>52.79999923706</ele>
        <time>2015-08-31T20:11:07Z</time>
      </trkpt>
      <trkpt lat="48.85059" lon="2.33387">
        <ele>48.599998474121</ele>
        <time>2015-08-31T20:11:16Z</time>
      </trkpt>
      <trkpt lat="48.85057" lon="2.33388">
        <ele>48.400001525879</ele>
        <time>2015-08-31T20:11:17Z</time>
      </trkpt>
      <trkpt lat="48.85039" lon="2.33394">
        <ele>46.599998474121</ele>
        <time>2015-08-31T20:11:24Z</time>
      </trkpt>
      <trkpt lat="48.85024" lon="2.33396">
        <ele>45</ele>
        <time>2015-08-31T20:11:33Z</time>
      </trkpt>
      <trkpt lat="48.85016" lon="2.33404">
        <ele>45.79999923706</ele>
        <time>2015-08-31T20:11:50Z</time>
      </trkpt>
      <trkpt lat="48.85012" lon="2.33408">
        <ele>45.400001525879</ele>
        <time>2015-08-31T20:11:54Z</time>
      </trkpt>
      <trkpt lat="48.84997" lon="2.33404">
        <ele>48.599998474121</ele>
        <time>2015-08-31T20:12:16Z</time>
      </trkpt>
      <trkpt lat="48.84979" lon="2.33403">
        <ele>48</ele>
        <time>2015-08-31T20:12:24Z</time>
      </trkpt>
      <trkpt lat="48.84961" lon="2.33403">
        <ele>47.79999923706</ele>
        <time>2015-08-31T20:12:32Z</time>
      </trkpt>
      <trkpt lat="48.84939" lon="2.33408">
        <ele>46.79999923706</ele>
        <time>2015-08-31T20:12:38Z</time>
      </trkpt>
      <trkpt lat="48.8492" lon="2.33412">
        <ele>46.400001525879</ele>
        <time>2015-08-31T20:12:43Z</time>
      </trkpt>
      <trkpt lat="48.84909" lon="2.33414">
        <ele>45.79999923706</ele>
        <time>2015-08-31T20:12:47Z</time>
      </trkpt>
      <trkpt lat="48.84921" lon="2.33406">
        <ele>41.79999923706</ele>
        <time>2015-08-31T20:12:58Z</time>
      </trkpt>
      <trkpt lat="48.84915" lon="2.33407">
        <ele>42</ele>
        <time>2015-08-31T20:13:17Z</time>
      </trkpt>
      <trkpt lat="48.84909" lon="2.33412">
        <ele>41.79999923706</ele>
        <time>2015-08-31T20:13:26Z</time>
      </trkpt>
      <trkpt lat="48.84904" lon="2.33415">
        <ele>42.599998474121</ele>
        <time>2015-08-31T20:13:37Z</time>
      </trkpt>
      <trkpt lat="48.84896" lon="2.33403">
        <ele>46</ele>
        <time>2015-08-31T20:14:00Z</time>
      </trkpt>
      <trkpt lat="48.84893" lon="2.33388">
        <ele>47</ele>
        <time>2015-08-31T20:14:04Z</time>
      </trkpt>
      <trkpt lat="48.84886" lon="2.33361">
        <ele>50.20000076294</ele>
        <time>2015-08-31T20:14:11Z</time>
      </trkpt>
      <trkpt lat="48.84878" lon="2.33334">
        <ele>54</ele>
        <time>2015-08-31T20:14:18Z</time>
      </trkpt>
      <trkpt lat="48.84873" lon="2.33305">
        <ele>55.79999923706</ele>
        <time>2015-08-31T20:14:24Z</time>
      </trkpt>
      <trkpt lat="48.84865" lon="2.33279">
        <ele>58.400001525879</ele>
        <time>2015-08-31T20:14:30Z</time>
      </trkpt>
      <trkpt lat="48.84848" lon="2.33265">
        <ele>60.400001525879</ele>
        <time>2015-08-31T20:14:35Z</time>
      </trkpt>
      <trkpt lat="48.8483" lon="2.33262">
        <ele>62.400001525879</ele>
        <time>2015-08-31T20:14:40Z</time>
      </trkpt>
      <trkpt lat="48.84811" lon="2.33262">
        <ele>64.199996948242</ele>
        <time>2015-08-31T20:14:45Z</time>
      </trkpt>
      <trkpt lat="48.84792" lon="2.33261">
        <ele>67.199996948242</ele>
        <time>2015-08-31T20:14:51Z</time>
      </trkpt>
      <trkpt lat="48.84771" lon="2.33259">
        <ele>68.400001525879</ele>
        <time>2015-08-31T20:14:56Z</time>
      </trkpt>
      <trkpt lat="48.8475" lon="2.33256">
        <ele>69.400001525879</ele>
        <time>2015-08-31T20:15:02Z</time>
      </trkpt>
      <trkpt lat="48.84731" lon="2.33255">
        <ele>68.599998474121</ele>
        <time>2015-08-31T20:15:07Z</time>
      </trkpt>
      <trkpt lat="48.84711" lon="2.33252">
        <ele>69.599998474121</ele>
        <time>2015-08-31T20:15:13Z</time>
      </trkpt>
      <trkpt lat="48.84706" lon="2.33248">
        <ele>69.800003051758</ele>
        <time>2015-08-31T20:15:15Z</time>
      </trkpt>
      <trkpt lat="48.84703" lon="2.33227">
        <ele>66</ele>
        <time>2015-08-31T20:15:20Z</time>
      </trkpt>
      <trkpt lat="48.84703" lon="2.33199">
        <ele>61.599998474121</ele>
        <time>2015-08-31T20:15:25Z</time>
      </trkpt>
      <trkpt lat="48.84704" lon="2.33167">
        <ele>58.79999923706</ele>
        <time>2015-08-31T20:15:30Z</time>
      </trkpt>
      <trkpt lat="48.84709" lon="2.33139">
        <ele>55</ele>
        <time>2015-08-31T20:15:35Z</time>
      </trkpt>
      <trkpt lat="48.84715" lon="2.33111">
        <ele>52</ele>
        <time>2015-08-31T20:15:41Z</time>
      </trkpt>
      <trkpt lat="48.84733" lon="2.33105">
        <ele>48.20000076294</ele>
        <time>2015-08-31T20:15:48Z</time>
      </trkpt>
      <trkpt lat="48.84753" lon="2.33111">
        <ele>46.599998474121</ele>
        <time>2015-08-31T20:15:55Z</time>
      </trkpt>
      <trkpt lat="48.84772" lon="2.33111">
        <ele>46.599998474121</ele>
        <time>2015-08-31T20:16:00Z</time>
      </trkpt>
      <trkpt lat="48.84792" lon="2.3311">
        <ele>44.599998474121</ele>
        <time>2015-08-31T20:16:06Z</time>
      </trkpt>
      <trkpt lat="48.84813" lon="2.33113">
        <ele>52.79999923706</ele>
        <time>2015-08-31T20:16:11Z</time>
      </trkpt>
      <trkpt lat="48.84816" lon="2.33103">
        <ele>54.20000076294</ele>
        <time>2015-08-31T20:16:14Z</time>
      </trkpt>
      <trkpt lat="48.84814" lon="2.33082">
        <ele>55.400001525879</ele>
        <time>2015-08-31T20:16:18Z</time>
      </trkpt>
      <trkpt lat="48.84807" lon="2.33052">
        <ele>56</ele>
        <time>2015-08-31T20:16:24Z</time>
      </trkpt>
      <trkpt lat="48.84796" lon="2.33031">
        <ele>54</ele>
        <time>2015-08-31T20:16:29Z</time>
      </trkpt>
      <trkpt lat="48.84784" lon="2.33009">
        <ele>53.20000076294</ele>
        <time>2015-08-31T20:16:34Z</time>
      </trkpt>
      <trkpt lat="48.84777" lon="2.3298">
        <ele>53.79999923706</ele>
        <time>2015-08-31T20:16:40Z</time>
      </trkpt>
      <trkpt lat="48.84771" lon="2.32949">
        <ele>53.599998474121</ele>
        <time>2015-08-31T20:16:47Z</time>
      </trkpt>
      <trkpt lat="48.84763" lon="2.32924">
        <ele>53.400001525879</ele>
        <time>2015-08-31T20:16:53Z</time>
      </trkpt>
      <trkpt lat="48.84752" lon="2.32897">
        <ele>53.400001525879</ele>
        <time>2015-08-31T20:16:59Z</time>
      </trkpt>
      <trkpt lat="48.84742" lon="2.32869">
        <ele>51.400001525879</ele>
        <time>2015-08-31T20:17:05Z</time>
      </trkpt>
      <trkpt lat="48.84737" lon="2.32842">
        <ele>53.79999923706</ele>
        <time>2015-08-31T20:17:14Z</time>
      </trkpt>
      <trkpt lat="48.84739" lon="2.32838">
        <ele>52.400001525879</ele>
        <time>2015-08-31T20:17:15Z</time>
      </trkpt>
      <trkpt lat="48.84733" lon="2.32808">
        <ele>54.400001525879</ele>
        <time>2015-08-31T20:17:23Z</time>
      </trkpt>
      <trkpt lat="48.84721" lon="2.32782">
        <ele>56.400001525879</ele>
        <time>2015-08-31T20:17:30Z</time>
      </trkpt>
      <trkpt lat="48.84713" lon="2.32757">
        <ele>54.599998474121</ele>
        <time>2015-08-31T20:17:35Z</time>
      </trkpt>
      <trkpt lat="48.84721" lon="2.32732">
        <ele>50</ele>
        <time>2015-08-31T20:17:42Z</time>
      </trkpt>
      <trkpt lat="48.84713" lon="2.32707">
        <ele>46.400001525879</ele>
        <time>2015-08-31T20:17:49Z</time>
      </trkpt>
      <trkpt lat="48.84702" lon="2.32691">
        <ele>47.400001525879</ele>
        <time>2015-08-31T20:17:57Z</time>
      </trkpt>
      <trkpt lat="48.84698" lon="2.32664">
        <ele>49.20000076294</ele>
        <time>2015-08-31T20:18:08Z</time>
      </trkpt>
      <trkpt lat="48.84687" lon="2.32636">
        <ele>49.79999923706</ele>
        <time>2015-08-31T20:18:14Z</time>
      </trkpt>
      <trkpt lat="48.84677" lon="2.32609">
        <ele>50.400001525879</ele>
        <time>2015-08-31T20:18:21Z</time>
      </trkpt>
      <trkpt lat="48.84667" lon="2.32581">
        <ele>50.79999923706</ele>
        <time>2015-08-31T20:18:28Z</time>
      </trkpt>
      <trkpt lat="48.84655" lon="2.32559">
        <ele>49.20000076294</ele>
        <time>2015-08-31T20:18:34Z</time>
      </trkpt>
      <trkpt lat="48.84643" lon="2.32537">
        <ele>50.79999923706</ele>
        <time>2015-08-31T20:18:40Z</time>
      </trkpt>
      <trkpt lat="48.84635" lon="2.32507">
        <ele>52.599998474121</ele>
        <time>2015-08-31T20:18:46Z</time>
      </trkpt>
      <trkpt lat="48.84629" lon="2.32481">
        <ele>55.20000076294</ele>
        <time>2015-08-31T20:18:51Z</time>
      </trkpt>
      <trkpt lat="48.84621" lon="2.32454">
        <ele>56.599998474121</ele>
        <time>2015-08-31T20:18:56Z</time>
      </trkpt>
      <trkpt lat="48.84614" lon="2.32428">
        <ele>55.79999923706</ele>
        <time>2015-08-31T20:19:01Z</time>
      </trkpt>
      <trkpt lat="48.84606" lon="2.32402">
        <ele>53.79999923706</ele>
        <time>2015-08-31T20:19:06Z</time>
      </trkpt>
      <trkpt lat="48.84599" lon="2.32373">
        <ele>53.20000076294</ele>
        <time>2015-08-31T20:19:12Z</time>
      </trkpt>
      <trkpt lat="48.8459" lon="2.32344">
        <ele>54.79999923706</ele>
        <time>2015-08-31T20:19:18Z</time>
      </trkpt>
      <trkpt lat="48.84583" lon="2.32316">
        <ele>56.79999923706</ele>
        <time>2015-08-31T20:19:23Z</time>
      </trkpt>
      <trkpt lat="48.84579" lon="2.32285">
        <ele>56.400001525879</ele>
        <time>2015-08-31T20:19:28Z</time>
      </trkpt>
      <trkpt lat="48.84573" lon="2.32257">
        <ele>57</ele>
        <time>2015-08-31T20:19:34Z</time>
      </trkpt>
      <trkpt lat="48.84562" lon="2.32233">
        <ele>57.20000076294</ele>
        <time>2015-08-31T20:19:40Z</time>
      </trkpt>
      <trkpt lat="48.84553" lon="2.32207">
        <ele>59.79999923706</ele>
        <time>2015-08-31T20:19:46Z</time>
      </trkpt>
      <trkpt lat="48.84547" lon="2.32177">
        <ele>62.20000076294</ele>
        <time>2015-08-31T20:19:52Z</time>
      </trkpt>
      <trkpt lat="48.84542" lon="2.32151">
        <ele>64.199996948242</ele>
        <time>2015-08-31T20:19:57Z</time>
      </trkpt>
      <trkpt lat="48.84534" lon="2.32123">
        <ele>64.400001525879</ele>
        <time>2015-08-31T20:20:02Z</time>
      </trkpt>
      <trkpt lat="48.84524" lon="2.32099">
        <ele>62</ele>
        <time>2015-08-31T20:20:07Z</time>
      </trkpt>
      <trkpt lat="48.84516" lon="2.32075">
        <ele>55.400001525879</ele>
        <time>2015-08-31T20:20:12Z</time>
      </trkpt>
      <trkpt lat="48.84511" lon="2.32054">
        <ele>48.400001525879</ele>
        <time>2015-08-31T20:20:19Z</time>
      </trkpt>
      <trkpt lat="48.84515" lon="2.32036">
        <ele>51.20000076294</ele>
        <time>2015-08-31T20:21:31Z</time>
      </trkpt>
      <trkpt lat="48.84511" lon="2.32012">
        <ele>52.400001525879</ele>
        <time>2015-08-31T20:21:52Z</time>
      </trkpt>
      <trkpt lat="48.84507" lon="2.31984">
        <ele>52</ele>
        <time>2015-08-31T20:21:58Z</time>
      </trkpt>
      <trkpt lat="48.84508" lon="2.3197">
        <ele>51.79999923706</ele>
        <time>2015-08-31T20:22:04Z</time>
      </trkpt>
      <trkpt lat="48.84516" lon="2.3196">
        <ele>51.20000076294</ele>
        <time>2015-08-31T20:22:11Z</time>
      </trkpt>
      <trkpt lat="48.84531" lon="2.31939">
        <ele>50.599998474121</ele>
        <time>2015-08-31T20:22:19Z</time>
      </trkpt>
      <trkpt lat="48.84551" lon="2.31931">
        <ele>49</ele>
        <time>2015-08-31T20:22:25Z</time>
      </trkpt>
      <trkpt lat="48.84562" lon="2.31912">
        <ele>49.599998474121</ele>
        <time>2015-08-31T20:22:35Z</time>
      </trkpt>
      <trkpt lat="48.84541" lon="2.31893">
        <ele>46.79999923706</ele>
        <time>2015-08-31T20:22:41Z</time>
      </trkpt>
      <trkpt lat="48.84524" lon="2.31878">
        <ele>43</ele>
        <time>2015-08-31T20:22:46Z</time>
      </trkpt>
      <trkpt lat="48.84507" lon="2.3186">
        <ele>40.20000076294</ele>
        <time>2015-08-31T20:22:52Z</time>
      </trkpt>
      <trkpt lat="48.84495" lon="2.31834">
        <ele>40.599998474121</ele>
        <time>2015-08-31T20:22:57Z</time>
      </trkpt>
      <trkpt lat="48.84486" lon="2.31819">
        <ele>40</ele>
        <time>2015-08-31T20:23:01Z</time>
      </trkpt>
      <trkpt lat="48.84476" lon="2.31807">
        <ele>39.599998474121</ele>
        <time>2015-08-31T20:23:05Z</time>
      </trkpt>
      <trkpt lat="48.84463" lon="2.31789">
        <ele>35.400001525879</ele>
        <time>2015-08-31T20:23:15Z</time>
      </trkpt>
      <trkpt lat="48.84457" lon="2.31785">
        <ele>37.400001525879</ele>
        <time>2015-08-31T20:23:19Z</time>
      </trkpt>
      <trkpt lat="48.84443" lon="2.31774">
        <ele>46.400001525879</ele>
        <time>2015-08-31T20:23:46Z</time>
      </trkpt>
      <trkpt lat="48.84424" lon="2.31762">
        <ele>48.20000076294</ele>
        <time>2015-08-31T20:23:53Z</time>
      </trkpt>
      <trkpt lat="48.84405" lon="2.31748">
        <ele>49.599998474121</ele>
        <time>2015-08-31T20:23:58Z</time>
      </trkpt>
      <trkpt lat="48.84387" lon="2.3173">
        <ele>50.79999923706</ele>
        <time>2015-08-31T20:24:03Z</time>
      </trkpt>
      <trkpt lat="48.84364" lon="2.31718">
        <ele>51.20000076294</ele>
        <time>2015-08-31T20:24:07Z</time>
      </trkpt>
      <trkpt lat="48.84343" lon="2.31705">
        <ele>52.599998474121</ele>
        <time>2015-08-31T20:24:11Z</time>
      </trkpt>
      <trkpt lat="48.84324" lon="2.3169">
        <ele>54.400001525879</ele>
        <time>2015-08-31T20:24:16Z</time>
      </trkpt>
      <trkpt lat="48.84309" lon="2.31675">
        <ele>56.400001525879</ele>
        <time>2015-08-31T20:24:20Z</time>
      </trkpt>
      <trkpt lat="48.84296" lon="2.31661">
        <ele>57.79999923706</ele>
        <time>2015-08-31T20:24:24Z</time>
      </trkpt>
      <trkpt lat="48.84281" lon="2.31644">
        <ele>56</ele>
        <time>2015-08-31T20:24:28Z</time>
      </trkpt>
      <trkpt lat="48.84268" lon="2.3162">
        <ele>52.79999923706</ele>
        <time>2015-08-31T20:24:33Z</time>
      </trkpt>
      <trkpt lat="48.84258" lon="2.3161">
        <ele>49.599998474121</ele>
        <time>2015-08-31T20:24:37Z</time>
      </trkpt>
      <trkpt lat="48.84246" lon="2.31602">
        <ele>47.400001525879</ele>
        <time>2015-08-31T20:24:42Z</time>
      </trkpt>
      <trkpt lat="48.84227" lon="2.31593">
        <ele>44</ele>
        <time>2015-08-31T20:24:49Z</time>
      </trkpt>
      <trkpt lat="48.84226" lon="2.31582">
        <ele>44.400001525879</ele>
        <time>2015-08-31T20:24:51Z</time>
      </trkpt>
      <trkpt lat="48.84227" lon="2.31556">
        <ele>45.79999923706</ele>
        <time>2015-08-31T20:24:55Z</time>
      </trkpt>
      <trkpt lat="48.84218" lon="2.31527">
        <ele>45.400001525879</ele>
        <time>2015-08-31T20:25:01Z</time>
      </trkpt>
      <trkpt lat="48.84204" lon="2.31507">
        <ele>45.599998474121</ele>
        <time>2015-08-31T20:25:06Z</time>
      </trkpt>
      <trkpt lat="48.84187" lon="2.31491">
        <ele>45.20000076294</ele>
        <time>2015-08-31T20:25:11Z</time>
      </trkpt>
      <trkpt lat="48.84171" lon="2.31474">
        <ele>45.400001525879</ele>
        <time>2015-08-31T20:25:16Z</time>
      </trkpt>
      <trkpt lat="48.84159" lon="2.31452">
        <ele>44.79999923706</ele>
        <time>2015-08-31T20:25:22Z</time>
      </trkpt>
      <trkpt lat="48.8415" lon="2.31433">
        <ele>46.400001525879</ele>
        <time>2015-08-31T20:25:32Z</time>
      </trkpt>
      <trkpt lat="48.84167" lon="2.31402">
        <ele>48.79999923706</ele>
        <time>2015-08-31T20:26:16Z</time>
      </trkpt>
      <trkpt lat="48.84181" lon="2.31385">
        <ele>48</ele>
        <time>2015-08-31T20:26:22Z</time>
      </trkpt>
      <trkpt lat="48.84198" lon="2.31372">
        <ele>46.599998474121</ele>
        <time>2015-08-31T20:26:27Z</time>
      </trkpt>
      <trkpt lat="48.84215" lon="2.31355">
        <ele>44.20000076294</ele>
        <time>2015-08-31T20:26:32Z</time>
      </trkpt>
      <trkpt lat="48.8423" lon="2.31339">
        <ele>41</ele>
        <time>2015-08-31T20:26:40Z</time>
      </trkpt>
      <trkpt lat="48.8423" lon="2.31337">
        <ele>40.20000076294</ele>
        <time>2015-08-31T20:26:42Z</time>
      </trkpt>
      <trkpt lat="48.84247" lon="2.31326">
        <ele>39.400001525879</ele>
        <time>2015-08-31T20:27:07Z</time>
      </trkpt>
      <trkpt lat="48.84265" lon="2.31314">
        <ele>38.20000076294</ele>
        <time>2015-08-31T20:27:13Z</time>
      </trkpt>
      <trkpt lat="48.84282" lon="2.31303">
        <ele>36.79999923706</ele>
        <time>2015-08-31T20:27:18Z</time>
      </trkpt>
      <trkpt lat="48.84299" lon="2.31291">
        <ele>34.400001525879</ele>
        <time>2015-08-31T20:27:26Z</time>
      </trkpt>
      <trkpt lat="48.84315" lon="2.31278">
        <ele>35.599998474121</ele>
        <time>2015-08-31T20:27:34Z</time>
      </trkpt>
      <trkpt lat="48.84335" lon="2.31265">
        <ele>36.599998474121</ele>
        <time>2015-08-31T20:27:40Z</time>
      </trkpt>
      <trkpt lat="48.84352" lon="2.31247">
        <ele>37.400001525879</ele>
        <time>2015-08-31T20:27:46Z</time>
      </trkpt>
      <trkpt lat="48.84371" lon="2.31231">
        <ele>36.599998474121</ele>
        <time>2015-08-31T20:27:52Z</time>
      </trkpt>
      <trkpt lat="48.84386" lon="2.31216">
        <ele>36.400001525879</ele>
        <time>2015-08-31T20:27:56Z</time>
      </trkpt>
      <trkpt lat="48.84404" lon="2.31204">
        <ele>37.400001525879</ele>
        <time>2015-08-31T20:28:01Z</time>
      </trkpt>
      <trkpt lat="48.84421" lon="2.3119">
        <ele>36</ele>
        <time>2015-08-31T20:28:05Z</time>
      </trkpt>
      <trkpt lat="48.84438" lon="2.31178">
        <ele>34.400001525879</ele>
        <time>2015-08-31T20:28:09Z</time>
      </trkpt>
      <trkpt lat="48.84456" lon="2.31164">
        <ele>33.400001525879</ele>
        <time>2015-08-31T20:28:13Z</time>
      </trkpt>
      <trkpt lat="48.84472" lon="2.31152">
        <ele>34</ele>
        <time>2015-08-31T20:28:17Z</time>
      </trkpt>
      <trkpt lat="48.84479" lon="2.31147">
        <ele>34.20000076294</ele>
        <time>2015-08-31T20:28:19Z</time>
      </trkpt>
      <trkpt lat="48.84498" lon="2.31132">
        <ele>34.79999923706</ele>
        <time>2015-08-31T20:28:24Z</time>
      </trkpt>
      <trkpt lat="48.84509" lon="2.31119">
        <ele>34.599998474121</ele>
        <time>2015-08-31T20:28:30Z</time>
      </trkpt>
      <trkpt lat="48.84508" lon="2.31098">
        <ele>33.79999923706</ele>
        <time>2015-08-31T20:29:05Z</time>
      </trkpt>
      <trkpt lat="48.84504" lon="2.31077">
        <ele>33.20000076294</ele>
        <time>2015-08-31T20:29:14Z</time>
      </trkpt>
      <trkpt lat="48.84492" lon="2.31053">
        <ele>33.599998474121</ele>
        <time>2015-08-31T20:29:22Z</time>
      </trkpt>
      <trkpt lat="48.84481" lon="2.3103">
        <ele>34.20000076294</ele>
        <time>2015-08-31T20:29:28Z</time>
      </trkpt>
      <trkpt lat="48.84472" lon="2.31003">
        <ele>36.20000076294</ele>
        <time>2015-08-31T20:29:34Z</time>
      </trkpt>
      <trkpt lat="48.84463" lon="2.30978">
        <ele>38.79999923706</ele>
        <time>2015-08-31T20:29:40Z</time>
      </trkpt>
      <trkpt lat="48.84455" lon="2.30947">
        <ele>45.20000076294</ele>
        <time>2015-08-31T20:29:46Z</time>
      </trkpt>
      <trkpt lat="48.84449" lon="2.30919">
        <ele>51.400001525879</ele>
        <time>2015-08-31T20:29:51Z</time>
      </trkpt>
      <trkpt lat="48.84439" lon="2.30896">
        <ele>62.599998474121</ele>
        <time>2015-08-31T20:30:01Z</time>
      </trkpt>
      <trkpt lat="48.84418" lon="2.30892">
        <ele>67</ele>
        <time>2015-08-31T20:30:09Z</time>
      </trkpt>
      <trkpt lat="48.84414" lon="2.30887">
        <ele>67</ele>
        <time>2015-08-31T20:30:11Z</time>
      </trkpt>
      <trkpt lat="48.84396" lon="2.30868">
        <ele>62.20000076294</ele>
        <time>2015-08-31T20:30:25Z</time>
      </trkpt>
      <trkpt lat="48.84386" lon="2.30863">
        <ele>61.79999923706</ele>
        <time>2015-08-31T20:30:27Z</time>
      </trkpt>
      <trkpt lat="48.84379" lon="2.30859">
        <ele>60.79999923706</ele>
        <time>2015-08-31T20:30:28Z</time>
      </trkpt>
      <trkpt lat="48.84366" lon="2.30839">
        <ele>59.79999923706</ele>
        <time>2015-08-31T20:30:32Z</time>
      </trkpt>
      <trkpt lat="48.84355" lon="2.30817">
        <ele>58.79999923706</ele>
        <time>2015-08-31T20:30:36Z</time>
      </trkpt>
      <trkpt lat="48.84338" lon="2.30798">
        <ele>57.599998474121</ele>
        <time>2015-08-31T20:30:40Z</time>
      </trkpt>
      <trkpt lat="48.84324" lon="2.30774">
        <ele>56.400001525879</ele>
        <time>2015-08-31T20:30:45Z</time>
      </trkpt>
      <trkpt lat="48.84317" lon="2.30756">
        <ele>53.79999923706</ele>
        <time>2015-08-31T20:30:49Z</time>
      </trkpt>
      <trkpt lat="48.8431" lon="2.3073">
        <ele>50.79999923706</ele>
        <time>2015-08-31T20:30:56Z</time>
      </trkpt>
      <trkpt lat="48.84303" lon="2.307">
        <ele>47</ele>
        <time>2015-08-31T20:31:05Z</time>
      </trkpt>
      <trkpt lat="48.84291" lon="2.30676">
        <ele>45.599998474121</ele>
        <time>2015-08-31T20:31:11Z</time>
      </trkpt>
      <trkpt lat="48.84279" lon="2.30653">
        <ele>45</ele>
        <time>2015-08-31T20:31:16Z</time>
      </trkpt>
      <trkpt lat="48.84268" lon="2.30627">
        <ele>44.79999923706</ele>
        <time>2015-08-31T20:31:22Z</time>
      </trkpt>
      <trkpt lat="48.84264" lon="2.30594">
        <ele>45.599998474121</ele>
        <time>2015-08-31T20:31:28Z</time>
      </trkpt>
      <trkpt lat="48.84254" lon="2.3057">
        <ele>44.400001525879</ele>
        <time>2015-08-31T20:31:33Z</time>
      </trkpt>
      <trkpt lat="48.84248" lon="2.30542">
        <ele>45</ele>
        <time>2015-08-31T20:31:38Z</time>
      </trkpt>
      <trkpt lat="48.84239" lon="2.30514">
        <ele>47</ele>
        <time>2015-08-31T20:31:43Z</time>
      </trkpt>
      <trkpt lat="48.84231" lon="2.30487">
        <ele>51</ele>
        <time>2015-08-31T20:31:48Z</time>
      </trkpt>
      <trkpt lat="48.84219" lon="2.30466">
        <ele>53.400001525879</ele>
        <time>2015-08-31T20:31:53Z</time>
      </trkpt>
      <trkpt lat="48.84211" lon="2.30441">
        <ele>55.20000076294</ele>
        <time>2015-08-31T20:31:58Z</time>
      </trkpt>
      <trkpt lat="48.84202" lon="2.30415">
        <ele>57.599998474121</ele>
        <time>2015-08-31T20:32:03Z</time>
      </trkpt>
      <trkpt lat="48.84194" lon="2.30389">
        <ele>60</ele>
        <time>2015-08-31T20:32:08Z</time>
      </trkpt>
      <trkpt lat="48.84195" lon="2.30357">
        <ele>60.599998474121</ele>
        <time>2015-08-31T20:32:14Z</time>
      </trkpt>
      <trkpt lat="48.84193" lon="2.30328">
        <ele>64.199996948242</ele>
        <time>2015-08-31T20:32:21Z</time>
      </trkpt>
      <trkpt lat="48.84183" lon="2.30301">
        <ele>67.400001525879</ele>
        <time>2015-08-31T20:32:29Z</time>
      </trkpt>
      <trkpt lat="48.84168" lon="2.30282">
        <ele>70.599998474121</ele>
        <time>2015-08-31T20:32:36Z</time>
      </trkpt>
      <trkpt lat="48.84157" lon="2.30259">
        <ele>72</ele>
        <time>2015-08-31T20:32:42Z</time>
      </trkpt>
      <trkpt lat="48.8415" lon="2.30233">
        <ele>74.400001525879</ele>
        <time>2015-08-31T20:32:48Z</time>
      </trkpt>
      <trkpt lat="48.84146" lon="2.30213">
        <ele>75.599998474121</ele>
        <time>2015-08-31T20:32:52Z</time>
      </trkpt>
      <trkpt lat="48.84141" lon="2.30183">
        <ele>75.199996948242</ele>
        <time>2015-08-31T20:32:58Z</time>
      </trkpt>
      <trkpt lat="48.84132" lon="2.30159">
        <ele>74</ele>
        <time>2015-08-31T20:33:03Z</time>
      </trkpt>
      <trkpt lat="48.84124" lon="2.30134">
        <ele>73.400001525879</ele>
        <time>2015-08-31T20:33:08Z</time>
      </trkpt>
      <trkpt lat="48.84111" lon="2.30114">
        <ele>72.400001525879</ele>
        <time>2015-08-31T20:33:13Z</time>
      </trkpt>
      <trkpt lat="48.84102" lon="2.30085">
        <ele>71.800003051758</ele>
        <time>2015-08-31T20:33:19Z</time>
      </trkpt>
      <trkpt lat="48.84093" lon="2.30057">
        <ele>72.599998474121</ele>
        <time>2015-08-31T20:33:25Z</time>
      </trkpt>
      <trkpt lat="48.84087" lon="2.30028">
        <ele>68</ele>
        <time>2015-08-31T20:33:32Z</time>
      </trkpt>
      <trkpt lat="48.84079" lon="2.3">
        <ele>69</ele>
        <time>2015-08-31T20:33:40Z</time>
      </trkpt>
      <trkpt lat="48.84074" lon="2.29985">
        <ele>69.800003051758</ele>
        <time>2015-08-31T20:33:44Z</time>
      </trkpt>
      <trkpt lat="48.84069" lon="2.29955">
        <ele>71.800003051758</ele>
        <time>2015-08-31T20:33:51Z</time>
      </trkpt>
      <trkpt lat="48.8406" lon="2.2993">
        <ele>73.199996948242</ele>
        <time>2015-08-31T20:33:57Z</time>
      </trkpt>
      <trkpt lat="48.84049" lon="2.29903">
        <ele>71.400001525879</ele>
        <time>2015-08-31T20:34:02Z</time>
      </trkpt>
      <trkpt lat="48.8404" lon="2.29879">
        <ele>70.599998474121</ele>
        <time>2015-08-31T20:34:06Z</time>
      </trkpt>
      <trkpt lat="48.84026" lon="2.29853">
        <ele>70.800003051758</ele>
        <time>2015-08-31T20:34:11Z</time>
      </trkpt>
      <trkpt lat="48.84019" lon="2.29827">
        <ele>71.400001525879</ele>
        <time>2015-08-31T20:34:15Z</time>
      </trkpt>
      <trkpt lat="48.84012" lon="2.29802">
        <ele>71.599998474121</ele>
        <time>2015-08-31T20:34:19Z</time>
      </trkpt>
      <trkpt lat="48.84005" lon="2.29775">
        <ele>70.800003051758</ele>
        <time>2015-08-31T20:34:23Z</time>
      </trkpt>
      <trkpt lat="48.83996" lon="2.29747">
        <ele>64.800003051758</ele>
        <time>2015-08-31T20:34:27Z</time>
      </trkpt>
      <trkpt lat="48.83985" lon="2.29723">
        <ele>61.599998474121</ele>
        <time>2015-08-31T20:34:31Z</time>
      </trkpt>
      <trkpt lat="48.83973" lon="2.29697">
        <ele>59.79999923706</ele>
        <time>2015-08-31T20:34:36Z</time>
      </trkpt>
      <trkpt lat="48.83965" lon="2.29669">
        <ele>57.20000076294</ele>
        <time>2015-08-31T20:34:41Z</time>
      </trkpt>
      <trkpt lat="48.8396" lon="2.2966">
        <ele>56.20000076294</ele>
        <time>2015-08-31T20:34:43Z</time>
      </trkpt>
      <trkpt lat="48.83948" lon="2.29641">
        <ele>49.79999923706</ele>
        <time>2015-08-31T20:34:47Z</time>
      </trkpt>
      <trkpt lat="48.83943" lon="2.29619">
        <ele>41.20000076294</ele>
        <time>2015-08-31T20:34:51Z</time>
      </trkpt>
      <trkpt lat="48.83931" lon="2.29597">
        <ele>35.20000076294</ele>
        <time>2015-08-31T20:34:56Z</time>
      </trkpt>
      <trkpt lat="48.83918" lon="2.29575">
        <ele>32.599998474121</ele>
        <time>2015-08-31T20:35:01Z</time>
      </trkpt>
      <trkpt lat="48.8391" lon="2.29561">
        <ele>31.200000762939</ele>
        <time>2015-08-31T20:35:04Z</time>
      </trkpt>
      <trkpt lat="48.83896" lon="2.29536">
        <ele>29.39999961853</ele>
        <time>2015-08-31T20:35:09Z</time>
      </trkpt>
      <trkpt lat="48.8389" lon="2.29526">
        <ele>29.200000762939</ele>
        <time>2015-08-31T20:35:11Z</time>
      </trkpt>
      <trkpt lat="48.83878" lon="2.29507">
        <ele>29</ele>
        <time>2015-08-31T20:35:15Z</time>
      </trkpt>
      <trkpt lat="48.83861" lon="2.2949">
        <ele>28.60000038147</ele>
        <time>2015-08-31T20:35:20Z</time>
      </trkpt>
      <trkpt lat="48.83858" lon="2.29487">
        <ele>28.39999961853</ele>
        <time>2015-08-31T20:35:21Z</time>
      </trkpt>
      <trkpt lat="48.83842" lon="2.29472">
        <ele>27.39999961853</ele>
        <time>2015-08-31T20:35:28Z</time>
      </trkpt>
      <trkpt lat="48.83829" lon="2.29465">
        <ele>28.60000038147</ele>
        <time>2015-08-31T20:35:37Z</time>
      </trkpt>
      <trkpt lat="48.83826" lon="2.29461">
        <ele>30</ele>
        <time>2015-08-31T20:35:41Z</time>
      </trkpt>
      <trkpt lat="48.83821" lon="2.29458">
        <ele>35</ele>
        <time>2015-08-31T20:35:56Z</time>
      </trkpt>
      <trkpt lat="48.83822" lon="2.29457">
        <ele>45</ele>
        <time>2015-08-31T20:36:20Z</time>
      </trkpt>
      <trkpt lat="48.83823" lon="2.29457">
        <ele>46.599998474121</ele>
        <time>2015-08-31T20:36:23Z</time>
      </trkpt>
      <trkpt lat="48.83805" lon="2.29446">
        <ele>49</ele>
        <time>2015-08-31T20:36:43Z</time>
      </trkpt>
      <trkpt lat="48.83786" lon="2.2943">
        <ele>43.79999923706</ele>
        <time>2015-08-31T20:36:48Z</time>
      </trkpt>
      <trkpt lat="48.83763" lon="2.29418">
        <ele>41.79999923706</ele>
        <time>2015-08-31T20:36:54Z</time>
      </trkpt>
      <trkpt lat="48.83742" lon="2.2941">
        <ele>41.400001525879</ele>
        <time>2015-08-31T20:36:59Z</time>
      </trkpt>
      <trkpt lat="48.83725" lon="2.29398">
        <ele>39.79999923706</ele>
        <time>2015-08-31T20:37:04Z</time>
      </trkpt>
      <trkpt lat="48.83709" lon="2.29378">
        <ele>39</ele>
        <time>2015-08-31T20:37:10Z</time>
      </trkpt>
      <trkpt lat="48.83696" lon="2.29358">
        <ele>38.599998474121</ele>
        <time>2015-08-31T20:37:15Z</time>
      </trkpt>
      <trkpt lat="48.83686" lon="2.29335">
        <ele>37</ele>
        <time>2015-08-31T20:37:20Z</time>
      </trkpt>
      <trkpt lat="48.83675" lon="2.29313">
        <ele>36.79999923706</ele>
        <time>2015-08-31T20:37:25Z</time>
      </trkpt>
      <trkpt lat="48.83677" lon="2.29289">
        <ele>34.599998474121</ele>
        <time>2015-08-31T20:37:29Z</time>
      </trkpt>
      <trkpt lat="48.83688" lon="2.29267">
        <ele>33.400001525879</ele>
        <time>2015-08-31T20:37:34Z</time>
      </trkpt>
      <trkpt lat="48.83695" lon="2.29259">
        <ele>32</ele>
        <time>2015-08-31T20:37:36Z</time>
      </trkpt>
      <trkpt lat="48.8371" lon="2.29241">
        <ele>29</ele>
        <time>2015-08-31T20:37:42Z</time>
      </trkpt>
      <trkpt lat="48.83724" lon="2.29222">
        <ele>26.799999237061</ele>
        <time>2015-08-31T20:37:47Z</time>
      </trkpt>
      <trkpt lat="48.8374" lon="2.29206">
        <ele>24.200000762939</ele>
        <time>2015-08-31T20:37:52Z</time>
      </trkpt>
      <trkpt lat="48.83755" lon="2.29185">
        <ele>20.39999961853</ele>
        <time>2015-08-31T20:37:58Z</time>
      </trkpt>
      <trkpt lat="48.83766" lon="2.29162">
        <ele>17.39999961853</ele>
        <time>2015-08-31T20:38:03Z</time>
      </trkpt>
      <trkpt lat="48.8378" lon="2.29139">
        <ele>11.39999961853</ele>
        <time>2015-08-31T20:38:10Z</time>
      </trkpt>
      <trkpt lat="48.83792" lon="2.29119">
        <ele>7.5999999046326</ele>
        <time>2015-08-31T20:38:16Z</time>
      </trkpt>
      <trkpt lat="48.83805" lon="2.29101">
        <ele>6.8000001907349</ele>
        <time>2015-08-31T20:38:21Z</time>
      </trkpt>
      <trkpt lat="48.83822" lon="2.29084">
        <ele>4</ele>
        <time>2015-08-31T20:38:26Z</time>
      </trkpt>
      <trkpt lat="48.8384" lon="2.2907">
        <ele>2.4000000953674</ele>
        <time>2015-08-31T20:38:31Z</time>
      </trkpt>
      <trkpt lat="48.83855" lon="2.29051">
        <ele>-0.20000000298023</ele>
        <time>2015-08-31T20:38:37Z</time>
      </trkpt>
      <trkpt lat="48.83864" lon="2.29029">
        <ele>-3.5999999046326</ele>
        <time>2015-08-31T20:38:44Z</time>
      </trkpt>
      <trkpt lat="48.83877" lon="2.29017">
        <ele>10.800000190735</ele>
        <time>2015-08-31T20:38:59Z</time>
      </trkpt>
      <trkpt lat="48.83881" lon="2.29021">
        <ele>26.799999237061</ele>
        <time>2015-08-31T20:39:25Z</time>
      </trkpt>
      <trkpt lat="48.83884" lon="2.29018">
        <ele>49</ele>
        <time>2015-08-31T20:40:37Z</time>
      </trkpt>
      <trkpt lat="48.83884" lon="2.29011">
        <ele>54</ele>
        <time>2015-08-31T20:40:50Z</time>
      </trkpt>
      <trkpt lat="48.83875" lon="2.28986">
        <ele>57.400001525879</ele>
        <time>2015-08-31T20:40:59Z</time>
      </trkpt>
      <trkpt lat="48.83872" lon="2.28959">
        <ele>59.79999923706</ele>
        <time>2015-08-31T20:41:08Z</time>
      </trkpt>
      <trkpt lat="48.83863" lon="2.28938">
        <ele>63</ele>
        <time>2015-08-31T20:41:18Z</time>
      </trkpt>
      <trkpt lat="48.83843" lon="2.28935">
        <ele>58.400001525879</ele>
        <time>2015-08-31T20:41:24Z</time>
      </trkpt>
      <trkpt lat="48.83823" lon="2.28935">
        <ele>56.20000076294</ele>
        <time>2015-08-31T20:41:31Z</time>
      </trkpt>
      <trkpt lat="48.83802" lon="2.28936">
        <ele>52.79999923706</ele>
        <time>2015-08-31T20:41:36Z</time>
      </trkpt>
      <trkpt lat="48.83781" lon="2.28938">
        <ele>50</ele>
        <time>2015-08-31T20:41:42Z</time>
      </trkpt>
      <trkpt lat="48.83761" lon="2.28938">
        <ele>47.79999923706</ele>
        <time>2015-08-31T20:41:47Z</time>
      </trkpt>
      <trkpt lat="48.83741" lon="2.28941">
        <ele>45.599998474121</ele>
        <time>2015-08-31T20:41:53Z</time>
      </trkpt>
      <trkpt lat="48.83721" lon="2.28941">
        <ele>42.20000076294</ele>
        <time>2015-08-31T20:41:59Z</time>
      </trkpt>
      <trkpt lat="48.837" lon="2.28942">
        <ele>37</ele>
        <time>2015-08-31T20:42:03Z</time>
      </trkpt>
      <trkpt lat="48.83679" lon="2.28946">
        <ele>33.400001525879</ele>
        <time>2015-08-31T20:42:07Z</time>
      </trkpt>
      <trkpt lat="48.83658" lon="2.28949">
        <ele>31.39999961853</ele>
        <time>2015-08-31T20:42:11Z</time>
      </trkpt>
      <trkpt lat="48.83639" lon="2.28952">
        <ele>29.60000038147</ele>
        <time>2015-08-31T20:42:15Z</time>
      </trkpt>
      <trkpt lat="48.8362" lon="2.28954">
        <ele>28.60000038147</ele>
        <time>2015-08-31T20:42:19Z</time>
      </trkpt>
      <trkpt lat="48.83602" lon="2.28959">
        <ele>28</ele>
        <time>2015-08-31T20:42:23Z</time>
      </trkpt>
      <trkpt lat="48.83597" lon="2.28962">
        <ele>28.39999961853</ele>
        <time>2015-08-31T20:42:24Z</time>
      </trkpt>
      <trkpt lat="48.83584" lon="2.28971">
        <ele>29.39999961853</ele>
        <time>2015-08-31T20:42:27Z</time>
      </trkpt>
      <trkpt lat="48.83564" lon="2.28973">
        <ele>27.39999961853</ele>
        <time>2015-08-31T20:42:32Z</time>
      </trkpt>
      <trkpt lat="48.83545" lon="2.28978">
        <ele>24.799999237061</ele>
        <time>2015-08-31T20:42:37Z</time>
      </trkpt>
      <trkpt lat="48.83525" lon="2.2898">
        <ele>22</ele>
        <time>2015-08-31T20:42:43Z</time>
      </trkpt>
      <trkpt lat="48.83507" lon="2.28978">
        <ele>20.39999961853</ele>
        <time>2015-08-31T20:42:48Z</time>
      </trkpt>
      <trkpt lat="48.83486" lon="2.28981">
        <ele>19</ele>
        <time>2015-08-31T20:42:53Z</time>
      </trkpt>
      <trkpt lat="48.83468" lon="2.28986">
        <ele>16.60000038147</ele>
        <time>2015-08-31T20:42:58Z</time>
      </trkpt>
      <trkpt lat="48.83448" lon="2.28998">
        <ele>13</ele>
        <time>2015-08-31T20:43:04Z</time>
      </trkpt>
      <trkpt lat="48.83428" lon="2.28999">
        <ele>11.800000190735</ele>
        <time>2015-08-31T20:43:09Z</time>
      </trkpt>
      <trkpt lat="48.83411" lon="2.28996">
        <ele>13.39999961853</ele>
        <time>2015-08-31T20:43:15Z</time>
      </trkpt>
      <trkpt lat="48.83418" lon="2.28991">
        <ele>16</ele>
        <time>2015-08-31T20:43:21Z</time>
      </trkpt>
      <trkpt lat="48.83436" lon="2.28987">
        <ele>22.60000038147</ele>
        <time>2015-08-31T20:43:30Z</time>
      </trkpt>
      <trkpt lat="48.83443" lon="2.28979">
        <ele>25.200000762939</ele>
        <time>2015-08-31T20:43:37Z</time>
      </trkpt>
      <trkpt lat="48.83456" lon="2.28961">
        <ele>26.200000762939</ele>
        <time>2015-08-31T20:43:48Z</time>
      </trkpt>
      <trkpt lat="48.83472" lon="2.28945">
        <ele>26.200000762939</ele>
        <time>2015-08-31T20:43:53Z</time>
      </trkpt>
      <trkpt lat="48.83492" lon="2.2893">
        <ele>25.799999237061</ele>
        <time>2015-08-31T20:43:58Z</time>
      </trkpt>
      <trkpt lat="48.83509" lon="2.28915">
        <ele>25.60000038147</ele>
        <time>2015-08-31T20:44:03Z</time>
      </trkpt>
      <trkpt lat="48.83505" lon="2.28908">
        <ele>25.39999961853</ele>
        <time>2015-08-31T20:44:04Z</time>
      </trkpt>
      <trkpt lat="48.83494" lon="2.28884">
        <ele>24.39999961853</ele>
        <time>2015-08-31T20:44:08Z</time>
      </trkpt>
      <trkpt lat="48.8348" lon="2.28861">
        <ele>24.39999961853</ele>
        <time>2015-08-31T20:44:13Z</time>
      </trkpt>
      <trkpt lat="48.83469" lon="2.28839">
        <ele>24.200000762939</ele>
        <time>2015-08-31T20:44:19Z</time>
      </trkpt>
      <trkpt lat="48.83452" lon="2.28822">
        <ele>25.39999961853</ele>
        <time>2015-08-31T20:44:26Z</time>
      </trkpt>
      <trkpt lat="48.83438" lon="2.28804">
        <ele>26</ele>
        <time>2015-08-31T20:44:34Z</time>
      </trkpt>
      <trkpt lat="48.83425" lon="2.28783">
        <ele>26.799999237061</ele>
        <time>2015-08-31T20:44:41Z</time>
      </trkpt>
      <trkpt lat="48.8341" lon="2.28762">
        <ele>28.200000762939</ele>
        <time>2015-08-31T20:44:47Z</time>
      </trkpt>
      <trkpt lat="48.83394" lon="2.28741">
        <ele>29.799999237061</ele>
        <time>2015-08-31T20:44:53Z</time>
      </trkpt>
      <trkpt lat="48.83382" lon="2.2872">
        <ele>30.200000762939</ele>
        <time>2015-08-31T20:44:59Z</time>
      </trkpt>
      <trkpt lat="48.83371" lon="2.28699">
        <ele>29.799999237061</ele>
        <time>2015-08-31T20:45:05Z</time>
      </trkpt>
      <trkpt lat="48.83357" lon="2.28678">
        <ele>31</ele>
        <time>2015-08-31T20:45:12Z</time>
      </trkpt>
      <trkpt lat="48.83351" lon="2.28672">
        <ele>31.39999961853</ele>
        <time>2015-08-31T20:45:17Z</time>
      </trkpt>
      <trkpt lat="48.83341" lon="2.28654">
        <ele>32.400001525879</ele>
        <time>2015-08-31T20:45:58Z</time>
      </trkpt>
      <trkpt lat="48.83338" lon="2.28658">
        <ele>32.400001525879</ele>
        <time>2015-08-31T20:46:01Z</time>
      </trkpt>
      <trkpt lat="48.83332" lon="2.28673">
        <ele>32.79999923706</ele>
        <time>2015-08-31T20:46:07Z</time>
      </trkpt>
      <trkpt lat="48.83321" lon="2.28697">
        <ele>32.400001525879</ele>
        <time>2015-08-31T20:46:15Z</time>
      </trkpt>
      <trkpt lat="48.83306" lon="2.28715">
        <ele>31.60000038147</ele>
        <time>2015-08-31T20:46:24Z</time>
      </trkpt>
      <trkpt lat="48.83294" lon="2.28736">
        <ele>31.60000038147</ele>
        <time>2015-08-31T20:46:31Z</time>
      </trkpt>
      <trkpt lat="48.83286" lon="2.28766">
        <ele>32</ele>
        <time>2015-08-31T20:46:37Z</time>
      </trkpt>
      <trkpt lat="48.83288" lon="2.28803">
        <ele>27.799999237061</ele>
        <time>2015-08-31T20:46:41Z</time>
      </trkpt>
      <trkpt lat="48.83284" lon="2.28833">
        <ele>27.39999961853</ele>
        <time>2015-08-31T20:46:49Z</time>
      </trkpt>
      <trkpt lat="48.83287" lon="2.28855">
        <ele>26.39999961853</ele>
        <time>2015-08-31T20:46:54Z</time>
      </trkpt>
      <trkpt lat="48.83299" lon="2.28877">
        <ele>27.60000038147</ele>
        <time>2015-08-31T20:47:00Z</time>
      </trkpt>
      <trkpt lat="48.83313" lon="2.28896">
        <ele>30.200000762939</ele>
        <time>2015-08-31T20:47:06Z</time>
      </trkpt>
      <trkpt lat="48.83329" lon="2.28916">
        <ele>34.20000076294</ele>
        <time>2015-08-31T20:47:13Z</time>
      </trkpt>
      <trkpt lat="48.83344" lon="2.28937">
        <ele>37.20000076294</ele>
        <time>2015-08-31T20:47:19Z</time>
      </trkpt>
      <trkpt lat="48.83356" lon="2.28958">
        <ele>38.400001525879</ele>
        <time>2015-08-31T20:47:24Z</time>
      </trkpt>
      <trkpt lat="48.83373" lon="2.28977">
        <ele>37.79999923706</ele>
        <time>2015-08-31T20:47:31Z</time>
      </trkpt>
      <trkpt lat="48.83386" lon="2.28996">
        <ele>39.400001525879</ele>
        <time>2015-08-31T20:47:37Z</time>
      </trkpt>
      <trkpt lat="48.83394" lon="2.2901">
        <ele>39.599998474121</ele>
        <time>2015-08-31T20:47:42Z</time>
      </trkpt>
      <trkpt lat="48.83406" lon="2.29029">
        <ele>39.400001525879</ele>
        <time>2015-08-31T20:47:51Z</time>
      </trkpt>
      <trkpt lat="48.83411" lon="2.29042">
        <ele>40.79999923706</ele>
        <time>2015-08-31T20:47:58Z</time>
      </trkpt>
      <trkpt lat="48.83415" lon="2.29049">
        <ele>50.79999923706</ele>
        <time>2015-08-31T20:49:06Z</time>
      </trkpt>
      <trkpt lat="48.83432" lon="2.29057">
        <ele>54.599998474121</ele>
        <time>2015-08-31T20:49:32Z</time>
      </trkpt>
      <trkpt lat="48.83446" lon="2.29079">
        <ele>56.79999923706</ele>
        <time>2015-08-31T20:49:42Z</time>
      </trkpt>
      <trkpt lat="48.83461" lon="2.291">
        <ele>58</ele>
        <time>2015-08-31T20:49:50Z</time>
      </trkpt>
      <trkpt lat="48.83471" lon="2.29123">
        <ele>58.599998474121</ele>
        <time>2015-08-31T20:49:58Z</time>
      </trkpt>
      <trkpt lat="48.8348" lon="2.29148">
        <ele>57.20000076294</ele>
        <time>2015-08-31T20:50:07Z</time>
      </trkpt>
      <trkpt lat="48.83494" lon="2.29171">
        <ele>54.20000076294</ele>
        <time>2015-08-31T20:50:15Z</time>
      </trkpt>
      <trkpt lat="48.83506" lon="2.29194">
        <ele>53.20000076294</ele>
        <time>2015-08-31T20:50:22Z</time>
      </trkpt>
      <trkpt lat="48.83519" lon="2.29215">
        <ele>50.79999923706</ele>
        <time>2015-08-31T20:50:29Z</time>
      </trkpt>
      <trkpt lat="48.83532" lon="2.29237">
        <ele>49.400001525879</ele>
        <time>2015-08-31T20:50:34Z</time>
      </trkpt>
      <trkpt lat="48.83546" lon="2.29262">
        <ele>47.599998474121</ele>
        <time>2015-08-31T20:50:39Z</time>
      </trkpt>
      <trkpt lat="48.83558" lon="2.29285">
        <ele>45.20000076294</ele>
        <time>2015-08-31T20:50:43Z</time>
      </trkpt>
      <trkpt lat="48.83567" lon="2.29309">
        <ele>43.79999923706</ele>
        <time>2015-08-31T20:50:47Z</time>
      </trkpt>
      <trkpt lat="48.83579" lon="2.29336">
        <ele>42.599998474121</ele>
        <time>2015-08-31T20:50:52Z</time>
      </trkpt>
      <trkpt lat="48.83591" lon="2.2936">
        <ele>40.79999923706</ele>
        <time>2015-08-31T20:50:57Z</time>
      </trkpt>
      <trkpt lat="48.83605" lon="2.29383">
        <ele>38.599998474121</ele>
        <time>2015-08-31T20:51:02Z</time>
      </trkpt>
      <trkpt lat="48.83611" lon="2.294">
        <ele>37.20000076294</ele>
        <time>2015-08-31T20:51:05Z</time>
      </trkpt>
      <trkpt lat="48.83615" lon="2.29416">
        <ele>35.79999923706</ele>
        <time>2015-08-31T20:51:08Z</time>
      </trkpt>
      <trkpt lat="48.83625" lon="2.29444">
        <ele>34.400001525879</ele>
        <time>2015-08-31T20:51:13Z</time>
      </trkpt>
      <trkpt lat="48.83636" lon="2.29474">
        <ele>32.79999923706</ele>
        <time>2015-08-31T20:51:18Z</time>
      </trkpt>
      <trkpt lat="48.83647" lon="2.29496">
        <ele>32.20000076294</ele>
        <time>2015-08-31T20:51:22Z</time>
      </trkpt>
      <trkpt lat="48.8366" lon="2.29522">
        <ele>31.200000762939</ele>
        <time>2015-08-31T20:51:27Z</time>
      </trkpt>
      <trkpt lat="48.83675" lon="2.29547">
        <ele>31</ele>
        <time>2015-08-31T20:51:32Z</time>
      </trkpt>
      <trkpt lat="48.8369" lon="2.29569">
        <ele>31.39999961853</ele>
        <time>2015-08-31T20:51:36Z</time>
      </trkpt>
      <trkpt lat="48.83704" lon="2.29594">
        <ele>31.200000762939</ele>
        <time>2015-08-31T20:51:41Z</time>
      </trkpt>
      <trkpt lat="48.83716" lon="2.29618">
        <ele>31.200000762939</ele>
        <time>2015-08-31T20:51:46Z</time>
      </trkpt>
      <trkpt lat="48.83721" lon="2.29632">
        <ele>32.599998474121</ele>
        <time>2015-08-31T20:51:49Z</time>
      </trkpt>
      <trkpt lat="48.83737" lon="2.29648">
        <ele>42</ele>
        <time>2015-08-31T20:52:31Z</time>
      </trkpt>
      <trkpt lat="48.8375" lon="2.29671">
        <ele>43</ele>
        <time>2015-08-31T20:52:39Z</time>
      </trkpt>
      <trkpt lat="48.8376" lon="2.29697">
        <ele>42</ele>
        <time>2015-08-31T20:52:46Z</time>
      </trkpt>
      <trkpt lat="48.8377" lon="2.29721">
        <ele>41.79999923706</ele>
        <time>2015-08-31T20:52:53Z</time>
      </trkpt>
      <trkpt lat="48.8378" lon="2.29747">
        <ele>42.20000076294</ele>
        <time>2015-08-31T20:53:01Z</time>
      </trkpt>
      <trkpt lat="48.83788" lon="2.29775">
        <ele>40.400001525879</ele>
        <time>2015-08-31T20:53:09Z</time>
      </trkpt>
      <trkpt lat="48.838" lon="2.298">
        <ele>37.79999923706</ele>
        <time>2015-08-31T20:53:16Z</time>
      </trkpt>
      <trkpt lat="48.8381" lon="2.29822">
        <ele>37</ele>
        <time>2015-08-31T20:53:22Z</time>
      </trkpt>
      <trkpt lat="48.83821" lon="2.29846">
        <ele>36</ele>
        <time>2015-08-31T20:53:28Z</time>
      </trkpt>
      <trkpt lat="48.83839" lon="2.29863">
        <ele>36.79999923706</ele>
        <time>2015-08-31T20:53:34Z</time>
      </trkpt>
      <trkpt lat="48.83855" lon="2.29882">
        <ele>40.400001525879</ele>
        <time>2015-08-31T20:53:40Z</time>
      </trkpt>
      <trkpt lat="48.8387" lon="2.29902">
        <ele>44.20000076294</ele>
        <time>2015-08-31T20:53:45Z</time>
      </trkpt>
      <trkpt lat="48.83883" lon="2.29923">
        <ele>47.79999923706</ele>
        <time>2015-08-31T20:53:51Z</time>
      </trkpt>
      <trkpt lat="48.83893" lon="2.29945">
        <ele>49.599998474121</ele>
        <time>2015-08-31T20:53:57Z</time>
      </trkpt>
      <trkpt lat="48.83901" lon="2.29973">
        <ele>49.400001525879</ele>
        <time>2015-08-31T20:54:04Z</time>
      </trkpt>
      <trkpt lat="48.83911" lon="2.29996">
        <ele>50</ele>
        <time>2015-08-31T20:54:10Z</time>
      </trkpt>
      <trkpt lat="48.83921" lon="2.3002">
        <ele>50.20000076294</ele>
        <time>2015-08-31T20:54:16Z</time>
      </trkpt>
      <trkpt lat="48.83933" lon="2.30042">
        <ele>50.599998474121</ele>
        <time>2015-08-31T20:54:20Z</time>
      </trkpt>
      <trkpt lat="48.83946" lon="2.30063">
        <ele>49.599998474121</ele>
        <time>2015-08-31T20:54:25Z</time>
      </trkpt>
      <trkpt lat="48.83954" lon="2.30089">
        <ele>49.599998474121</ele>
        <time>2015-08-31T20:54:31Z</time>
      </trkpt>
      <trkpt lat="48.83963" lon="2.30118">
        <ele>51.599998474121</ele>
        <time>2015-08-31T20:54:38Z</time>
      </trkpt>
      <trkpt lat="48.83971" lon="2.30146">
        <ele>52.20000076294</ele>
        <time>2015-08-31T20:54:44Z</time>
      </trkpt>
      <trkpt lat="48.83982" lon="2.30174">
        <ele>52.20000076294</ele>
        <time>2015-08-31T20:54:49Z</time>
      </trkpt>
      <trkpt lat="48.83988" lon="2.30203">
        <ele>51.599998474121</ele>
        <time>2015-08-31T20:54:55Z</time>
      </trkpt>
      <trkpt lat="48.83998" lon="2.30232">
        <ele>52.20000076294</ele>
        <time>2015-08-31T20:55:01Z</time>
      </trkpt>
      <trkpt lat="48.84003" lon="2.3026">
        <ele>55.400001525879</ele>
        <time>2015-08-31T20:55:06Z</time>
      </trkpt>
      <trkpt lat="48.84011" lon="2.30285">
        <ele>58</ele>
        <time>2015-08-31T20:55:11Z</time>
      </trkpt>
      <trkpt lat="48.84022" lon="2.30308">
        <ele>60.400001525879</ele>
        <time>2015-08-31T20:55:14Z</time>
      </trkpt>
      <trkpt lat="48.8403" lon="2.30332">
        <ele>61.79999923706</ele>
        <time>2015-08-31T20:55:17Z</time>
      </trkpt>
      <trkpt lat="48.84037" lon="2.30368">
        <ele>64.599998474121</ele>
        <time>2015-08-31T20:55:21Z</time>
      </trkpt>
      <trkpt lat="48.84047" lon="2.30394">
        <ele>65.800003051758</ele>
        <time>2015-08-31T20:55:24Z</time>
      </trkpt>
      <trkpt lat="48.84059" lon="2.30424">
        <ele>67.199996948242</ele>
        <time>2015-08-31T20:55:28Z</time>
      </trkpt>
      <trkpt lat="48.84059" lon="2.30431">
        <ele>67.199996948242</ele>
        <time>2015-08-31T20:55:29Z</time>
      </trkpt>
      <trkpt lat="48.84067" lon="2.30457">
        <ele>67.599998474121</ele>
        <time>2015-08-31T20:55:33Z</time>
      </trkpt>
      <trkpt lat="48.84078" lon="2.30484">
        <ele>67.599998474121</ele>
        <time>2015-08-31T20:55:37Z</time>
      </trkpt>
      <trkpt lat="48.8408" lon="2.30499">
        <ele>66.400001525879</ele>
        <time>2015-08-31T20:55:39Z</time>
      </trkpt>
      <trkpt lat="48.84087" lon="2.30529">
        <ele>64.599998474121</ele>
        <time>2015-08-31T20:55:43Z</time>
      </trkpt>
      <trkpt lat="48.841" lon="2.30558">
        <ele>62.599998474121</ele>
        <time>2015-08-31T20:55:47Z</time>
      </trkpt>
      <trkpt lat="48.84108" lon="2.30592">
        <ele>62</ele>
        <time>2015-08-31T20:55:51Z</time>
      </trkpt>
      <trkpt lat="48.84112" lon="2.30619">
        <ele>61.20000076294</ele>
        <time>2015-08-31T20:55:54Z</time>
      </trkpt>
      <trkpt lat="48.84118" lon="2.30646">
        <ele>60.400001525879</ele>
        <time>2015-08-31T20:55:57Z</time>
      </trkpt>
      <trkpt lat="48.84123" lon="2.30678">
        <ele>59.599998474121</ele>
        <time>2015-08-31T20:56:01Z</time>
      </trkpt>
      <trkpt lat="48.84134" lon="2.30709">
        <ele>59</ele>
        <time>2015-08-31T20:56:05Z</time>
      </trkpt>
      <trkpt lat="48.84144" lon="2.30732">
        <ele>58.400001525879</ele>
        <time>2015-08-31T20:56:08Z</time>
      </trkpt>
      <trkpt lat="48.84156" lon="2.30762">
        <ele>57.20000076294</ele>
        <time>2015-08-31T20:56:12Z</time>
      </trkpt>
      <trkpt lat="48.84168" lon="2.30788">
        <ele>55</ele>
        <time>2015-08-31T20:56:16Z</time>
      </trkpt>
      <trkpt lat="48.84178" lon="2.30814">
        <ele>53.79999923706</ele>
        <time>2015-08-31T20:56:20Z</time>
      </trkpt>
      <trkpt lat="48.84185" lon="2.30842">
        <ele>52.79999923706</ele>
        <time>2015-08-31T20:56:24Z</time>
      </trkpt>
      <trkpt lat="48.84192" lon="2.30869">
        <ele>51</ele>
        <time>2015-08-31T20:56:28Z</time>
      </trkpt>
      <trkpt lat="48.842" lon="2.30896">
        <ele>49.400001525879</ele>
        <time>2015-08-31T20:56:32Z</time>
      </trkpt>
      <trkpt lat="48.84214" lon="2.3092">
        <ele>48</ele>
        <time>2015-08-31T20:56:36Z</time>
      </trkpt>
      <trkpt lat="48.84226" lon="2.30946">
        <ele>45.20000076294</ele>
        <time>2015-08-31T20:56:40Z</time>
      </trkpt>
      <trkpt lat="48.84234" lon="2.30974">
        <ele>44.400001525879</ele>
        <time>2015-08-31T20:56:44Z</time>
      </trkpt>
      <trkpt lat="48.84237" lon="2.31003">
        <ele>43.400001525879</ele>
        <time>2015-08-31T20:56:48Z</time>
      </trkpt>
      <trkpt lat="48.84236" lon="2.31019">
        <ele>42.20000076294</ele>
        <time>2015-08-31T20:56:50Z</time>
      </trkpt>
      <trkpt lat="48.8424" lon="2.31047">
        <ele>41.400001525879</ele>
        <time>2015-08-31T20:56:54Z</time>
      </trkpt>
      <trkpt lat="48.84249" lon="2.31073">
        <ele>41</ele>
        <time>2015-08-31T20:56:58Z</time>
      </trkpt>
      <trkpt lat="48.84259" lon="2.31098">
        <ele>40.400001525879</ele>
        <time>2015-08-31T20:57:02Z</time>
      </trkpt>
      <trkpt lat="48.8427" lon="2.31122">
        <ele>39.400001525879</ele>
        <time>2015-08-31T20:57:06Z</time>
      </trkpt>
      <trkpt lat="48.84283" lon="2.31143">
        <ele>39</ele>
        <time>2015-08-31T20:57:10Z</time>
      </trkpt>
      <trkpt lat="48.84284" lon="2.3115">
        <ele>39</ele>
        <time>2015-08-31T20:57:11Z</time>
      </trkpt>
      <trkpt lat="48.84294" lon="2.3118">
        <ele>38.599998474121</ele>
        <time>2015-08-31T20:57:16Z</time>
      </trkpt>
      <trkpt lat="48.84302" lon="2.31204">
        <ele>38.599998474121</ele>
        <time>2015-08-31T20:57:20Z</time>
      </trkpt>
      <trkpt lat="48.84307" lon="2.31235">
        <ele>37.79999923706</ele>
        <time>2015-08-31T20:57:26Z</time>
      </trkpt>
      <trkpt lat="48.84305" lon="2.31243">
        <ele>36.20000076294</ele>
        <time>2015-08-31T20:57:28Z</time>
      </trkpt>
      <trkpt lat="48.84298" lon="2.31254">
        <ele>34</ele>
        <time>2015-08-31T20:57:32Z</time>
      </trkpt>
      <trkpt lat="48.84297" lon="2.31254">
        <ele>33.79999923706</ele>
        <time>2015-08-31T20:57:33Z</time>
      </trkpt>
      <trkpt lat="48.84289" lon="2.31255">
        <ele>34.79999923706</ele>
        <time>2015-08-31T20:59:04Z</time>
      </trkpt>
      <trkpt lat="48.84298" lon="2.31281">
        <ele>34.599998474121</ele>
        <time>2015-08-31T20:59:11Z</time>
      </trkpt>
      <trkpt lat="48.84307" lon="2.31307">
        <ele>34.400001525879</ele>
        <time>2015-08-31T20:59:16Z</time>
      </trkpt>
      <trkpt lat="48.84316" lon="2.31332">
        <ele>34.599998474121</ele>
        <time>2015-08-31T20:59:20Z</time>
      </trkpt>
      <trkpt lat="48.84327" lon="2.31357">
        <ele>34.599998474121</ele>
        <time>2015-08-31T20:59:24Z</time>
      </trkpt>
      <trkpt lat="48.84337" lon="2.31387">
        <ele>34.599998474121</ele>
        <time>2015-08-31T20:59:29Z</time>
      </trkpt>
      <trkpt lat="48.8435" lon="2.31413">
        <ele>34.79999923706</ele>
        <time>2015-08-31T20:59:33Z</time>
      </trkpt>
      <trkpt lat="48.84362" lon="2.31441">
        <ele>34.79999923706</ele>
        <time>2015-08-31T20:59:37Z</time>
      </trkpt>
      <trkpt lat="48.84374" lon="2.3147">
        <ele>34.79999923706</ele>
        <time>2015-08-31T20:59:41Z</time>
      </trkpt>
      <trkpt lat="48.84388" lon="2.31496">
        <ele>35</ele>
        <time>2015-08-31T20:59:45Z</time>
      </trkpt>
      <trkpt lat="48.84397" lon="2.31523">
        <ele>34.79999923706</ele>
        <time>2015-08-31T20:59:49Z</time>
      </trkpt>
      <trkpt lat="48.84405" lon="2.31548">
        <ele>35</ele>
        <time>2015-08-31T20:59:53Z</time>
      </trkpt>
      <trkpt lat="48.8441" lon="2.3158">
        <ele>35</ele>
        <time>2015-08-31T20:59:58Z</time>
      </trkpt>
      <trkpt lat="48.84416" lon="2.31611">
        <ele>34.79999923706</ele>
        <time>2015-08-31T21:00:02Z</time>
      </trkpt>
      <trkpt lat="48.8442" lon="2.3164">
        <ele>35.20000076294</ele>
        <time>2015-08-31T21:00:05Z</time>
      </trkpt>
      <trkpt lat="48.84429" lon="2.31671">
        <ele>35.599998474121</ele>
        <time>2015-08-31T21:00:09Z</time>
      </trkpt>
      <trkpt lat="48.84441" lon="2.31702">
        <ele>35.79999923706</ele>
        <time>2015-08-31T21:00:13Z</time>
      </trkpt>
      <trkpt lat="48.84452" lon="2.31732">
        <ele>36.20000076294</ele>
        <time>2015-08-31T21:00:17Z</time>
      </trkpt>
      <trkpt lat="48.84456" lon="2.31739">
        <ele>36.400001525879</ele>
        <time>2015-08-31T21:00:18Z</time>
      </trkpt>
      <trkpt lat="48.84456" lon="2.31756">
        <ele>36.79999923706</ele>
        <time>2015-08-31T21:00:20Z</time>
      </trkpt>
      <trkpt lat="48.84461" lon="2.31781">
        <ele>37.79999923706</ele>
        <time>2015-08-31T21:00:23Z</time>
      </trkpt>
      <trkpt lat="48.84469" lon="2.31809">
        <ele>38.79999923706</ele>
        <time>2015-08-31T21:00:27Z</time>
      </trkpt>
      <trkpt lat="48.84478" lon="2.31842">
        <ele>39</ele>
        <time>2015-08-31T21:00:31Z</time>
      </trkpt>
      <trkpt lat="48.84486" lon="2.31874">
        <ele>39.400001525879</ele>
        <time>2015-08-31T21:00:35Z</time>
      </trkpt>
      <trkpt lat="48.84496" lon="2.31906">
        <ele>39.79999923706</ele>
        <time>2015-08-31T21:00:39Z</time>
      </trkpt>
      <trkpt lat="48.84506" lon="2.31931">
        <ele>40.20000076294</ele>
        <time>2015-08-31T21:00:42Z</time>
      </trkpt>
      <trkpt lat="48.84516" lon="2.31962">
        <ele>40.599998474121</ele>
        <time>2015-08-31T21:00:46Z</time>
      </trkpt>
      <trkpt lat="48.8451" lon="2.31984">
        <ele>41</ele>
        <time>2015-08-31T21:00:49Z</time>
      </trkpt>
      <trkpt lat="48.84511" lon="2.32009">
        <ele>38.599998474121</ele>
        <time>2015-08-31T21:00:56Z</time>
      </trkpt>
      <trkpt lat="48.84512" lon="2.32013">
        <ele>38.79999923706</ele>
        <time>2015-08-31T21:00:59Z</time>
      </trkpt>
      <trkpt lat="48.84507" lon="2.32014">
        <ele>38.400001525879</ele>
        <time>2015-08-31T21:01:04Z</time>
      </trkpt>
      <trkpt lat="48.84505" lon="2.32011">
        <ele>35.79999923706</ele>
        <time>2015-08-31T21:01:29Z</time>
      </trkpt>
      <trkpt lat="48.84516" lon="2.32031">
        <ele>36.599998474121</ele>
        <time>2015-08-31T21:01:35Z</time>
      </trkpt>
      <trkpt lat="48.84525" lon="2.32055">
        <ele>36.599998474121</ele>
        <time>2015-08-31T21:01:40Z</time>
      </trkpt>
      <trkpt lat="48.84534" lon="2.32079">
        <ele>36.400001525879</ele>
        <time>2015-08-31T21:01:44Z</time>
      </trkpt>
      <trkpt lat="48.84541" lon="2.32104">
        <ele>36.20000076294</ele>
        <time>2015-08-31T21:01:47Z</time>
      </trkpt>
      <trkpt lat="48.84553" lon="2.32134">
        <ele>36.20000076294</ele>
        <time>2015-08-31T21:01:50Z</time>
      </trkpt>
      <trkpt lat="48.8456" lon="2.32164">
        <ele>36</ele>
        <time>2015-08-31T21:01:53Z</time>
      </trkpt>
      <trkpt lat="48.84577" lon="2.32193">
        <ele>36</ele>
        <time>2015-08-31T21:01:56Z</time>
      </trkpt>
      <trkpt lat="48.8459" lon="2.32223">
        <ele>35.79999923706</ele>
        <time>2015-08-31T21:01:59Z</time>
      </trkpt>
      <trkpt lat="48.84604" lon="2.32252">
        <ele>35.79999923706</ele>
        <time>2015-08-31T21:02:02Z</time>
      </trkpt>
      <trkpt lat="48.84604" lon="2.32264">
        <ele>35.79999923706</ele>
        <time>2015-08-31T21:02:03Z</time>
      </trkpt>
      <trkpt lat="48.84612" lon="2.32295">
        <ele>36</ele>
        <time>2015-08-31T21:02:06Z</time>
      </trkpt>
      <trkpt lat="48.84617" lon="2.32326">
        <ele>36.20000076294</ele>
        <time>2015-08-31T21:02:09Z</time>
      </trkpt>
      <trkpt lat="48.84622" lon="2.32357">
        <ele>36.20000076294</ele>
        <time>2015-08-31T21:02:12Z</time>
      </trkpt>
      <trkpt lat="48.84628" lon="2.32386">
        <ele>36</ele>
        <time>2015-08-31T21:02:15Z</time>
      </trkpt>
      <trkpt lat="48.84637" lon="2.32413">
        <ele>36</ele>
        <time>2015-08-31T21:02:19Z</time>
      </trkpt>
      <trkpt lat="48.8464" lon="2.32417">
        <ele>36</ele>
        <time>2015-08-31T21:02:20Z</time>
      </trkpt>
      <trkpt lat="48.84647" lon="2.3245">
        <ele>35.20000076294</ele>
        <time>2015-08-31T21:02:25Z</time>
      </trkpt>
      <trkpt lat="48.84658" lon="2.32479">
        <ele>35</ele>
        <time>2015-08-31T21:02:29Z</time>
      </trkpt>
      <trkpt lat="48.84669" lon="2.32507">
        <ele>35</ele>
        <time>2015-08-31T21:02:33Z</time>
      </trkpt>
      <trkpt lat="48.84677" lon="2.32537">
        <ele>35</ele>
        <time>2015-08-31T21:02:37Z</time>
      </trkpt>
      <trkpt lat="48.84684" lon="2.32567">
        <ele>35.400001525879</ele>
        <time>2015-08-31T21:02:41Z</time>
      </trkpt>
      <trkpt lat="48.84692" lon="2.32581">
        <ele>35.79999923706</ele>
        <time>2015-08-31T21:02:43Z</time>
      </trkpt>
      <trkpt lat="48.84701" lon="2.32609">
        <ele>35.79999923706</ele>
        <time>2015-08-31T21:02:47Z</time>
      </trkpt>
      <trkpt lat="48.84708" lon="2.32622">
        <ele>36</ele>
        <time>2015-08-31T21:02:49Z</time>
      </trkpt>
      <trkpt lat="48.84719" lon="2.32651">
        <ele>36.599998474121</ele>
        <time>2015-08-31T21:02:53Z</time>
      </trkpt>
      <trkpt lat="48.84719" lon="2.32665">
        <ele>36.599998474121</ele>
        <time>2015-08-31T21:02:55Z</time>
      </trkpt>
      <trkpt lat="48.8472" lon="2.327">
        <ele>37</ele>
        <time>2015-08-31T21:03:00Z</time>
      </trkpt>
      <trkpt lat="48.84725" lon="2.32711">
        <ele>37</ele>
        <time>2015-08-31T21:03:02Z</time>
      </trkpt>
      <trkpt lat="48.84736" lon="2.32735">
        <ele>37</ele>
        <time>2015-08-31T21:03:06Z</time>
      </trkpt>
      <trkpt lat="48.84747" lon="2.3276">
        <ele>38.599998474121</ele>
        <time>2015-08-31T21:03:10Z</time>
      </trkpt>
      <trkpt lat="48.84758" lon="2.32783">
        <ele>39.79999923706</ele>
        <time>2015-08-31T21:03:14Z</time>
      </trkpt>
      <trkpt lat="48.84763" lon="2.32814">
        <ele>39.599998474121</ele>
        <time>2015-08-31T21:03:19Z</time>
      </trkpt>
      <trkpt lat="48.84769" lon="2.32839">
        <ele>40.20000076294</ele>
        <time>2015-08-31T21:03:23Z</time>
      </trkpt>
      <trkpt lat="48.84779" lon="2.32865">
        <ele>41</ele>
        <time>2015-08-31T21:03:28Z</time>
      </trkpt>
      <trkpt lat="48.84787" lon="2.3289">
        <ele>41.599998474121</ele>
        <time>2015-08-31T21:03:32Z</time>
      </trkpt>
      <trkpt lat="48.84791" lon="2.32921">
        <ele>41.599998474121</ele>
        <time>2015-08-31T21:03:36Z</time>
      </trkpt>
      <trkpt lat="48.84798" lon="2.32946">
        <ele>41.79999923706</ele>
        <time>2015-08-31T21:03:39Z</time>
      </trkpt>
      <trkpt lat="48.84806" lon="2.32976">
        <ele>42.400001525879</ele>
        <time>2015-08-31T21:03:43Z</time>
      </trkpt>
      <trkpt lat="48.84814" lon="2.33007">
        <ele>42.599998474121</ele>
        <time>2015-08-31T21:03:47Z</time>
      </trkpt>
      <trkpt lat="48.84822" lon="2.33039">
        <ele>43.20000076294</ele>
        <time>2015-08-31T21:03:51Z</time>
      </trkpt>
      <trkpt lat="48.84825" lon="2.33078">
        <ele>43.79999923706</ele>
        <time>2015-08-31T21:03:55Z</time>
      </trkpt>
      <trkpt lat="48.84832" lon="2.33109">
        <ele>43.599998474121</ele>
        <time>2015-08-31T21:03:59Z</time>
      </trkpt>
      <trkpt lat="48.84845" lon="2.33135">
        <ele>43.79999923706</ele>
        <time>2015-08-31T21:04:03Z</time>
      </trkpt>
      <trkpt lat="48.84855" lon="2.33162">
        <ele>44</ele>
        <time>2015-08-31T21:04:07Z</time>
      </trkpt>
      <trkpt lat="48.84862" lon="2.3319">
        <ele>44.20000076294</ele>
        <time>2015-08-31T21:04:11Z</time>
      </trkpt>
      <trkpt lat="48.84874" lon="2.33217">
        <ele>44.79999923706</ele>
        <time>2015-08-31T21:04:16Z</time>
      </trkpt>
      <trkpt lat="48.84893" lon="2.33233">
        <ele>45.599998474121</ele>
        <time>2015-08-31T21:04:20Z</time>
      </trkpt>
      <trkpt lat="48.84898" lon="2.33242">
        <ele>45.79999923706</ele>
        <time>2015-08-31T21:04:22Z</time>
      </trkpt>
      <trkpt lat="48.84906" lon="2.3327">
        <ele>45.79999923706</ele>
        <time>2015-08-31T21:04:27Z</time>
      </trkpt>
      <trkpt lat="48.84908" lon="2.33304">
        <ele>46.400001525879</ele>
        <time>2015-08-31T21:04:31Z</time>
      </trkpt>
      <trkpt lat="48.84908" lon="2.33311">
        <ele>46.599998474121</ele>
        <time>2015-08-31T21:04:32Z</time>
      </trkpt>
      <trkpt lat="48.84911" lon="2.33342">
        <ele>47.20000076294</ele>
        <time>2015-08-31T21:04:37Z</time>
      </trkpt>
      <trkpt lat="48.84917" lon="2.33373">
        <ele>48</ele>
        <time>2015-08-31T21:04:42Z</time>
      </trkpt>
      <trkpt lat="48.84922" lon="2.33396">
        <ele>48.599998474121</ele>
        <time>2015-08-31T21:04:45Z</time>
      </trkpt>
      <trkpt lat="48.84929" lon="2.33428">
        <ele>49.20000076294</ele>
        <time>2015-08-31T21:04:49Z</time>
      </trkpt>
      <trkpt lat="48.84938" lon="2.33456">
        <ele>50.599998474121</ele>
        <time>2015-08-31T21:04:53Z</time>
      </trkpt>
      <trkpt lat="48.84944" lon="2.33489">
        <ele>51.599998474121</ele>
        <time>2015-08-31T21:04:58Z</time>
      </trkpt>
      <trkpt lat="48.84939" lon="2.33506">
        <ele>53.20000076294</ele>
        <time>2015-08-31T21:05:00Z</time>
      </trkpt>
      <trkpt lat="48.84941" lon="2.33537">
        <ele>54.20000076294</ele>
        <time>2015-08-31T21:05:04Z</time>
      </trkpt>
      <trkpt lat="48.84944" lon="2.33564">
        <ele>55</ele>
        <time>2015-08-31T21:05:07Z</time>
      </trkpt>
      <trkpt lat="48.84945" lon="2.33595">
        <ele>55.20000076294</ele>
        <time>2015-08-31T21:05:10Z</time>
      </trkpt>
      <trkpt lat="48.84947" lon="2.33625">
        <ele>54.20000076294</ele>
        <time>2015-08-31T21:05:13Z</time>
      </trkpt>
      <trkpt lat="48.84948" lon="2.33655">
        <ele>52.400001525879</ele>
        <time>2015-08-31T21:05:16Z</time>
      </trkpt>
      <trkpt lat="48.84949" lon="2.33687">
        <ele>50.20000076294</ele>
        <time>2015-08-31T21:05:19Z</time>
      </trkpt>
      <trkpt lat="48.84951" lon="2.33717">
        <ele>48.79999923706</ele>
        <time>2015-08-31T21:05:22Z</time>
      </trkpt>
      <trkpt lat="48.84949" lon="2.33746">
        <ele>48.400001525879</ele>
        <time>2015-08-31T21:05:25Z</time>
      </trkpt>
      <trkpt lat="48.84943" lon="2.33774">
        <ele>46.20000076294</ele>
        <time>2015-08-31T21:05:28Z</time>
      </trkpt>
      <trkpt lat="48.84937" lon="2.338">
        <ele>45.79999923706</ele>
        <time>2015-08-31T21:05:31Z</time>
      </trkpt>
      <trkpt lat="48.84934" lon="2.33829">
        <ele>46</ele>
        <time>2015-08-31T21:05:35Z</time>
      </trkpt>
      <trkpt lat="48.84934" lon="2.33843">
        <ele>46</ele>
        <time>2015-08-31T21:05:37Z</time>
      </trkpt>
      <trkpt lat="48.84926" lon="2.33861">
        <ele>44.79999923706</ele>
        <time>2015-08-31T21:05:40Z</time>
      </trkpt>
      <trkpt lat="48.84917" lon="2.33892">
        <ele>43.599998474121</ele>
        <time>2015-08-31T21:05:45Z</time>
      </trkpt>
      <trkpt lat="48.84916" lon="2.33904">
        <ele>42.599998474121</ele>
        <time>2015-08-31T21:05:47Z</time>
      </trkpt>
      <trkpt lat="48.84915" lon="2.3391">
        <ele>42.400001525879</ele>
        <time>2015-08-31T21:05:48Z</time>
      </trkpt>
      <trkpt lat="48.8491" lon="2.33939">
        <ele>38.599998474121</ele>
        <time>2015-08-31T21:05:53Z</time>
      </trkpt>
      <trkpt lat="48.84903" lon="2.33968">
        <ele>35.400001525879</ele>
        <time>2015-08-31T21:05:58Z</time>
      </trkpt>
      <trkpt lat="48.84901" lon="2.33979">
        <ele>33.599998474121</ele>
        <time>2015-08-31T21:06:00Z</time>
      </trkpt>
      <trkpt lat="48.84899" lon="2.33999">
        <ele>30.799999237061</ele>
        <time>2015-08-31T21:06:04Z</time>
      </trkpt>
      <trkpt lat="48.84899" lon="2.34022">
        <ele>28.60000038147</ele>
        <time>2015-08-31T21:06:09Z</time>
      </trkpt>
      <trkpt lat="48.84893" lon="2.34038">
        <ele>26.60000038147</ele>
        <time>2015-08-31T21:06:12Z</time>
      </trkpt>
      <trkpt lat="48.84897" lon="2.34067">
        <ele>23.799999237061</ele>
        <time>2015-08-31T21:06:17Z</time>
      </trkpt>
      <trkpt lat="48.84896" lon="2.34092">
        <ele>21.799999237061</ele>
        <time>2015-08-31T21:06:20Z</time>
      </trkpt>
      <trkpt lat="48.84896" lon="2.34118">
        <ele>21.200000762939</ele>
        <time>2015-08-31T21:06:23Z</time>
      </trkpt>
      <trkpt lat="48.84896" lon="2.34132">
        <ele>21.39999961853</ele>
        <time>2015-08-31T21:06:25Z</time>
      </trkpt>
      <trkpt lat="48.84898" lon="2.34143">
        <ele>23</ele>
        <time>2015-08-31T21:06:27Z</time>
      </trkpt>
      <trkpt lat="48.84897" lon="2.34155">
        <ele>26</ele>
        <time>2015-08-31T21:06:31Z</time>
      </trkpt>
      <trkpt lat="48.84896" lon="2.34157">
        <ele>26.60000038147</ele>
        <time>2015-08-31T21:06:32Z</time>
      </trkpt>
      <trkpt lat="48.84896" lon="2.34161">
        <ele>28.799999237061</ele>
        <time>2015-08-31T21:06:36Z</time>
      </trkpt>
      <trkpt lat="48.84875" lon="2.3416">
        <ele>49.20000076294</ele>
        <time>2015-08-31T21:07:42Z</time>
      </trkpt>
      <trkpt lat="48.84882" lon="2.34191">
        <ele>51.400001525879</ele>
        <time>2015-08-31T21:08:07Z</time>
      </trkpt>
      <trkpt lat="48.84899" lon="2.34207">
        <ele>50.599998474121</ele>
        <time>2015-08-31T21:08:13Z</time>
      </trkpt>
      <trkpt lat="48.84919" lon="2.3422">
        <ele>49.79999923706</ele>
        <time>2015-08-31T21:08:17Z</time>
      </trkpt>
      <trkpt lat="48.84939" lon="2.34232">
        <ele>49.20000076294</ele>
        <time>2015-08-31T21:08:21Z</time>
      </trkpt>
      <trkpt lat="48.84957" lon="2.3424">
        <ele>48.79999923706</ele>
        <time>2015-08-31T21:08:24Z</time>
      </trkpt>
      <trkpt lat="48.8498" lon="2.34252">
        <ele>48.400001525879</ele>
        <time>2015-08-31T21:08:28Z</time>
      </trkpt>
      <trkpt lat="48.85002" lon="2.3426">
        <ele>47</ele>
        <time>2015-08-31T21:08:31Z</time>
      </trkpt>
      <trkpt lat="48.85022" lon="2.34267">
        <ele>45</ele>
        <time>2015-08-31T21:08:34Z</time>
      </trkpt>
      <trkpt lat="48.85039" lon="2.34279">
        <ele>43.599998474121</ele>
        <time>2015-08-31T21:08:37Z</time>
      </trkpt>
      <trkpt lat="48.85058" lon="2.34288">
        <ele>41.79999923706</ele>
        <time>2015-08-31T21:08:40Z</time>
      </trkpt>
      <trkpt lat="48.8508" lon="2.34304">
        <ele>40.20000076294</ele>
        <time>2015-08-31T21:08:44Z</time>
      </trkpt>
      <trkpt lat="48.85086" lon="2.34307">
        <ele>39.599998474121</ele>
        <time>2015-08-31T21:08:45Z</time>
      </trkpt>
      <trkpt lat="48.85107" lon="2.34316">
        <ele>38.599998474121</ele>
        <time>2015-08-31T21:08:49Z</time>
      </trkpt>
      <trkpt lat="48.85128" lon="2.34325">
        <ele>35.400001525879</ele>
        <time>2015-08-31T21:08:52Z</time>
      </trkpt>
      <trkpt lat="48.85149" lon="2.34333">
        <ele>32.20000076294</ele>
        <time>2015-08-31T21:08:56Z</time>
      </trkpt>
      <trkpt lat="48.85163" lon="2.3434">
        <ele>31</ele>
        <time>2015-08-31T21:08:59Z</time>
      </trkpt>
      <trkpt lat="48.85182" lon="2.34346">
        <ele>28.799999237061</ele>
        <time>2015-08-31T21:09:03Z</time>
      </trkpt>
      <trkpt lat="48.85199" lon="2.34356">
        <ele>27.39999961853</ele>
        <time>2015-08-31T21:09:08Z</time>
      </trkpt>
      <trkpt lat="48.85218" lon="2.34366">
        <ele>26.200000762939</ele>
        <time>2015-08-31T21:09:13Z</time>
      </trkpt>
      <trkpt lat="48.85232" lon="2.34375">
        <ele>25.60000038147</ele>
        <time>2015-08-31T21:09:17Z</time>
      </trkpt>
      <trkpt lat="48.85247" lon="2.34381">
        <ele>24.200000762939</ele>
        <time>2015-08-31T21:09:20Z</time>
      </trkpt>
      <trkpt lat="48.85266" lon="2.34393">
        <ele>22.39999961853</ele>
        <time>2015-08-31T21:09:24Z</time>
      </trkpt>
      <trkpt lat="48.85285" lon="2.34402">
        <ele>20.200000762939</ele>
        <time>2015-08-31T21:09:28Z</time>
      </trkpt>
      <trkpt lat="48.85303" lon="2.34406">
        <ele>17.799999237061</ele>
        <time>2015-08-31T21:09:31Z</time>
      </trkpt>
      <trkpt lat="48.85318" lon="2.3441">
        <ele>16.799999237061</ele>
        <time>2015-08-31T21:09:34Z</time>
      </trkpt>
      <trkpt lat="48.85337" lon="2.34428">
        <ele>16.39999961853</ele>
        <time>2015-08-31T21:09:38Z</time>
      </trkpt>
      <trkpt lat="48.85355" lon="2.34444">
        <ele>15.60000038147</ele>
        <time>2015-08-31T21:09:43Z</time>
      </trkpt>
      <trkpt lat="48.85361" lon="2.34447">
        <ele>16.200000762939</ele>
        <time>2015-08-31T21:09:48Z</time>
      </trkpt>
      <trkpt lat="48.85362" lon="2.34447">
        <ele>17</ele>
        <time>2015-08-31T21:09:49Z</time>
      </trkpt>
      <trkpt lat="48.85384" lon="2.34455">
        <ele>26.200000762939</ele>
        <time>2015-08-31T21:10:10Z</time>
      </trkpt>
      <trkpt lat="48.85402" lon="2.34473">
        <ele>26</ele>
        <time>2015-08-31T21:10:16Z</time>
      </trkpt>
      <trkpt lat="48.8542" lon="2.34493">
        <ele>25.60000038147</ele>
        <time>2015-08-31T21:10:21Z</time>
      </trkpt>
      <trkpt lat="48.85436" lon="2.3451">
        <ele>24.39999961853</ele>
        <time>2015-08-31T21:10:26Z</time>
      </trkpt>
      <trkpt lat="48.85452" lon="2.34525">
        <ele>22.799999237061</ele>
        <time>2015-08-31T21:10:32Z</time>
      </trkpt>
      <trkpt lat="48.8547" lon="2.34543">
        <ele>22.39999961853</ele>
        <time>2015-08-31T21:10:40Z</time>
      </trkpt>
      <trkpt lat="48.85486" lon="2.34559">
        <ele>24</ele>
        <time>2015-08-31T21:10:46Z</time>
      </trkpt>
      <trkpt lat="48.85507" lon="2.34571">
        <ele>25.39999961853</ele>
        <time>2015-08-31T21:10:52Z</time>
      </trkpt>
      <trkpt lat="48.85526" lon="2.34591">
        <ele>25</ele>
        <time>2015-08-31T21:10:55Z</time>
      </trkpt>
      <trkpt lat="48.85544" lon="2.34604">
        <ele>25.60000038147</ele>
        <time>2015-08-31T21:10:59Z</time>
      </trkpt>
      <trkpt lat="48.85561" lon="2.34612">
        <ele>26.60000038147</ele>
        <time>2015-08-31T21:11:04Z</time>
      </trkpt>
      <trkpt lat="48.85566" lon="2.34613">
        <ele>27</ele>
        <time>2015-08-31T21:11:06Z</time>
      </trkpt>
      <trkpt lat="48.85569" lon="2.34616">
        <ele>27.60000038147</ele>
        <time>2015-08-31T21:11:08Z</time>
      </trkpt>
      <trkpt lat="48.85585" lon="2.3463">
        <ele>30.200000762939</ele>
        <time>2015-08-31T21:11:15Z</time>
      </trkpt>
      <trkpt lat="48.85607" lon="2.34634">
        <ele>29.799999237061</ele>
        <time>2015-08-31T21:11:20Z</time>
      </trkpt>
      <trkpt lat="48.85629" lon="2.34639">
        <ele>29.60000038147</ele>
        <time>2015-08-31T21:11:25Z</time>
      </trkpt>
      <trkpt lat="48.85648" lon="2.34653">
        <ele>28.799999237061</ele>
        <time>2015-08-31T21:11:30Z</time>
      </trkpt>
      <trkpt lat="48.85667" lon="2.34663">
        <ele>28.799999237061</ele>
        <time>2015-08-31T21:11:35Z</time>
      </trkpt>
      <trkpt lat="48.85686" lon="2.34674">
        <ele>29.39999961853</ele>
        <time>2015-08-31T21:11:40Z</time>
      </trkpt>
      <trkpt lat="48.85704" lon="2.34682">
        <ele>30.39999961853</ele>
        <time>2015-08-31T21:11:44Z</time>
      </trkpt>
      <trkpt lat="48.85717" lon="2.34686">
        <ele>30.200000762939</ele>
        <time>2015-08-31T21:11:47Z</time>
      </trkpt>
      <trkpt lat="48.8573" lon="2.34687">
        <ele>30.60000038147</ele>
        <time>2015-08-31T21:11:50Z</time>
      </trkpt>
      <trkpt lat="48.8575" lon="2.3469">
        <ele>31.200000762939</ele>
        <time>2015-08-31T21:11:55Z</time>
      </trkpt>
      <trkpt lat="48.85762" lon="2.34694">
        <ele>31.799999237061</ele>
        <time>2015-08-31T21:11:58Z</time>
      </trkpt>
      <trkpt lat="48.85781" lon="2.34703">
        <ele>32.400001525879</ele>
        <time>2015-08-31T21:12:03Z</time>
      </trkpt>
      <trkpt lat="48.85785" lon="2.34706">
        <ele>33</ele>
        <time>2015-08-31T21:12:04Z</time>
      </trkpt>
      <trkpt lat="48.85792" lon="2.34711">
        <ele>33.400001525879</ele>
        <time>2015-08-31T21:12:06Z</time>
      </trkpt>
      <trkpt lat="48.85812" lon="2.34722">
        <ele>33.599998474121</ele>
        <time>2015-08-31T21:12:11Z</time>
      </trkpt>
      <trkpt lat="48.85817" lon="2.34723">
        <ele>33.599998474121</ele>
        <time>2015-08-31T21:12:12Z</time>
      </trkpt>
      <trkpt lat="48.85829" lon="2.3473">
        <ele>34.400001525879</ele>
        <time>2015-08-31T21:12:15Z</time>
      </trkpt>
      <trkpt lat="48.85848" lon="2.34735">
        <ele>34.20000076294</ele>
        <time>2015-08-31T21:12:19Z</time>
      </trkpt>
      <trkpt lat="48.85858" lon="2.34737">
        <ele>34.599998474121</ele>
        <time>2015-08-31T21:12:21Z</time>
      </trkpt>
      <trkpt lat="48.85877" lon="2.34734">
        <ele>31.60000038147</ele>
        <time>2015-08-31T21:12:24Z</time>
      </trkpt>
      <trkpt lat="48.8589" lon="2.34721">
        <ele>31</ele>
        <time>2015-08-31T21:12:28Z</time>
      </trkpt>
      <trkpt lat="48.85894" lon="2.34719">
        <ele>30.39999961853</ele>
        <time>2015-08-31T21:12:29Z</time>
      </trkpt>
      <trkpt lat="48.85911" lon="2.34715">
        <ele>29.799999237061</ele>
        <time>2015-08-31T21:12:36Z</time>
      </trkpt>
      <trkpt lat="48.85927" lon="2.34704">
        <ele>30.60000038147</ele>
        <time>2015-08-31T21:12:42Z</time>
      </trkpt>
      <trkpt lat="48.85938" lon="2.34698">
        <ele>30.200000762939</ele>
        <time>2015-08-31T21:12:46Z</time>
      </trkpt>
      <trkpt lat="48.85947" lon="2.34703">
        <ele>31.200000762939</ele>
        <time>2015-08-31T21:12:51Z</time>
      </trkpt>
    </trkseg>
  </trk>
  <trk>
    <name><![CDATA[lundi 2015 08 31]]></name>
    <extensions>
      <line xmlns="http://www.topografix.com/GPX/gpx_style/0/2">
        <color>000000</color>
      </line>
    </extensions>
    <trkseg>
      <trkpt lat="48.85743" lon="2.34703">
        <ele>6.8000001907349</ele>
        <time>2015-08-31T18:21:01Z</time>
      </trkpt>
      <trkpt lat="48.85731" lon="2.34692">
        <ele>19.39999961853</ele>
        <time>2015-08-31T18:21:05Z</time>
      </trkpt>
      <trkpt lat="48.85729" lon="2.34698">
        <ele>26.799999237061</ele>
        <time>2015-08-31T18:21:06Z</time>
      </trkpt>
      <trkpt lat="48.85713" lon="2.34694">
        <ele>29</ele>
        <time>2015-08-31T18:21:11Z</time>
      </trkpt>
      <trkpt lat="48.85707" lon="2.34686">
        <ele>35.400001525879</ele>
        <time>2015-08-31T18:21:13Z</time>
      </trkpt>
      <trkpt lat="48.85701" lon="2.34678">
        <ele>34.599998474121</ele>
        <time>2015-08-31T18:21:17Z</time>
      </trkpt>
      <trkpt lat="48.85684" lon="2.34667">
        <ele>32.79999923706</ele>
        <time>2015-08-31T18:21:27Z</time>
      </trkpt>
      <trkpt lat="48.85665" lon="2.34657">
        <ele>28.799999237061</ele>
        <time>2015-08-31T18:21:34Z</time>
      </trkpt>
      <trkpt lat="48.85646" lon="2.34647">
        <ele>29.200000762939</ele>
        <time>2015-08-31T18:21:41Z</time>
      </trkpt>
      <trkpt lat="48.85626" lon="2.34637">
        <ele>28</ele>
        <time>2015-08-31T18:21:47Z</time>
      </trkpt>
      <trkpt lat="48.85607" lon="2.34631">
        <ele>27</ele>
        <time>2015-08-31T18:21:52Z</time>
      </trkpt>
      <trkpt lat="48.85588" lon="2.34616">
        <ele>26</ele>
        <time>2015-08-31T18:21:57Z</time>
      </trkpt>
      <trkpt lat="48.85568" lon="2.34607">
        <ele>25.200000762939</ele>
        <time>2015-08-31T18:22:01Z</time>
      </trkpt>
      <trkpt lat="48.8555" lon="2.34596">
        <ele>24.200000762939</ele>
        <time>2015-08-31T18:22:05Z</time>
      </trkpt>
      <trkpt lat="48.85532" lon="2.34582">
        <ele>23.60000038147</ele>
        <time>2015-08-31T18:22:09Z</time>
      </trkpt>
      <trkpt lat="48.85516" lon="2.34566">
        <ele>23</ele>
        <time>2015-08-31T18:22:13Z</time>
      </trkpt>
      <trkpt lat="48.85501" lon="2.34555">
        <ele>22.60000038147</ele>
        <time>2015-08-31T18:22:17Z</time>
      </trkpt>
      <trkpt lat="48.85483" lon="2.34541">
        <ele>22.200000762939</ele>
        <time>2015-08-31T18:22:23Z</time>
      </trkpt>
      <trkpt lat="48.85473" lon="2.3453">
        <ele>22.39999961853</ele>
        <time>2015-08-31T18:22:26Z</time>
      </trkpt>
      <trkpt lat="48.85455" lon="2.34512">
        <ele>23</ele>
        <time>2015-08-31T18:22:31Z</time>
      </trkpt>
      <trkpt lat="48.85448" lon="2.34507">
        <ele>23.39999961853</ele>
        <time>2015-08-31T18:22:33Z</time>
      </trkpt>
      <trkpt lat="48.85436" lon="2.34497">
        <ele>24.39999961853</ele>
        <time>2015-08-31T18:22:37Z</time>
      </trkpt>
      <trkpt lat="48.8542" lon="2.34479">
        <ele>26.799999237061</ele>
        <time>2015-08-31T18:22:42Z</time>
      </trkpt>
      <trkpt lat="48.85406" lon="2.34459">
        <ele>28.60000038147</ele>
        <time>2015-08-31T18:22:47Z</time>
      </trkpt>
      <trkpt lat="48.85392" lon="2.3444">
        <ele>31.39999961853</ele>
        <time>2015-08-31T18:22:54Z</time>
      </trkpt>
      <trkpt lat="48.85378" lon="2.34422">
        <ele>31.60000038147</ele>
        <time>2015-08-31T18:23:02Z</time>
      </trkpt>
      <trkpt lat="48.85361" lon="2.34411">
        <ele>32.599998474121</ele>
        <time>2015-08-31T18:23:07Z</time>
      </trkpt>
      <trkpt lat="48.85339" lon="2.34408">
        <ele>32.20000076294</ele>
        <time>2015-08-31T18:23:12Z</time>
      </trkpt>
      <trkpt lat="48.85321" lon="2.34399">
        <ele>32</ele>
        <time>2015-08-31T18:23:16Z</time>
      </trkpt>
      <trkpt lat="48.85301" lon="2.34388">
        <ele>32.599998474121</ele>
        <time>2015-08-31T18:23:21Z</time>
      </trkpt>
      <trkpt lat="48.85284" lon="2.34381">
        <ele>33</ele>
        <time>2015-08-31T18:23:28Z</time>
      </trkpt>
      <trkpt lat="48.85266" lon="2.34373">
        <ele>35.599998474121</ele>
        <time>2015-08-31T18:23:34Z</time>
      </trkpt>
      <trkpt lat="48.85247" lon="2.34365">
        <ele>36.400001525879</ele>
        <time>2015-08-31T18:23:39Z</time>
      </trkpt>
      <trkpt lat="48.85227" lon="2.34356">
        <ele>37.20000076294</ele>
        <time>2015-08-31T18:23:44Z</time>
      </trkpt>
      <trkpt lat="48.85208" lon="2.34347">
        <ele>38.400001525879</ele>
        <time>2015-08-31T18:23:49Z</time>
      </trkpt>
      <trkpt lat="48.8519" lon="2.34339">
        <ele>39.599998474121</ele>
        <time>2015-08-31T18:23:54Z</time>
      </trkpt>
      <trkpt lat="48.85171" lon="2.34328">
        <ele>39.79999923706</ele>
        <time>2015-08-31T18:24:00Z</time>
      </trkpt>
      <trkpt lat="48.85153" lon="2.34319">
        <ele>39.400001525879</ele>
        <time>2015-08-31T18:24:05Z</time>
      </trkpt>
      <trkpt lat="48.85134" lon="2.34309">
        <ele>39.79999923706</ele>
        <time>2015-08-31T18:24:11Z</time>
      </trkpt>
      <trkpt lat="48.85113" lon="2.34302">
        <ele>38</ele>
        <time>2015-08-31T18:24:17Z</time>
      </trkpt>
      <trkpt lat="48.85095" lon="2.34294">
        <ele>38</ele>
        <time>2015-08-31T18:24:22Z</time>
      </trkpt>
      <trkpt lat="48.85077" lon="2.34285">
        <ele>36.79999923706</ele>
        <time>2015-08-31T18:24:27Z</time>
      </trkpt>
      <trkpt lat="48.85058" lon="2.34275">
        <ele>36</ele>
        <time>2015-08-31T18:24:33Z</time>
      </trkpt>
      <trkpt lat="48.85038" lon="2.34264">
        <ele>36.20000076294</ele>
        <time>2015-08-31T18:24:39Z</time>
      </trkpt>
      <trkpt lat="48.85019" lon="2.34253">
        <ele>38</ele>
        <time>2015-08-31T18:24:45Z</time>
      </trkpt>
      <trkpt lat="48.85" lon="2.34243">
        <ele>40</ele>
        <time>2015-08-31T18:24:50Z</time>
      </trkpt>
      <trkpt lat="48.84981" lon="2.34234">
        <ele>43.20000076294</ele>
        <time>2015-08-31T18:24:55Z</time>
      </trkpt>
      <trkpt lat="48.84963" lon="2.34225">
        <ele>44.20000076294</ele>
        <time>2015-08-31T18:24:59Z</time>
      </trkpt>
      <trkpt lat="48.84944" lon="2.34214">
        <ele>43.79999923706</ele>
        <time>2015-08-31T18:25:04Z</time>
      </trkpt>
      <trkpt lat="48.84925" lon="2.34203">
        <ele>44</ele>
        <time>2015-08-31T18:25:09Z</time>
      </trkpt>
      <trkpt lat="48.84906" lon="2.34193">
        <ele>44.79999923706</ele>
        <time>2015-08-31T18:25:14Z</time>
      </trkpt>
      <trkpt lat="48.84889" lon="2.3418">
        <ele>46.400001525879</ele>
        <time>2015-08-31T18:25:19Z</time>
      </trkpt>
      <trkpt lat="48.84872" lon="2.3417">
        <ele>49.599998474121</ele>
        <time>2015-08-31T18:25:24Z</time>
      </trkpt>
      <trkpt lat="48.84855" lon="2.3416">
        <ele>50.599998474121</ele>
        <time>2015-08-31T18:25:29Z</time>
      </trkpt>
      <trkpt lat="48.84834" lon="2.3415">
        <ele>52.79999923706</ele>
        <time>2015-08-31T18:25:34Z</time>
      </trkpt>
      <trkpt lat="48.84816" lon="2.34138">
        <ele>53</ele>
        <time>2015-08-31T18:25:39Z</time>
      </trkpt>
      <trkpt lat="48.84797" lon="2.34124">
        <ele>54</ele>
        <time>2015-08-31T18:25:44Z</time>
      </trkpt>
      <trkpt lat="48.84781" lon="2.34111">
        <ele>55.599998474121</ele>
        <time>2015-08-31T18:25:49Z</time>
      </trkpt>
      <trkpt lat="48.84764" lon="2.34099">
        <ele>54.79999923706</ele>
        <time>2015-08-31T18:25:56Z</time>
      </trkpt>
      <trkpt lat="48.84758" lon="2.34095">
        <ele>56.20000076294</ele>
        <time>2015-08-31T18:26:00Z</time>
      </trkpt>
      <trkpt lat="48.84743" lon="2.34082">
        <ele>58.20000076294</ele>
        <time>2015-08-31T18:26:19Z</time>
      </trkpt>
      <trkpt lat="48.84725" lon="2.34073">
        <ele>58.400001525879</ele>
        <time>2015-08-31T18:26:25Z</time>
      </trkpt>
      <trkpt lat="48.84706" lon="2.34062">
        <ele>56.79999923706</ele>
        <time>2015-08-31T18:26:31Z</time>
      </trkpt>
      <trkpt lat="48.84686" lon="2.34052">
        <ele>56.599998474121</ele>
        <time>2015-08-31T18:26:37Z</time>
      </trkpt>
      <trkpt lat="48.84668" lon="2.34044">
        <ele>56.599998474121</ele>
        <time>2015-08-31T18:26:43Z</time>
      </trkpt>
      <trkpt lat="48.84649" lon="2.34038">
        <ele>56.400001525879</ele>
        <time>2015-08-31T18:26:51Z</time>
      </trkpt>
      <trkpt lat="48.84628" lon="2.34028">
        <ele>56.400001525879</ele>
        <time>2015-08-31T18:26:56Z</time>
      </trkpt>
      <trkpt lat="48.8461" lon="2.34015">
        <ele>56.599998474121</ele>
        <time>2015-08-31T18:27:00Z</time>
      </trkpt>
      <trkpt lat="48.84589" lon="2.34003">
        <ele>56.599998474121</ele>
        <time>2015-08-31T18:27:04Z</time>
      </trkpt>
      <trkpt lat="48.84568" lon="2.33992">
        <ele>56.599998474121</ele>
        <time>2015-08-31T18:27:08Z</time>
      </trkpt>
      <trkpt lat="48.84546" lon="2.3398">
        <ele>56.400001525879</ele>
        <time>2015-08-31T18:27:12Z</time>
      </trkpt>
      <trkpt lat="48.84524" lon="2.33969">
        <ele>56.20000076294</ele>
        <time>2015-08-31T18:27:16Z</time>
      </trkpt>
      <trkpt lat="48.84502" lon="2.33957">
        <ele>56.599998474121</ele>
        <time>2015-08-31T18:27:20Z</time>
      </trkpt>
      <trkpt lat="48.84492" lon="2.33951">
        <ele>57</ele>
        <time>2015-08-31T18:27:22Z</time>
      </trkpt>
      <trkpt lat="48.8447" lon="2.33939">
        <ele>57.599998474121</ele>
        <time>2015-08-31T18:27:26Z</time>
      </trkpt>
      <trkpt lat="48.84449" lon="2.33925">
        <ele>59</ele>
        <time>2015-08-31T18:27:30Z</time>
      </trkpt>
      <trkpt lat="48.84433" lon="2.33916">
        <ele>59.20000076294</ele>
        <time>2015-08-31T18:27:33Z</time>
      </trkpt>
      <trkpt lat="48.84411" lon="2.33908">
        <ele>59.79999923706</ele>
        <time>2015-08-31T18:27:37Z</time>
      </trkpt>
      <trkpt lat="48.84406" lon="2.33906">
        <ele>60.400001525879</ele>
        <time>2015-08-31T18:27:38Z</time>
      </trkpt>
      <trkpt lat="48.84387" lon="2.33893">
        <ele>59.599998474121</ele>
        <time>2015-08-31T18:27:42Z</time>
      </trkpt>
      <trkpt lat="48.84372" lon="2.33885">
        <ele>60</ele>
        <time>2015-08-31T18:27:45Z</time>
      </trkpt>
      <trkpt lat="48.84351" lon="2.33873">
        <ele>60.400001525879</ele>
        <time>2015-08-31T18:27:49Z</time>
      </trkpt>
      <trkpt lat="48.84331" lon="2.33863">
        <ele>61</ele>
        <time>2015-08-31T18:27:53Z</time>
      </trkpt>
      <trkpt lat="48.84311" lon="2.33853">
        <ele>61.400001525879</ele>
        <time>2015-08-31T18:27:57Z</time>
      </trkpt>
      <trkpt lat="48.8429" lon="2.33842">
        <ele>61.599998474121</ele>
        <time>2015-08-31T18:28:01Z</time>
      </trkpt>
      <trkpt lat="48.84269" lon="2.3383">
        <ele>59.599998474121</ele>
        <time>2015-08-31T18:28:05Z</time>
      </trkpt>
      <trkpt lat="48.84254" lon="2.3382">
        <ele>59.79999923706</ele>
        <time>2015-08-31T18:28:08Z</time>
      </trkpt>
      <trkpt lat="48.8424" lon="2.33813">
        <ele>60.400001525879</ele>
        <time>2015-08-31T18:28:11Z</time>
      </trkpt>
      <trkpt lat="48.84222" lon="2.33806">
        <ele>59.599998474121</ele>
        <time>2015-08-31T18:28:15Z</time>
      </trkpt>
      <trkpt lat="48.84217" lon="2.33804">
        <ele>59.20000076294</ele>
        <time>2015-08-31T18:28:16Z</time>
      </trkpt>
      <trkpt lat="48.84204" lon="2.33796">
        <ele>57.79999923706</ele>
        <time>2015-08-31T18:28:19Z</time>
      </trkpt>
      <trkpt lat="48.84186" lon="2.33784">
        <ele>56.79999923706</ele>
        <time>2015-08-31T18:28:23Z</time>
      </trkpt>
      <trkpt lat="48.84167" lon="2.33772">
        <ele>56.79999923706</ele>
        <time>2015-08-31T18:28:27Z</time>
      </trkpt>
      <trkpt lat="48.84152" lon="2.33763">
        <ele>56.599998474121</ele>
        <time>2015-08-31T18:28:30Z</time>
      </trkpt>
      <trkpt lat="48.84131" lon="2.33752">
        <ele>55.79999923706</ele>
        <time>2015-08-31T18:28:34Z</time>
      </trkpt>
      <trkpt lat="48.84112" lon="2.3374">
        <ele>56</ele>
        <time>2015-08-31T18:28:38Z</time>
      </trkpt>
      <trkpt lat="48.84092" lon="2.33726">
        <ele>56</ele>
        <time>2015-08-31T18:28:42Z</time>
      </trkpt>
      <trkpt lat="48.84076" lon="2.33714">
        <ele>57.400001525879</ele>
        <time>2015-08-31T18:28:45Z</time>
      </trkpt>
      <trkpt lat="48.84058" lon="2.337">
        <ele>57.20000076294</ele>
        <time>2015-08-31T18:28:48Z</time>
      </trkpt>
      <trkpt lat="48.84041" lon="2.33684">
        <ele>57.599998474121</ele>
        <time>2015-08-31T18:28:51Z</time>
      </trkpt>
      <trkpt lat="48.84023" lon="2.33668">
        <ele>58.400001525879</ele>
        <time>2015-08-31T18:28:54Z</time>
      </trkpt>
      <trkpt lat="48.8401" lon="2.33662">
        <ele>58.79999923706</ele>
        <time>2015-08-31T18:28:56Z</time>
      </trkpt>
      <trkpt lat="48.83992" lon="2.33658">
        <ele>58.400001525879</ele>
        <time>2015-08-31T18:28:59Z</time>
      </trkpt>
      <trkpt lat="48.83986" lon="2.33658">
        <ele>58.400001525879</ele>
        <time>2015-08-31T18:29:00Z</time>
      </trkpt>
      <trkpt lat="48.83974" lon="2.33657">
        <ele>58</ele>
        <time>2015-08-31T18:29:02Z</time>
      </trkpt>
      <trkpt lat="48.83956" lon="2.33657">
        <ele>56.599998474121</ele>
        <time>2015-08-31T18:29:06Z</time>
      </trkpt>
      <trkpt lat="48.83936" lon="2.33662">
        <ele>54.79999923706</ele>
        <time>2015-08-31T18:29:11Z</time>
      </trkpt>
      <trkpt lat="48.83933" lon="2.33662">
        <ele>54.79999923706</ele>
        <time>2015-08-31T18:29:12Z</time>
      </trkpt>
      <trkpt lat="48.83915" lon="2.33661">
        <ele>55.20000076294</ele>
        <time>2015-08-31T18:29:17Z</time>
      </trkpt>
      <trkpt lat="48.83899" lon="2.33659">
        <ele>57.400001525879</ele>
        <time>2015-08-31T18:29:24Z</time>
      </trkpt>
      <trkpt lat="48.83894" lon="2.33659">
        <ele>58.79999923706</ele>
        <time>2015-08-31T18:29:27Z</time>
      </trkpt>
      <trkpt lat="48.83879" lon="2.33669">
        <ele>69.800003051758</ele>
        <time>2015-08-31T18:30:08Z</time>
      </trkpt>
      <trkpt lat="48.83874" lon="2.33667">
        <ele>69.199996948242</ele>
        <time>2015-08-31T18:30:09Z</time>
      </trkpt>
      <trkpt lat="48.83852" lon="2.33659">
        <ele>68.800003051758</ele>
        <time>2015-08-31T18:30:13Z</time>
      </trkpt>
      <trkpt lat="48.83831" lon="2.33643">
        <ele>68.599998474121</ele>
        <time>2015-08-31T18:30:17Z</time>
      </trkpt>
      <trkpt lat="48.83814" lon="2.3363">
        <ele>70.199996948242</ele>
        <time>2015-08-31T18:30:20Z</time>
      </trkpt>
      <trkpt lat="48.83798" lon="2.33613">
        <ele>71.199996948242</ele>
        <time>2015-08-31T18:30:23Z</time>
      </trkpt>
      <trkpt lat="48.83782" lon="2.33595">
        <ele>70.599998474121</ele>
        <time>2015-08-31T18:30:26Z</time>
      </trkpt>
      <trkpt lat="48.83765" lon="2.33568">
        <ele>64</ele>
        <time>2015-08-31T18:30:29Z</time>
      </trkpt>
      <trkpt lat="48.83748" lon="2.33549">
        <ele>61.599998474121</ele>
        <time>2015-08-31T18:30:32Z</time>
      </trkpt>
      <trkpt lat="48.83731" lon="2.33531">
        <ele>61.20000076294</ele>
        <time>2015-08-31T18:30:35Z</time>
      </trkpt>
      <trkpt lat="48.83714" lon="2.33512">
        <ele>61.20000076294</ele>
        <time>2015-08-31T18:30:38Z</time>
      </trkpt>
      <trkpt lat="48.83698" lon="2.33493">
        <ele>60.400001525879</ele>
        <time>2015-08-31T18:30:41Z</time>
      </trkpt>
      <trkpt lat="48.83687" lon="2.33481">
        <ele>60.20000076294</ele>
        <time>2015-08-31T18:30:43Z</time>
      </trkpt>
      <trkpt lat="48.83671" lon="2.33464">
        <ele>60.79999923706</ele>
        <time>2015-08-31T18:30:46Z</time>
      </trkpt>
      <trkpt lat="48.83665" lon="2.33458">
        <ele>60.599998474121</ele>
        <time>2015-08-31T18:30:47Z</time>
      </trkpt>
      <trkpt lat="48.83649" lon="2.33443">
        <ele>59</ele>
        <time>2015-08-31T18:30:50Z</time>
      </trkpt>
      <trkpt lat="48.83638" lon="2.33431">
        <ele>58.599998474121</ele>
        <time>2015-08-31T18:30:52Z</time>
      </trkpt>
      <trkpt lat="48.8362" lon="2.33413">
        <ele>58.20000076294</ele>
        <time>2015-08-31T18:30:55Z</time>
      </trkpt>
      <trkpt lat="48.83602" lon="2.33399">
        <ele>58.20000076294</ele>
        <time>2015-08-31T18:30:58Z</time>
      </trkpt>
      <trkpt lat="48.8359" lon="2.33386">
        <ele>58.20000076294</ele>
        <time>2015-08-31T18:31:00Z</time>
      </trkpt>
      <trkpt lat="48.83572" lon="2.33369">
        <ele>58.79999923706</ele>
        <time>2015-08-31T18:31:03Z</time>
      </trkpt>
      <trkpt lat="48.83554" lon="2.33351">
        <ele>58.79999923706</ele>
        <time>2015-08-31T18:31:06Z</time>
      </trkpt>
      <trkpt lat="48.83536" lon="2.33335">
        <ele>59</ele>
        <time>2015-08-31T18:31:09Z</time>
      </trkpt>
      <trkpt lat="48.83523" lon="2.33326">
        <ele>59.79999923706</ele>
        <time>2015-08-31T18:31:11Z</time>
      </trkpt>
      <trkpt lat="48.83507" lon="2.3331">
        <ele>60.20000076294</ele>
        <time>2015-08-31T18:31:14Z</time>
      </trkpt>
      <trkpt lat="48.8349" lon="2.33298">
        <ele>60.400001525879</ele>
        <time>2015-08-31T18:31:17Z</time>
      </trkpt>
      <trkpt lat="48.83473" lon="2.33282">
        <ele>61.20000076294</ele>
        <time>2015-08-31T18:31:21Z</time>
      </trkpt>
      <trkpt lat="48.83469" lon="2.3328">
        <ele>61.400001525879</ele>
        <time>2015-08-31T18:31:22Z</time>
      </trkpt>
      <trkpt lat="48.8346" lon="2.33282">
        <ele>63</ele>
        <time>2015-08-31T18:31:26Z</time>
      </trkpt>
      <trkpt lat="48.83456" lon="2.33289">
        <ele>63.400001525879</ele>
        <time>2015-08-31T18:31:29Z</time>
      </trkpt>
      <trkpt lat="48.83451" lon="2.33283">
        <ele>71.199996948242</ele>
        <time>2015-08-31T18:32:13Z</time>
      </trkpt>
      <trkpt lat="48.83436" lon="2.33303">
        <ele>70</ele>
        <time>2015-08-31T18:32:22Z</time>
      </trkpt>
      <trkpt lat="48.83432" lon="2.33312">
        <ele>67.599998474121</ele>
        <time>2015-08-31T18:32:27Z</time>
      </trkpt>
      <trkpt lat="48.83427" lon="2.33333">
        <ele>66</ele>
        <time>2015-08-31T18:32:34Z</time>
      </trkpt>
      <trkpt lat="48.83419" lon="2.33339">
        <ele>65.400001525879</ele>
        <time>2015-08-31T18:32:38Z</time>
      </trkpt>
      <trkpt lat="48.83417" lon="2.33342">
        <ele>66</ele>
        <time>2015-08-31T18:32:41Z</time>
      </trkpt>
      <trkpt lat="48.83412" lon="2.33336">
        <ele>67.800003051758</ele>
        <time>2015-08-31T18:33:44Z</time>
      </trkpt>
      <trkpt lat="48.83428" lon="2.33322">
        <ele>68.800003051758</ele>
        <time>2015-08-31T18:33:56Z</time>
      </trkpt>
      <trkpt lat="48.83431" lon="2.33321">
        <ele>69</ele>
        <time>2015-08-31T18:33:59Z</time>
      </trkpt>
      <trkpt lat="48.83439" lon="2.33315">
        <ele>67.599998474121</ele>
        <time>2015-08-31T18:34:26Z</time>
      </trkpt>
      <trkpt lat="48.83446" lon="2.33308">
        <ele>67.599998474121</ele>
        <time>2015-08-31T18:34:30Z</time>
      </trkpt>
      <trkpt lat="48.83453" lon="2.33303">
        <ele>67.599998474121</ele>
        <time>2015-08-31T18:34:35Z</time>
      </trkpt>
      <trkpt lat="48.8347" lon="2.33295">
        <ele>66.599998474121</ele>
        <time>2015-08-31T18:34:48Z</time>
      </trkpt>
      <trkpt lat="48.83478" lon="2.33299">
        <ele>66.400001525879</ele>
        <time>2015-08-31T18:34:52Z</time>
      </trkpt>
      <trkpt lat="48.83498" lon="2.33308">
        <ele>69</ele>
        <time>2015-08-31T18:35:00Z</time>
      </trkpt>
      <trkpt lat="48.83516" lon="2.33318">
        <ele>72.400001525879</ele>
        <time>2015-08-31T18:35:08Z</time>
      </trkpt>
      <trkpt lat="48.83533" lon="2.33332">
        <ele>74.199996948242</ele>
        <time>2015-08-31T18:35:14Z</time>
      </trkpt>
      <trkpt lat="48.83551" lon="2.33352">
        <ele>76.400001525879</ele>
        <time>2015-08-31T18:35:19Z</time>
      </trkpt>
      <trkpt lat="48.83568" lon="2.33366">
        <ele>77.800003051758</ele>
        <time>2015-08-31T18:35:23Z</time>
      </trkpt>
      <trkpt lat="48.83587" lon="2.33383">
        <ele>79.599998474121</ele>
        <time>2015-08-31T18:35:27Z</time>
      </trkpt>
      <trkpt lat="48.83606" lon="2.33403">
        <ele>80</ele>
        <time>2015-08-31T18:35:31Z</time>
      </trkpt>
      <trkpt lat="48.83622" lon="2.33419">
        <ele>73.599998474121</ele>
        <time>2015-08-31T18:35:33Z</time>
      </trkpt>
      <trkpt lat="48.83641" lon="2.33439">
        <ele>73.400001525879</ele>
        <time>2015-08-31T18:35:37Z</time>
      </trkpt>
      <trkpt lat="48.83656" lon="2.33454">
        <ele>73.199996948242</ele>
        <time>2015-08-31T18:35:40Z</time>
      </trkpt>
      <trkpt lat="48.83674" lon="2.3347">
        <ele>72.400001525879</ele>
        <time>2015-08-31T18:35:43Z</time>
      </trkpt>
      <trkpt lat="48.8369" lon="2.33487">
        <ele>69.800003051758</ele>
        <time>2015-08-31T18:35:45Z</time>
      </trkpt>
      <trkpt lat="48.83711" lon="2.33507">
        <ele>67.800003051758</ele>
        <time>2015-08-31T18:35:48Z</time>
      </trkpt>
      <trkpt lat="48.83727" lon="2.33523">
        <ele>66.599998474121</ele>
        <time>2015-08-31T18:35:51Z</time>
      </trkpt>
      <trkpt lat="48.83745" lon="2.33539">
        <ele>65.599998474121</ele>
        <time>2015-08-31T18:35:54Z</time>
      </trkpt>
      <trkpt lat="48.83762" lon="2.33554">
        <ele>65</ele>
        <time>2015-08-31T18:35:57Z</time>
      </trkpt>
      <trkpt lat="48.83777" lon="2.33571">
        <ele>64.199996948242</ele>
        <time>2015-08-31T18:36:00Z</time>
      </trkpt>
      <trkpt lat="48.83796" lon="2.33591">
        <ele>62</ele>
        <time>2015-08-31T18:36:03Z</time>
      </trkpt>
      <trkpt lat="48.83813" lon="2.33611">
        <ele>60.20000076294</ele>
        <time>2015-08-31T18:36:06Z</time>
      </trkpt>
      <trkpt lat="48.83829" lon="2.3363">
        <ele>59.79999923706</ele>
        <time>2015-08-31T18:36:09Z</time>
      </trkpt>
      <trkpt lat="48.83846" lon="2.33649">
        <ele>59.599998474121</ele>
        <time>2015-08-31T18:36:12Z</time>
      </trkpt>
      <trkpt lat="48.83867" lon="2.33663">
        <ele>58.79999923706</ele>
        <time>2015-08-31T18:36:15Z</time>
      </trkpt>
      <trkpt lat="48.83889" lon="2.33673">
        <ele>58.400001525879</ele>
        <time>2015-08-31T18:36:18Z</time>
      </trkpt>
      <trkpt lat="48.83903" lon="2.33675">
        <ele>58</ele>
        <time>2015-08-31T18:36:20Z</time>
      </trkpt>
      <trkpt lat="48.83923" lon="2.33675">
        <ele>58</ele>
        <time>2015-08-31T18:36:23Z</time>
      </trkpt>
      <trkpt lat="48.83945" lon="2.33676">
        <ele>57.599998474121</ele>
        <time>2015-08-31T18:36:27Z</time>
      </trkpt>
      <trkpt lat="48.83953" lon="2.3368">
        <ele>59.20000076294</ele>
        <time>2015-08-31T18:36:31Z</time>
      </trkpt>
      <trkpt lat="48.83954" lon="2.33682">
        <ele>60.20000076294</ele>
        <time>2015-08-31T18:37:48Z</time>
      </trkpt>
      <trkpt lat="48.83973" lon="2.33677">
        <ele>61</ele>
        <time>2015-08-31T18:37:56Z</time>
      </trkpt>
      <trkpt lat="48.83992" lon="2.33679">
        <ele>62.20000076294</ele>
        <time>2015-08-31T18:38:03Z</time>
      </trkpt>
      <trkpt lat="48.8401" lon="2.33685">
        <ele>63.79999923706</ele>
        <time>2015-08-31T18:38:08Z</time>
      </trkpt>
      <trkpt lat="48.8403" lon="2.33694">
        <ele>66</ele>
        <time>2015-08-31T18:38:13Z</time>
      </trkpt>
      <trkpt lat="48.8405" lon="2.33705">
        <ele>67.199996948242</ele>
        <time>2015-08-31T18:38:18Z</time>
      </trkpt>
      <trkpt lat="48.8407" lon="2.33716">
        <ele>69.599998474121</ele>
        <time>2015-08-31T18:38:23Z</time>
      </trkpt>
      <trkpt lat="48.84089" lon="2.33724">
        <ele>72.199996948242</ele>
        <time>2015-08-31T18:38:27Z</time>
      </trkpt>
      <trkpt lat="48.84106" lon="2.33734">
        <ele>72.599998474121</ele>
        <time>2015-08-31T18:38:30Z</time>
      </trkpt>
      <trkpt lat="48.84127" lon="2.33743">
        <ele>73</ele>
        <time>2015-08-31T18:38:33Z</time>
      </trkpt>
      <trkpt lat="48.84148" lon="2.33755">
        <ele>73.400001525879</ele>
        <time>2015-08-31T18:38:36Z</time>
      </trkpt>
      <trkpt lat="48.84167" lon="2.33766">
        <ele>74.199996948242</ele>
        <time>2015-08-31T18:38:39Z</time>
      </trkpt>
      <trkpt lat="48.84188" lon="2.33779">
        <ele>74.599998474121</ele>
        <time>2015-08-31T18:38:42Z</time>
      </trkpt>
      <trkpt lat="48.84209" lon="2.33794">
        <ele>75.400001525879</ele>
        <time>2015-08-31T18:38:45Z</time>
      </trkpt>
      <trkpt lat="48.84231" lon="2.33806">
        <ele>76.199996948242</ele>
        <time>2015-08-31T18:38:48Z</time>
      </trkpt>
      <trkpt lat="48.84254" lon="2.33817">
        <ele>77</ele>
        <time>2015-08-31T18:38:51Z</time>
      </trkpt>
      <trkpt lat="48.84275" lon="2.33828">
        <ele>77.599998474121</ele>
        <time>2015-08-31T18:38:54Z</time>
      </trkpt>
      <trkpt lat="48.84296" lon="2.3384">
        <ele>78.800003051758</ele>
        <time>2015-08-31T18:38:57Z</time>
      </trkpt>
      <trkpt lat="48.84316" lon="2.33848">
        <ele>80</ele>
        <time>2015-08-31T18:39:00Z</time>
      </trkpt>
      <trkpt lat="48.84334" lon="2.33853">
        <ele>82</ele>
        <time>2015-08-31T18:39:03Z</time>
      </trkpt>
      <trkpt lat="48.84353" lon="2.33859">
        <ele>83.800003051758</ele>
        <time>2015-08-31T18:39:06Z</time>
      </trkpt>
      <trkpt lat="48.84371" lon="2.33868">
        <ele>86</ele>
        <time>2015-08-31T18:39:09Z</time>
      </trkpt>
      <trkpt lat="48.84377" lon="2.33871">
        <ele>86.599998474121</ele>
        <time>2015-08-31T18:39:10Z</time>
      </trkpt>
      <trkpt lat="48.84396" lon="2.33881">
        <ele>89</ele>
        <time>2015-08-31T18:39:13Z</time>
      </trkpt>
      <trkpt lat="48.84418" lon="2.33892">
        <ele>90.199996948242</ele>
        <time>2015-08-31T18:39:16Z</time>
      </trkpt>
      <trkpt lat="48.8444" lon="2.33905">
        <ele>90.599998474121</ele>
        <time>2015-08-31T18:39:19Z</time>
      </trkpt>
      <trkpt lat="48.84462" lon="2.33918">
        <ele>91.199996948242</ele>
        <time>2015-08-31T18:39:22Z</time>
      </trkpt>
      <trkpt lat="48.84485" lon="2.3393">
        <ele>92.400001525879</ele>
        <time>2015-08-31T18:39:25Z</time>
      </trkpt>
      <trkpt lat="48.84508" lon="2.33941">
        <ele>93.400001525879</ele>
        <time>2015-08-31T18:39:28Z</time>
      </trkpt>
      <trkpt lat="48.84531" lon="2.33951">
        <ele>94.400001525879</ele>
        <time>2015-08-31T18:39:31Z</time>
      </trkpt>
      <trkpt lat="48.84552" lon="2.33961">
        <ele>95.800003051758</ele>
        <time>2015-08-31T18:39:34Z</time>
      </trkpt>
      <trkpt lat="48.84571" lon="2.33973">
        <ele>96.599998474121</ele>
        <time>2015-08-31T18:39:37Z</time>
      </trkpt>
      <trkpt lat="48.84592" lon="2.33985">
        <ele>96.599998474121</ele>
        <time>2015-08-31T18:39:41Z</time>
      </trkpt>
      <trkpt lat="48.8461" lon="2.33993">
        <ele>96.599998474121</ele>
        <time>2015-08-31T18:39:45Z</time>
      </trkpt>
      <trkpt lat="48.84618" lon="2.33997">
        <ele>97.199996948242</ele>
        <time>2015-08-31T18:39:47Z</time>
      </trkpt>
      <trkpt lat="48.84638" lon="2.34006">
        <ele>98.199996948242</ele>
        <time>2015-08-31T18:39:52Z</time>
      </trkpt>
      <trkpt lat="48.84653" lon="2.34014">
        <ele>99.400001525879</ele>
        <time>2015-08-31T18:39:56Z</time>
      </trkpt>
      <trkpt lat="48.84663" lon="2.34027">
        <ele>99.400001525879</ele>
        <time>2015-08-31T18:39:59Z</time>
      </trkpt>
      <trkpt lat="48.84672" lon="2.34038">
        <ele>98.599998474121</ele>
        <time>2015-08-31T18:40:03Z</time>
      </trkpt>
      <trkpt lat="48.84678" lon="2.34043">
        <ele>99.199996948242</ele>
        <time>2015-08-31T18:40:06Z</time>
      </trkpt>
      <trkpt lat="48.84688" lon="2.34045">
        <ele>103.40000152588</ele>
        <time>2015-08-31T18:40:11Z</time>
      </trkpt>
      <trkpt lat="48.8469" lon="2.34045">
        <ele>105.19999694824</ele>
        <time>2015-08-31T18:40:12Z</time>
      </trkpt>
      <trkpt lat="48.84705" lon="2.34049">
        <ele>98</ele>
        <time>2015-08-31T18:40:16Z</time>
      </trkpt>
      <trkpt lat="48.84722" lon="2.34062">
        <ele>93.199996948242</ele>
        <time>2015-08-31T18:40:22Z</time>
      </trkpt>
      <trkpt lat="48.84722" lon="2.34071">
        <ele>93.400001525879</ele>
        <time>2015-08-31T18:40:25Z</time>
      </trkpt>
      <trkpt lat="48.84723" lon="2.34077">
        <ele>91.400001525879</ele>
        <time>2015-08-31T18:40:29Z</time>
      </trkpt>
      <trkpt lat="48.84723" lon="2.34079">
        <ele>90.599998474121</ele>
        <time>2015-08-31T18:40:32Z</time>
      </trkpt>
      <trkpt lat="48.84724" lon="2.34095">
        <ele>75.400001525879</ele>
        <time>2015-08-31T18:42:12Z</time>
      </trkpt>
      <trkpt lat="48.84729" lon="2.34091">
        <ele>75.199996948242</ele>
        <time>2015-08-31T18:42:17Z</time>
      </trkpt>
      <trkpt lat="48.84747" lon="2.34103">
        <ele>75.400001525879</ele>
        <time>2015-08-31T18:42:26Z</time>
      </trkpt>
      <trkpt lat="48.84752" lon="2.34105">
        <ele>75.400001525879</ele>
        <time>2015-08-31T18:42:27Z</time>
      </trkpt>
      <trkpt lat="48.84775" lon="2.34113">
        <ele>76.599998474121</ele>
        <time>2015-08-31T18:42:31Z</time>
      </trkpt>
      <trkpt lat="48.84797" lon="2.34121">
        <ele>78</ele>
        <time>2015-08-31T18:42:35Z</time>
      </trkpt>
      <trkpt lat="48.84812" lon="2.34129">
        <ele>79</ele>
        <time>2015-08-31T18:42:38Z</time>
      </trkpt>
      <trkpt lat="48.84831" lon="2.34138">
        <ele>81.199996948242</ele>
        <time>2015-08-31T18:42:42Z</time>
      </trkpt>
      <trkpt lat="48.84853" lon="2.34148">
        <ele>84</ele>
        <time>2015-08-31T18:42:46Z</time>
      </trkpt>
      <trkpt lat="48.84875" lon="2.3416">
        <ele>85.599998474121</ele>
        <time>2015-08-31T18:42:50Z</time>
      </trkpt>
      <trkpt lat="48.84885" lon="2.34167">
        <ele>86.599998474121</ele>
        <time>2015-08-31T18:42:52Z</time>
      </trkpt>
      <trkpt lat="48.84902" lon="2.34177">
        <ele>87.800003051758</ele>
        <time>2015-08-31T18:42:55Z</time>
      </trkpt>
      <trkpt lat="48.84925" lon="2.3419">
        <ele>90.199996948242</ele>
        <time>2015-08-31T18:42:59Z</time>
      </trkpt>
      <trkpt lat="48.84942" lon="2.34199">
        <ele>91.800003051758</ele>
        <time>2015-08-31T18:43:02Z</time>
      </trkpt>
      <trkpt lat="48.8496" lon="2.34209">
        <ele>92.199996948242</ele>
        <time>2015-08-31T18:43:05Z</time>
      </trkpt>
      <trkpt lat="48.84977" lon="2.34222">
        <ele>93.199996948242</ele>
        <time>2015-08-31T18:43:08Z</time>
      </trkpt>
      <trkpt lat="48.84983" lon="2.34224">
        <ele>93.599998474121</ele>
        <time>2015-08-31T18:43:09Z</time>
      </trkpt>
      <trkpt lat="48.84995" lon="2.3423">
        <ele>94.400001525879</ele>
        <time>2015-08-31T18:43:11Z</time>
      </trkpt>
      <trkpt lat="48.85018" lon="2.34241">
        <ele>94.199996948242</ele>
        <time>2015-08-31T18:43:15Z</time>
      </trkpt>
      <trkpt lat="48.85024" lon="2.34244">
        <ele>93.400001525879</ele>
        <time>2015-08-31T18:43:16Z</time>
      </trkpt>
      <trkpt lat="48.85046" lon="2.34262">
        <ele>78.400001525879</ele>
        <time>2015-08-31T18:43:18Z</time>
      </trkpt>
      <trkpt lat="48.85067" lon="2.34275">
        <ele>72.400001525879</ele>
        <time>2015-08-31T18:43:21Z</time>
      </trkpt>
      <trkpt lat="48.85088" lon="2.34287">
        <ele>69</ele>
        <time>2015-08-31T18:43:25Z</time>
      </trkpt>
      <trkpt lat="48.85108" lon="2.34297">
        <ele>65.800003051758</ele>
        <time>2015-08-31T18:43:30Z</time>
      </trkpt>
      <trkpt lat="48.85123" lon="2.34306">
        <ele>60.20000076294</ele>
        <time>2015-08-31T18:43:37Z</time>
      </trkpt>
      <trkpt lat="48.85141" lon="2.34317">
        <ele>53.79999923706</ele>
        <time>2015-08-31T18:43:52Z</time>
      </trkpt>
      <trkpt lat="48.85159" lon="2.34328">
        <ele>54</ele>
        <time>2015-08-31T18:43:58Z</time>
      </trkpt>
      <trkpt lat="48.85179" lon="2.34336">
        <ele>55.599998474121</ele>
        <time>2015-08-31T18:44:04Z</time>
      </trkpt>
      <trkpt lat="48.85198" lon="2.34344">
        <ele>58.20000076294</ele>
        <time>2015-08-31T18:44:09Z</time>
      </trkpt>
      <trkpt lat="48.85215" lon="2.34351">
        <ele>61</ele>
        <time>2015-08-31T18:44:13Z</time>
      </trkpt>
      <trkpt lat="48.85233" lon="2.34357">
        <ele>63.599998474121</ele>
        <time>2015-08-31T18:44:17Z</time>
      </trkpt>
      <trkpt lat="48.85253" lon="2.34364">
        <ele>67.199996948242</ele>
        <time>2015-08-31T18:44:22Z</time>
      </trkpt>
      <trkpt lat="48.85271" lon="2.34371">
        <ele>69.599998474121</ele>
        <time>2015-08-31T18:44:26Z</time>
      </trkpt>
      <trkpt lat="48.85292" lon="2.34377">
        <ele>73.199996948242</ele>
        <time>2015-08-31T18:44:31Z</time>
      </trkpt>
      <trkpt lat="48.85312" lon="2.34387">
        <ele>76.800003051758</ele>
        <time>2015-08-31T18:44:36Z</time>
      </trkpt>
      <trkpt lat="48.8533" lon="2.34405">
        <ele>74</ele>
        <time>2015-08-31T18:44:40Z</time>
      </trkpt>
      <trkpt lat="48.85345" lon="2.34421">
        <ele>68.400001525879</ele>
        <time>2015-08-31T18:44:43Z</time>
      </trkpt>
      <trkpt lat="48.85351" lon="2.34426">
        <ele>64.800003051758</ele>
        <time>2015-08-31T18:44:44Z</time>
      </trkpt>
      <trkpt lat="48.85364" lon="2.34442">
        <ele>47.20000076294</ele>
        <time>2015-08-31T18:45:14Z</time>
      </trkpt>
      <trkpt lat="48.85383" lon="2.34449">
        <ele>45.79999923706</ele>
        <time>2015-08-31T18:45:29Z</time>
      </trkpt>
      <trkpt lat="48.85401" lon="2.34464">
        <ele>44</ele>
        <time>2015-08-31T18:45:35Z</time>
      </trkpt>
      <trkpt lat="48.85416" lon="2.3448">
        <ele>42.79999923706</ele>
        <time>2015-08-31T18:45:40Z</time>
      </trkpt>
      <trkpt lat="48.85431" lon="2.34498">
        <ele>42.400001525879</ele>
        <time>2015-08-31T18:45:45Z</time>
      </trkpt>
      <trkpt lat="48.85448" lon="2.34514">
        <ele>41.79999923706</ele>
        <time>2015-08-31T18:45:50Z</time>
      </trkpt>
      <trkpt lat="48.85464" lon="2.34532">
        <ele>41.20000076294</ele>
        <time>2015-08-31T18:45:56Z</time>
      </trkpt>
      <trkpt lat="48.85479" lon="2.34548">
        <ele>41.400001525879</ele>
        <time>2015-08-31T18:46:02Z</time>
      </trkpt>
      <trkpt lat="48.85498" lon="2.34562">
        <ele>42.20000076294</ele>
        <time>2015-08-31T18:46:07Z</time>
      </trkpt>
      <trkpt lat="48.85513" lon="2.3458">
        <ele>41.79999923706</ele>
        <time>2015-08-31T18:46:11Z</time>
      </trkpt>
      <trkpt lat="48.85532" lon="2.34593">
        <ele>40.79999923706</ele>
        <time>2015-08-31T18:46:15Z</time>
      </trkpt>
      <trkpt lat="48.8555" lon="2.34608">
        <ele>41.20000076294</ele>
        <time>2015-08-31T18:46:20Z</time>
      </trkpt>
      <trkpt lat="48.85569" lon="2.34621">
        <ele>42</ele>
        <time>2015-08-31T18:46:26Z</time>
      </trkpt>
      <trkpt lat="48.85585" lon="2.34635">
        <ele>40</ele>
        <time>2015-08-31T18:46:30Z</time>
      </trkpt>
      <trkpt lat="48.85605" lon="2.34649">
        <ele>36.20000076294</ele>
        <time>2015-08-31T18:46:34Z</time>
      </trkpt>
      <trkpt lat="48.85607" lon="2.34653">
        <ele>36</ele>
        <time>2015-08-31T18:46:35Z</time>
      </trkpt>
      <trkpt lat="48.85623" lon="2.34671">
        <ele>33.599998474121</ele>
        <time>2015-08-31T18:46:40Z</time>
      </trkpt>
      <trkpt lat="48.85626" lon="2.34672">
        <ele>33.400001525879</ele>
        <time>2015-08-31T18:46:41Z</time>
      </trkpt>
      <trkpt lat="48.85633" lon="2.34676">
        <ele>33.79999923706</ele>
        <time>2015-08-31T18:46:43Z</time>
      </trkpt>
      <trkpt lat="48.85641" lon="2.34683">
        <ele>34.20000076294</ele>
        <time>2015-08-31T18:46:46Z</time>
      </trkpt>
      <trkpt lat="48.85656" lon="2.34692">
        <ele>36.20000076294</ele>
        <time>2015-08-31T18:46:51Z</time>
      </trkpt>
      <trkpt lat="48.85673" lon="2.34703">
        <ele>36.400001525879</ele>
        <time>2015-08-31T18:46:57Z</time>
      </trkpt>
      <trkpt lat="48.8569" lon="2.34713">
        <ele>37.400001525879</ele>
        <time>2015-08-31T18:47:03Z</time>
      </trkpt>
      <trkpt lat="48.85704" lon="2.34723">
        <ele>38.599998474121</ele>
        <time>2015-08-31T18:47:10Z</time>
      </trkpt>
      <trkpt lat="48.85712" lon="2.34736">
        <ele>42</ele>
        <time>2015-08-31T18:48:06Z</time>
      </trkpt>
      <trkpt lat="48.85727" lon="2.34756">
        <ele>42.400001525879</ele>
        <time>2015-08-31T18:48:13Z</time>
      </trkpt>
      <trkpt lat="48.85746" lon="2.34768">
        <ele>42.599998474121</ele>
        <time>2015-08-31T18:48:18Z</time>
      </trkpt>
      <trkpt lat="48.85766" lon="2.34781">
        <ele>41.599998474121</ele>
        <time>2015-08-31T18:48:22Z</time>
      </trkpt>
      <trkpt lat="48.85785" lon="2.3479">
        <ele>41.599998474121</ele>
        <time>2015-08-31T18:48:26Z</time>
      </trkpt>
      <trkpt lat="48.85804" lon="2.34804">
        <ele>39.400001525879</ele>
        <time>2015-08-31T18:48:31Z</time>
      </trkpt>
      <trkpt lat="48.85823" lon="2.34814">
        <ele>38.599998474121</ele>
        <time>2015-08-31T18:48:35Z</time>
      </trkpt>
      <trkpt lat="48.85835" lon="2.34822">
        <ele>38.599998474121</ele>
        <time>2015-08-31T18:48:38Z</time>
      </trkpt>
      <trkpt lat="48.85844" lon="2.34832">
        <ele>39.599998474121</ele>
        <time>2015-08-31T18:48:41Z</time>
      </trkpt>
      <trkpt lat="48.85849" lon="2.34828">
        <ele>43</ele>
        <time>2015-08-31T18:48:53Z</time>
      </trkpt>
      <trkpt lat="48.85867" lon="2.34838">
        <ele>44.20000076294</ele>
        <time>2015-08-31T18:48:58Z</time>
      </trkpt>
      <trkpt lat="48.85878" lon="2.34844">
        <ele>45.20000076294</ele>
        <time>2015-08-31T18:49:01Z</time>
      </trkpt>
      <trkpt lat="48.85895" lon="2.34857">
        <ele>46.599998474121</ele>
        <time>2015-08-31T18:49:06Z</time>
      </trkpt>
      <trkpt lat="48.85915" lon="2.34865">
        <ele>49.20000076294</ele>
        <time>2015-08-31T18:49:12Z</time>
      </trkpt>
      <trkpt lat="48.85934" lon="2.34874">
        <ele>54</ele>
        <time>2015-08-31T18:49:18Z</time>
      </trkpt>
      <trkpt lat="48.85955" lon="2.34883">
        <ele>58.79999923706</ele>
        <time>2015-08-31T18:49:25Z</time>
      </trkpt>
      <trkpt lat="48.85974" lon="2.3489">
        <ele>64</ele>
        <time>2015-08-31T18:49:30Z</time>
      </trkpt>
      <trkpt lat="48.85995" lon="2.349">
        <ele>67.199996948242</ele>
        <time>2015-08-31T18:49:35Z</time>
      </trkpt>
      <trkpt lat="48.86013" lon="2.34909">
        <ele>71.199996948242</ele>
        <time>2015-08-31T18:49:40Z</time>
      </trkpt>
      <trkpt lat="48.86032" lon="2.34918">
        <ele>74.599998474121</ele>
        <time>2015-08-31T18:49:45Z</time>
      </trkpt>
      <trkpt lat="48.8605" lon="2.34926">
        <ele>78</ele>
        <time>2015-08-31T18:49:49Z</time>
      </trkpt>
      <trkpt lat="48.86069" lon="2.34936">
        <ele>81</ele>
        <time>2015-08-31T18:49:53Z</time>
      </trkpt>
      <trkpt lat="48.86078" lon="2.34939">
        <ele>82.599998474121</ele>
        <time>2015-08-31T18:49:55Z</time>
      </trkpt>
      <trkpt lat="48.86098" lon="2.34949">
        <ele>86.800003051758</ele>
        <time>2015-08-31T18:50:00Z</time>
      </trkpt>
      <trkpt lat="48.86115" lon="2.34959">
        <ele>90.599998474121</ele>
        <time>2015-08-31T18:50:04Z</time>
      </trkpt>
      <trkpt lat="48.86133" lon="2.3497">
        <ele>94</ele>
        <time>2015-08-31T18:50:08Z</time>
      </trkpt>
      <trkpt lat="48.86138" lon="2.34972">
        <ele>94.800003051758</ele>
        <time>2015-08-31T18:50:09Z</time>
      </trkpt>
      <trkpt lat="48.86153" lon="2.3498">
        <ele>97</ele>
        <time>2015-08-31T18:50:12Z</time>
      </trkpt>
      <trkpt lat="48.86175" lon="2.34993">
        <ele>96.599998474121</ele>
        <time>2015-08-31T18:50:16Z</time>
      </trkpt>
      <trkpt lat="48.86196" lon="2.35006">
        <ele>95.400001525879</ele>
        <time>2015-08-31T18:50:20Z</time>
      </trkpt>
      <trkpt lat="48.862" lon="2.35009">
        <ele>95.400001525879</ele>
        <time>2015-08-31T18:50:21Z</time>
      </trkpt>
      <trkpt lat="48.86213" lon="2.35018">
        <ele>96</ele>
        <time>2015-08-31T18:50:24Z</time>
      </trkpt>
      <trkpt lat="48.86233" lon="2.3503">
        <ele>95.800003051758</ele>
        <time>2015-08-31T18:50:28Z</time>
      </trkpt>
      <trkpt lat="48.86251" lon="2.35038">
        <ele>98</ele>
        <time>2015-08-31T18:50:32Z</time>
      </trkpt>
      <trkpt lat="48.86269" lon="2.35049">
        <ele>100.40000152588</ele>
        <time>2015-08-31T18:50:36Z</time>
      </trkpt>
      <trkpt lat="48.86278" lon="2.35055">
        <ele>101.40000152588</ele>
        <time>2015-08-31T18:50:38Z</time>
      </trkpt>
      <trkpt lat="48.86288" lon="2.35061">
        <ele>102.19999694824</ele>
        <time>2015-08-31T18:50:40Z</time>
      </trkpt>
      <trkpt lat="48.86317" lon="2.35075">
        <ele>95.400001525879</ele>
        <time>2015-08-31T18:50:45Z</time>
      </trkpt>
      <trkpt lat="48.86322" lon="2.35078">
        <ele>94.599998474121</ele>
        <time>2015-08-31T18:50:47Z</time>
      </trkpt>
      <trkpt lat="48.86341" lon="2.35093">
        <ele>94.800003051758</ele>
        <time>2015-08-31T18:50:51Z</time>
      </trkpt>
      <trkpt lat="48.86348" lon="2.35098">
        <ele>95.400001525879</ele>
        <time>2015-08-31T18:50:53Z</time>
      </trkpt>
      <trkpt lat="48.86364" lon="2.35107">
        <ele>96.800003051758</ele>
        <time>2015-08-31T18:50:57Z</time>
      </trkpt>
      <trkpt lat="48.86371" lon="2.3511">
        <ele>97.800003051758</ele>
        <time>2015-08-31T18:50:59Z</time>
      </trkpt>
      <trkpt lat="48.86388" lon="2.35121">
        <ele>100.59999847412</ele>
        <time>2015-08-31T18:51:04Z</time>
      </trkpt>
      <trkpt lat="48.86396" lon="2.35124">
        <ele>101</ele>
        <time>2015-08-31T18:51:06Z</time>
      </trkpt>
      <trkpt lat="48.86412" lon="2.35131">
        <ele>101.80000305176</ele>
        <time>2015-08-31T18:51:11Z</time>
      </trkpt>
      <trkpt lat="48.86424" lon="2.35139">
        <ele>93.599998474121</ele>
        <time>2015-08-31T18:51:13Z</time>
      </trkpt>
      <trkpt lat="48.86436" lon="2.35145">
        <ele>91</ele>
        <time>2015-08-31T18:51:16Z</time>
      </trkpt>
      <trkpt lat="48.86453" lon="2.35153">
        <ele>88</ele>
        <time>2015-08-31T18:51:21Z</time>
      </trkpt>
      <trkpt lat="48.86471" lon="2.35162">
        <ele>87.800003051758</ele>
        <time>2015-08-31T18:51:26Z</time>
      </trkpt>
      <trkpt lat="48.86489" lon="2.35169">
        <ele>88.599998474121</ele>
        <time>2015-08-31T18:51:31Z</time>
      </trkpt>
      <trkpt lat="48.86509" lon="2.35179">
        <ele>88.800003051758</ele>
        <time>2015-08-31T18:51:37Z</time>
      </trkpt>
      <trkpt lat="48.86528" lon="2.35191">
        <ele>85.199996948242</ele>
        <time>2015-08-31T18:51:42Z</time>
      </trkpt>
      <trkpt lat="48.8654" lon="2.35201">
        <ele>83.400001525879</ele>
        <time>2015-08-31T18:51:46Z</time>
      </trkpt>
      <trkpt lat="48.86543" lon="2.35204">
        <ele>82.800003051758</ele>
        <time>2015-08-31T18:51:47Z</time>
      </trkpt>
      <trkpt lat="48.86561" lon="2.35214">
        <ele>80.599998474121</ele>
        <time>2015-08-31T18:51:52Z</time>
      </trkpt>
      <trkpt lat="48.86579" lon="2.35224">
        <ele>78.800003051758</ele>
        <time>2015-08-31T18:51:58Z</time>
      </trkpt>
      <trkpt lat="48.866" lon="2.35234">
        <ele>75.400001525879</ele>
        <time>2015-08-31T18:52:05Z</time>
      </trkpt>
      <trkpt lat="48.86618" lon="2.35245">
        <ele>76.199996948242</ele>
        <time>2015-08-31T18:52:11Z</time>
      </trkpt>
      <trkpt lat="48.86638" lon="2.35256">
        <ele>79</ele>
        <time>2015-08-31T18:52:16Z</time>
      </trkpt>
      <trkpt lat="48.86659" lon="2.35267">
        <ele>81</ele>
        <time>2015-08-31T18:52:21Z</time>
      </trkpt>
      <trkpt lat="48.86676" lon="2.35277">
        <ele>82.400001525879</ele>
        <time>2015-08-31T18:52:25Z</time>
      </trkpt>
      <trkpt lat="48.86696" lon="2.35291">
        <ele>79.400001525879</ele>
        <time>2015-08-31T18:52:29Z</time>
      </trkpt>
      <trkpt lat="48.86716" lon="2.35303">
        <ele>79.199996948242</ele>
        <time>2015-08-31T18:52:33Z</time>
      </trkpt>
      <trkpt lat="48.86733" lon="2.35315">
        <ele>79</ele>
        <time>2015-08-31T18:52:37Z</time>
      </trkpt>
      <trkpt lat="48.86748" lon="2.35323">
        <ele>79.599998474121</ele>
        <time>2015-08-31T18:52:41Z</time>
      </trkpt>
      <trkpt lat="48.86763" lon="2.35331">
        <ele>79</ele>
        <time>2015-08-31T18:52:45Z</time>
      </trkpt>
      <trkpt lat="48.86782" lon="2.35339">
        <ele>79.599998474121</ele>
        <time>2015-08-31T18:52:50Z</time>
      </trkpt>
      <trkpt lat="48.86795" lon="2.35344">
        <ele>80</ele>
        <time>2015-08-31T18:52:54Z</time>
      </trkpt>
      <trkpt lat="48.86813" lon="2.35352">
        <ele>80</ele>
        <time>2015-08-31T18:53:00Z</time>
      </trkpt>
      <trkpt lat="48.86816" lon="2.35354">
        <ele>80</ele>
        <time>2015-08-31T18:53:01Z</time>
      </trkpt>
      <trkpt lat="48.86826" lon="2.35358">
        <ele>78.800003051758</ele>
        <time>2015-08-31T18:53:04Z</time>
      </trkpt>
      <trkpt lat="48.86844" lon="2.35368">
        <ele>76.599998474121</ele>
        <time>2015-08-31T18:53:10Z</time>
      </trkpt>
      <trkpt lat="48.8685" lon="2.35378">
        <ele>73.800003051758</ele>
        <time>2015-08-31T18:53:16Z</time>
      </trkpt>
      <trkpt lat="48.86858" lon="2.35355">
        <ele>70.800003051758</ele>
        <time>2015-08-31T18:53:24Z</time>
      </trkpt>
      <trkpt lat="48.86866" lon="2.35324">
        <ele>67.800003051758</ele>
        <time>2015-08-31T18:53:30Z</time>
      </trkpt>
      <trkpt lat="48.86868" lon="2.35296">
        <ele>64</ele>
        <time>2015-08-31T18:53:36Z</time>
      </trkpt>
      <trkpt lat="48.86876" lon="2.35267">
        <ele>59</ele>
        <time>2015-08-31T18:53:44Z</time>
      </trkpt>
      <trkpt lat="48.8688" lon="2.3524">
        <ele>55.20000076294</ele>
        <time>2015-08-31T18:53:50Z</time>
      </trkpt>
      <trkpt lat="48.86885" lon="2.3521">
        <ele>52</ele>
        <time>2015-08-31T18:53:56Z</time>
      </trkpt>
      <trkpt lat="48.86888" lon="2.35187">
        <ele>49</ele>
        <time>2015-08-31T18:54:03Z</time>
      </trkpt>
      <trkpt lat="48.86896" lon="2.35183">
        <ele>47.20000076294</ele>
        <time>2015-08-31T18:54:07Z</time>
      </trkpt>
      <trkpt lat="48.86914" lon="2.35175">
        <ele>44.599998474121</ele>
        <time>2015-08-31T18:54:14Z</time>
      </trkpt>
      <trkpt lat="48.86931" lon="2.35162">
        <ele>44.599998474121</ele>
        <time>2015-08-31T18:54:20Z</time>
      </trkpt>
      <trkpt lat="48.86947" lon="2.35149">
        <ele>45.20000076294</ele>
        <time>2015-08-31T18:54:27Z</time>
      </trkpt>
      <trkpt lat="48.86958" lon="2.35125">
        <ele>45</ele>
        <time>2015-08-31T18:54:35Z</time>
      </trkpt>
      <trkpt lat="48.86958" lon="2.35097">
        <ele>44.79999923706</ele>
        <time>2015-08-31T18:54:41Z</time>
      </trkpt>
      <trkpt lat="48.86948" lon="2.3507">
        <ele>45.400001525879</ele>
        <time>2015-08-31T18:54:48Z</time>
      </trkpt>
      <trkpt lat="48.86944" lon="2.35037">
        <ele>43</ele>
        <time>2015-08-31T18:54:54Z</time>
      </trkpt>
      <trkpt lat="48.86941" lon="2.35007">
        <ele>42</ele>
        <time>2015-08-31T18:55:01Z</time>
      </trkpt>
      <trkpt lat="48.8694" lon="2.34977">
        <ele>41.20000076294</ele>
        <time>2015-08-31T18:55:08Z</time>
      </trkpt>
      <trkpt lat="48.86944" lon="2.34969">
        <ele>40.599998474121</ele>
        <time>2015-08-31T18:55:11Z</time>
      </trkpt>
      <trkpt lat="48.86949" lon="2.34971">
        <ele>40.599998474121</ele>
        <time>2015-08-31T18:55:15Z</time>
      </trkpt>
      <trkpt lat="48.86964" lon="2.34984">
        <ele>42.400001525879</ele>
        <time>2015-08-31T18:55:23Z</time>
      </trkpt>
      <trkpt lat="48.86971" lon="2.34982">
        <ele>43.599998474121</ele>
        <time>2015-08-31T18:55:26Z</time>
      </trkpt>
      <trkpt lat="48.86977" lon="2.34991">
        <ele>50.20000076294</ele>
        <time>2015-08-31T18:55:38Z</time>
      </trkpt>
    </trkseg>
  </trk>
</gpx>